<?xml version="1.0" encoding="UTF-8" standalone="no" ?>
<gpx xmlns="http://www.topografix.com/GPX/1/1" xmlns:xsi="http://www.w3.org/2001/XMLSchema-instance" xsi:schemaLocation="http://www.topografix.com/GPX/1/1 http://www.topografix.com/GPX/1/1/gpx.xsd" version="1.1" creator="VisuGPX - https://www.visugpx.com">
  <metadata>
    <name>Rando VTT Colomiers 2024</name>
  </metadata>
  <trk>
    <name><![CDATA[Rando VTT Colomiers 2024_1]]></name>
    <trkseg>
      <trkpt lat="46.77193" lon="0.42539">
        <ele>102.4</ele>
        <time>2024-10-13T06:14:29Z</time>
      </trkpt>
      <trkpt lat="46.77195" lon="0.4253">
        <ele>102.4</ele>
        <time>2024-10-13T06:14:36Z</time>
      </trkpt>
      <trkpt lat="46.77205" lon="0.42515">
        <ele>102.4</ele>
        <time>2024-10-13T06:14:40Z</time>
      </trkpt>
      <trkpt lat="46.77217" lon="0.42505">
        <ele>101.2</ele>
        <time>2024-10-13T06:14:44Z</time>
      </trkpt>
      <trkpt lat="46.77219" lon="0.42504">
        <ele>101.2</ele>
        <time>2024-10-13T06:14:45Z</time>
      </trkpt>
      <trkpt lat="46.77224" lon="0.42504">
        <ele>100.2</ele>
        <time>2024-10-13T06:14:48Z</time>
      </trkpt>
      <trkpt lat="46.77229" lon="0.425">
        <ele>99.2</ele>
        <time>2024-10-13T06:14:51Z</time>
      </trkpt>
      <trkpt lat="46.77229" lon="0.42497">
        <ele>99</ele>
        <time>2024-10-13T06:14:52Z</time>
      </trkpt>
      <trkpt lat="46.77226" lon="0.42475">
        <ele>98.6</ele>
        <time>2024-10-13T06:14:57Z</time>
      </trkpt>
      <trkpt lat="46.77222" lon="0.42443">
        <ele>98</ele>
        <time>2024-10-13T06:15:02Z</time>
      </trkpt>
      <trkpt lat="46.7722" lon="0.42429">
        <ele>97.8</ele>
        <time>2024-10-13T06:15:04Z</time>
      </trkpt>
      <trkpt lat="46.77213" lon="0.42383">
        <ele>97</ele>
        <time>2024-10-13T06:15:10Z</time>
      </trkpt>
      <trkpt lat="46.77212" lon="0.42375">
        <ele>96.8</ele>
        <time>2024-10-13T06:15:11Z</time>
      </trkpt>
      <trkpt lat="46.77201" lon="0.42304">
        <ele>96.2</ele>
        <time>2024-10-13T06:15:20Z</time>
      </trkpt>
      <trkpt lat="46.77186" lon="0.42244">
        <ele>96.6</ele>
        <time>2024-10-13T06:15:28Z</time>
      </trkpt>
      <trkpt lat="46.77181" lon="0.42236">
        <ele>96.8</ele>
        <time>2024-10-13T06:15:30Z</time>
      </trkpt>
      <trkpt lat="46.77178" lon="0.42235">
        <ele>96.8</ele>
        <time>2024-10-13T06:15:31Z</time>
      </trkpt>
      <trkpt lat="46.77174" lon="0.42237">
        <ele>96.8</ele>
        <time>2024-10-13T06:15:32Z</time>
      </trkpt>
      <trkpt lat="46.77164" lon="0.42243">
        <ele>97.2</ele>
        <time>2024-10-13T06:15:35Z</time>
      </trkpt>
      <trkpt lat="46.77145" lon="0.42254">
        <ele>98</ele>
        <time>2024-10-13T06:15:41Z</time>
      </trkpt>
      <trkpt lat="46.77142" lon="0.42256">
        <ele>98.2</ele>
        <time>2024-10-13T06:15:42Z</time>
      </trkpt>
      <trkpt lat="46.77129" lon="0.42262">
        <ele>99.2</ele>
        <time>2024-10-13T06:15:46Z</time>
      </trkpt>
      <trkpt lat="46.77119" lon="0.42267">
        <ele>100</ele>
        <time>2024-10-13T06:15:49Z</time>
      </trkpt>
      <trkpt lat="46.77112" lon="0.42271">
        <ele>100.6</ele>
        <time>2024-10-13T06:15:51Z</time>
      </trkpt>
      <trkpt lat="46.77092" lon="0.42284">
        <ele>101.8</ele>
        <time>2024-10-13T06:15:57Z</time>
      </trkpt>
      <trkpt lat="46.77086" lon="0.42288">
        <ele>102.6</ele>
        <time>2024-10-13T06:15:59Z</time>
      </trkpt>
      <trkpt lat="46.77083" lon="0.4229">
        <ele>102.8</ele>
        <time>2024-10-13T06:16:00Z</time>
      </trkpt>
      <trkpt lat="46.77071" lon="0.42297">
        <ele>103.8</ele>
        <time>2024-10-13T06:16:04Z</time>
      </trkpt>
      <trkpt lat="46.77064" lon="0.42303">
        <ele>104.8</ele>
        <time>2024-10-13T06:16:07Z</time>
      </trkpt>
      <trkpt lat="46.77062" lon="0.42305">
        <ele>105.2</ele>
        <time>2024-10-13T06:16:08Z</time>
      </trkpt>
      <trkpt lat="46.77056" lon="0.42309">
        <ele>106.2</ele>
        <time>2024-10-13T06:16:11Z</time>
      </trkpt>
      <trkpt lat="46.7705" lon="0.42312">
        <ele>107.4</ele>
        <time>2024-10-13T06:16:14Z</time>
      </trkpt>
      <trkpt lat="46.77043" lon="0.42316">
        <ele>108.6</ele>
        <time>2024-10-13T06:16:17Z</time>
      </trkpt>
      <trkpt lat="46.77035" lon="0.42321">
        <ele>110</ele>
        <time>2024-10-13T06:16:21Z</time>
      </trkpt>
      <trkpt lat="46.77033" lon="0.42322">
        <ele>110.2</ele>
        <time>2024-10-13T06:16:22Z</time>
      </trkpt>
      <trkpt lat="46.77029" lon="0.42327">
        <ele>111.2</ele>
        <time>2024-10-13T06:16:25Z</time>
      </trkpt>
      <trkpt lat="46.77026" lon="0.42332">
        <ele>112.2</ele>
        <time>2024-10-13T06:16:27Z</time>
      </trkpt>
      <trkpt lat="46.77025" lon="0.42337">
        <ele>112.8</ele>
        <time>2024-10-13T06:16:29Z</time>
      </trkpt>
      <trkpt lat="46.77025" lon="0.42339">
        <ele>113</ele>
        <time>2024-10-13T06:16:30Z</time>
      </trkpt>
      <trkpt lat="46.77025" lon="0.42342">
        <ele>113.2</ele>
        <time>2024-10-13T06:16:31Z</time>
      </trkpt>
      <trkpt lat="46.77025" lon="0.42351">
        <ele>114.6</ele>
        <time>2024-10-13T06:16:35Z</time>
      </trkpt>
      <trkpt lat="46.77025" lon="0.4236">
        <ele>115.8</ele>
        <time>2024-10-13T06:16:39Z</time>
      </trkpt>
      <trkpt lat="46.77026" lon="0.42362">
        <ele>116</ele>
        <time>2024-10-13T06:16:40Z</time>
      </trkpt>
      <trkpt lat="46.77026" lon="0.42369">
        <ele>117</ele>
        <time>2024-10-13T06:16:43Z</time>
      </trkpt>
      <trkpt lat="46.77024" lon="0.42377">
        <ele>118.2</ele>
        <time>2024-10-13T06:16:47Z</time>
      </trkpt>
      <trkpt lat="46.77024" lon="0.42379">
        <ele>118.4</ele>
        <time>2024-10-13T06:16:48Z</time>
      </trkpt>
      <trkpt lat="46.77019" lon="0.42385">
        <ele>119.2</ele>
        <time>2024-10-13T06:16:52Z</time>
      </trkpt>
      <trkpt lat="46.77016" lon="0.42389">
        <ele>119.4</ele>
        <time>2024-10-13T06:16:55Z</time>
      </trkpt>
      <trkpt lat="46.77014" lon="0.42393">
        <ele>120.2</ele>
        <time>2024-10-13T06:16:58Z</time>
      </trkpt>
      <trkpt lat="46.77007" lon="0.42401">
        <ele>121.4</ele>
        <time>2024-10-13T06:17:04Z</time>
      </trkpt>
      <trkpt lat="46.77002" lon="0.42405">
        <ele>122.6</ele>
        <time>2024-10-13T06:17:08Z</time>
      </trkpt>
      <trkpt lat="46.76999" lon="0.42405">
        <ele>123</ele>
        <time>2024-10-13T06:17:10Z</time>
      </trkpt>
      <trkpt lat="46.76998" lon="0.42403">
        <ele>123.2</ele>
        <time>2024-10-13T06:17:11Z</time>
      </trkpt>
      <trkpt lat="46.76997" lon="0.42401">
        <ele>123.6</ele>
        <time>2024-10-13T06:17:12Z</time>
      </trkpt>
      <trkpt lat="46.7699" lon="0.42384">
        <ele>124.2</ele>
        <time>2024-10-13T06:17:17Z</time>
      </trkpt>
      <trkpt lat="46.76983" lon="0.4236">
        <ele>124.4</ele>
        <time>2024-10-13T06:17:23Z</time>
      </trkpt>
      <trkpt lat="46.7697" lon="0.42325">
        <ele>124.2</ele>
        <time>2024-10-13T06:17:30Z</time>
      </trkpt>
      <trkpt lat="46.76957" lon="0.42295">
        <ele>124.2</ele>
        <time>2024-10-13T06:17:36Z</time>
      </trkpt>
      <trkpt lat="46.76956" lon="0.42289">
        <ele>124.4</ele>
        <time>2024-10-13T06:17:37Z</time>
      </trkpt>
      <trkpt lat="46.76953" lon="0.42272">
        <ele>124.8</ele>
        <time>2024-10-13T06:17:40Z</time>
      </trkpt>
      <trkpt lat="46.76948" lon="0.42249">
        <ele>124.8</ele>
        <time>2024-10-13T06:17:44Z</time>
      </trkpt>
      <trkpt lat="46.7693" lon="0.42195">
        <ele>124</ele>
        <time>2024-10-13T06:17:52Z</time>
      </trkpt>
      <trkpt lat="46.76902" lon="0.42139">
        <ele>123.8</ele>
        <time>2024-10-13T06:18:01Z</time>
      </trkpt>
      <trkpt lat="46.76899" lon="0.42133">
        <ele>123.6</ele>
        <time>2024-10-13T06:18:02Z</time>
      </trkpt>
      <trkpt lat="46.76893" lon="0.4212">
        <ele>123.6</ele>
        <time>2024-10-13T06:18:04Z</time>
      </trkpt>
      <trkpt lat="46.76889" lon="0.42105">
        <ele>123.2</ele>
        <time>2024-10-13T06:18:06Z</time>
      </trkpt>
      <trkpt lat="46.76886" lon="0.42087">
        <ele>122.6</ele>
        <time>2024-10-13T06:18:08Z</time>
      </trkpt>
      <trkpt lat="46.76883" lon="0.42067">
        <ele>121.2</ele>
        <time>2024-10-13T06:18:10Z</time>
      </trkpt>
      <trkpt lat="46.76879" lon="0.42048">
        <ele>120.4</ele>
        <time>2024-10-13T06:18:12Z</time>
      </trkpt>
      <trkpt lat="46.76876" lon="0.4204">
        <ele>120</ele>
        <time>2024-10-13T06:18:13Z</time>
      </trkpt>
      <trkpt lat="46.76872" lon="0.42032">
        <ele>119.6</ele>
        <time>2024-10-13T06:18:14Z</time>
      </trkpt>
      <trkpt lat="46.76867" lon="0.42025">
        <ele>119</ele>
        <time>2024-10-13T06:18:15Z</time>
      </trkpt>
      <trkpt lat="46.76862" lon="0.42018">
        <ele>118.8</ele>
        <time>2024-10-13T06:18:16Z</time>
      </trkpt>
      <trkpt lat="46.76847" lon="0.41996">
        <ele>118</ele>
        <time>2024-10-13T06:18:19Z</time>
      </trkpt>
      <trkpt lat="46.7683" lon="0.41972">
        <ele>117.4</ele>
        <time>2024-10-13T06:18:23Z</time>
      </trkpt>
      <trkpt lat="46.76823" lon="0.41963">
        <ele>117.8</ele>
        <time>2024-10-13T06:18:25Z</time>
      </trkpt>
      <trkpt lat="46.76814" lon="0.41961">
        <ele>118.4</ele>
        <time>2024-10-13T06:18:27Z</time>
      </trkpt>
      <trkpt lat="46.76805" lon="0.41966">
        <ele>118.6</ele>
        <time>2024-10-13T06:18:29Z</time>
      </trkpt>
      <trkpt lat="46.76799" lon="0.41972">
        <ele>119</ele>
        <time>2024-10-13T06:18:31Z</time>
      </trkpt>
      <trkpt lat="46.76795" lon="0.41973">
        <ele>119.2</ele>
        <time>2024-10-13T06:18:32Z</time>
      </trkpt>
      <trkpt lat="46.7679" lon="0.4197">
        <ele>119.4</ele>
        <time>2024-10-13T06:18:34Z</time>
      </trkpt>
      <trkpt lat="46.7678" lon="0.41952">
        <ele>119.4</ele>
        <time>2024-10-13T06:18:38Z</time>
      </trkpt>
      <trkpt lat="46.76759" lon="0.41915">
        <ele>120</ele>
        <time>2024-10-13T06:18:45Z</time>
      </trkpt>
      <trkpt lat="46.76731" lon="0.41871">
        <ele>118.4</ele>
        <time>2024-10-13T06:18:52Z</time>
      </trkpt>
      <trkpt lat="46.76727" lon="0.41863">
        <ele>118.2</ele>
        <time>2024-10-13T06:18:53Z</time>
      </trkpt>
      <trkpt lat="46.76717" lon="0.41846">
        <ele>116.8</ele>
        <time>2024-10-13T06:18:55Z</time>
      </trkpt>
      <trkpt lat="46.76709" lon="0.41829">
        <ele>115.4</ele>
        <time>2024-10-13T06:18:57Z</time>
      </trkpt>
      <trkpt lat="46.76701" lon="0.41814">
        <ele>114.6</ele>
        <time>2024-10-13T06:18:59Z</time>
      </trkpt>
      <trkpt lat="46.76697" lon="0.4181">
        <ele>114</ele>
        <time>2024-10-13T06:19:00Z</time>
      </trkpt>
      <trkpt lat="46.76693" lon="0.41809">
        <ele>113.2</ele>
        <time>2024-10-13T06:19:01Z</time>
      </trkpt>
      <trkpt lat="46.76689" lon="0.4181">
        <ele>112.8</ele>
        <time>2024-10-13T06:19:02Z</time>
      </trkpt>
      <trkpt lat="46.76685" lon="0.41812">
        <ele>112.4</ele>
        <time>2024-10-13T06:19:03Z</time>
      </trkpt>
      <trkpt lat="46.76676" lon="0.41815">
        <ele>112.2</ele>
        <time>2024-10-13T06:19:05Z</time>
      </trkpt>
      <trkpt lat="46.76666" lon="0.41812">
        <ele>112.8</ele>
        <time>2024-10-13T06:19:07Z</time>
      </trkpt>
      <trkpt lat="46.76658" lon="0.41806">
        <ele>113.4</ele>
        <time>2024-10-13T06:19:09Z</time>
      </trkpt>
      <trkpt lat="46.76649" lon="0.41799">
        <ele>114</ele>
        <time>2024-10-13T06:19:11Z</time>
      </trkpt>
      <trkpt lat="46.76645" lon="0.41797">
        <ele>114.2</ele>
        <time>2024-10-13T06:19:12Z</time>
      </trkpt>
      <trkpt lat="46.76635" lon="0.41796">
        <ele>114.8</ele>
        <time>2024-10-13T06:19:14Z</time>
      </trkpt>
      <trkpt lat="46.76626" lon="0.41799">
        <ele>115</ele>
        <time>2024-10-13T06:19:16Z</time>
      </trkpt>
      <trkpt lat="46.76603" lon="0.41802">
        <ele>116</ele>
        <time>2024-10-13T06:19:21Z</time>
      </trkpt>
      <trkpt lat="46.76582" lon="0.41804">
        <ele>116.4</ele>
        <time>2024-10-13T06:19:25Z</time>
      </trkpt>
      <trkpt lat="46.76572" lon="0.41808">
        <ele>116.6</ele>
        <time>2024-10-13T06:19:27Z</time>
      </trkpt>
      <trkpt lat="46.76558" lon="0.41813">
        <ele>117</ele>
        <time>2024-10-13T06:19:30Z</time>
      </trkpt>
      <trkpt lat="46.76554" lon="0.41815">
        <ele>117.4</ele>
        <time>2024-10-13T06:19:31Z</time>
      </trkpt>
      <trkpt lat="46.76547" lon="0.41815">
        <ele>118</ele>
        <time>2024-10-13T06:19:33Z</time>
      </trkpt>
      <trkpt lat="46.76543" lon="0.41814">
        <ele>118.2</ele>
        <time>2024-10-13T06:19:34Z</time>
      </trkpt>
      <trkpt lat="46.76524" lon="0.418">
        <ele>118.6</ele>
        <time>2024-10-13T06:19:39Z</time>
      </trkpt>
      <trkpt lat="46.76516" lon="0.41795">
        <ele>118.8</ele>
        <time>2024-10-13T06:19:41Z</time>
      </trkpt>
      <trkpt lat="46.76508" lon="0.41793">
        <ele>119</ele>
        <time>2024-10-13T06:19:43Z</time>
      </trkpt>
      <trkpt lat="46.76505" lon="0.41794">
        <ele>119</ele>
        <time>2024-10-13T06:19:44Z</time>
      </trkpt>
      <trkpt lat="46.76499" lon="0.41797">
        <ele>119.6</ele>
        <time>2024-10-13T06:19:46Z</time>
      </trkpt>
      <trkpt lat="46.76492" lon="0.41801">
        <ele>120.8</ele>
        <time>2024-10-13T06:19:49Z</time>
      </trkpt>
      <trkpt lat="46.76488" lon="0.41804">
        <ele>121.2</ele>
        <time>2024-10-13T06:19:51Z</time>
      </trkpt>
      <trkpt lat="46.76483" lon="0.41806">
        <ele>122</ele>
        <time>2024-10-13T06:19:53Z</time>
      </trkpt>
      <trkpt lat="46.76477" lon="0.41809">
        <ele>123.2</ele>
        <time>2024-10-13T06:19:56Z</time>
      </trkpt>
      <trkpt lat="46.76472" lon="0.4181">
        <ele>123.6</ele>
        <time>2024-10-13T06:19:58Z</time>
      </trkpt>
      <trkpt lat="46.76462" lon="0.41812">
        <ele>124.2</ele>
        <time>2024-10-13T06:20:02Z</time>
      </trkpt>
      <trkpt lat="46.76456" lon="0.41813">
        <ele>125.4</ele>
        <time>2024-10-13T06:20:05Z</time>
      </trkpt>
      <trkpt lat="46.76449" lon="0.41814">
        <ele>126.6</ele>
        <time>2024-10-13T06:20:09Z</time>
      </trkpt>
      <trkpt lat="46.76442" lon="0.41814">
        <ele>127.2</ele>
        <time>2024-10-13T06:20:13Z</time>
      </trkpt>
      <trkpt lat="46.76437" lon="0.41816">
        <ele>128</ele>
        <time>2024-10-13T06:20:17Z</time>
      </trkpt>
      <trkpt lat="46.76434" lon="0.41817">
        <ele>128.8</ele>
        <time>2024-10-13T06:20:20Z</time>
      </trkpt>
      <trkpt lat="46.76433" lon="0.41817">
        <ele>129.2</ele>
        <time>2024-10-13T06:20:21Z</time>
      </trkpt>
      <trkpt lat="46.76428" lon="0.41817">
        <ele>130.4</ele>
        <time>2024-10-13T06:20:27Z</time>
      </trkpt>
      <trkpt lat="46.76426" lon="0.41817">
        <ele>130.8</ele>
        <time>2024-10-13T06:20:29Z</time>
      </trkpt>
      <trkpt lat="46.76423" lon="0.41816">
        <ele>131.6</ele>
        <time>2024-10-13T06:20:31Z</time>
      </trkpt>
      <trkpt lat="46.76415" lon="0.41814">
        <ele>132.8</ele>
        <time>2024-10-13T06:20:36Z</time>
      </trkpt>
      <trkpt lat="46.76412" lon="0.41816">
        <ele>133.8</ele>
        <time>2024-10-13T06:20:41Z</time>
      </trkpt>
      <trkpt lat="46.76409" lon="0.41819">
        <ele>134.2</ele>
        <time>2024-10-13T06:20:44Z</time>
      </trkpt>
      <trkpt lat="46.76408" lon="0.41821">
        <ele>134.6</ele>
        <time>2024-10-13T06:20:45Z</time>
      </trkpt>
      <trkpt lat="46.76408" lon="0.41822">
        <ele>135</ele>
        <time>2024-10-13T06:20:46Z</time>
      </trkpt>
      <trkpt lat="46.76407" lon="0.41822">
        <ele>135.2</ele>
        <time>2024-10-13T06:20:47Z</time>
      </trkpt>
      <trkpt lat="46.76405" lon="0.41823">
        <ele>135.8</ele>
        <time>2024-10-13T06:20:50Z</time>
      </trkpt>
      <trkpt lat="46.76404" lon="0.41824">
        <ele>136.2</ele>
        <time>2024-10-13T06:20:51Z</time>
      </trkpt>
      <trkpt lat="46.76399" lon="0.41826">
        <ele>136.8</ele>
        <time>2024-10-13T06:20:55Z</time>
      </trkpt>
      <trkpt lat="46.76397" lon="0.41827">
        <ele>137.4</ele>
        <time>2024-10-13T06:20:57Z</time>
      </trkpt>
      <trkpt lat="46.76396" lon="0.41828">
        <ele>137.8</ele>
        <time>2024-10-13T06:20:58Z</time>
      </trkpt>
      <trkpt lat="46.76391" lon="0.41834">
        <ele>138.4</ele>
        <time>2024-10-13T06:21:02Z</time>
      </trkpt>
      <trkpt lat="46.7639" lon="0.41837">
        <ele>138.6</ele>
        <time>2024-10-13T06:21:04Z</time>
      </trkpt>
      <trkpt lat="46.76389" lon="0.41841">
        <ele>139</ele>
        <time>2024-10-13T06:21:06Z</time>
      </trkpt>
      <trkpt lat="46.76388" lon="0.41842">
        <ele>139</ele>
        <time>2024-10-13T06:21:07Z</time>
      </trkpt>
      <trkpt lat="46.76387" lon="0.41843">
        <ele>139.4</ele>
        <time>2024-10-13T06:21:08Z</time>
      </trkpt>
      <trkpt lat="46.76382" lon="0.4185">
        <ele>140.6</ele>
        <time>2024-10-13T06:21:12Z</time>
      </trkpt>
      <trkpt lat="46.76376" lon="0.41853">
        <ele>141.2</ele>
        <time>2024-10-13T06:21:15Z</time>
      </trkpt>
      <trkpt lat="46.76372" lon="0.41855">
        <ele>141.6</ele>
        <time>2024-10-13T06:21:18Z</time>
      </trkpt>
      <trkpt lat="46.7637" lon="0.41856">
        <ele>141.6</ele>
        <time>2024-10-13T06:21:19Z</time>
      </trkpt>
      <trkpt lat="46.76358" lon="0.41868">
        <ele>142.2</ele>
        <time>2024-10-13T06:21:25Z</time>
      </trkpt>
      <trkpt lat="46.7634" lon="0.41875">
        <ele>142.6</ele>
        <time>2024-10-13T06:21:31Z</time>
      </trkpt>
      <trkpt lat="46.76333" lon="0.41872">
        <ele>142.8</ele>
        <time>2024-10-13T06:21:34Z</time>
      </trkpt>
      <trkpt lat="46.76329" lon="0.41873">
        <ele>142.8</ele>
        <time>2024-10-13T06:21:36Z</time>
      </trkpt>
      <trkpt lat="46.76324" lon="0.41883">
        <ele>143.4</ele>
        <time>2024-10-13T06:21:40Z</time>
      </trkpt>
      <trkpt lat="46.76319" lon="0.41891">
        <ele>143.8</ele>
        <time>2024-10-13T06:21:44Z</time>
      </trkpt>
      <trkpt lat="46.76317" lon="0.41891">
        <ele>144</ele>
        <time>2024-10-13T06:21:45Z</time>
      </trkpt>
      <trkpt lat="46.76314" lon="0.41881">
        <ele>144.2</ele>
        <time>2024-10-13T06:21:50Z</time>
      </trkpt>
      <trkpt lat="46.76311" lon="0.41856">
        <ele>144.4</ele>
        <time>2024-10-13T06:21:57Z</time>
      </trkpt>
      <trkpt lat="46.76306" lon="0.41824">
        <ele>143.8</ele>
        <time>2024-10-13T06:22:04Z</time>
      </trkpt>
      <trkpt lat="46.76306" lon="0.41819">
        <ele>143.8</ele>
        <time>2024-10-13T06:22:06Z</time>
      </trkpt>
      <trkpt lat="46.76308" lon="0.41816">
        <ele>143.6</ele>
        <time>2024-10-13T06:22:08Z</time>
      </trkpt>
      <trkpt lat="46.7632" lon="0.41811">
        <ele>143.2</ele>
        <time>2024-10-13T06:22:13Z</time>
      </trkpt>
      <trkpt lat="46.7633" lon="0.41808">
        <ele>142.8</ele>
        <time>2024-10-13T06:22:16Z</time>
      </trkpt>
      <trkpt lat="46.76344" lon="0.41802">
        <ele>141.2</ele>
        <time>2024-10-13T06:22:20Z</time>
      </trkpt>
      <trkpt lat="46.76356" lon="0.41795">
        <ele>140.2</ele>
        <time>2024-10-13T06:22:23Z</time>
      </trkpt>
      <trkpt lat="46.76364" lon="0.41792">
        <ele>139.2</ele>
        <time>2024-10-13T06:22:25Z</time>
      </trkpt>
      <trkpt lat="46.76372" lon="0.41787">
        <ele>137.8</ele>
        <time>2024-10-13T06:22:27Z</time>
      </trkpt>
      <trkpt lat="46.76377" lon="0.41784">
        <ele>136.8</ele>
        <time>2024-10-13T06:22:28Z</time>
      </trkpt>
      <trkpt lat="46.76382" lon="0.41781">
        <ele>136.2</ele>
        <time>2024-10-13T06:22:29Z</time>
      </trkpt>
      <trkpt lat="46.76394" lon="0.41777">
        <ele>134.6</ele>
        <time>2024-10-13T06:22:31Z</time>
      </trkpt>
      <trkpt lat="46.76408" lon="0.41774">
        <ele>133.4</ele>
        <time>2024-10-13T06:22:33Z</time>
      </trkpt>
      <trkpt lat="46.76414" lon="0.41771">
        <ele>133</ele>
        <time>2024-10-13T06:22:34Z</time>
      </trkpt>
      <trkpt lat="46.76427" lon="0.41764">
        <ele>131.8</ele>
        <time>2024-10-13T06:22:36Z</time>
      </trkpt>
      <trkpt lat="46.76441" lon="0.41756">
        <ele>130.8</ele>
        <time>2024-10-13T06:22:38Z</time>
      </trkpt>
      <trkpt lat="46.76453" lon="0.41744">
        <ele>129.4</ele>
        <time>2024-10-13T06:22:40Z</time>
      </trkpt>
      <trkpt lat="46.76459" lon="0.41737">
        <ele>128.4</ele>
        <time>2024-10-13T06:22:41Z</time>
      </trkpt>
      <trkpt lat="46.76464" lon="0.41729">
        <ele>128</ele>
        <time>2024-10-13T06:22:42Z</time>
      </trkpt>
      <trkpt lat="46.76474" lon="0.41719">
        <ele>126</ele>
        <time>2024-10-13T06:22:44Z</time>
      </trkpt>
      <trkpt lat="46.76478" lon="0.41716">
        <ele>125.2</ele>
        <time>2024-10-13T06:22:45Z</time>
      </trkpt>
      <trkpt lat="46.76481" lon="0.41714">
        <ele>124.4</ele>
        <time>2024-10-13T06:22:46Z</time>
      </trkpt>
      <trkpt lat="46.76486" lon="0.41711">
        <ele>123.4</ele>
        <time>2024-10-13T06:22:48Z</time>
      </trkpt>
      <trkpt lat="46.76487" lon="0.41709">
        <ele>123.2</ele>
        <time>2024-10-13T06:22:49Z</time>
      </trkpt>
      <trkpt lat="46.76486" lon="0.41703">
        <ele>123</ele>
        <time>2024-10-13T06:22:54Z</time>
      </trkpt>
      <trkpt lat="46.76487" lon="0.41701">
        <ele>123.2</ele>
        <time>2024-10-13T06:22:55Z</time>
      </trkpt>
      <trkpt lat="46.76488" lon="0.41695">
        <ele>123.6</ele>
        <time>2024-10-13T06:22:58Z</time>
      </trkpt>
      <trkpt lat="46.76487" lon="0.41694">
        <ele>123.6</ele>
        <time>2024-10-13T06:22:59Z</time>
      </trkpt>
      <trkpt lat="46.76482" lon="0.41685">
        <ele>124.2</ele>
        <time>2024-10-13T06:23:03Z</time>
      </trkpt>
      <trkpt lat="46.76482" lon="0.41679">
        <ele>124.4</ele>
        <time>2024-10-13T06:23:06Z</time>
      </trkpt>
      <trkpt lat="46.76482" lon="0.41677">
        <ele>124.4</ele>
        <time>2024-10-13T06:23:08Z</time>
      </trkpt>
      <trkpt lat="46.76482" lon="0.41675">
        <ele>124.4</ele>
        <time>2024-10-13T06:23:09Z</time>
      </trkpt>
      <trkpt lat="46.76479" lon="0.4167">
        <ele>126</ele>
        <time>2024-10-13T06:23:13Z</time>
      </trkpt>
      <trkpt lat="46.76478" lon="0.41669">
        <ele>126.8</ele>
        <time>2024-10-13T06:23:15Z</time>
      </trkpt>
      <trkpt lat="46.76477" lon="0.41667">
        <ele>127</ele>
        <time>2024-10-13T06:23:16Z</time>
      </trkpt>
      <trkpt lat="46.76475" lon="0.41665">
        <ele>128</ele>
        <time>2024-10-13T06:23:18Z</time>
      </trkpt>
      <trkpt lat="46.76473" lon="0.41662">
        <ele>129.2</ele>
        <time>2024-10-13T06:23:21Z</time>
      </trkpt>
      <trkpt lat="46.76472" lon="0.4166">
        <ele>130.2</ele>
        <time>2024-10-13T06:23:23Z</time>
      </trkpt>
      <trkpt lat="46.76471" lon="0.4166">
        <ele>130.6</ele>
        <time>2024-10-13T06:23:24Z</time>
      </trkpt>
      <trkpt lat="46.7647" lon="0.41661">
        <ele>131.4</ele>
        <time>2024-10-13T06:23:26Z</time>
      </trkpt>
      <trkpt lat="46.7647" lon="0.41661">
        <ele>131.8</ele>
        <time>2024-10-13T06:23:27Z</time>
      </trkpt>
      <trkpt lat="46.76469" lon="0.41662">
        <ele>132.2</ele>
        <time>2024-10-13T06:23:29Z</time>
      </trkpt>
      <trkpt lat="46.76469" lon="0.41663">
        <ele>132.4</ele>
        <time>2024-10-13T06:23:30Z</time>
      </trkpt>
      <trkpt lat="46.76465" lon="0.41669">
        <ele>132.8</ele>
        <time>2024-10-13T06:23:34Z</time>
      </trkpt>
      <trkpt lat="46.76464" lon="0.4167">
        <ele>132.8</ele>
        <time>2024-10-13T06:23:35Z</time>
      </trkpt>
      <trkpt lat="46.76461" lon="0.41673">
        <ele>133.2</ele>
        <time>2024-10-13T06:23:37Z</time>
      </trkpt>
      <trkpt lat="46.76457" lon="0.41676">
        <ele>134</ele>
        <time>2024-10-13T06:23:40Z</time>
      </trkpt>
      <trkpt lat="46.76452" lon="0.41685">
        <ele>134.8</ele>
        <time>2024-10-13T06:23:44Z</time>
      </trkpt>
      <trkpt lat="46.76448" lon="0.41689">
        <ele>134.8</ele>
        <time>2024-10-13T06:23:46Z</time>
      </trkpt>
      <trkpt lat="46.76446" lon="0.41688">
        <ele>135.2</ele>
        <time>2024-10-13T06:23:48Z</time>
      </trkpt>
      <trkpt lat="46.76445" lon="0.41685">
        <ele>135.4</ele>
        <time>2024-10-13T06:23:50Z</time>
      </trkpt>
      <trkpt lat="46.76445" lon="0.41681">
        <ele>136.2</ele>
        <time>2024-10-13T06:23:53Z</time>
      </trkpt>
      <trkpt lat="46.76445" lon="0.4168">
        <ele>136.4</ele>
        <time>2024-10-13T06:23:54Z</time>
      </trkpt>
      <trkpt lat="46.76441" lon="0.41673">
        <ele>137.2</ele>
        <time>2024-10-13T06:23:59Z</time>
      </trkpt>
      <trkpt lat="46.7644" lon="0.41671">
        <ele>137.2</ele>
        <time>2024-10-13T06:24:00Z</time>
      </trkpt>
      <trkpt lat="46.76439" lon="0.41669">
        <ele>137.2</ele>
        <time>2024-10-13T06:24:01Z</time>
      </trkpt>
      <trkpt lat="46.76433" lon="0.41654">
        <ele>138.4</ele>
        <time>2024-10-13T06:24:07Z</time>
      </trkpt>
      <trkpt lat="46.7643" lon="0.41647">
        <ele>138.8</ele>
        <time>2024-10-13T06:24:09Z</time>
      </trkpt>
      <trkpt lat="46.76425" lon="0.41636">
        <ele>139.6</ele>
        <time>2024-10-13T06:24:13Z</time>
      </trkpt>
      <trkpt lat="46.76423" lon="0.4163">
        <ele>139.6</ele>
        <time>2024-10-13T06:24:15Z</time>
      </trkpt>
      <trkpt lat="46.76418" lon="0.41617">
        <ele>140</ele>
        <time>2024-10-13T06:24:20Z</time>
      </trkpt>
      <trkpt lat="46.76417" lon="0.41607">
        <ele>140.8</ele>
        <time>2024-10-13T06:24:23Z</time>
      </trkpt>
      <trkpt lat="46.76413" lon="0.41595">
        <ele>141.2</ele>
        <time>2024-10-13T06:24:26Z</time>
      </trkpt>
      <trkpt lat="46.76405" lon="0.41566">
        <ele>141.8</ele>
        <time>2024-10-13T06:24:33Z</time>
      </trkpt>
      <trkpt lat="46.76404" lon="0.41562">
        <ele>142</ele>
        <time>2024-10-13T06:24:34Z</time>
      </trkpt>
      <trkpt lat="46.76395" lon="0.4154">
        <ele>142.2</ele>
        <time>2024-10-13T06:24:39Z</time>
      </trkpt>
      <trkpt lat="46.76388" lon="0.41521">
        <ele>142.4</ele>
        <time>2024-10-13T06:24:44Z</time>
      </trkpt>
      <trkpt lat="46.76384" lon="0.41503">
        <ele>142.6</ele>
        <time>2024-10-13T06:24:49Z</time>
      </trkpt>
      <trkpt lat="46.76379" lon="0.4148">
        <ele>142.4</ele>
        <time>2024-10-13T06:24:55Z</time>
      </trkpt>
      <trkpt lat="46.76378" lon="0.41478">
        <ele>142.2</ele>
        <time>2024-10-13T06:24:56Z</time>
      </trkpt>
      <trkpt lat="46.7637" lon="0.41461">
        <ele>142.4</ele>
        <time>2024-10-13T06:25:00Z</time>
      </trkpt>
      <trkpt lat="46.76361" lon="0.4144">
        <ele>141.8</ele>
        <time>2024-10-13T06:25:06Z</time>
      </trkpt>
      <trkpt lat="46.76361" lon="0.41433">
        <ele>141.6</ele>
        <time>2024-10-13T06:25:08Z</time>
      </trkpt>
      <trkpt lat="46.76361" lon="0.41416">
        <ele>141</ele>
        <time>2024-10-13T06:25:11Z</time>
      </trkpt>
      <trkpt lat="46.76355" lon="0.41387">
        <ele>140.4</ele>
        <time>2024-10-13T06:25:16Z</time>
      </trkpt>
      <trkpt lat="46.76353" lon="0.41379">
        <ele>140.2</ele>
        <time>2024-10-13T06:25:18Z</time>
      </trkpt>
      <trkpt lat="46.76349" lon="0.4137">
        <ele>140.2</ele>
        <time>2024-10-13T06:25:20Z</time>
      </trkpt>
      <trkpt lat="46.76336" lon="0.4134">
        <ele>140</ele>
        <time>2024-10-13T06:25:25Z</time>
      </trkpt>
      <trkpt lat="46.7633" lon="0.41322">
        <ele>139.8</ele>
        <time>2024-10-13T06:25:29Z</time>
      </trkpt>
      <trkpt lat="46.76331" lon="0.41316">
        <ele>139.6</ele>
        <time>2024-10-13T06:25:31Z</time>
      </trkpt>
      <trkpt lat="46.76336" lon="0.413">
        <ele>138.8</ele>
        <time>2024-10-13T06:25:35Z</time>
      </trkpt>
      <trkpt lat="46.76337" lon="0.41293">
        <ele>138.6</ele>
        <time>2024-10-13T06:25:36Z</time>
      </trkpt>
      <trkpt lat="46.76339" lon="0.41287">
        <ele>137.6</ele>
        <time>2024-10-13T06:25:37Z</time>
      </trkpt>
      <trkpt lat="46.7634" lon="0.41277">
        <ele>136.4</ele>
        <time>2024-10-13T06:25:39Z</time>
      </trkpt>
      <trkpt lat="46.76341" lon="0.41267">
        <ele>135</ele>
        <time>2024-10-13T06:25:41Z</time>
      </trkpt>
      <trkpt lat="46.76343" lon="0.41264">
        <ele>134.2</ele>
        <time>2024-10-13T06:25:42Z</time>
      </trkpt>
      <trkpt lat="46.76344" lon="0.4126">
        <ele>133.6</ele>
        <time>2024-10-13T06:25:43Z</time>
      </trkpt>
      <trkpt lat="46.76347" lon="0.41253">
        <ele>132.2</ele>
        <time>2024-10-13T06:25:45Z</time>
      </trkpt>
      <trkpt lat="46.76352" lon="0.41247">
        <ele>130.6</ele>
        <time>2024-10-13T06:25:47Z</time>
      </trkpt>
      <trkpt lat="46.76358" lon="0.41239">
        <ele>128.4</ele>
        <time>2024-10-13T06:25:49Z</time>
      </trkpt>
      <trkpt lat="46.76359" lon="0.41234">
        <ele>127.2</ele>
        <time>2024-10-13T06:25:50Z</time>
      </trkpt>
      <trkpt lat="46.76359" lon="0.4123">
        <ele>126.2</ele>
        <time>2024-10-13T06:25:51Z</time>
      </trkpt>
      <trkpt lat="46.76355" lon="0.4122">
        <ele>126</ele>
        <time>2024-10-13T06:25:53Z</time>
      </trkpt>
      <trkpt lat="46.76341" lon="0.4119">
        <ele>125.4</ele>
        <time>2024-10-13T06:25:58Z</time>
      </trkpt>
      <trkpt lat="46.76325" lon="0.41159">
        <ele>125.2</ele>
        <time>2024-10-13T06:26:04Z</time>
      </trkpt>
      <trkpt lat="46.76319" lon="0.41149">
        <ele>125</ele>
        <time>2024-10-13T06:26:06Z</time>
      </trkpt>
      <trkpt lat="46.7631" lon="0.41139">
        <ele>124.6</ele>
        <time>2024-10-13T06:26:09Z</time>
      </trkpt>
      <trkpt lat="46.76299" lon="0.41119">
        <ele>123.8</ele>
        <time>2024-10-13T06:26:14Z</time>
      </trkpt>
      <trkpt lat="46.76297" lon="0.41115">
        <ele>123.6</ele>
        <time>2024-10-13T06:26:15Z</time>
      </trkpt>
      <trkpt lat="46.76295" lon="0.41108">
        <ele>122.4</ele>
        <time>2024-10-13T06:26:17Z</time>
      </trkpt>
      <trkpt lat="46.76296" lon="0.41103">
        <ele>121.8</ele>
        <time>2024-10-13T06:26:19Z</time>
      </trkpt>
      <trkpt lat="46.76298" lon="0.41101">
        <ele>121.4</ele>
        <time>2024-10-13T06:26:20Z</time>
      </trkpt>
      <trkpt lat="46.76306" lon="0.41094">
        <ele>120</ele>
        <time>2024-10-13T06:26:23Z</time>
      </trkpt>
      <trkpt lat="46.76313" lon="0.41089">
        <ele>119.2</ele>
        <time>2024-10-13T06:26:25Z</time>
      </trkpt>
      <trkpt lat="46.76317" lon="0.41086">
        <ele>118.8</ele>
        <time>2024-10-13T06:26:26Z</time>
      </trkpt>
      <trkpt lat="46.76324" lon="0.41077">
        <ele>118</ele>
        <time>2024-10-13T06:26:28Z</time>
      </trkpt>
      <trkpt lat="46.76327" lon="0.4107">
        <ele>117.6</ele>
        <time>2024-10-13T06:26:29Z</time>
      </trkpt>
      <trkpt lat="46.76331" lon="0.41064">
        <ele>117.2</ele>
        <time>2024-10-13T06:26:30Z</time>
      </trkpt>
      <trkpt lat="46.76339" lon="0.41048">
        <ele>115.8</ele>
        <time>2024-10-13T06:26:32Z</time>
      </trkpt>
      <trkpt lat="46.76348" lon="0.41032">
        <ele>114.2</ele>
        <time>2024-10-13T06:26:34Z</time>
      </trkpt>
      <trkpt lat="46.76357" lon="0.41015">
        <ele>113.6</ele>
        <time>2024-10-13T06:26:36Z</time>
      </trkpt>
      <trkpt lat="46.76368" lon="0.41001">
        <ele>112.8</ele>
        <time>2024-10-13T06:26:38Z</time>
      </trkpt>
      <trkpt lat="46.76375" lon="0.4099">
        <ele>111.2</ele>
        <time>2024-10-13T06:26:40Z</time>
      </trkpt>
      <trkpt lat="46.76383" lon="0.40979">
        <ele>109.8</ele>
        <time>2024-10-13T06:26:43Z</time>
      </trkpt>
      <trkpt lat="46.76385" lon="0.40975">
        <ele>109.6</ele>
        <time>2024-10-13T06:26:44Z</time>
      </trkpt>
      <trkpt lat="46.76396" lon="0.40956">
        <ele>108.6</ele>
        <time>2024-10-13T06:26:48Z</time>
      </trkpt>
      <trkpt lat="46.76401" lon="0.4095">
        <ele>108.4</ele>
        <time>2024-10-13T06:26:49Z</time>
      </trkpt>
      <trkpt lat="46.76407" lon="0.40944">
        <ele>108.2</ele>
        <time>2024-10-13T06:26:50Z</time>
      </trkpt>
      <trkpt lat="46.76419" lon="0.40931">
        <ele>107.4</ele>
        <time>2024-10-13T06:26:52Z</time>
      </trkpt>
      <trkpt lat="46.76425" lon="0.40924">
        <ele>106.8</ele>
        <time>2024-10-13T06:26:53Z</time>
      </trkpt>
      <trkpt lat="46.76432" lon="0.40917">
        <ele>106.2</ele>
        <time>2024-10-13T06:26:54Z</time>
      </trkpt>
      <trkpt lat="46.76444" lon="0.409">
        <ele>104.8</ele>
        <time>2024-10-13T06:26:56Z</time>
      </trkpt>
      <trkpt lat="46.76457" lon="0.40884">
        <ele>103.6</ele>
        <time>2024-10-13T06:26:58Z</time>
      </trkpt>
      <trkpt lat="46.76478" lon="0.40861">
        <ele>102.4</ele>
        <time>2024-10-13T06:27:01Z</time>
      </trkpt>
      <trkpt lat="46.76502" lon="0.40832">
        <ele>101.2</ele>
        <time>2024-10-13T06:27:05Z</time>
      </trkpt>
      <trkpt lat="46.76524" lon="0.40805">
        <ele>100</ele>
        <time>2024-10-13T06:27:09Z</time>
      </trkpt>
      <trkpt lat="46.76551" lon="0.40774">
        <ele>99</ele>
        <time>2024-10-13T06:27:14Z</time>
      </trkpt>
      <trkpt lat="46.76572" lon="0.40749">
        <ele>98.6</ele>
        <time>2024-10-13T06:27:18Z</time>
      </trkpt>
      <trkpt lat="46.76582" lon="0.40735">
        <ele>98</ele>
        <time>2024-10-13T06:27:20Z</time>
      </trkpt>
      <trkpt lat="46.76602" lon="0.40707">
        <ele>97</ele>
        <time>2024-10-13T06:27:24Z</time>
      </trkpt>
      <trkpt lat="46.76628" lon="0.40678">
        <ele>96.2</ele>
        <time>2024-10-13T06:27:29Z</time>
      </trkpt>
      <trkpt lat="46.76632" lon="0.40673">
        <ele>96</ele>
        <time>2024-10-13T06:27:30Z</time>
      </trkpt>
      <trkpt lat="46.76636" lon="0.40668">
        <ele>95.8</ele>
        <time>2024-10-13T06:27:31Z</time>
      </trkpt>
      <trkpt lat="46.76638" lon="0.40663">
        <ele>95.6</ele>
        <time>2024-10-13T06:27:32Z</time>
      </trkpt>
      <trkpt lat="46.76638" lon="0.40652">
        <ele>95</ele>
        <time>2024-10-13T06:27:34Z</time>
      </trkpt>
      <trkpt lat="46.76636" lon="0.40646">
        <ele>94.8</ele>
        <time>2024-10-13T06:27:35Z</time>
      </trkpt>
      <trkpt lat="46.76625" lon="0.40619">
        <ele>93.6</ele>
        <time>2024-10-13T06:27:39Z</time>
      </trkpt>
      <trkpt lat="46.7662" lon="0.40606">
        <ele>93.2</ele>
        <time>2024-10-13T06:27:41Z</time>
      </trkpt>
      <trkpt lat="46.76616" lon="0.40596">
        <ele>93.2</ele>
        <time>2024-10-13T06:27:43Z</time>
      </trkpt>
      <trkpt lat="46.76614" lon="0.40586">
        <ele>93.2</ele>
        <time>2024-10-13T06:27:45Z</time>
      </trkpt>
      <trkpt lat="46.76603" lon="0.40553">
        <ele>93</ele>
        <time>2024-10-13T06:27:50Z</time>
      </trkpt>
      <trkpt lat="46.76582" lon="0.40498">
        <ele>93.4</ele>
        <time>2024-10-13T06:27:58Z</time>
      </trkpt>
      <trkpt lat="46.76566" lon="0.40457">
        <ele>94.2</ele>
        <time>2024-10-13T06:28:05Z</time>
      </trkpt>
      <trkpt lat="46.76553" lon="0.40418">
        <ele>94.6</ele>
        <time>2024-10-13T06:28:12Z</time>
      </trkpt>
      <trkpt lat="46.76552" lon="0.40414">
        <ele>94.6</ele>
        <time>2024-10-13T06:28:13Z</time>
      </trkpt>
      <trkpt lat="46.76553" lon="0.40411">
        <ele>94.6</ele>
        <time>2024-10-13T06:28:14Z</time>
      </trkpt>
      <trkpt lat="46.76554" lon="0.40408">
        <ele>94.6</ele>
        <time>2024-10-13T06:28:15Z</time>
      </trkpt>
      <trkpt lat="46.76558" lon="0.40402">
        <ele>94.6</ele>
        <time>2024-10-13T06:28:17Z</time>
      </trkpt>
      <trkpt lat="46.76574" lon="0.40388">
        <ele>94</ele>
        <time>2024-10-13T06:28:24Z</time>
      </trkpt>
      <trkpt lat="46.76583" lon="0.40382">
        <ele>93.6</ele>
        <time>2024-10-13T06:28:27Z</time>
      </trkpt>
      <trkpt lat="46.76596" lon="0.40371">
        <ele>92.4</ele>
        <time>2024-10-13T06:28:31Z</time>
      </trkpt>
      <trkpt lat="46.76611" lon="0.4036">
        <ele>91.6</ele>
        <time>2024-10-13T06:28:35Z</time>
      </trkpt>
      <trkpt lat="46.76615" lon="0.40358">
        <ele>91.4</ele>
        <time>2024-10-13T06:28:36Z</time>
      </trkpt>
      <trkpt lat="46.76619" lon="0.40355">
        <ele>91</ele>
        <time>2024-10-13T06:28:37Z</time>
      </trkpt>
      <trkpt lat="46.76627" lon="0.40349">
        <ele>90.2</ele>
        <time>2024-10-13T06:28:39Z</time>
      </trkpt>
      <trkpt lat="46.76642" lon="0.40338">
        <ele>89.2</ele>
        <time>2024-10-13T06:28:43Z</time>
      </trkpt>
      <trkpt lat="46.76655" lon="0.40323">
        <ele>88.8</ele>
        <time>2024-10-13T06:28:47Z</time>
      </trkpt>
      <trkpt lat="46.76657" lon="0.4032">
        <ele>88.8</ele>
        <time>2024-10-13T06:28:48Z</time>
      </trkpt>
      <trkpt lat="46.76662" lon="0.4031">
        <ele>88.4</ele>
        <time>2024-10-13T06:28:51Z</time>
      </trkpt>
      <trkpt lat="46.76663" lon="0.40306">
        <ele>88.2</ele>
        <time>2024-10-13T06:28:52Z</time>
      </trkpt>
      <trkpt lat="46.76665" lon="0.40302">
        <ele>88</ele>
        <time>2024-10-13T06:28:53Z</time>
      </trkpt>
      <trkpt lat="46.76667" lon="0.40298">
        <ele>88</ele>
        <time>2024-10-13T06:28:54Z</time>
      </trkpt>
      <trkpt lat="46.76672" lon="0.40294">
        <ele>87.4</ele>
        <time>2024-10-13T06:28:56Z</time>
      </trkpt>
      <trkpt lat="46.76673" lon="0.40291">
        <ele>87</ele>
        <time>2024-10-13T06:28:57Z</time>
      </trkpt>
      <trkpt lat="46.76677" lon="0.40275">
        <ele>86.4</ele>
        <time>2024-10-13T06:29:02Z</time>
      </trkpt>
      <trkpt lat="46.7668" lon="0.4027">
        <ele>86.4</ele>
        <time>2024-10-13T06:29:04Z</time>
      </trkpt>
      <trkpt lat="46.76682" lon="0.40263">
        <ele>86</ele>
        <time>2024-10-13T06:29:06Z</time>
      </trkpt>
      <trkpt lat="46.76685" lon="0.40257">
        <ele>85.8</ele>
        <time>2024-10-13T06:29:08Z</time>
      </trkpt>
      <trkpt lat="46.76689" lon="0.40236">
        <ele>85.4</ele>
        <time>2024-10-13T06:29:14Z</time>
      </trkpt>
      <trkpt lat="46.76693" lon="0.40227">
        <ele>85</ele>
        <time>2024-10-13T06:29:17Z</time>
      </trkpt>
      <trkpt lat="46.76697" lon="0.40222">
        <ele>84.2</ele>
        <time>2024-10-13T06:29:19Z</time>
      </trkpt>
      <trkpt lat="46.767" lon="0.40217">
        <ele>83.8</ele>
        <time>2024-10-13T06:29:21Z</time>
      </trkpt>
      <trkpt lat="46.76709" lon="0.40205">
        <ele>83.2</ele>
        <time>2024-10-13T06:29:25Z</time>
      </trkpt>
      <trkpt lat="46.76713" lon="0.40195">
        <ele>82.8</ele>
        <time>2024-10-13T06:29:29Z</time>
      </trkpt>
      <trkpt lat="46.76715" lon="0.40189">
        <ele>82.6</ele>
        <time>2024-10-13T06:29:31Z</time>
      </trkpt>
      <trkpt lat="46.76719" lon="0.40185">
        <ele>82.2</ele>
        <time>2024-10-13T06:29:33Z</time>
      </trkpt>
      <trkpt lat="46.76724" lon="0.40176">
        <ele>81.8</ele>
        <time>2024-10-13T06:29:36Z</time>
      </trkpt>
      <trkpt lat="46.76731" lon="0.40164">
        <ele>81.8</ele>
        <time>2024-10-13T06:29:41Z</time>
      </trkpt>
      <trkpt lat="46.76732" lon="0.40158">
        <ele>81.8</ele>
        <time>2024-10-13T06:29:43Z</time>
      </trkpt>
      <trkpt lat="46.76734" lon="0.4014">
        <ele>82</ele>
        <time>2024-10-13T06:29:47Z</time>
      </trkpt>
      <trkpt lat="46.76732" lon="0.40127">
        <ele>82.2</ele>
        <time>2024-10-13T06:29:50Z</time>
      </trkpt>
      <trkpt lat="46.76729" lon="0.40121">
        <ele>82.2</ele>
        <time>2024-10-13T06:29:52Z</time>
      </trkpt>
      <trkpt lat="46.76719" lon="0.40098">
        <ele>82</ele>
        <time>2024-10-13T06:29:57Z</time>
      </trkpt>
      <trkpt lat="46.7671" lon="0.40064">
        <ele>82.8</ele>
        <time>2024-10-13T06:30:02Z</time>
      </trkpt>
      <trkpt lat="46.76708" lon="0.40056">
        <ele>83</ele>
        <time>2024-10-13T06:30:03Z</time>
      </trkpt>
      <trkpt lat="46.76697" lon="0.40008">
        <ele>82.8</ele>
        <time>2024-10-13T06:30:10Z</time>
      </trkpt>
      <trkpt lat="46.7669" lon="0.39987">
        <ele>82.8</ele>
        <time>2024-10-13T06:30:14Z</time>
      </trkpt>
      <trkpt lat="46.76688" lon="0.39985">
        <ele>82.8</ele>
        <time>2024-10-13T06:30:15Z</time>
      </trkpt>
      <trkpt lat="46.76685" lon="0.39985">
        <ele>82.8</ele>
        <time>2024-10-13T06:30:16Z</time>
      </trkpt>
      <trkpt lat="46.76678" lon="0.39988">
        <ele>82.8</ele>
        <time>2024-10-13T06:30:18Z</time>
      </trkpt>
      <trkpt lat="46.76646" lon="0.40006">
        <ele>83.2</ele>
        <time>2024-10-13T06:30:25Z</time>
      </trkpt>
      <trkpt lat="46.76629" lon="0.40016">
        <ele>83.8</ele>
        <time>2024-10-13T06:30:29Z</time>
      </trkpt>
      <trkpt lat="46.76606" lon="0.40028">
        <ele>84.8</ele>
        <time>2024-10-13T06:30:34Z</time>
      </trkpt>
      <trkpt lat="46.76598" lon="0.40032">
        <ele>85</ele>
        <time>2024-10-13T06:30:36Z</time>
      </trkpt>
      <trkpt lat="46.76568" lon="0.40045">
        <ele>86</ele>
        <time>2024-10-13T06:30:43Z</time>
      </trkpt>
      <trkpt lat="46.76563" lon="0.40046">
        <ele>86.2</ele>
        <time>2024-10-13T06:30:44Z</time>
      </trkpt>
      <trkpt lat="46.76534" lon="0.40057">
        <ele>87</ele>
        <time>2024-10-13T06:30:51Z</time>
      </trkpt>
      <trkpt lat="46.76526" lon="0.4006">
        <ele>87.2</ele>
        <time>2024-10-13T06:30:53Z</time>
      </trkpt>
      <trkpt lat="46.76495" lon="0.40071">
        <ele>88</ele>
        <time>2024-10-13T06:31:01Z</time>
      </trkpt>
      <trkpt lat="46.76491" lon="0.40073">
        <ele>88</ele>
        <time>2024-10-13T06:31:02Z</time>
      </trkpt>
      <trkpt lat="46.76453" lon="0.40089">
        <ele>88.8</ele>
        <time>2024-10-13T06:31:11Z</time>
      </trkpt>
      <trkpt lat="46.76429" lon="0.40104">
        <ele>89.2</ele>
        <time>2024-10-13T06:31:17Z</time>
      </trkpt>
      <trkpt lat="46.76417" lon="0.40113">
        <ele>89.6</ele>
        <time>2024-10-13T06:31:20Z</time>
      </trkpt>
      <trkpt lat="46.76401" lon="0.40125">
        <ele>90.2</ele>
        <time>2024-10-13T06:31:24Z</time>
      </trkpt>
      <trkpt lat="46.76381" lon="0.40137">
        <ele>91.2</ele>
        <time>2024-10-13T06:31:29Z</time>
      </trkpt>
      <trkpt lat="46.76377" lon="0.40139">
        <ele>91.2</ele>
        <time>2024-10-13T06:31:30Z</time>
      </trkpt>
      <trkpt lat="46.76349" lon="0.40155">
        <ele>91.8</ele>
        <time>2024-10-13T06:31:37Z</time>
      </trkpt>
      <trkpt lat="46.76333" lon="0.40163">
        <ele>92.4</ele>
        <time>2024-10-13T06:31:41Z</time>
      </trkpt>
      <trkpt lat="46.76304" lon="0.40177">
        <ele>93</ele>
        <time>2024-10-13T06:31:48Z</time>
      </trkpt>
      <trkpt lat="46.76296" lon="0.4018">
        <ele>93.4</ele>
        <time>2024-10-13T06:31:50Z</time>
      </trkpt>
      <trkpt lat="46.76271" lon="0.40184">
        <ele>94</ele>
        <time>2024-10-13T06:31:56Z</time>
      </trkpt>
      <trkpt lat="46.76257" lon="0.40189">
        <ele>94.6</ele>
        <time>2024-10-13T06:32:00Z</time>
      </trkpt>
      <trkpt lat="46.76247" lon="0.40194">
        <ele>95.2</ele>
        <time>2024-10-13T06:32:03Z</time>
      </trkpt>
      <trkpt lat="46.7624" lon="0.40198">
        <ele>95.8</ele>
        <time>2024-10-13T06:32:05Z</time>
      </trkpt>
      <trkpt lat="46.76218" lon="0.40209">
        <ele>96.6</ele>
        <time>2024-10-13T06:32:11Z</time>
      </trkpt>
      <trkpt lat="46.76215" lon="0.40211">
        <ele>96.8</ele>
        <time>2024-10-13T06:32:12Z</time>
      </trkpt>
      <trkpt lat="46.76191" lon="0.40226">
        <ele>98</ele>
        <time>2024-10-13T06:32:19Z</time>
      </trkpt>
      <trkpt lat="46.76187" lon="0.40229">
        <ele>98</ele>
        <time>2024-10-13T06:32:20Z</time>
      </trkpt>
      <trkpt lat="46.76169" lon="0.40254">
        <ele>99</ele>
        <time>2024-10-13T06:32:27Z</time>
      </trkpt>
      <trkpt lat="46.76154" lon="0.40275">
        <ele>100</ele>
        <time>2024-10-13T06:32:33Z</time>
      </trkpt>
      <trkpt lat="46.76152" lon="0.40278">
        <ele>100.2</ele>
        <time>2024-10-13T06:32:34Z</time>
      </trkpt>
      <trkpt lat="46.76143" lon="0.40284">
        <ele>101</ele>
        <time>2024-10-13T06:32:37Z</time>
      </trkpt>
      <trkpt lat="46.76131" lon="0.40289">
        <ele>101.8</ele>
        <time>2024-10-13T06:32:41Z</time>
      </trkpt>
      <trkpt lat="46.76128" lon="0.4029">
        <ele>102.2</ele>
        <time>2024-10-13T06:32:42Z</time>
      </trkpt>
      <trkpt lat="46.76116" lon="0.40293">
        <ele>103.2</ele>
        <time>2024-10-13T06:32:46Z</time>
      </trkpt>
      <trkpt lat="46.76107" lon="0.40296">
        <ele>104</ele>
        <time>2024-10-13T06:32:49Z</time>
      </trkpt>
      <trkpt lat="46.76099" lon="0.40299">
        <ele>104.6</ele>
        <time>2024-10-13T06:32:52Z</time>
      </trkpt>
      <trkpt lat="46.7609" lon="0.40304">
        <ele>105.6</ele>
        <time>2024-10-13T06:32:56Z</time>
      </trkpt>
      <trkpt lat="46.76089" lon="0.40306">
        <ele>106</ele>
        <time>2024-10-13T06:32:57Z</time>
      </trkpt>
      <trkpt lat="46.76088" lon="0.40309">
        <ele>106.2</ele>
        <time>2024-10-13T06:32:58Z</time>
      </trkpt>
      <trkpt lat="46.76089" lon="0.40318">
        <ele>106.8</ele>
        <time>2024-10-13T06:33:00Z</time>
      </trkpt>
      <trkpt lat="46.76097" lon="0.40343">
        <ele>107.2</ele>
        <time>2024-10-13T06:33:06Z</time>
      </trkpt>
      <trkpt lat="46.76109" lon="0.40374">
        <ele>107.8</ele>
        <time>2024-10-13T06:33:13Z</time>
      </trkpt>
      <trkpt lat="46.76107" lon="0.40393">
        <ele>108.2</ele>
        <time>2024-10-13T06:33:17Z</time>
      </trkpt>
      <trkpt lat="46.76101" lon="0.40407">
        <ele>108.8</ele>
        <time>2024-10-13T06:33:21Z</time>
      </trkpt>
      <trkpt lat="46.761" lon="0.4041">
        <ele>109</ele>
        <time>2024-10-13T06:33:22Z</time>
      </trkpt>
      <trkpt lat="46.76094" lon="0.40425">
        <ele>110</ele>
        <time>2024-10-13T06:33:26Z</time>
      </trkpt>
      <trkpt lat="46.7609" lon="0.40434">
        <ele>110.6</ele>
        <time>2024-10-13T06:33:29Z</time>
      </trkpt>
      <trkpt lat="46.76086" lon="0.40446">
        <ele>111.2</ele>
        <time>2024-10-13T06:33:32Z</time>
      </trkpt>
      <trkpt lat="46.76083" lon="0.40464">
        <ele>112.2</ele>
        <time>2024-10-13T06:33:36Z</time>
      </trkpt>
      <trkpt lat="46.76079" lon="0.4049">
        <ele>113.2</ele>
        <time>2024-10-13T06:33:42Z</time>
      </trkpt>
      <trkpt lat="46.76081" lon="0.40509">
        <ele>114.4</ele>
        <time>2024-10-13T06:33:46Z</time>
      </trkpt>
      <trkpt lat="46.76086" lon="0.40531">
        <ele>115.2</ele>
        <time>2024-10-13T06:33:51Z</time>
      </trkpt>
      <trkpt lat="46.76087" lon="0.40536">
        <ele>115.6</ele>
        <time>2024-10-13T06:33:52Z</time>
      </trkpt>
      <trkpt lat="46.76095" lon="0.40563">
        <ele>116.6</ele>
        <time>2024-10-13T06:33:58Z</time>
      </trkpt>
      <trkpt lat="46.76096" lon="0.40567">
        <ele>116.8</ele>
        <time>2024-10-13T06:33:59Z</time>
      </trkpt>
      <trkpt lat="46.76099" lon="0.40585">
        <ele>117.8</ele>
        <time>2024-10-13T06:34:05Z</time>
      </trkpt>
      <trkpt lat="46.76099" lon="0.40592">
        <ele>118.2</ele>
        <time>2024-10-13T06:34:07Z</time>
      </trkpt>
      <trkpt lat="46.76095" lon="0.40605">
        <ele>119</ele>
        <time>2024-10-13T06:34:11Z</time>
      </trkpt>
      <trkpt lat="46.76092" lon="0.40609">
        <ele>119.4</ele>
        <time>2024-10-13T06:34:13Z</time>
      </trkpt>
      <trkpt lat="46.7609" lon="0.40616">
        <ele>120.2</ele>
        <time>2024-10-13T06:34:17Z</time>
      </trkpt>
      <trkpt lat="46.76085" lon="0.40623">
        <ele>121</ele>
        <time>2024-10-13T06:34:21Z</time>
      </trkpt>
      <trkpt lat="46.76084" lon="0.40625">
        <ele>121.2</ele>
        <time>2024-10-13T06:34:22Z</time>
      </trkpt>
      <trkpt lat="46.7608" lon="0.40633">
        <ele>122.6</ele>
        <time>2024-10-13T06:34:26Z</time>
      </trkpt>
      <trkpt lat="46.76078" lon="0.40638">
        <ele>123.2</ele>
        <time>2024-10-13T06:34:28Z</time>
      </trkpt>
      <trkpt lat="46.76076" lon="0.40642">
        <ele>123.8</ele>
        <time>2024-10-13T06:34:30Z</time>
      </trkpt>
      <trkpt lat="46.76073" lon="0.40647">
        <ele>125</ele>
        <time>2024-10-13T06:34:34Z</time>
      </trkpt>
      <trkpt lat="46.76073" lon="0.40649">
        <ele>125.2</ele>
        <time>2024-10-13T06:34:35Z</time>
      </trkpt>
      <trkpt lat="46.76073" lon="0.40651">
        <ele>125.4</ele>
        <time>2024-10-13T06:34:36Z</time>
      </trkpt>
      <trkpt lat="46.76073" lon="0.40658">
        <ele>126.2</ele>
        <time>2024-10-13T06:34:39Z</time>
      </trkpt>
      <trkpt lat="46.76072" lon="0.40665">
        <ele>126.8</ele>
        <time>2024-10-13T06:34:41Z</time>
      </trkpt>
      <trkpt lat="46.76072" lon="0.40672">
        <ele>127.4</ele>
        <time>2024-10-13T06:34:43Z</time>
      </trkpt>
      <trkpt lat="46.76073" lon="0.40682">
        <ele>128.4</ele>
        <time>2024-10-13T06:34:47Z</time>
      </trkpt>
      <trkpt lat="46.76074" lon="0.40688">
        <ele>129</ele>
        <time>2024-10-13T06:34:49Z</time>
      </trkpt>
      <trkpt lat="46.76074" lon="0.40696">
        <ele>129.8</ele>
        <time>2024-10-13T06:34:52Z</time>
      </trkpt>
      <trkpt lat="46.76074" lon="0.4071">
        <ele>130.8</ele>
        <time>2024-10-13T06:34:57Z</time>
      </trkpt>
      <trkpt lat="46.76071" lon="0.40723">
        <ele>132</ele>
        <time>2024-10-13T06:35:03Z</time>
      </trkpt>
      <trkpt lat="46.76071" lon="0.40726">
        <ele>132.4</ele>
        <time>2024-10-13T06:35:04Z</time>
      </trkpt>
      <trkpt lat="46.76069" lon="0.40732">
        <ele>132.8</ele>
        <time>2024-10-13T06:35:07Z</time>
      </trkpt>
      <trkpt lat="46.76068" lon="0.40733">
        <ele>133.2</ele>
        <time>2024-10-13T06:35:08Z</time>
      </trkpt>
      <trkpt lat="46.76064" lon="0.40738">
        <ele>134</ele>
        <time>2024-10-13T06:35:11Z</time>
      </trkpt>
      <trkpt lat="46.7606" lon="0.40743">
        <ele>134.4</ele>
        <time>2024-10-13T06:35:15Z</time>
      </trkpt>
      <trkpt lat="46.76055" lon="0.40749">
        <ele>135.2</ele>
        <time>2024-10-13T06:35:18Z</time>
      </trkpt>
      <trkpt lat="46.76054" lon="0.4075">
        <ele>135.4</ele>
        <time>2024-10-13T06:35:19Z</time>
      </trkpt>
      <trkpt lat="46.76044" lon="0.40762">
        <ele>136.4</ele>
        <time>2024-10-13T06:35:26Z</time>
      </trkpt>
      <trkpt lat="46.76037" lon="0.40771">
        <ele>137.6</ele>
        <time>2024-10-13T06:35:31Z</time>
      </trkpt>
      <trkpt lat="46.7603" lon="0.40778">
        <ele>138.2</ele>
        <time>2024-10-13T06:35:35Z</time>
      </trkpt>
      <trkpt lat="46.76023" lon="0.40783">
        <ele>138.6</ele>
        <time>2024-10-13T06:35:38Z</time>
      </trkpt>
      <trkpt lat="46.76015" lon="0.40788">
        <ele>139.4</ele>
        <time>2024-10-13T06:35:42Z</time>
      </trkpt>
      <trkpt lat="46.76011" lon="0.40792">
        <ele>139.8</ele>
        <time>2024-10-13T06:35:44Z</time>
      </trkpt>
      <trkpt lat="46.76005" lon="0.40798">
        <ele>140.4</ele>
        <time>2024-10-13T06:35:47Z</time>
      </trkpt>
      <trkpt lat="46.76004" lon="0.40802">
        <ele>140.4</ele>
        <time>2024-10-13T06:35:48Z</time>
      </trkpt>
      <trkpt lat="46.76004" lon="0.40806">
        <ele>140.6</ele>
        <time>2024-10-13T06:35:49Z</time>
      </trkpt>
      <trkpt lat="46.76004" lon="0.40822">
        <ele>140.4</ele>
        <time>2024-10-13T06:35:53Z</time>
      </trkpt>
      <trkpt lat="46.76001" lon="0.40849">
        <ele>140.4</ele>
        <time>2024-10-13T06:35:59Z</time>
      </trkpt>
      <trkpt lat="46.76" lon="0.4087">
        <ele>139.8</ele>
        <time>2024-10-13T06:36:04Z</time>
      </trkpt>
      <trkpt lat="46.76006" lon="0.40875">
        <ele>139.4</ele>
        <time>2024-10-13T06:36:07Z</time>
      </trkpt>
      <trkpt lat="46.7601" lon="0.40876">
        <ele>139.2</ele>
        <time>2024-10-13T06:36:09Z</time>
      </trkpt>
      <trkpt lat="46.76013" lon="0.40875">
        <ele>138.8</ele>
        <time>2024-10-13T06:36:10Z</time>
      </trkpt>
      <trkpt lat="46.76021" lon="0.40873">
        <ele>137.2</ele>
        <time>2024-10-13T06:36:13Z</time>
      </trkpt>
      <trkpt lat="46.76028" lon="0.40872">
        <ele>136</ele>
        <time>2024-10-13T06:36:16Z</time>
      </trkpt>
      <trkpt lat="46.76031" lon="0.40871">
        <ele>135.6</ele>
        <time>2024-10-13T06:36:17Z</time>
      </trkpt>
      <trkpt lat="46.76036" lon="0.40871">
        <ele>134.4</ele>
        <time>2024-10-13T06:36:19Z</time>
      </trkpt>
      <trkpt lat="46.76041" lon="0.4087">
        <ele>133</ele>
        <time>2024-10-13T06:36:21Z</time>
      </trkpt>
      <trkpt lat="46.76044" lon="0.40869">
        <ele>132.6</ele>
        <time>2024-10-13T06:36:22Z</time>
      </trkpt>
      <trkpt lat="46.76054" lon="0.40868">
        <ele>132</ele>
        <time>2024-10-13T06:36:26Z</time>
      </trkpt>
      <trkpt lat="46.76057" lon="0.40869">
        <ele>131.6</ele>
        <time>2024-10-13T06:36:27Z</time>
      </trkpt>
      <trkpt lat="46.76063" lon="0.40872">
        <ele>131</ele>
        <time>2024-10-13T06:36:29Z</time>
      </trkpt>
      <trkpt lat="46.76072" lon="0.40878">
        <ele>129.8</ele>
        <time>2024-10-13T06:36:32Z</time>
      </trkpt>
      <trkpt lat="46.76081" lon="0.40883">
        <ele>128.6</ele>
        <time>2024-10-13T06:36:35Z</time>
      </trkpt>
      <trkpt lat="46.76083" lon="0.40886">
        <ele>127.6</ele>
        <time>2024-10-13T06:36:36Z</time>
      </trkpt>
      <trkpt lat="46.76084" lon="0.40889">
        <ele>126.6</ele>
        <time>2024-10-13T06:36:37Z</time>
      </trkpt>
      <trkpt lat="46.76087" lon="0.40894">
        <ele>125.6</ele>
        <time>2024-10-13T06:36:39Z</time>
      </trkpt>
      <trkpt lat="46.76089" lon="0.40896">
        <ele>125.4</ele>
        <time>2024-10-13T06:36:40Z</time>
      </trkpt>
      <trkpt lat="46.76092" lon="0.40898">
        <ele>125.2</ele>
        <time>2024-10-13T06:36:42Z</time>
      </trkpt>
      <trkpt lat="46.761" lon="0.40904">
        <ele>124.2</ele>
        <time>2024-10-13T06:36:47Z</time>
      </trkpt>
      <trkpt lat="46.76101" lon="0.40905">
        <ele>124</ele>
        <time>2024-10-13T06:36:48Z</time>
      </trkpt>
      <trkpt lat="46.76103" lon="0.40908">
        <ele>123.8</ele>
        <time>2024-10-13T06:36:49Z</time>
      </trkpt>
      <trkpt lat="46.76106" lon="0.40913">
        <ele>123.6</ele>
        <time>2024-10-13T06:36:51Z</time>
      </trkpt>
      <trkpt lat="46.76111" lon="0.40914">
        <ele>123.6</ele>
        <time>2024-10-13T06:36:53Z</time>
      </trkpt>
      <trkpt lat="46.76115" lon="0.40918">
        <ele>123.6</ele>
        <time>2024-10-13T06:36:55Z</time>
      </trkpt>
      <trkpt lat="46.76123" lon="0.40928">
        <ele>124</ele>
        <time>2024-10-13T06:36:58Z</time>
      </trkpt>
      <trkpt lat="46.76131" lon="0.40948">
        <ele>125.4</ele>
        <time>2024-10-13T06:37:04Z</time>
      </trkpt>
      <trkpt lat="46.76133" lon="0.40958">
        <ele>126</ele>
        <time>2024-10-13T06:37:07Z</time>
      </trkpt>
      <trkpt lat="46.76133" lon="0.40964">
        <ele>126.4</ele>
        <time>2024-10-13T06:37:09Z</time>
      </trkpt>
      <trkpt lat="46.76133" lon="0.40977">
        <ele>127.6</ele>
        <time>2024-10-13T06:37:13Z</time>
      </trkpt>
      <trkpt lat="46.76132" lon="0.40987">
        <ele>128</ele>
        <time>2024-10-13T06:37:16Z</time>
      </trkpt>
      <trkpt lat="46.76131" lon="0.41001">
        <ele>128.2</ele>
        <time>2024-10-13T06:37:21Z</time>
      </trkpt>
      <trkpt lat="46.7613" lon="0.41003">
        <ele>128.4</ele>
        <time>2024-10-13T06:37:22Z</time>
      </trkpt>
      <trkpt lat="46.76133" lon="0.41022">
        <ele>128.8</ele>
        <time>2024-10-13T06:37:26Z</time>
      </trkpt>
      <trkpt lat="46.76133" lon="0.41025">
        <ele>129</ele>
        <time>2024-10-13T06:37:27Z</time>
      </trkpt>
      <trkpt lat="46.76133" lon="0.41029">
        <ele>129.2</ele>
        <time>2024-10-13T06:37:29Z</time>
      </trkpt>
      <trkpt lat="46.76135" lon="0.41037">
        <ele>130.2</ele>
        <time>2024-10-13T06:37:31Z</time>
      </trkpt>
      <trkpt lat="46.76135" lon="0.4104">
        <ele>130.4</ele>
        <time>2024-10-13T06:37:32Z</time>
      </trkpt>
      <trkpt lat="46.76136" lon="0.41048">
        <ele>131.4</ele>
        <time>2024-10-13T06:37:35Z</time>
      </trkpt>
      <trkpt lat="46.76134" lon="0.41056">
        <ele>132.2</ele>
        <time>2024-10-13T06:37:38Z</time>
      </trkpt>
      <trkpt lat="46.76133" lon="0.41059">
        <ele>132.4</ele>
        <time>2024-10-13T06:37:39Z</time>
      </trkpt>
      <trkpt lat="46.7613" lon="0.41064">
        <ele>132.6</ele>
        <time>2024-10-13T06:37:41Z</time>
      </trkpt>
      <trkpt lat="46.76125" lon="0.41075">
        <ele>132.8</ele>
        <time>2024-10-13T06:37:45Z</time>
      </trkpt>
      <trkpt lat="46.76121" lon="0.41086">
        <ele>133.6</ele>
        <time>2024-10-13T06:37:49Z</time>
      </trkpt>
      <trkpt lat="46.76119" lon="0.41093">
        <ele>134.6</ele>
        <time>2024-10-13T06:37:52Z</time>
      </trkpt>
      <trkpt lat="46.76118" lon="0.41096">
        <ele>134.6</ele>
        <time>2024-10-13T06:37:53Z</time>
      </trkpt>
      <trkpt lat="46.76116" lon="0.41105">
        <ele>135.8</ele>
        <time>2024-10-13T06:37:56Z</time>
      </trkpt>
      <trkpt lat="46.76114" lon="0.41117">
        <ele>136.6</ele>
        <time>2024-10-13T06:38:00Z</time>
      </trkpt>
      <trkpt lat="46.76113" lon="0.41119">
        <ele>137</ele>
        <time>2024-10-13T06:38:01Z</time>
      </trkpt>
      <trkpt lat="46.76111" lon="0.41125">
        <ele>137.6</ele>
        <time>2024-10-13T06:38:04Z</time>
      </trkpt>
      <trkpt lat="46.76108" lon="0.41129">
        <ele>138.2</ele>
        <time>2024-10-13T06:38:06Z</time>
      </trkpt>
      <trkpt lat="46.76107" lon="0.4113">
        <ele>138.4</ele>
        <time>2024-10-13T06:38:07Z</time>
      </trkpt>
      <trkpt lat="46.76101" lon="0.41148">
        <ele>139.2</ele>
        <time>2024-10-13T06:38:13Z</time>
      </trkpt>
      <trkpt lat="46.76101" lon="0.41151">
        <ele>139.2</ele>
        <time>2024-10-13T06:38:14Z</time>
      </trkpt>
      <trkpt lat="46.76102" lon="0.41154">
        <ele>139.4</ele>
        <time>2024-10-13T06:38:16Z</time>
      </trkpt>
      <trkpt lat="46.76105" lon="0.4116">
        <ele>139.6</ele>
        <time>2024-10-13T06:38:19Z</time>
      </trkpt>
      <trkpt lat="46.76106" lon="0.4116">
        <ele>139.6</ele>
        <time>2024-10-13T06:38:20Z</time>
      </trkpt>
      <trkpt lat="46.76112" lon="0.4116">
        <ele>139.4</ele>
        <time>2024-10-13T06:38:24Z</time>
      </trkpt>
      <trkpt lat="46.76124" lon="0.41158">
        <ele>138.6</ele>
        <time>2024-10-13T06:38:30Z</time>
      </trkpt>
      <trkpt lat="46.76134" lon="0.41151">
        <ele>138.2</ele>
        <time>2024-10-13T06:38:34Z</time>
      </trkpt>
      <trkpt lat="46.7614" lon="0.41147">
        <ele>137.2</ele>
        <time>2024-10-13T06:38:37Z</time>
      </trkpt>
      <trkpt lat="46.76142" lon="0.41146">
        <ele>136.8</ele>
        <time>2024-10-13T06:38:38Z</time>
      </trkpt>
      <trkpt lat="46.76148" lon="0.41142">
        <ele>136.2</ele>
        <time>2024-10-13T06:38:40Z</time>
      </trkpt>
      <trkpt lat="46.76153" lon="0.41138">
        <ele>135.6</ele>
        <time>2024-10-13T06:38:42Z</time>
      </trkpt>
      <trkpt lat="46.76156" lon="0.41137">
        <ele>135.4</ele>
        <time>2024-10-13T06:38:43Z</time>
      </trkpt>
      <trkpt lat="46.76166" lon="0.41133">
        <ele>134.4</ele>
        <time>2024-10-13T06:38:47Z</time>
      </trkpt>
      <trkpt lat="46.76171" lon="0.41135">
        <ele>134</ele>
        <time>2024-10-13T06:38:49Z</time>
      </trkpt>
      <trkpt lat="46.76173" lon="0.41136">
        <ele>133.8</ele>
        <time>2024-10-13T06:38:50Z</time>
      </trkpt>
      <trkpt lat="46.76179" lon="0.4114">
        <ele>134.2</ele>
        <time>2024-10-13T06:38:53Z</time>
      </trkpt>
      <trkpt lat="46.76185" lon="0.41142">
        <ele>134.6</ele>
        <time>2024-10-13T06:38:56Z</time>
      </trkpt>
      <trkpt lat="46.76189" lon="0.41145">
        <ele>134.8</ele>
        <time>2024-10-13T06:38:59Z</time>
      </trkpt>
      <trkpt lat="46.76193" lon="0.41149">
        <ele>135.4</ele>
        <time>2024-10-13T06:39:02Z</time>
      </trkpt>
      <trkpt lat="46.76194" lon="0.4115">
        <ele>135.6</ele>
        <time>2024-10-13T06:39:03Z</time>
      </trkpt>
      <trkpt lat="46.76203" lon="0.41161">
        <ele>136.2</ele>
        <time>2024-10-13T06:39:09Z</time>
      </trkpt>
      <trkpt lat="46.76207" lon="0.41165">
        <ele>136.2</ele>
        <time>2024-10-13T06:39:11Z</time>
      </trkpt>
      <trkpt lat="46.76214" lon="0.41171">
        <ele>136.6</ele>
        <time>2024-10-13T06:39:15Z</time>
      </trkpt>
      <trkpt lat="46.76218" lon="0.41176">
        <ele>136.6</ele>
        <time>2024-10-13T06:39:17Z</time>
      </trkpt>
      <trkpt lat="46.76226" lon="0.41191">
        <ele>137.2</ele>
        <time>2024-10-13T06:39:23Z</time>
      </trkpt>
      <trkpt lat="46.76228" lon="0.41199">
        <ele>137.6</ele>
        <time>2024-10-13T06:39:25Z</time>
      </trkpt>
      <trkpt lat="46.76227" lon="0.41209">
        <ele>138</ele>
        <time>2024-10-13T06:39:28Z</time>
      </trkpt>
      <trkpt lat="46.76229" lon="0.41214">
        <ele>138.2</ele>
        <time>2024-10-13T06:39:29Z</time>
      </trkpt>
      <trkpt lat="46.76231" lon="0.41221">
        <ele>138.8</ele>
        <time>2024-10-13T06:39:32Z</time>
      </trkpt>
      <trkpt lat="46.76242" lon="0.41242">
        <ele>138.8</ele>
        <time>2024-10-13T06:39:39Z</time>
      </trkpt>
      <trkpt lat="46.76254" lon="0.41266">
        <ele>139.2</ele>
        <time>2024-10-13T06:39:46Z</time>
      </trkpt>
      <trkpt lat="46.76256" lon="0.41275">
        <ele>139.4</ele>
        <time>2024-10-13T06:39:49Z</time>
      </trkpt>
      <trkpt lat="46.76255" lon="0.4128">
        <ele>139.4</ele>
        <time>2024-10-13T06:39:51Z</time>
      </trkpt>
      <trkpt lat="46.76251" lon="0.41294">
        <ele>139.8</ele>
        <time>2024-10-13T06:39:56Z</time>
      </trkpt>
      <trkpt lat="46.76248" lon="0.413">
        <ele>140</ele>
        <time>2024-10-13T06:39:58Z</time>
      </trkpt>
      <trkpt lat="46.76238" lon="0.41326">
        <ele>140.8</ele>
        <time>2024-10-13T06:40:05Z</time>
      </trkpt>
      <trkpt lat="46.76234" lon="0.4133">
        <ele>141</ele>
        <time>2024-10-13T06:40:07Z</time>
      </trkpt>
      <trkpt lat="46.7623" lon="0.41328">
        <ele>141.4</ele>
        <time>2024-10-13T06:40:09Z</time>
      </trkpt>
      <trkpt lat="46.76217" lon="0.41313">
        <ele>141.6</ele>
        <time>2024-10-13T06:40:14Z</time>
      </trkpt>
      <trkpt lat="46.76214" lon="0.41309">
        <ele>141.6</ele>
        <time>2024-10-13T06:40:15Z</time>
      </trkpt>
      <trkpt lat="46.76196" lon="0.41288">
        <ele>141.2</ele>
        <time>2024-10-13T06:40:20Z</time>
      </trkpt>
      <trkpt lat="46.76193" lon="0.41284">
        <ele>141.2</ele>
        <time>2024-10-13T06:40:21Z</time>
      </trkpt>
      <trkpt lat="46.76186" lon="0.41276">
        <ele>141.2</ele>
        <time>2024-10-13T06:40:23Z</time>
      </trkpt>
      <trkpt lat="46.76173" lon="0.4126">
        <ele>141</ele>
        <time>2024-10-13T06:40:27Z</time>
      </trkpt>
      <trkpt lat="46.7615" lon="0.41234">
        <ele>140.4</ele>
        <time>2024-10-13T06:40:34Z</time>
      </trkpt>
      <trkpt lat="46.76145" lon="0.41228">
        <ele>140.4</ele>
        <time>2024-10-13T06:40:36Z</time>
      </trkpt>
      <trkpt lat="46.76133" lon="0.41218">
        <ele>140.4</ele>
        <time>2024-10-13T06:40:40Z</time>
      </trkpt>
      <trkpt lat="46.76122" lon="0.4121">
        <ele>140.2</ele>
        <time>2024-10-13T06:40:44Z</time>
      </trkpt>
      <trkpt lat="46.76116" lon="0.41207">
        <ele>140.2</ele>
        <time>2024-10-13T06:40:46Z</time>
      </trkpt>
      <trkpt lat="46.76092" lon="0.41192">
        <ele>140.2</ele>
        <time>2024-10-13T06:40:54Z</time>
      </trkpt>
      <trkpt lat="46.76066" lon="0.41173">
        <ele>140.8</ele>
        <time>2024-10-13T06:41:01Z</time>
      </trkpt>
      <trkpt lat="46.7604" lon="0.41151">
        <ele>141</ele>
        <time>2024-10-13T06:41:08Z</time>
      </trkpt>
      <trkpt lat="46.76017" lon="0.41135">
        <ele>141.8</ele>
        <time>2024-10-13T06:41:14Z</time>
      </trkpt>
      <trkpt lat="46.76009" lon="0.41131">
        <ele>142</ele>
        <time>2024-10-13T06:41:16Z</time>
      </trkpt>
      <trkpt lat="46.76001" lon="0.41127">
        <ele>142.2</ele>
        <time>2024-10-13T06:41:18Z</time>
      </trkpt>
      <trkpt lat="46.75993" lon="0.41124">
        <ele>142.6</ele>
        <time>2024-10-13T06:41:20Z</time>
      </trkpt>
      <trkpt lat="46.75976" lon="0.41118">
        <ele>143</ele>
        <time>2024-10-13T06:41:24Z</time>
      </trkpt>
      <trkpt lat="46.75962" lon="0.41113">
        <ele>143</ele>
        <time>2024-10-13T06:41:27Z</time>
      </trkpt>
      <trkpt lat="46.75943" lon="0.41104">
        <ele>143</ele>
        <time>2024-10-13T06:41:31Z</time>
      </trkpt>
      <trkpt lat="46.7593" lon="0.41099">
        <ele>143.6</ele>
        <time>2024-10-13T06:41:34Z</time>
      </trkpt>
      <trkpt lat="46.75917" lon="0.41092">
        <ele>144</ele>
        <time>2024-10-13T06:41:37Z</time>
      </trkpt>
      <trkpt lat="46.75909" lon="0.41083">
        <ele>144.4</ele>
        <time>2024-10-13T06:41:39Z</time>
      </trkpt>
      <trkpt lat="46.75905" lon="0.41077">
        <ele>144.4</ele>
        <time>2024-10-13T06:41:40Z</time>
      </trkpt>
      <trkpt lat="46.75901" lon="0.4107">
        <ele>144.6</ele>
        <time>2024-10-13T06:41:41Z</time>
      </trkpt>
      <trkpt lat="46.75891" lon="0.41046">
        <ele>144.6</ele>
        <time>2024-10-13T06:41:45Z</time>
      </trkpt>
      <trkpt lat="46.7588" lon="0.4101">
        <ele>144.6</ele>
        <time>2024-10-13T06:41:51Z</time>
      </trkpt>
      <trkpt lat="46.75878" lon="0.41003">
        <ele>144.4</ele>
        <time>2024-10-13T06:41:52Z</time>
      </trkpt>
      <trkpt lat="46.7587" lon="0.4098">
        <ele>144.6</ele>
        <time>2024-10-13T06:41:56Z</time>
      </trkpt>
      <trkpt lat="46.7586" lon="0.40958">
        <ele>144.6</ele>
        <time>2024-10-13T06:42:00Z</time>
      </trkpt>
      <trkpt lat="46.75858" lon="0.40952">
        <ele>144.6</ele>
        <time>2024-10-13T06:42:01Z</time>
      </trkpt>
      <trkpt lat="46.75851" lon="0.40923">
        <ele>144.8</ele>
        <time>2024-10-13T06:42:07Z</time>
      </trkpt>
      <trkpt lat="46.75859" lon="0.40911">
        <ele>144.8</ele>
        <time>2024-10-13T06:42:12Z</time>
      </trkpt>
      <trkpt lat="46.75864" lon="0.40908">
        <ele>144.4</ele>
        <time>2024-10-13T06:42:14Z</time>
      </trkpt>
      <trkpt lat="46.75868" lon="0.40905">
        <ele>144.2</ele>
        <time>2024-10-13T06:42:16Z</time>
      </trkpt>
      <trkpt lat="46.75872" lon="0.40901">
        <ele>144.2</ele>
        <time>2024-10-13T06:42:18Z</time>
      </trkpt>
      <trkpt lat="46.75889" lon="0.40889">
        <ele>143.6</ele>
        <time>2024-10-13T06:42:24Z</time>
      </trkpt>
      <trkpt lat="46.75904" lon="0.40877">
        <ele>143</ele>
        <time>2024-10-13T06:42:29Z</time>
      </trkpt>
      <trkpt lat="46.75906" lon="0.40872">
        <ele>143</ele>
        <time>2024-10-13T06:42:30Z</time>
      </trkpt>
      <trkpt lat="46.75909" lon="0.40869">
        <ele>142.8</ele>
        <time>2024-10-13T06:42:31Z</time>
      </trkpt>
      <trkpt lat="46.75925" lon="0.40853">
        <ele>142.2</ele>
        <time>2024-10-13T06:42:36Z</time>
      </trkpt>
      <trkpt lat="46.75929" lon="0.4085">
        <ele>142</ele>
        <time>2024-10-13T06:42:37Z</time>
      </trkpt>
      <trkpt lat="46.75942" lon="0.40841">
        <ele>140.8</ele>
        <time>2024-10-13T06:42:40Z</time>
      </trkpt>
      <trkpt lat="46.75952" lon="0.40838">
        <ele>140.6</ele>
        <time>2024-10-13T06:42:42Z</time>
      </trkpt>
      <trkpt lat="46.75963" lon="0.40837">
        <ele>140</ele>
        <time>2024-10-13T06:42:45Z</time>
      </trkpt>
      <trkpt lat="46.75967" lon="0.40835">
        <ele>139.8</ele>
        <time>2024-10-13T06:42:46Z</time>
      </trkpt>
      <trkpt lat="46.75969" lon="0.40835">
        <ele>139.6</ele>
        <time>2024-10-13T06:42:47Z</time>
      </trkpt>
      <trkpt lat="46.75973" lon="0.40833">
        <ele>139.4</ele>
        <time>2024-10-13T06:42:49Z</time>
      </trkpt>
      <trkpt lat="46.75975" lon="0.4082">
        <ele>139.2</ele>
        <time>2024-10-13T06:42:53Z</time>
      </trkpt>
      <trkpt lat="46.75977" lon="0.40815">
        <ele>139</ele>
        <time>2024-10-13T06:42:55Z</time>
      </trkpt>
      <trkpt lat="46.75982" lon="0.40808">
        <ele>139.2</ele>
        <time>2024-10-13T06:42:58Z</time>
      </trkpt>
      <trkpt lat="46.75995" lon="0.40793">
        <ele>139</ele>
        <time>2024-10-13T06:43:04Z</time>
      </trkpt>
      <trkpt lat="46.75997" lon="0.40789">
        <ele>138.6</ele>
        <time>2024-10-13T06:43:05Z</time>
      </trkpt>
      <trkpt lat="46.75999" lon="0.40785">
        <ele>138.4</ele>
        <time>2024-10-13T06:43:06Z</time>
      </trkpt>
      <trkpt lat="46.76003" lon="0.40775">
        <ele>137.8</ele>
        <time>2024-10-13T06:43:09Z</time>
      </trkpt>
      <trkpt lat="46.76004" lon="0.40773">
        <ele>137.4</ele>
        <time>2024-10-13T06:43:10Z</time>
      </trkpt>
      <trkpt lat="46.76009" lon="0.4076">
        <ele>136.4</ele>
        <time>2024-10-13T06:43:14Z</time>
      </trkpt>
      <trkpt lat="46.76013" lon="0.4075">
        <ele>135.8</ele>
        <time>2024-10-13T06:43:16Z</time>
      </trkpt>
      <trkpt lat="46.76013" lon="0.40738">
        <ele>135.6</ele>
        <time>2024-10-13T06:43:18Z</time>
      </trkpt>
      <trkpt lat="46.76011" lon="0.40732">
        <ele>135.6</ele>
        <time>2024-10-13T06:43:19Z</time>
      </trkpt>
      <trkpt lat="46.76006" lon="0.40711">
        <ele>136.2</ele>
        <time>2024-10-13T06:43:22Z</time>
      </trkpt>
      <trkpt lat="46.76004" lon="0.40696">
        <ele>136.4</ele>
        <time>2024-10-13T06:43:24Z</time>
      </trkpt>
      <trkpt lat="46.76003" lon="0.4069">
        <ele>136.4</ele>
        <time>2024-10-13T06:43:25Z</time>
      </trkpt>
      <trkpt lat="46.75996" lon="0.40656">
        <ele>135.6</ele>
        <time>2024-10-13T06:43:30Z</time>
      </trkpt>
      <trkpt lat="46.75994" lon="0.4065">
        <ele>135.4</ele>
        <time>2024-10-13T06:43:31Z</time>
      </trkpt>
      <trkpt lat="46.75994" lon="0.40645">
        <ele>135</ele>
        <time>2024-10-13T06:43:32Z</time>
      </trkpt>
      <trkpt lat="46.75997" lon="0.4063">
        <ele>134.4</ele>
        <time>2024-10-13T06:43:35Z</time>
      </trkpt>
      <trkpt lat="46.75996" lon="0.40609">
        <ele>134</ele>
        <time>2024-10-13T06:43:40Z</time>
      </trkpt>
      <trkpt lat="46.75992" lon="0.40594">
        <ele>134.4</ele>
        <time>2024-10-13T06:43:44Z</time>
      </trkpt>
      <trkpt lat="46.75991" lon="0.40592">
        <ele>134.6</ele>
        <time>2024-10-13T06:43:45Z</time>
      </trkpt>
      <trkpt lat="46.75988" lon="0.40587">
        <ele>134.6</ele>
        <time>2024-10-13T06:43:47Z</time>
      </trkpt>
      <trkpt lat="46.75984" lon="0.40583">
        <ele>134.8</ele>
        <time>2024-10-13T06:43:49Z</time>
      </trkpt>
      <trkpt lat="46.75981" lon="0.40581">
        <ele>135</ele>
        <time>2024-10-13T06:43:51Z</time>
      </trkpt>
      <trkpt lat="46.7598" lon="0.4058">
        <ele>135.2</ele>
        <time>2024-10-13T06:43:52Z</time>
      </trkpt>
      <trkpt lat="46.75978" lon="0.4058">
        <ele>135.8</ele>
        <time>2024-10-13T06:43:54Z</time>
      </trkpt>
      <trkpt lat="46.75976" lon="0.40582">
        <ele>136.4</ele>
        <time>2024-10-13T06:43:56Z</time>
      </trkpt>
      <trkpt lat="46.7597" lon="0.40589">
        <ele>137.4</ele>
        <time>2024-10-13T06:44:00Z</time>
      </trkpt>
      <trkpt lat="46.75968" lon="0.40591">
        <ele>137.6</ele>
        <time>2024-10-13T06:44:01Z</time>
      </trkpt>
      <trkpt lat="46.75965" lon="0.40595">
        <ele>138</ele>
        <time>2024-10-13T06:44:03Z</time>
      </trkpt>
      <trkpt lat="46.7596" lon="0.40596">
        <ele>138.2</ele>
        <time>2024-10-13T06:44:05Z</time>
      </trkpt>
      <trkpt lat="46.75952" lon="0.406">
        <ele>138.4</ele>
        <time>2024-10-13T06:44:08Z</time>
      </trkpt>
      <trkpt lat="46.75949" lon="0.40601">
        <ele>138.6</ele>
        <time>2024-10-13T06:44:09Z</time>
      </trkpt>
      <trkpt lat="46.75947" lon="0.406">
        <ele>138.6</ele>
        <time>2024-10-13T06:44:10Z</time>
      </trkpt>
      <trkpt lat="46.7594" lon="0.40592">
        <ele>139.2</ele>
        <time>2024-10-13T06:44:15Z</time>
      </trkpt>
      <trkpt lat="46.75934" lon="0.40585">
        <ele>139.2</ele>
        <time>2024-10-13T06:44:21Z</time>
      </trkpt>
      <trkpt lat="46.75934" lon="0.40583">
        <ele>139.2</ele>
        <time>2024-10-13T06:44:22Z</time>
      </trkpt>
      <trkpt lat="46.75935" lon="0.40574">
        <ele>139.2</ele>
        <time>2024-10-13T06:44:26Z</time>
      </trkpt>
      <trkpt lat="46.75935" lon="0.40563">
        <ele>138.2</ele>
        <time>2024-10-13T06:44:31Z</time>
      </trkpt>
      <trkpt lat="46.75935" lon="0.40557">
        <ele>138</ele>
        <time>2024-10-13T06:44:34Z</time>
      </trkpt>
      <trkpt lat="46.75933" lon="0.40555">
        <ele>137.8</ele>
        <time>2024-10-13T06:44:36Z</time>
      </trkpt>
      <trkpt lat="46.7593" lon="0.40548">
        <ele>138</ele>
        <time>2024-10-13T06:44:39Z</time>
      </trkpt>
      <trkpt lat="46.75929" lon="0.40541">
        <ele>138.2</ele>
        <time>2024-10-13T06:44:41Z</time>
      </trkpt>
      <trkpt lat="46.75929" lon="0.4052">
        <ele>138.4</ele>
        <time>2024-10-13T06:44:46Z</time>
      </trkpt>
      <trkpt lat="46.75929" lon="0.40518">
        <ele>138.4</ele>
        <time>2024-10-13T06:44:47Z</time>
      </trkpt>
      <trkpt lat="46.7593" lon="0.40509">
        <ele>137.8</ele>
        <time>2024-10-13T06:44:51Z</time>
      </trkpt>
      <trkpt lat="46.7593" lon="0.40505">
        <ele>137.4</ele>
        <time>2024-10-13T06:44:53Z</time>
      </trkpt>
      <trkpt lat="46.75931" lon="0.40503">
        <ele>137.2</ele>
        <time>2024-10-13T06:44:54Z</time>
      </trkpt>
      <trkpt lat="46.75934" lon="0.40498">
        <ele>136.8</ele>
        <time>2024-10-13T06:44:57Z</time>
      </trkpt>
      <trkpt lat="46.75936" lon="0.40491">
        <ele>136.2</ele>
        <time>2024-10-13T06:44:59Z</time>
      </trkpt>
      <trkpt lat="46.75937" lon="0.40485">
        <ele>135.8</ele>
        <time>2024-10-13T06:45:00Z</time>
      </trkpt>
      <trkpt lat="46.75938" lon="0.40475">
        <ele>135.6</ele>
        <time>2024-10-13T06:45:02Z</time>
      </trkpt>
      <trkpt lat="46.75939" lon="0.40464">
        <ele>135.2</ele>
        <time>2024-10-13T06:45:05Z</time>
      </trkpt>
      <trkpt lat="46.7594" lon="0.40462">
        <ele>134.8</ele>
        <time>2024-10-13T06:45:06Z</time>
      </trkpt>
      <trkpt lat="46.75942" lon="0.40457">
        <ele>134.6</ele>
        <time>2024-10-13T06:45:08Z</time>
      </trkpt>
      <trkpt lat="46.75943" lon="0.40445">
        <ele>134.4</ele>
        <time>2024-10-13T06:45:11Z</time>
      </trkpt>
      <trkpt lat="46.75937" lon="0.40436">
        <ele>134.4</ele>
        <time>2024-10-13T06:45:13Z</time>
      </trkpt>
      <trkpt lat="46.75933" lon="0.4043">
        <ele>134.6</ele>
        <time>2024-10-13T06:45:16Z</time>
      </trkpt>
      <trkpt lat="46.7593" lon="0.40421">
        <ele>135.2</ele>
        <time>2024-10-13T06:45:19Z</time>
      </trkpt>
      <trkpt lat="46.75927" lon="0.40399">
        <ele>135.8</ele>
        <time>2024-10-13T06:45:24Z</time>
      </trkpt>
      <trkpt lat="46.75926" lon="0.40394">
        <ele>135.8</ele>
        <time>2024-10-13T06:45:25Z</time>
      </trkpt>
      <trkpt lat="46.75923" lon="0.40388">
        <ele>136</ele>
        <time>2024-10-13T06:45:27Z</time>
      </trkpt>
      <trkpt lat="46.75921" lon="0.40386">
        <ele>136</ele>
        <time>2024-10-13T06:45:28Z</time>
      </trkpt>
      <trkpt lat="46.75911" lon="0.40383">
        <ele>137.2</ele>
        <time>2024-10-13T06:45:32Z</time>
      </trkpt>
      <trkpt lat="46.75903" lon="0.40379">
        <ele>138.2</ele>
        <time>2024-10-13T06:45:35Z</time>
      </trkpt>
      <trkpt lat="46.7589" lon="0.40375">
        <ele>139.6</ele>
        <time>2024-10-13T06:45:41Z</time>
      </trkpt>
      <trkpt lat="46.75883" lon="0.40369">
        <ele>140</ele>
        <time>2024-10-13T06:45:43Z</time>
      </trkpt>
      <trkpt lat="46.7588" lon="0.40364">
        <ele>140.2</ele>
        <time>2024-10-13T06:45:44Z</time>
      </trkpt>
      <trkpt lat="46.75864" lon="0.40331">
        <ele>140.6</ele>
        <time>2024-10-13T06:45:51Z</time>
      </trkpt>
      <trkpt lat="46.75851" lon="0.40302">
        <ele>140.8</ele>
        <time>2024-10-13T06:45:57Z</time>
      </trkpt>
      <trkpt lat="46.75849" lon="0.40297">
        <ele>140.8</ele>
        <time>2024-10-13T06:45:58Z</time>
      </trkpt>
      <trkpt lat="46.75842" lon="0.40286">
        <ele>140.6</ele>
        <time>2024-10-13T06:46:01Z</time>
      </trkpt>
      <trkpt lat="46.75835" lon="0.40273">
        <ele>141</ele>
        <time>2024-10-13T06:46:04Z</time>
      </trkpt>
      <trkpt lat="46.75833" lon="0.40268">
        <ele>141</ele>
        <time>2024-10-13T06:46:05Z</time>
      </trkpt>
      <trkpt lat="46.75827" lon="0.40259">
        <ele>141.2</ele>
        <time>2024-10-13T06:46:07Z</time>
      </trkpt>
      <trkpt lat="46.75823" lon="0.40249">
        <ele>141.2</ele>
        <time>2024-10-13T06:46:09Z</time>
      </trkpt>
      <trkpt lat="46.75813" lon="0.40227">
        <ele>140.8</ele>
        <time>2024-10-13T06:46:14Z</time>
      </trkpt>
      <trkpt lat="46.75807" lon="0.40224">
        <ele>140.8</ele>
        <time>2024-10-13T06:46:15Z</time>
      </trkpt>
      <trkpt lat="46.75805" lon="0.40225">
        <ele>141</ele>
        <time>2024-10-13T06:46:17Z</time>
      </trkpt>
      <trkpt lat="46.75798" lon="0.40227">
        <ele>141.8</ele>
        <time>2024-10-13T06:46:20Z</time>
      </trkpt>
      <trkpt lat="46.75796" lon="0.40227">
        <ele>142</ele>
        <time>2024-10-13T06:46:21Z</time>
      </trkpt>
      <trkpt lat="46.75783" lon="0.40228">
        <ele>142.8</ele>
        <time>2024-10-13T06:46:26Z</time>
      </trkpt>
      <trkpt lat="46.7578" lon="0.40229">
        <ele>142.8</ele>
        <time>2024-10-13T06:46:27Z</time>
      </trkpt>
      <trkpt lat="46.75767" lon="0.40232">
        <ele>143.8</ele>
        <time>2024-10-13T06:46:31Z</time>
      </trkpt>
      <trkpt lat="46.7576" lon="0.40234">
        <ele>144.2</ele>
        <time>2024-10-13T06:46:33Z</time>
      </trkpt>
      <trkpt lat="46.75743" lon="0.40242">
        <ele>144.8</ele>
        <time>2024-10-13T06:46:39Z</time>
      </trkpt>
      <trkpt lat="46.75739" lon="0.40242">
        <ele>144.8</ele>
        <time>2024-10-13T06:46:40Z</time>
      </trkpt>
      <trkpt lat="46.75724" lon="0.40247">
        <ele>145</ele>
        <time>2024-10-13T06:46:45Z</time>
      </trkpt>
      <trkpt lat="46.75711" lon="0.40254">
        <ele>145.8</ele>
        <time>2024-10-13T06:46:51Z</time>
      </trkpt>
      <trkpt lat="46.75699" lon="0.40251">
        <ele>146.4</ele>
        <time>2024-10-13T06:46:55Z</time>
      </trkpt>
      <trkpt lat="46.75689" lon="0.40235">
        <ele>146.8</ele>
        <time>2024-10-13T06:46:59Z</time>
      </trkpt>
      <trkpt lat="46.75685" lon="0.40225">
        <ele>146.8</ele>
        <time>2024-10-13T06:47:01Z</time>
      </trkpt>
      <trkpt lat="46.75671" lon="0.4019">
        <ele>146.8</ele>
        <time>2024-10-13T06:47:08Z</time>
      </trkpt>
      <trkpt lat="46.75653" lon="0.40142">
        <ele>146.2</ele>
        <time>2024-10-13T06:47:17Z</time>
      </trkpt>
      <trkpt lat="46.75643" lon="0.40116">
        <ele>145.8</ele>
        <time>2024-10-13T06:47:23Z</time>
      </trkpt>
      <trkpt lat="46.75643" lon="0.40101">
        <ele>145.8</ele>
        <time>2024-10-13T06:47:27Z</time>
      </trkpt>
      <trkpt lat="46.7564" lon="0.40078">
        <ele>145.2</ele>
        <time>2024-10-13T06:47:32Z</time>
      </trkpt>
      <trkpt lat="46.7564" lon="0.40067">
        <ele>145</ele>
        <time>2024-10-13T06:47:34Z</time>
      </trkpt>
      <trkpt lat="46.7564" lon="0.40058">
        <ele>144.8</ele>
        <time>2024-10-13T06:47:36Z</time>
      </trkpt>
      <trkpt lat="46.7564" lon="0.40053">
        <ele>144.8</ele>
        <time>2024-10-13T06:47:37Z</time>
      </trkpt>
      <trkpt lat="46.75642" lon="0.40048">
        <ele>144.8</ele>
        <time>2024-10-13T06:47:38Z</time>
      </trkpt>
      <trkpt lat="46.75644" lon="0.40039">
        <ele>144.6</ele>
        <time>2024-10-13T06:47:40Z</time>
      </trkpt>
      <trkpt lat="46.75648" lon="0.40028">
        <ele>144.2</ele>
        <time>2024-10-13T06:47:42Z</time>
      </trkpt>
      <trkpt lat="46.7565" lon="0.40022">
        <ele>144</ele>
        <time>2024-10-13T06:47:43Z</time>
      </trkpt>
      <trkpt lat="46.75651" lon="0.40008">
        <ele>143.4</ele>
        <time>2024-10-13T06:47:45Z</time>
      </trkpt>
      <trkpt lat="46.75651" lon="0.39995">
        <ele>142.4</ele>
        <time>2024-10-13T06:47:47Z</time>
      </trkpt>
      <trkpt lat="46.75651" lon="0.39989">
        <ele>142</ele>
        <time>2024-10-13T06:47:48Z</time>
      </trkpt>
      <trkpt lat="46.75654" lon="0.39977">
        <ele>141.4</ele>
        <time>2024-10-13T06:47:50Z</time>
      </trkpt>
      <trkpt lat="46.75656" lon="0.39971">
        <ele>140.8</ele>
        <time>2024-10-13T06:47:51Z</time>
      </trkpt>
      <trkpt lat="46.75659" lon="0.39961">
        <ele>139.8</ele>
        <time>2024-10-13T06:47:53Z</time>
      </trkpt>
      <trkpt lat="46.75658" lon="0.39941">
        <ele>139</ele>
        <time>2024-10-13T06:47:55Z</time>
      </trkpt>
      <trkpt lat="46.7566" lon="0.39935">
        <ele>138.6</ele>
        <time>2024-10-13T06:47:56Z</time>
      </trkpt>
      <trkpt lat="46.75662" lon="0.39924">
        <ele>138</ele>
        <time>2024-10-13T06:47:57Z</time>
      </trkpt>
      <trkpt lat="46.75666" lon="0.39917">
        <ele>137.6</ele>
        <time>2024-10-13T06:47:58Z</time>
      </trkpt>
      <trkpt lat="46.7567" lon="0.39912">
        <ele>136.8</ele>
        <time>2024-10-13T06:47:59Z</time>
      </trkpt>
      <trkpt lat="46.75673" lon="0.39906">
        <ele>136.4</ele>
        <time>2024-10-13T06:48:00Z</time>
      </trkpt>
      <trkpt lat="46.75681" lon="0.39893">
        <ele>134.8</ele>
        <time>2024-10-13T06:48:03Z</time>
      </trkpt>
      <trkpt lat="46.75683" lon="0.39882">
        <ele>133.2</ele>
        <time>2024-10-13T06:48:05Z</time>
      </trkpt>
      <trkpt lat="46.75685" lon="0.39869">
        <ele>132.2</ele>
        <time>2024-10-13T06:48:07Z</time>
      </trkpt>
      <trkpt lat="46.75684" lon="0.39861">
        <ele>130.8</ele>
        <time>2024-10-13T06:48:08Z</time>
      </trkpt>
      <trkpt lat="46.75683" lon="0.39852">
        <ele>130.2</ele>
        <time>2024-10-13T06:48:09Z</time>
      </trkpt>
      <trkpt lat="46.75682" lon="0.39842">
        <ele>129.8</ele>
        <time>2024-10-13T06:48:10Z</time>
      </trkpt>
      <trkpt lat="46.75679" lon="0.39826">
        <ele>128.4</ele>
        <time>2024-10-13T06:48:12Z</time>
      </trkpt>
      <trkpt lat="46.75677" lon="0.3982">
        <ele>127.4</ele>
        <time>2024-10-13T06:48:13Z</time>
      </trkpt>
      <trkpt lat="46.75676" lon="0.39814">
        <ele>126.4</ele>
        <time>2024-10-13T06:48:14Z</time>
      </trkpt>
      <trkpt lat="46.75676" lon="0.39809">
        <ele>125.4</ele>
        <time>2024-10-13T06:48:15Z</time>
      </trkpt>
      <trkpt lat="46.75676" lon="0.39801">
        <ele>124.8</ele>
        <time>2024-10-13T06:48:16Z</time>
      </trkpt>
      <trkpt lat="46.75677" lon="0.39795">
        <ele>124.2</ele>
        <time>2024-10-13T06:48:17Z</time>
      </trkpt>
      <trkpt lat="46.75677" lon="0.39788">
        <ele>122.6</ele>
        <time>2024-10-13T06:48:18Z</time>
      </trkpt>
      <trkpt lat="46.75678" lon="0.39782">
        <ele>121.6</ele>
        <time>2024-10-13T06:48:19Z</time>
      </trkpt>
      <trkpt lat="46.75678" lon="0.39773">
        <ele>121</ele>
        <time>2024-10-13T06:48:20Z</time>
      </trkpt>
      <trkpt lat="46.75676" lon="0.39761">
        <ele>120</ele>
        <time>2024-10-13T06:48:21Z</time>
      </trkpt>
      <trkpt lat="46.75679" lon="0.39757">
        <ele>119.2</ele>
        <time>2024-10-13T06:48:22Z</time>
      </trkpt>
      <trkpt lat="46.7568" lon="0.39751">
        <ele>118.6</ele>
        <time>2024-10-13T06:48:23Z</time>
      </trkpt>
      <trkpt lat="46.75685" lon="0.39736">
        <ele>117</ele>
        <time>2024-10-13T06:48:25Z</time>
      </trkpt>
      <trkpt lat="46.75688" lon="0.39732">
        <ele>116</ele>
        <time>2024-10-13T06:48:26Z</time>
      </trkpt>
      <trkpt lat="46.75695" lon="0.39727">
        <ele>114.8</ele>
        <time>2024-10-13T06:48:28Z</time>
      </trkpt>
      <trkpt lat="46.75702" lon="0.39719">
        <ele>114.2</ele>
        <time>2024-10-13T06:48:30Z</time>
      </trkpt>
      <trkpt lat="46.75707" lon="0.39715">
        <ele>113.4</ele>
        <time>2024-10-13T06:48:31Z</time>
      </trkpt>
      <trkpt lat="46.75719" lon="0.3971">
        <ele>112.8</ele>
        <time>2024-10-13T06:48:33Z</time>
      </trkpt>
      <trkpt lat="46.75724" lon="0.39707">
        <ele>112</ele>
        <time>2024-10-13T06:48:34Z</time>
      </trkpt>
      <trkpt lat="46.75728" lon="0.39705">
        <ele>111.4</ele>
        <time>2024-10-13T06:48:35Z</time>
      </trkpt>
      <trkpt lat="46.75732" lon="0.39703">
        <ele>110.8</ele>
        <time>2024-10-13T06:48:36Z</time>
      </trkpt>
      <trkpt lat="46.75741" lon="0.397">
        <ele>109.6</ele>
        <time>2024-10-13T06:48:39Z</time>
      </trkpt>
      <trkpt lat="46.75756" lon="0.39705">
        <ele>109</ele>
        <time>2024-10-13T06:48:44Z</time>
      </trkpt>
      <trkpt lat="46.75759" lon="0.39704">
        <ele>108.8</ele>
        <time>2024-10-13T06:48:45Z</time>
      </trkpt>
      <trkpt lat="46.75764" lon="0.397">
        <ele>108.6</ele>
        <time>2024-10-13T06:48:47Z</time>
      </trkpt>
      <trkpt lat="46.75766" lon="0.39696">
        <ele>108.4</ele>
        <time>2024-10-13T06:48:48Z</time>
      </trkpt>
      <trkpt lat="46.75772" lon="0.39673">
        <ele>107.4</ele>
        <time>2024-10-13T06:48:52Z</time>
      </trkpt>
      <trkpt lat="46.7578" lon="0.3964">
        <ele>106.2</ele>
        <time>2024-10-13T06:48:57Z</time>
      </trkpt>
      <trkpt lat="46.75785" lon="0.39627">
        <ele>105.8</ele>
        <time>2024-10-13T06:48:59Z</time>
      </trkpt>
      <trkpt lat="46.75796" lon="0.39598">
        <ele>105</ele>
        <time>2024-10-13T06:49:03Z</time>
      </trkpt>
      <trkpt lat="46.75804" lon="0.39574">
        <ele>104.4</ele>
        <time>2024-10-13T06:49:06Z</time>
      </trkpt>
      <trkpt lat="46.7581" lon="0.39558">
        <ele>103.8</ele>
        <time>2024-10-13T06:49:08Z</time>
      </trkpt>
      <trkpt lat="46.75823" lon="0.39527">
        <ele>102.6</ele>
        <time>2024-10-13T06:49:12Z</time>
      </trkpt>
      <trkpt lat="46.75826" lon="0.39521">
        <ele>102.2</ele>
        <time>2024-10-13T06:49:13Z</time>
      </trkpt>
      <trkpt lat="46.75831" lon="0.39517">
        <ele>101.8</ele>
        <time>2024-10-13T06:49:14Z</time>
      </trkpt>
      <trkpt lat="46.75836" lon="0.39514">
        <ele>101.4</ele>
        <time>2024-10-13T06:49:15Z</time>
      </trkpt>
      <trkpt lat="46.75841" lon="0.39513">
        <ele>101.2</ele>
        <time>2024-10-13T06:49:16Z</time>
      </trkpt>
      <trkpt lat="46.75854" lon="0.39514">
        <ele>99.6</ele>
        <time>2024-10-13T06:49:18Z</time>
      </trkpt>
      <trkpt lat="46.75868" lon="0.39518">
        <ele>98.8</ele>
        <time>2024-10-13T06:49:20Z</time>
      </trkpt>
      <trkpt lat="46.75875" lon="0.39519">
        <ele>98.2</ele>
        <time>2024-10-13T06:49:21Z</time>
      </trkpt>
      <trkpt lat="46.75891" lon="0.39521">
        <ele>97.6</ele>
        <time>2024-10-13T06:49:23Z</time>
      </trkpt>
      <trkpt lat="46.75899" lon="0.3952">
        <ele>97</ele>
        <time>2024-10-13T06:49:24Z</time>
      </trkpt>
      <trkpt lat="46.75907" lon="0.39519">
        <ele>96.4</ele>
        <time>2024-10-13T06:49:25Z</time>
      </trkpt>
      <trkpt lat="46.75916" lon="0.39516">
        <ele>96</ele>
        <time>2024-10-13T06:49:26Z</time>
      </trkpt>
      <trkpt lat="46.75925" lon="0.39512">
        <ele>95.6</ele>
        <time>2024-10-13T06:49:27Z</time>
      </trkpt>
      <trkpt lat="46.75942" lon="0.39503">
        <ele>94.2</ele>
        <time>2024-10-13T06:49:29Z</time>
      </trkpt>
      <trkpt lat="46.75961" lon="0.39497">
        <ele>92.6</ele>
        <time>2024-10-13T06:49:31Z</time>
      </trkpt>
      <trkpt lat="46.75974" lon="0.39494">
        <ele>91</ele>
        <time>2024-10-13T06:49:33Z</time>
      </trkpt>
      <trkpt lat="46.75977" lon="0.39493">
        <ele>90</ele>
        <time>2024-10-13T06:49:34Z</time>
      </trkpt>
      <trkpt lat="46.75977" lon="0.39493">
        <ele>89.4</ele>
        <time>2024-10-13T06:49:35Z</time>
      </trkpt>
      <trkpt lat="46.75984" lon="0.39486">
        <ele>88.6</ele>
        <time>2024-10-13T06:49:39Z</time>
      </trkpt>
      <trkpt lat="46.75983" lon="0.39476">
        <ele>88.2</ele>
        <time>2024-10-13T06:49:42Z</time>
      </trkpt>
      <trkpt lat="46.75983" lon="0.39473">
        <ele>88</ele>
        <time>2024-10-13T06:49:43Z</time>
      </trkpt>
      <trkpt lat="46.75985" lon="0.39467">
        <ele>87</ele>
        <time>2024-10-13T06:49:46Z</time>
      </trkpt>
      <trkpt lat="46.75985" lon="0.39459">
        <ele>86.2</ele>
        <time>2024-10-13T06:49:50Z</time>
      </trkpt>
      <trkpt lat="46.75985" lon="0.39445">
        <ele>85.8</ele>
        <time>2024-10-13T06:49:56Z</time>
      </trkpt>
      <trkpt lat="46.75983" lon="0.39432">
        <ele>85.6</ele>
        <time>2024-10-13T06:50:00Z</time>
      </trkpt>
      <trkpt lat="46.75984" lon="0.39405">
        <ele>85.6</ele>
        <time>2024-10-13T06:50:04Z</time>
      </trkpt>
      <trkpt lat="46.75978" lon="0.39395">
        <ele>85.4</ele>
        <time>2024-10-13T06:50:06Z</time>
      </trkpt>
      <trkpt lat="46.75972" lon="0.3939">
        <ele>85.6</ele>
        <time>2024-10-13T06:50:08Z</time>
      </trkpt>
      <trkpt lat="46.75961" lon="0.39373">
        <ele>86.6</ele>
        <time>2024-10-13T06:50:12Z</time>
      </trkpt>
      <trkpt lat="46.75957" lon="0.39365">
        <ele>87</ele>
        <time>2024-10-13T06:50:14Z</time>
      </trkpt>
      <trkpt lat="46.75956" lon="0.39361">
        <ele>87</ele>
        <time>2024-10-13T06:50:15Z</time>
      </trkpt>
      <trkpt lat="46.75955" lon="0.39358">
        <ele>87.2</ele>
        <time>2024-10-13T06:50:16Z</time>
      </trkpt>
      <trkpt lat="46.75958" lon="0.39342">
        <ele>87.8</ele>
        <time>2024-10-13T06:50:20Z</time>
      </trkpt>
      <trkpt lat="46.75956" lon="0.39324">
        <ele>87.2</ele>
        <time>2024-10-13T06:50:23Z</time>
      </trkpt>
      <trkpt lat="46.75954" lon="0.39318">
        <ele>87.2</ele>
        <time>2024-10-13T06:50:24Z</time>
      </trkpt>
      <trkpt lat="46.7594" lon="0.39273">
        <ele>86.4</ele>
        <time>2024-10-13T06:50:31Z</time>
      </trkpt>
      <trkpt lat="46.75935" lon="0.39254">
        <ele>86.4</ele>
        <time>2024-10-13T06:50:34Z</time>
      </trkpt>
      <trkpt lat="46.75933" lon="0.39242">
        <ele>86.4</ele>
        <time>2024-10-13T06:50:36Z</time>
      </trkpt>
      <trkpt lat="46.75923" lon="0.39187">
        <ele>86</ele>
        <time>2024-10-13T06:50:44Z</time>
      </trkpt>
      <trkpt lat="46.75919" lon="0.39168">
        <ele>86</ele>
        <time>2024-10-13T06:50:47Z</time>
      </trkpt>
      <trkpt lat="46.75911" lon="0.39144">
        <ele>86.2</ele>
        <time>2024-10-13T06:50:51Z</time>
      </trkpt>
      <trkpt lat="46.75894" lon="0.39091">
        <ele>86.6</ele>
        <time>2024-10-13T06:51:00Z</time>
      </trkpt>
      <trkpt lat="46.7588" lon="0.3905">
        <ele>86.4</ele>
        <time>2024-10-13T06:51:07Z</time>
      </trkpt>
      <trkpt lat="46.75859" lon="0.38996">
        <ele>86.2</ele>
        <time>2024-10-13T06:51:16Z</time>
      </trkpt>
      <trkpt lat="46.7584" lon="0.38946">
        <ele>86.8</ele>
        <time>2024-10-13T06:51:24Z</time>
      </trkpt>
      <trkpt lat="46.75835" lon="0.38934">
        <ele>86.8</ele>
        <time>2024-10-13T06:51:26Z</time>
      </trkpt>
      <trkpt lat="46.75825" lon="0.38919">
        <ele>87</ele>
        <time>2024-10-13T06:51:29Z</time>
      </trkpt>
      <trkpt lat="46.75822" lon="0.38915">
        <ele>87.2</ele>
        <time>2024-10-13T06:51:30Z</time>
      </trkpt>
      <trkpt lat="46.75797" lon="0.38886">
        <ele>86.4</ele>
        <time>2024-10-13T06:51:37Z</time>
      </trkpt>
      <trkpt lat="46.7577" lon="0.38853">
        <ele>86.6</ele>
        <time>2024-10-13T06:51:44Z</time>
      </trkpt>
      <trkpt lat="46.75763" lon="0.38844">
        <ele>86.8</ele>
        <time>2024-10-13T06:51:46Z</time>
      </trkpt>
      <trkpt lat="46.75763" lon="0.38834">
        <ele>86.8</ele>
        <time>2024-10-13T06:51:48Z</time>
      </trkpt>
      <trkpt lat="46.7577" lon="0.38816">
        <ele>86.8</ele>
        <time>2024-10-13T06:51:51Z</time>
      </trkpt>
      <trkpt lat="46.75773" lon="0.38808">
        <ele>86.8</ele>
        <time>2024-10-13T06:51:52Z</time>
      </trkpt>
      <trkpt lat="46.75774" lon="0.38792">
        <ele>86.6</ele>
        <time>2024-10-13T06:51:54Z</time>
      </trkpt>
      <trkpt lat="46.75774" lon="0.38784">
        <ele>86.4</ele>
        <time>2024-10-13T06:51:55Z</time>
      </trkpt>
      <trkpt lat="46.75772" lon="0.38777">
        <ele>86.2</ele>
        <time>2024-10-13T06:51:56Z</time>
      </trkpt>
      <trkpt lat="46.75769" lon="0.3877">
        <ele>86</ele>
        <time>2024-10-13T06:51:57Z</time>
      </trkpt>
      <trkpt lat="46.75766" lon="0.38764">
        <ele>85.8</ele>
        <time>2024-10-13T06:51:58Z</time>
      </trkpt>
      <trkpt lat="46.75763" lon="0.38758">
        <ele>85.8</ele>
        <time>2024-10-13T06:51:59Z</time>
      </trkpt>
      <trkpt lat="46.75757" lon="0.38745">
        <ele>85.8</ele>
        <time>2024-10-13T06:52:01Z</time>
      </trkpt>
      <trkpt lat="46.75754" lon="0.3873">
        <ele>85.6</ele>
        <time>2024-10-13T06:52:03Z</time>
      </trkpt>
      <trkpt lat="46.75754" lon="0.38687">
        <ele>85.6</ele>
        <time>2024-10-13T06:52:08Z</time>
      </trkpt>
      <trkpt lat="46.75755" lon="0.38622">
        <ele>85.6</ele>
        <time>2024-10-13T06:52:16Z</time>
      </trkpt>
      <trkpt lat="46.75754" lon="0.3861">
        <ele>85.6</ele>
        <time>2024-10-13T06:52:18Z</time>
      </trkpt>
      <trkpt lat="46.75751" lon="0.38601">
        <ele>85.4</ele>
        <time>2024-10-13T06:52:20Z</time>
      </trkpt>
      <trkpt lat="46.7574" lon="0.38602">
        <ele>85.4</ele>
        <time>2024-10-13T06:52:23Z</time>
      </trkpt>
      <trkpt lat="46.75713" lon="0.3861">
        <ele>85.8</ele>
        <time>2024-10-13T06:52:30Z</time>
      </trkpt>
      <trkpt lat="46.7567" lon="0.3862">
        <ele>87</ele>
        <time>2024-10-13T06:52:39Z</time>
      </trkpt>
      <trkpt lat="46.75666" lon="0.38621">
        <ele>87.2</ele>
        <time>2024-10-13T06:52:40Z</time>
      </trkpt>
      <trkpt lat="46.75627" lon="0.38629">
        <ele>88.2</ele>
        <time>2024-10-13T06:52:49Z</time>
      </trkpt>
      <trkpt lat="46.75623" lon="0.3863">
        <ele>88.4</ele>
        <time>2024-10-13T06:52:50Z</time>
      </trkpt>
      <trkpt lat="46.75599" lon="0.38635">
        <ele>89.4</ele>
        <time>2024-10-13T06:52:56Z</time>
      </trkpt>
      <trkpt lat="46.75595" lon="0.38636">
        <ele>89.8</ele>
        <time>2024-10-13T06:52:57Z</time>
      </trkpt>
      <trkpt lat="46.75584" lon="0.38638">
        <ele>90.4</ele>
        <time>2024-10-13T06:53:00Z</time>
      </trkpt>
      <trkpt lat="46.75571" lon="0.38641">
        <ele>91.8</ele>
        <time>2024-10-13T06:53:04Z</time>
      </trkpt>
      <trkpt lat="46.75564" lon="0.38642">
        <ele>92.4</ele>
        <time>2024-10-13T06:53:06Z</time>
      </trkpt>
      <trkpt lat="46.75556" lon="0.38643">
        <ele>92.8</ele>
        <time>2024-10-13T06:53:09Z</time>
      </trkpt>
      <trkpt lat="46.75545" lon="0.38646">
        <ele>94</ele>
        <time>2024-10-13T06:53:13Z</time>
      </trkpt>
      <trkpt lat="46.7554" lon="0.38647">
        <ele>95</ele>
        <time>2024-10-13T06:53:15Z</time>
      </trkpt>
      <trkpt lat="46.75532" lon="0.38648">
        <ele>96.4</ele>
        <time>2024-10-13T06:53:18Z</time>
      </trkpt>
      <trkpt lat="46.75523" lon="0.3865">
        <ele>97.4</ele>
        <time>2024-10-13T06:53:22Z</time>
      </trkpt>
      <trkpt lat="46.75519" lon="0.38652">
        <ele>98</ele>
        <time>2024-10-13T06:53:24Z</time>
      </trkpt>
      <trkpt lat="46.75515" lon="0.38652">
        <ele>98.8</ele>
        <time>2024-10-13T06:53:26Z</time>
      </trkpt>
      <trkpt lat="46.7551" lon="0.38654">
        <ele>100</ele>
        <time>2024-10-13T06:53:29Z</time>
      </trkpt>
      <trkpt lat="46.75508" lon="0.38655">
        <ele>100.4</ele>
        <time>2024-10-13T06:53:30Z</time>
      </trkpt>
      <trkpt lat="46.75502" lon="0.38657">
        <ele>101.2</ele>
        <time>2024-10-13T06:53:33Z</time>
      </trkpt>
      <trkpt lat="46.75495" lon="0.38658">
        <ele>102.4</ele>
        <time>2024-10-13T06:53:36Z</time>
      </trkpt>
      <trkpt lat="46.75493" lon="0.38658">
        <ele>102.6</ele>
        <time>2024-10-13T06:53:37Z</time>
      </trkpt>
      <trkpt lat="46.75484" lon="0.38661">
        <ele>103.4</ele>
        <time>2024-10-13T06:53:42Z</time>
      </trkpt>
      <trkpt lat="46.75479" lon="0.38663">
        <ele>104.4</ele>
        <time>2024-10-13T06:53:45Z</time>
      </trkpt>
      <trkpt lat="46.75472" lon="0.38665">
        <ele>105.6</ele>
        <time>2024-10-13T06:53:49Z</time>
      </trkpt>
      <trkpt lat="46.75467" lon="0.38667">
        <ele>106</ele>
        <time>2024-10-13T06:53:52Z</time>
      </trkpt>
      <trkpt lat="46.75462" lon="0.38667">
        <ele>106.8</ele>
        <time>2024-10-13T06:53:55Z</time>
      </trkpt>
      <trkpt lat="46.75456" lon="0.38669">
        <ele>107.4</ele>
        <time>2024-10-13T06:53:58Z</time>
      </trkpt>
      <trkpt lat="46.75452" lon="0.38669">
        <ele>107.8</ele>
        <time>2024-10-13T06:54:00Z</time>
      </trkpt>
      <trkpt lat="46.75442" lon="0.3867">
        <ele>109</ele>
        <time>2024-10-13T06:54:05Z</time>
      </trkpt>
      <trkpt lat="46.75432" lon="0.38672">
        <ele>110</ele>
        <time>2024-10-13T06:54:10Z</time>
      </trkpt>
      <trkpt lat="46.75424" lon="0.38674">
        <ele>111</ele>
        <time>2024-10-13T06:54:14Z</time>
      </trkpt>
      <trkpt lat="46.75422" lon="0.38674">
        <ele>111.2</ele>
        <time>2024-10-13T06:54:15Z</time>
      </trkpt>
      <trkpt lat="46.75413" lon="0.38679">
        <ele>112.2</ele>
        <time>2024-10-13T06:54:20Z</time>
      </trkpt>
      <trkpt lat="46.75408" lon="0.38681">
        <ele>112.8</ele>
        <time>2024-10-13T06:54:22Z</time>
      </trkpt>
      <trkpt lat="46.75402" lon="0.38686">
        <ele>113.4</ele>
        <time>2024-10-13T06:54:25Z</time>
      </trkpt>
      <trkpt lat="46.75388" lon="0.38696">
        <ele>114.4</ele>
        <time>2024-10-13T06:54:32Z</time>
      </trkpt>
      <trkpt lat="46.75386" lon="0.38697">
        <ele>114.6</ele>
        <time>2024-10-13T06:54:33Z</time>
      </trkpt>
      <trkpt lat="46.75371" lon="0.38708">
        <ele>115.6</ele>
        <time>2024-10-13T06:54:40Z</time>
      </trkpt>
      <trkpt lat="46.75366" lon="0.38711">
        <ele>116</ele>
        <time>2024-10-13T06:54:42Z</time>
      </trkpt>
      <trkpt lat="46.7536" lon="0.38716">
        <ele>116.8</ele>
        <time>2024-10-13T06:54:45Z</time>
      </trkpt>
      <trkpt lat="46.75346" lon="0.38727">
        <ele>118</ele>
        <time>2024-10-13T06:54:52Z</time>
      </trkpt>
      <trkpt lat="46.75335" lon="0.38733">
        <ele>119.2</ele>
        <time>2024-10-13T06:54:57Z</time>
      </trkpt>
      <trkpt lat="46.75323" lon="0.38739">
        <ele>120.4</ele>
        <time>2024-10-13T06:55:02Z</time>
      </trkpt>
      <trkpt lat="46.75313" lon="0.3874">
        <ele>121.4</ele>
        <time>2024-10-13T06:55:07Z</time>
      </trkpt>
      <trkpt lat="46.75309" lon="0.3874">
        <ele>121.8</ele>
        <time>2024-10-13T06:55:09Z</time>
      </trkpt>
      <trkpt lat="46.75305" lon="0.38741">
        <ele>122.4</ele>
        <time>2024-10-13T06:55:11Z</time>
      </trkpt>
      <trkpt lat="46.75298" lon="0.38743">
        <ele>123.6</ele>
        <time>2024-10-13T06:55:15Z</time>
      </trkpt>
      <trkpt lat="46.75292" lon="0.38745">
        <ele>124.6</ele>
        <time>2024-10-13T06:55:18Z</time>
      </trkpt>
      <trkpt lat="46.7528" lon="0.38748">
        <ele>125.6</ele>
        <time>2024-10-13T06:55:24Z</time>
      </trkpt>
      <trkpt lat="46.75274" lon="0.3875">
        <ele>126.4</ele>
        <time>2024-10-13T06:55:28Z</time>
      </trkpt>
      <trkpt lat="46.7527" lon="0.38751">
        <ele>126.8</ele>
        <time>2024-10-13T06:55:30Z</time>
      </trkpt>
      <trkpt lat="46.75262" lon="0.38755">
        <ele>127.8</ele>
        <time>2024-10-13T06:55:35Z</time>
      </trkpt>
      <trkpt lat="46.75259" lon="0.38755">
        <ele>128.2</ele>
        <time>2024-10-13T06:55:37Z</time>
      </trkpt>
      <trkpt lat="46.75254" lon="0.38757">
        <ele>129</ele>
        <time>2024-10-13T06:55:40Z</time>
      </trkpt>
      <trkpt lat="46.75243" lon="0.38761">
        <ele>130.2</ele>
        <time>2024-10-13T06:55:46Z</time>
      </trkpt>
      <trkpt lat="46.75236" lon="0.38764">
        <ele>131.2</ele>
        <time>2024-10-13T06:55:50Z</time>
      </trkpt>
      <trkpt lat="46.75229" lon="0.38766">
        <ele>132.2</ele>
        <time>2024-10-13T06:55:54Z</time>
      </trkpt>
      <trkpt lat="46.75227" lon="0.38766">
        <ele>132.4</ele>
        <time>2024-10-13T06:55:55Z</time>
      </trkpt>
      <trkpt lat="46.75216" lon="0.3877">
        <ele>133.8</ele>
        <time>2024-10-13T06:56:01Z</time>
      </trkpt>
      <trkpt lat="46.75211" lon="0.38772">
        <ele>134.6</ele>
        <time>2024-10-13T06:56:04Z</time>
      </trkpt>
      <trkpt lat="46.75207" lon="0.38773">
        <ele>135</ele>
        <time>2024-10-13T06:56:06Z</time>
      </trkpt>
      <trkpt lat="46.75197" lon="0.38778">
        <ele>136</ele>
        <time>2024-10-13T06:56:11Z</time>
      </trkpt>
      <trkpt lat="46.75195" lon="0.38779">
        <ele>136</ele>
        <time>2024-10-13T06:56:12Z</time>
      </trkpt>
      <trkpt lat="46.75177" lon="0.3879">
        <ele>136.8</ele>
        <time>2024-10-13T06:56:18Z</time>
      </trkpt>
      <trkpt lat="46.75166" lon="0.388">
        <ele>137.2</ele>
        <time>2024-10-13T06:56:22Z</time>
      </trkpt>
      <trkpt lat="46.75164" lon="0.38805">
        <ele>137.4</ele>
        <time>2024-10-13T06:56:23Z</time>
      </trkpt>
      <trkpt lat="46.75164" lon="0.38811">
        <ele>137.4</ele>
        <time>2024-10-13T06:56:24Z</time>
      </trkpt>
      <trkpt lat="46.75167" lon="0.38829">
        <ele>137.6</ele>
        <time>2024-10-13T06:56:27Z</time>
      </trkpt>
      <trkpt lat="46.75178" lon="0.38884">
        <ele>137</ele>
        <time>2024-10-13T06:56:36Z</time>
      </trkpt>
      <trkpt lat="46.75192" lon="0.38932">
        <ele>136.6</ele>
        <time>2024-10-13T06:56:43Z</time>
      </trkpt>
      <trkpt lat="46.75214" lon="0.38975">
        <ele>136.4</ele>
        <time>2024-10-13T06:56:50Z</time>
      </trkpt>
      <trkpt lat="46.75219" lon="0.38986">
        <ele>136.2</ele>
        <time>2024-10-13T06:56:52Z</time>
      </trkpt>
      <trkpt lat="46.75233" lon="0.39012">
        <ele>136</ele>
        <time>2024-10-13T06:56:57Z</time>
      </trkpt>
      <trkpt lat="46.75238" lon="0.39022">
        <ele>136.2</ele>
        <time>2024-10-13T06:56:59Z</time>
      </trkpt>
      <trkpt lat="46.75261" lon="0.39066">
        <ele>136.4</ele>
        <time>2024-10-13T06:57:08Z</time>
      </trkpt>
      <trkpt lat="46.75285" lon="0.39106">
        <ele>136.6</ele>
        <time>2024-10-13T06:57:17Z</time>
      </trkpt>
      <trkpt lat="46.75292" lon="0.39128">
        <ele>136.8</ele>
        <time>2024-10-13T06:57:21Z</time>
      </trkpt>
      <trkpt lat="46.7531" lon="0.39176">
        <ele>137.4</ele>
        <time>2024-10-13T06:57:29Z</time>
      </trkpt>
      <trkpt lat="46.75312" lon="0.39182">
        <ele>137.4</ele>
        <time>2024-10-13T06:57:30Z</time>
      </trkpt>
      <trkpt lat="46.75329" lon="0.3923">
        <ele>137.6</ele>
        <time>2024-10-13T06:57:38Z</time>
      </trkpt>
      <trkpt lat="46.75344" lon="0.39287">
        <ele>138.2</ele>
        <time>2024-10-13T06:57:46Z</time>
      </trkpt>
      <trkpt lat="46.75353" lon="0.39322">
        <ele>138.4</ele>
        <time>2024-10-13T06:57:51Z</time>
      </trkpt>
      <trkpt lat="46.7536" lon="0.39333">
        <ele>138.6</ele>
        <time>2024-10-13T06:57:53Z</time>
      </trkpt>
      <trkpt lat="46.7537" lon="0.39338">
        <ele>138.8</ele>
        <time>2024-10-13T06:57:55Z</time>
      </trkpt>
      <trkpt lat="46.75376" lon="0.39338">
        <ele>138.8</ele>
        <time>2024-10-13T06:57:56Z</time>
      </trkpt>
      <trkpt lat="46.75426" lon="0.3934">
        <ele>139</ele>
        <time>2024-10-13T06:58:05Z</time>
      </trkpt>
      <trkpt lat="46.75482" lon="0.39338">
        <ele>138.8</ele>
        <time>2024-10-13T06:58:15Z</time>
      </trkpt>
      <trkpt lat="46.75488" lon="0.39337">
        <ele>138.6</ele>
        <time>2024-10-13T06:58:16Z</time>
      </trkpt>
      <trkpt lat="46.75521" lon="0.39332">
        <ele>137.6</ele>
        <time>2024-10-13T06:58:21Z</time>
      </trkpt>
      <trkpt lat="46.75529" lon="0.39331">
        <ele>136.8</ele>
        <time>2024-10-13T06:58:22Z</time>
      </trkpt>
      <trkpt lat="46.75537" lon="0.39331">
        <ele>136.4</ele>
        <time>2024-10-13T06:58:23Z</time>
      </trkpt>
      <trkpt lat="46.75544" lon="0.39333">
        <ele>135.4</ele>
        <time>2024-10-13T06:58:24Z</time>
      </trkpt>
      <trkpt lat="46.7555" lon="0.39338">
        <ele>134.6</ele>
        <time>2024-10-13T06:58:25Z</time>
      </trkpt>
      <trkpt lat="46.75555" lon="0.39345">
        <ele>133.8</ele>
        <time>2024-10-13T06:58:26Z</time>
      </trkpt>
      <trkpt lat="46.75565" lon="0.39362">
        <ele>132.8</ele>
        <time>2024-10-13T06:58:28Z</time>
      </trkpt>
      <trkpt lat="46.75572" lon="0.39372">
        <ele>132.2</ele>
        <time>2024-10-13T06:58:29Z</time>
      </trkpt>
      <trkpt lat="46.75578" lon="0.39381">
        <ele>131.2</ele>
        <time>2024-10-13T06:58:30Z</time>
      </trkpt>
      <trkpt lat="46.75585" lon="0.39391">
        <ele>130.2</ele>
        <time>2024-10-13T06:58:31Z</time>
      </trkpt>
      <trkpt lat="46.75592" lon="0.39402">
        <ele>129.2</ele>
        <time>2024-10-13T06:58:32Z</time>
      </trkpt>
      <trkpt lat="46.75597" lon="0.39414">
        <ele>128.6</ele>
        <time>2024-10-13T06:58:33Z</time>
      </trkpt>
      <trkpt lat="46.75602" lon="0.39428">
        <ele>127.4</ele>
        <time>2024-10-13T06:58:34Z</time>
      </trkpt>
      <trkpt lat="46.75609" lon="0.39457">
        <ele>126.2</ele>
        <time>2024-10-13T06:58:36Z</time>
      </trkpt>
      <trkpt lat="46.75612" lon="0.39471">
        <ele>125.4</ele>
        <time>2024-10-13T06:58:37Z</time>
      </trkpt>
      <trkpt lat="46.75612" lon="0.39483">
        <ele>124.6</ele>
        <time>2024-10-13T06:58:38Z</time>
      </trkpt>
      <trkpt lat="46.75611" lon="0.39494">
        <ele>124</ele>
        <time>2024-10-13T06:58:39Z</time>
      </trkpt>
      <trkpt lat="46.75603" lon="0.3951">
        <ele>123.8</ele>
        <time>2024-10-13T06:58:41Z</time>
      </trkpt>
      <trkpt lat="46.75598" lon="0.39516">
        <ele>123.8</ele>
        <time>2024-10-13T06:58:42Z</time>
      </trkpt>
      <trkpt lat="46.75579" lon="0.39546">
        <ele>125.4</ele>
        <time>2024-10-13T06:58:47Z</time>
      </trkpt>
      <trkpt lat="46.75577" lon="0.39553">
        <ele>126.2</ele>
        <time>2024-10-13T06:58:48Z</time>
      </trkpt>
      <trkpt lat="46.75577" lon="0.3956">
        <ele>126.6</ele>
        <time>2024-10-13T06:58:49Z</time>
      </trkpt>
      <trkpt lat="46.75581" lon="0.39574">
        <ele>127</ele>
        <time>2024-10-13T06:58:51Z</time>
      </trkpt>
      <trkpt lat="46.75589" lon="0.39585">
        <ele>127.2</ele>
        <time>2024-10-13T06:58:53Z</time>
      </trkpt>
      <trkpt lat="46.75597" lon="0.39595">
        <ele>127.6</ele>
        <time>2024-10-13T06:58:55Z</time>
      </trkpt>
      <trkpt lat="46.75603" lon="0.39608">
        <ele>127.8</ele>
        <time>2024-10-13T06:58:57Z</time>
      </trkpt>
      <trkpt lat="46.75603" lon="0.39614">
        <ele>127.8</ele>
        <time>2024-10-13T06:58:58Z</time>
      </trkpt>
      <trkpt lat="46.75601" lon="0.3962">
        <ele>128</ele>
        <time>2024-10-13T06:58:59Z</time>
      </trkpt>
      <trkpt lat="46.75598" lon="0.39625">
        <ele>128.2</ele>
        <time>2024-10-13T06:59:00Z</time>
      </trkpt>
      <trkpt lat="46.75594" lon="0.39627">
        <ele>128.4</ele>
        <time>2024-10-13T06:59:01Z</time>
      </trkpt>
      <trkpt lat="46.75579" lon="0.39628">
        <ele>128.8</ele>
        <time>2024-10-13T06:59:05Z</time>
      </trkpt>
      <trkpt lat="46.75575" lon="0.39627">
        <ele>129.4</ele>
        <time>2024-10-13T06:59:06Z</time>
      </trkpt>
      <trkpt lat="46.75564" lon="0.39625">
        <ele>130.4</ele>
        <time>2024-10-13T06:59:09Z</time>
      </trkpt>
      <trkpt lat="46.75554" lon="0.39619">
        <ele>131.4</ele>
        <time>2024-10-13T06:59:12Z</time>
      </trkpt>
      <trkpt lat="46.75545" lon="0.3961">
        <ele>132.6</ele>
        <time>2024-10-13T06:59:15Z</time>
      </trkpt>
      <trkpt lat="46.75533" lon="0.39602">
        <ele>133.6</ele>
        <time>2024-10-13T06:59:19Z</time>
      </trkpt>
      <trkpt lat="46.7552" lon="0.39601">
        <ele>134.8</ele>
        <time>2024-10-13T06:59:23Z</time>
      </trkpt>
      <trkpt lat="46.75507" lon="0.39602">
        <ele>136.2</ele>
        <time>2024-10-13T06:59:27Z</time>
      </trkpt>
      <trkpt lat="46.75496" lon="0.39602">
        <ele>137.2</ele>
        <time>2024-10-13T06:59:31Z</time>
      </trkpt>
      <trkpt lat="46.75487" lon="0.39603">
        <ele>138</ele>
        <time>2024-10-13T06:59:34Z</time>
      </trkpt>
      <trkpt lat="46.75482" lon="0.39602">
        <ele>138.4</ele>
        <time>2024-10-13T06:59:36Z</time>
      </trkpt>
      <trkpt lat="46.75479" lon="0.39603">
        <ele>138.6</ele>
        <time>2024-10-13T06:59:37Z</time>
      </trkpt>
      <trkpt lat="46.75478" lon="0.39609">
        <ele>139</ele>
        <time>2024-10-13T06:59:39Z</time>
      </trkpt>
      <trkpt lat="46.7548" lon="0.39619">
        <ele>139.4</ele>
        <time>2024-10-13T06:59:42Z</time>
      </trkpt>
      <trkpt lat="46.75481" lon="0.39625">
        <ele>139.6</ele>
        <time>2024-10-13T06:59:44Z</time>
      </trkpt>
      <trkpt lat="46.75483" lon="0.39628">
        <ele>139.6</ele>
        <time>2024-10-13T06:59:46Z</time>
      </trkpt>
      <trkpt lat="46.75484" lon="0.39627">
        <ele>139.6</ele>
        <time>2024-10-13T06:59:48Z</time>
      </trkpt>
      <trkpt lat="46.75484" lon="0.39625">
        <ele>139.6</ele>
        <time>2024-10-13T06:59:49Z</time>
      </trkpt>
      <trkpt lat="46.75486" lon="0.39625">
        <ele>139.4</ele>
        <time>2024-10-13T06:59:51Z</time>
      </trkpt>
      <trkpt lat="46.75488" lon="0.39626">
        <ele>139.2</ele>
        <time>2024-10-13T06:59:53Z</time>
      </trkpt>
      <trkpt lat="46.7549" lon="0.39628">
        <ele>139.2</ele>
        <time>2024-10-13T06:59:54Z</time>
      </trkpt>
      <trkpt lat="46.755" lon="0.39638">
        <ele>138.8</ele>
        <time>2024-10-13T07:00:00Z</time>
      </trkpt>
      <trkpt lat="46.75506" lon="0.39643">
        <ele>138.2</ele>
        <time>2024-10-13T07:00:03Z</time>
      </trkpt>
      <trkpt lat="46.75509" lon="0.39648">
        <ele>137.8</ele>
        <time>2024-10-13T07:00:05Z</time>
      </trkpt>
      <trkpt lat="46.75519" lon="0.39665">
        <ele>137.8</ele>
        <time>2024-10-13T07:00:11Z</time>
      </trkpt>
      <trkpt lat="46.75523" lon="0.39677">
        <ele>138.2</ele>
        <time>2024-10-13T07:00:16Z</time>
      </trkpt>
      <trkpt lat="46.75524" lon="0.39679">
        <ele>138.2</ele>
        <time>2024-10-13T07:00:17Z</time>
      </trkpt>
      <trkpt lat="46.75529" lon="0.39682">
        <ele>138</ele>
        <time>2024-10-13T07:00:21Z</time>
      </trkpt>
      <trkpt lat="46.75536" lon="0.39686">
        <ele>137.4</ele>
        <time>2024-10-13T07:00:26Z</time>
      </trkpt>
      <trkpt lat="46.75537" lon="0.39686">
        <ele>136.8</ele>
        <time>2024-10-13T07:00:28Z</time>
      </trkpt>
      <trkpt lat="46.75538" lon="0.39684">
        <ele>136.4</ele>
        <time>2024-10-13T07:00:30Z</time>
      </trkpt>
      <trkpt lat="46.75538" lon="0.39683">
        <ele>136.2</ele>
        <time>2024-10-13T07:00:32Z</time>
      </trkpt>
      <trkpt lat="46.75539" lon="0.39679">
        <ele>135.8</ele>
        <time>2024-10-13T07:00:35Z</time>
      </trkpt>
      <trkpt lat="46.75541" lon="0.39678">
        <ele>134.6</ele>
        <time>2024-10-13T07:00:37Z</time>
      </trkpt>
      <trkpt lat="46.75543" lon="0.39679">
        <ele>134.2</ele>
        <time>2024-10-13T07:00:38Z</time>
      </trkpt>
      <trkpt lat="46.75545" lon="0.39679">
        <ele>133.6</ele>
        <time>2024-10-13T07:00:40Z</time>
      </trkpt>
      <trkpt lat="46.75548" lon="0.39677">
        <ele>132.8</ele>
        <time>2024-10-13T07:00:42Z</time>
      </trkpt>
      <trkpt lat="46.75548" lon="0.39676">
        <ele>132.6</ele>
        <time>2024-10-13T07:00:43Z</time>
      </trkpt>
      <trkpt lat="46.75549" lon="0.39675">
        <ele>132.4</ele>
        <time>2024-10-13T07:00:45Z</time>
      </trkpt>
      <trkpt lat="46.7555" lon="0.39673">
        <ele>132.6</ele>
        <time>2024-10-13T07:00:47Z</time>
      </trkpt>
      <trkpt lat="46.75551" lon="0.39671">
        <ele>132.8</ele>
        <time>2024-10-13T07:00:49Z</time>
      </trkpt>
      <trkpt lat="46.75554" lon="0.39669">
        <ele>131.4</ele>
        <time>2024-10-13T07:00:52Z</time>
      </trkpt>
      <trkpt lat="46.75556" lon="0.39668">
        <ele>130.2</ele>
        <time>2024-10-13T07:00:53Z</time>
      </trkpt>
      <trkpt lat="46.75557" lon="0.39667">
        <ele>129.6</ele>
        <time>2024-10-13T07:00:54Z</time>
      </trkpt>
      <trkpt lat="46.75558" lon="0.39666">
        <ele>129.2</ele>
        <time>2024-10-13T07:00:55Z</time>
      </trkpt>
      <trkpt lat="46.75565" lon="0.39667">
        <ele>128.6</ele>
        <time>2024-10-13T07:00:59Z</time>
      </trkpt>
      <trkpt lat="46.75568" lon="0.39669">
        <ele>128.6</ele>
        <time>2024-10-13T07:01:00Z</time>
      </trkpt>
      <trkpt lat="46.75571" lon="0.39669">
        <ele>127.6</ele>
        <time>2024-10-13T07:01:01Z</time>
      </trkpt>
      <trkpt lat="46.75577" lon="0.39668">
        <ele>126</ele>
        <time>2024-10-13T07:01:03Z</time>
      </trkpt>
      <trkpt lat="46.75579" lon="0.39667">
        <ele>125.4</ele>
        <time>2024-10-13T07:01:04Z</time>
      </trkpt>
      <trkpt lat="46.75581" lon="0.39666">
        <ele>125</ele>
        <time>2024-10-13T07:01:05Z</time>
      </trkpt>
      <trkpt lat="46.75582" lon="0.39664">
        <ele>124.6</ele>
        <time>2024-10-13T07:01:06Z</time>
      </trkpt>
      <trkpt lat="46.75586" lon="0.39659">
        <ele>124</ele>
        <time>2024-10-13T07:01:08Z</time>
      </trkpt>
      <trkpt lat="46.75589" lon="0.39658">
        <ele>123.8</ele>
        <time>2024-10-13T07:01:09Z</time>
      </trkpt>
      <trkpt lat="46.75592" lon="0.39657">
        <ele>123.6</ele>
        <time>2024-10-13T07:01:10Z</time>
      </trkpt>
      <trkpt lat="46.756" lon="0.39657">
        <ele>123.2</ele>
        <time>2024-10-13T07:01:13Z</time>
      </trkpt>
      <trkpt lat="46.75602" lon="0.39657">
        <ele>122.6</ele>
        <time>2024-10-13T07:01:15Z</time>
      </trkpt>
      <trkpt lat="46.75605" lon="0.39658">
        <ele>121.4</ele>
        <time>2024-10-13T07:01:17Z</time>
      </trkpt>
      <trkpt lat="46.75609" lon="0.3966">
        <ele>120.4</ele>
        <time>2024-10-13T07:01:19Z</time>
      </trkpt>
      <trkpt lat="46.75615" lon="0.39672">
        <ele>120.4</ele>
        <time>2024-10-13T07:01:25Z</time>
      </trkpt>
      <trkpt lat="46.75621" lon="0.39682">
        <ele>121.4</ele>
        <time>2024-10-13T07:01:30Z</time>
      </trkpt>
      <trkpt lat="46.75622" lon="0.39689">
        <ele>122</ele>
        <time>2024-10-13T07:01:33Z</time>
      </trkpt>
      <trkpt lat="46.75624" lon="0.39695">
        <ele>122.4</ele>
        <time>2024-10-13T07:01:36Z</time>
      </trkpt>
      <trkpt lat="46.75625" lon="0.39699">
        <ele>122.6</ele>
        <time>2024-10-13T07:01:37Z</time>
      </trkpt>
      <trkpt lat="46.75627" lon="0.39702">
        <ele>123.4</ele>
        <time>2024-10-13T07:01:39Z</time>
      </trkpt>
      <trkpt lat="46.75627" lon="0.39703">
        <ele>123.8</ele>
        <time>2024-10-13T07:01:40Z</time>
      </trkpt>
      <trkpt lat="46.75628" lon="0.39707">
        <ele>124.4</ele>
        <time>2024-10-13T07:01:42Z</time>
      </trkpt>
      <trkpt lat="46.75627" lon="0.39715">
        <ele>124.8</ele>
        <time>2024-10-13T07:01:46Z</time>
      </trkpt>
      <trkpt lat="46.75627" lon="0.39722">
        <ele>126</ele>
        <time>2024-10-13T07:01:51Z</time>
      </trkpt>
      <trkpt lat="46.75625" lon="0.39726">
        <ele>126.6</ele>
        <time>2024-10-13T07:01:54Z</time>
      </trkpt>
      <trkpt lat="46.75625" lon="0.39727">
        <ele>127.2</ele>
        <time>2024-10-13T07:01:57Z</time>
      </trkpt>
      <trkpt lat="46.75627" lon="0.39734">
        <ele>127.6</ele>
        <time>2024-10-13T07:02:04Z</time>
      </trkpt>
      <trkpt lat="46.75627" lon="0.39736">
        <ele>128</ele>
        <time>2024-10-13T07:02:06Z</time>
      </trkpt>
      <trkpt lat="46.75625" lon="0.39738">
        <ele>128.4</ele>
        <time>2024-10-13T07:02:08Z</time>
      </trkpt>
      <trkpt lat="46.75624" lon="0.3974">
        <ele>129</ele>
        <time>2024-10-13T07:02:10Z</time>
      </trkpt>
      <trkpt lat="46.75623" lon="0.39742">
        <ele>130</ele>
        <time>2024-10-13T07:02:12Z</time>
      </trkpt>
      <trkpt lat="46.75622" lon="0.39744">
        <ele>130.4</ele>
        <time>2024-10-13T07:02:14Z</time>
      </trkpt>
      <trkpt lat="46.75622" lon="0.39745">
        <ele>130.6</ele>
        <time>2024-10-13T07:02:15Z</time>
      </trkpt>
      <trkpt lat="46.75621" lon="0.39747">
        <ele>131</ele>
        <time>2024-10-13T07:02:16Z</time>
      </trkpt>
      <trkpt lat="46.75621" lon="0.39748">
        <ele>131</ele>
        <time>2024-10-13T07:02:17Z</time>
      </trkpt>
      <trkpt lat="46.7562" lon="0.39755">
        <ele>132.2</ele>
        <time>2024-10-13T07:02:22Z</time>
      </trkpt>
      <trkpt lat="46.75618" lon="0.39756">
        <ele>133</ele>
        <time>2024-10-13T07:02:24Z</time>
      </trkpt>
      <trkpt lat="46.75616" lon="0.39758">
        <ele>133.4</ele>
        <time>2024-10-13T07:02:26Z</time>
      </trkpt>
      <trkpt lat="46.75613" lon="0.3976">
        <ele>133.8</ele>
        <time>2024-10-13T07:02:28Z</time>
      </trkpt>
      <trkpt lat="46.7561" lon="0.39763">
        <ele>134.6</ele>
        <time>2024-10-13T07:02:32Z</time>
      </trkpt>
      <trkpt lat="46.75609" lon="0.39764">
        <ele>134.8</ele>
        <time>2024-10-13T07:02:33Z</time>
      </trkpt>
      <trkpt lat="46.75606" lon="0.39767">
        <ele>135.6</ele>
        <time>2024-10-13T07:02:37Z</time>
      </trkpt>
      <trkpt lat="46.75599" lon="0.39774">
        <ele>136.6</ele>
        <time>2024-10-13T07:02:43Z</time>
      </trkpt>
      <trkpt lat="46.75596" lon="0.39779">
        <ele>137.2</ele>
        <time>2024-10-13T07:02:47Z</time>
      </trkpt>
      <trkpt lat="46.75589" lon="0.39788">
        <ele>137.6</ele>
        <time>2024-10-13T07:02:52Z</time>
      </trkpt>
      <trkpt lat="46.75587" lon="0.3979">
        <ele>137.6</ele>
        <time>2024-10-13T07:02:53Z</time>
      </trkpt>
      <trkpt lat="46.75584" lon="0.39792">
        <ele>138.4</ele>
        <time>2024-10-13T07:02:55Z</time>
      </trkpt>
      <trkpt lat="46.75581" lon="0.39791">
        <ele>138.8</ele>
        <time>2024-10-13T07:02:57Z</time>
      </trkpt>
      <trkpt lat="46.7558" lon="0.39791">
        <ele>138.8</ele>
        <time>2024-10-13T07:02:58Z</time>
      </trkpt>
      <trkpt lat="46.75577" lon="0.39792">
        <ele>138.8</ele>
        <time>2024-10-13T07:03:00Z</time>
      </trkpt>
      <trkpt lat="46.7557" lon="0.39794">
        <ele>139.2</ele>
        <time>2024-10-13T07:03:04Z</time>
      </trkpt>
      <trkpt lat="46.75557" lon="0.39789">
        <ele>139.6</ele>
        <time>2024-10-13T07:03:09Z</time>
      </trkpt>
      <trkpt lat="46.75552" lon="0.39787">
        <ele>139.8</ele>
        <time>2024-10-13T07:03:11Z</time>
      </trkpt>
      <trkpt lat="46.75537" lon="0.39783">
        <ele>140.2</ele>
        <time>2024-10-13T07:03:17Z</time>
      </trkpt>
      <trkpt lat="46.75531" lon="0.39783">
        <ele>140.6</ele>
        <time>2024-10-13T07:03:20Z</time>
      </trkpt>
      <trkpt lat="46.7553" lon="0.39784">
        <ele>141</ele>
        <time>2024-10-13T07:03:21Z</time>
      </trkpt>
      <trkpt lat="46.75528" lon="0.39786">
        <ele>141.2</ele>
        <time>2024-10-13T07:03:22Z</time>
      </trkpt>
      <trkpt lat="46.75527" lon="0.39787">
        <ele>141.6</ele>
        <time>2024-10-13T07:03:23Z</time>
      </trkpt>
      <trkpt lat="46.75517" lon="0.39782">
        <ele>141.8</ele>
        <time>2024-10-13T07:03:27Z</time>
      </trkpt>
      <trkpt lat="46.75503" lon="0.39758">
        <ele>142</ele>
        <time>2024-10-13T07:03:32Z</time>
      </trkpt>
      <trkpt lat="46.75485" lon="0.39723">
        <ele>141.6</ele>
        <time>2024-10-13T07:03:38Z</time>
      </trkpt>
      <trkpt lat="46.75478" lon="0.39704">
        <ele>141.6</ele>
        <time>2024-10-13T07:03:41Z</time>
      </trkpt>
      <trkpt lat="46.75473" lon="0.3969">
        <ele>141.6</ele>
        <time>2024-10-13T07:03:43Z</time>
      </trkpt>
      <trkpt lat="46.75468" lon="0.39679">
        <ele>141.4</ele>
        <time>2024-10-13T07:03:45Z</time>
      </trkpt>
      <trkpt lat="46.75466" lon="0.39677">
        <ele>141.4</ele>
        <time>2024-10-13T07:03:46Z</time>
      </trkpt>
      <trkpt lat="46.75464" lon="0.39676">
        <ele>141.4</ele>
        <time>2024-10-13T07:03:47Z</time>
      </trkpt>
      <trkpt lat="46.7546" lon="0.3968">
        <ele>141.2</ele>
        <time>2024-10-13T07:03:50Z</time>
      </trkpt>
      <trkpt lat="46.75455" lon="0.39682">
        <ele>141.2</ele>
        <time>2024-10-13T07:03:52Z</time>
      </trkpt>
      <trkpt lat="46.75447" lon="0.39677">
        <ele>141.2</ele>
        <time>2024-10-13T07:03:55Z</time>
      </trkpt>
      <trkpt lat="46.75439" lon="0.39671">
        <ele>141</ele>
        <time>2024-10-13T07:03:59Z</time>
      </trkpt>
      <trkpt lat="46.75428" lon="0.39667">
        <ele>141.2</ele>
        <time>2024-10-13T07:04:03Z</time>
      </trkpt>
      <trkpt lat="46.75426" lon="0.39668">
        <ele>141.2</ele>
        <time>2024-10-13T07:04:04Z</time>
      </trkpt>
      <trkpt lat="46.75423" lon="0.3967">
        <ele>141.2</ele>
        <time>2024-10-13T07:04:07Z</time>
      </trkpt>
      <trkpt lat="46.75422" lon="0.39673">
        <ele>141.4</ele>
        <time>2024-10-13T07:04:09Z</time>
      </trkpt>
      <trkpt lat="46.75417" lon="0.39678">
        <ele>141.6</ele>
        <time>2024-10-13T07:04:11Z</time>
      </trkpt>
      <trkpt lat="46.75408" lon="0.39683">
        <ele>141.6</ele>
        <time>2024-10-13T07:04:14Z</time>
      </trkpt>
      <trkpt lat="46.75399" lon="0.39687">
        <ele>141.8</ele>
        <time>2024-10-13T07:04:17Z</time>
      </trkpt>
      <trkpt lat="46.75392" lon="0.39686">
        <ele>141.6</ele>
        <time>2024-10-13T07:04:19Z</time>
      </trkpt>
      <trkpt lat="46.75388" lon="0.39686">
        <ele>141.2</ele>
        <time>2024-10-13T07:04:20Z</time>
      </trkpt>
      <trkpt lat="46.7538" lon="0.39687">
        <ele>140.6</ele>
        <time>2024-10-13T07:04:23Z</time>
      </trkpt>
      <trkpt lat="46.75378" lon="0.39685">
        <ele>140.6</ele>
        <time>2024-10-13T07:04:24Z</time>
      </trkpt>
      <trkpt lat="46.75371" lon="0.39665">
        <ele>140.4</ele>
        <time>2024-10-13T07:04:30Z</time>
      </trkpt>
      <trkpt lat="46.75354" lon="0.39632">
        <ele>139.6</ele>
        <time>2024-10-13T07:04:36Z</time>
      </trkpt>
      <trkpt lat="46.75352" lon="0.39628">
        <ele>139.6</ele>
        <time>2024-10-13T07:04:37Z</time>
      </trkpt>
      <trkpt lat="46.75345" lon="0.39625">
        <ele>139.2</ele>
        <time>2024-10-13T07:04:39Z</time>
      </trkpt>
      <trkpt lat="46.75341" lon="0.39626">
        <ele>139.2</ele>
        <time>2024-10-13T07:04:40Z</time>
      </trkpt>
      <trkpt lat="46.75329" lon="0.39626">
        <ele>138.8</ele>
        <time>2024-10-13T07:04:42Z</time>
      </trkpt>
      <trkpt lat="46.75323" lon="0.39624">
        <ele>138.6</ele>
        <time>2024-10-13T07:04:43Z</time>
      </trkpt>
      <trkpt lat="46.75316" lon="0.39622">
        <ele>138.6</ele>
        <time>2024-10-13T07:04:44Z</time>
      </trkpt>
      <trkpt lat="46.75303" lon="0.39617">
        <ele>138.2</ele>
        <time>2024-10-13T07:04:46Z</time>
      </trkpt>
      <trkpt lat="46.75296" lon="0.39615">
        <ele>138</ele>
        <time>2024-10-13T07:04:47Z</time>
      </trkpt>
      <trkpt lat="46.7529" lon="0.39613">
        <ele>137.6</ele>
        <time>2024-10-13T07:04:48Z</time>
      </trkpt>
      <trkpt lat="46.7528" lon="0.39607">
        <ele>136.4</ele>
        <time>2024-10-13T07:04:50Z</time>
      </trkpt>
      <trkpt lat="46.75277" lon="0.39605">
        <ele>135.8</ele>
        <time>2024-10-13T07:04:51Z</time>
      </trkpt>
      <trkpt lat="46.75273" lon="0.39608">
        <ele>135.2</ele>
        <time>2024-10-13T07:04:53Z</time>
      </trkpt>
      <trkpt lat="46.75272" lon="0.3961">
        <ele>135</ele>
        <time>2024-10-13T07:04:54Z</time>
      </trkpt>
      <trkpt lat="46.75261" lon="0.39614">
        <ele>134.4</ele>
        <time>2024-10-13T07:04:59Z</time>
      </trkpt>
      <trkpt lat="46.75254" lon="0.39616">
        <ele>134</ele>
        <time>2024-10-13T07:05:01Z</time>
      </trkpt>
      <trkpt lat="46.75247" lon="0.39613">
        <ele>133.6</ele>
        <time>2024-10-13T07:05:03Z</time>
      </trkpt>
      <trkpt lat="46.75238" lon="0.39613">
        <ele>133</ele>
        <time>2024-10-13T07:05:05Z</time>
      </trkpt>
      <trkpt lat="46.75234" lon="0.39615">
        <ele>132.6</ele>
        <time>2024-10-13T07:05:06Z</time>
      </trkpt>
      <trkpt lat="46.75226" lon="0.3962">
        <ele>132</ele>
        <time>2024-10-13T07:05:08Z</time>
      </trkpt>
      <trkpt lat="46.75218" lon="0.39617">
        <ele>131.4</ele>
        <time>2024-10-13T07:05:10Z</time>
      </trkpt>
      <trkpt lat="46.7521" lon="0.39613">
        <ele>130.8</ele>
        <time>2024-10-13T07:05:12Z</time>
      </trkpt>
      <trkpt lat="46.75198" lon="0.39606">
        <ele>130</ele>
        <time>2024-10-13T07:05:15Z</time>
      </trkpt>
      <trkpt lat="46.75193" lon="0.39604">
        <ele>129.8</ele>
        <time>2024-10-13T07:05:16Z</time>
      </trkpt>
      <trkpt lat="46.75189" lon="0.39604">
        <ele>129.2</ele>
        <time>2024-10-13T07:05:17Z</time>
      </trkpt>
      <trkpt lat="46.75185" lon="0.39606">
        <ele>128.6</ele>
        <time>2024-10-13T07:05:18Z</time>
      </trkpt>
      <trkpt lat="46.75181" lon="0.39609">
        <ele>128</ele>
        <time>2024-10-13T07:05:19Z</time>
      </trkpt>
      <trkpt lat="46.75177" lon="0.39612">
        <ele>127.2</ele>
        <time>2024-10-13T07:05:20Z</time>
      </trkpt>
      <trkpt lat="46.75175" lon="0.39616">
        <ele>126.8</ele>
        <time>2024-10-13T07:05:21Z</time>
      </trkpt>
      <trkpt lat="46.75175" lon="0.39624">
        <ele>126.4</ele>
        <time>2024-10-13T07:05:23Z</time>
      </trkpt>
      <trkpt lat="46.75177" lon="0.39631">
        <ele>126.2</ele>
        <time>2024-10-13T07:05:25Z</time>
      </trkpt>
      <trkpt lat="46.75178" lon="0.39637">
        <ele>126.2</ele>
        <time>2024-10-13T07:05:27Z</time>
      </trkpt>
      <trkpt lat="46.7518" lon="0.39649">
        <ele>126.2</ele>
        <time>2024-10-13T07:05:30Z</time>
      </trkpt>
      <trkpt lat="46.75178" lon="0.39656">
        <ele>126.2</ele>
        <time>2024-10-13T07:05:32Z</time>
      </trkpt>
      <trkpt lat="46.75173" lon="0.39664">
        <ele>125.8</ele>
        <time>2024-10-13T07:05:36Z</time>
      </trkpt>
      <trkpt lat="46.7517" lon="0.39666">
        <ele>125.4</ele>
        <time>2024-10-13T07:05:37Z</time>
      </trkpt>
      <trkpt lat="46.75168" lon="0.39667">
        <ele>125</ele>
        <time>2024-10-13T07:05:38Z</time>
      </trkpt>
      <trkpt lat="46.75165" lon="0.39669">
        <ele>124.8</ele>
        <time>2024-10-13T07:05:39Z</time>
      </trkpt>
      <trkpt lat="46.75163" lon="0.39674">
        <ele>124.4</ele>
        <time>2024-10-13T07:05:41Z</time>
      </trkpt>
      <trkpt lat="46.75166" lon="0.39684">
        <ele>124.2</ele>
        <time>2024-10-13T07:05:44Z</time>
      </trkpt>
      <trkpt lat="46.75166" lon="0.39687">
        <ele>124.2</ele>
        <time>2024-10-13T07:05:45Z</time>
      </trkpt>
      <trkpt lat="46.75167" lon="0.397">
        <ele>124.8</ele>
        <time>2024-10-13T07:05:50Z</time>
      </trkpt>
      <trkpt lat="46.75168" lon="0.39705">
        <ele>124.8</ele>
        <time>2024-10-13T07:05:52Z</time>
      </trkpt>
      <trkpt lat="46.75169" lon="0.39717">
        <ele>125.2</ele>
        <time>2024-10-13T07:05:55Z</time>
      </trkpt>
      <trkpt lat="46.75169" lon="0.39724">
        <ele>125.2</ele>
        <time>2024-10-13T07:05:57Z</time>
      </trkpt>
      <trkpt lat="46.75173" lon="0.39735">
        <ele>125.4</ele>
        <time>2024-10-13T07:06:00Z</time>
      </trkpt>
      <trkpt lat="46.75175" lon="0.39757">
        <ele>126.2</ele>
        <time>2024-10-13T07:06:05Z</time>
      </trkpt>
      <trkpt lat="46.75175" lon="0.39783">
        <ele>126.6</ele>
        <time>2024-10-13T07:06:11Z</time>
      </trkpt>
      <trkpt lat="46.75172" lon="0.39801">
        <ele>126.8</ele>
        <time>2024-10-13T07:06:16Z</time>
      </trkpt>
      <trkpt lat="46.7517" lon="0.39826">
        <ele>127</ele>
        <time>2024-10-13T07:06:22Z</time>
      </trkpt>
      <trkpt lat="46.75168" lon="0.39847">
        <ele>127.2</ele>
        <time>2024-10-13T07:06:27Z</time>
      </trkpt>
      <trkpt lat="46.75168" lon="0.39853">
        <ele>127.2</ele>
        <time>2024-10-13T07:06:28Z</time>
      </trkpt>
      <trkpt lat="46.75168" lon="0.39858">
        <ele>127.2</ele>
        <time>2024-10-13T07:06:29Z</time>
      </trkpt>
      <trkpt lat="46.75168" lon="0.39873">
        <ele>127.6</ele>
        <time>2024-10-13T07:06:32Z</time>
      </trkpt>
      <trkpt lat="46.75169" lon="0.39893">
        <ele>128</ele>
        <time>2024-10-13T07:06:38Z</time>
      </trkpt>
      <trkpt lat="46.75169" lon="0.39897">
        <ele>128.2</ele>
        <time>2024-10-13T07:06:39Z</time>
      </trkpt>
      <trkpt lat="46.75167" lon="0.39911">
        <ele>128.4</ele>
        <time>2024-10-13T07:06:43Z</time>
      </trkpt>
      <trkpt lat="46.75166" lon="0.39915">
        <ele>128.4</ele>
        <time>2024-10-13T07:06:44Z</time>
      </trkpt>
      <trkpt lat="46.75165" lon="0.3993">
        <ele>128.6</ele>
        <time>2024-10-13T07:06:47Z</time>
      </trkpt>
      <trkpt lat="46.75155" lon="0.39942">
        <ele>129.2</ele>
        <time>2024-10-13T07:06:51Z</time>
      </trkpt>
      <trkpt lat="46.75144" lon="0.39957">
        <ele>130.2</ele>
        <time>2024-10-13T07:06:57Z</time>
      </trkpt>
      <trkpt lat="46.7514" lon="0.39975">
        <ele>131.2</ele>
        <time>2024-10-13T07:07:01Z</time>
      </trkpt>
      <trkpt lat="46.75138" lon="0.39986">
        <ele>131.4</ele>
        <time>2024-10-13T07:07:03Z</time>
      </trkpt>
      <trkpt lat="46.75131" lon="0.4">
        <ele>131.6</ele>
        <time>2024-10-13T07:07:07Z</time>
      </trkpt>
      <trkpt lat="46.75129" lon="0.40003">
        <ele>131.6</ele>
        <time>2024-10-13T07:07:08Z</time>
      </trkpt>
      <trkpt lat="46.75126" lon="0.40007">
        <ele>131.4</ele>
        <time>2024-10-13T07:07:09Z</time>
      </trkpt>
      <trkpt lat="46.7512" lon="0.40018">
        <ele>131.2</ele>
        <time>2024-10-13T07:07:12Z</time>
      </trkpt>
      <trkpt lat="46.75117" lon="0.40029">
        <ele>130</ele>
        <time>2024-10-13T07:07:15Z</time>
      </trkpt>
      <trkpt lat="46.75115" lon="0.40037">
        <ele>129.4</ele>
        <time>2024-10-13T07:07:17Z</time>
      </trkpt>
      <trkpt lat="46.75115" lon="0.40045">
        <ele>128.8</ele>
        <time>2024-10-13T07:07:19Z</time>
      </trkpt>
      <trkpt lat="46.75113" lon="0.40061">
        <ele>128.6</ele>
        <time>2024-10-13T07:07:22Z</time>
      </trkpt>
      <trkpt lat="46.75111" lon="0.40086">
        <ele>130</ele>
        <time>2024-10-13T07:07:28Z</time>
      </trkpt>
      <trkpt lat="46.75112" lon="0.40097">
        <ele>131</ele>
        <time>2024-10-13T07:07:31Z</time>
      </trkpt>
      <trkpt lat="46.75112" lon="0.40099">
        <ele>131.4</ele>
        <time>2024-10-13T07:07:32Z</time>
      </trkpt>
      <trkpt lat="46.75109" lon="0.40105">
        <ele>131.6</ele>
        <time>2024-10-13T07:07:34Z</time>
      </trkpt>
      <trkpt lat="46.75104" lon="0.40115">
        <ele>131.4</ele>
        <time>2024-10-13T07:07:38Z</time>
      </trkpt>
      <trkpt lat="46.75102" lon="0.40116">
        <ele>131.4</ele>
        <time>2024-10-13T07:07:39Z</time>
      </trkpt>
      <trkpt lat="46.751" lon="0.40118">
        <ele>131.4</ele>
        <time>2024-10-13T07:07:40Z</time>
      </trkpt>
      <trkpt lat="46.75097" lon="0.40116">
        <ele>131.2</ele>
        <time>2024-10-13T07:07:42Z</time>
      </trkpt>
      <trkpt lat="46.75096" lon="0.40115">
        <ele>131</ele>
        <time>2024-10-13T07:07:43Z</time>
      </trkpt>
      <trkpt lat="46.75094" lon="0.40113">
        <ele>130.8</ele>
        <time>2024-10-13T07:07:45Z</time>
      </trkpt>
      <trkpt lat="46.75091" lon="0.40112">
        <ele>129.8</ele>
        <time>2024-10-13T07:07:48Z</time>
      </trkpt>
      <trkpt lat="46.7509" lon="0.40112">
        <ele>129.6</ele>
        <time>2024-10-13T07:07:49Z</time>
      </trkpt>
      <trkpt lat="46.75088" lon="0.40112">
        <ele>129.2</ele>
        <time>2024-10-13T07:07:51Z</time>
      </trkpt>
      <trkpt lat="46.75085" lon="0.40112">
        <ele>128.4</ele>
        <time>2024-10-13T07:07:53Z</time>
      </trkpt>
      <trkpt lat="46.75083" lon="0.40114">
        <ele>127.8</ele>
        <time>2024-10-13T07:07:54Z</time>
      </trkpt>
      <trkpt lat="46.75082" lon="0.40117">
        <ele>127</ele>
        <time>2024-10-13T07:07:56Z</time>
      </trkpt>
      <trkpt lat="46.75081" lon="0.40123">
        <ele>125.8</ele>
        <time>2024-10-13T07:07:59Z</time>
      </trkpt>
      <trkpt lat="46.7508" lon="0.4014">
        <ele>125.6</ele>
        <time>2024-10-13T07:08:06Z</time>
      </trkpt>
      <trkpt lat="46.7508" lon="0.40142">
        <ele>126</ele>
        <time>2024-10-13T07:08:07Z</time>
      </trkpt>
      <trkpt lat="46.7508" lon="0.40144">
        <ele>126.8</ele>
        <time>2024-10-13T07:08:08Z</time>
      </trkpt>
      <trkpt lat="46.7508" lon="0.40146">
        <ele>127</ele>
        <time>2024-10-13T07:08:09Z</time>
      </trkpt>
      <trkpt lat="46.75081" lon="0.40149">
        <ele>128</ele>
        <time>2024-10-13T07:08:11Z</time>
      </trkpt>
      <trkpt lat="46.75081" lon="0.40152">
        <ele>128.6</ele>
        <time>2024-10-13T07:08:12Z</time>
      </trkpt>
      <trkpt lat="46.75081" lon="0.40155">
        <ele>128.8</ele>
        <time>2024-10-13T07:08:13Z</time>
      </trkpt>
      <trkpt lat="46.75082" lon="0.40167">
        <ele>129.8</ele>
        <time>2024-10-13T07:08:18Z</time>
      </trkpt>
      <trkpt lat="46.75082" lon="0.4017">
        <ele>129.8</ele>
        <time>2024-10-13T07:08:19Z</time>
      </trkpt>
      <trkpt lat="46.75084" lon="0.40185">
        <ele>130.4</ele>
        <time>2024-10-13T07:08:25Z</time>
      </trkpt>
      <trkpt lat="46.75085" lon="0.40187">
        <ele>130.4</ele>
        <time>2024-10-13T07:08:26Z</time>
      </trkpt>
      <trkpt lat="46.75084" lon="0.40191">
        <ele>130.8</ele>
        <time>2024-10-13T07:08:28Z</time>
      </trkpt>
      <trkpt lat="46.75085" lon="0.40193">
        <ele>131</ele>
        <time>2024-10-13T07:08:29Z</time>
      </trkpt>
      <trkpt lat="46.75085" lon="0.40201">
        <ele>131.4</ele>
        <time>2024-10-13T07:08:32Z</time>
      </trkpt>
      <trkpt lat="46.75086" lon="0.40203">
        <ele>131.4</ele>
        <time>2024-10-13T07:08:33Z</time>
      </trkpt>
      <trkpt lat="46.75087" lon="0.40204">
        <ele>132</ele>
        <time>2024-10-13T07:08:34Z</time>
      </trkpt>
      <trkpt lat="46.75091" lon="0.40211">
        <ele>132.8</ele>
        <time>2024-10-13T07:08:37Z</time>
      </trkpt>
      <trkpt lat="46.75092" lon="0.40214">
        <ele>133</ele>
        <time>2024-10-13T07:08:39Z</time>
      </trkpt>
      <trkpt lat="46.75093" lon="0.40219">
        <ele>133.2</ele>
        <time>2024-10-13T07:08:41Z</time>
      </trkpt>
      <trkpt lat="46.75095" lon="0.40224">
        <ele>133.8</ele>
        <time>2024-10-13T07:08:43Z</time>
      </trkpt>
      <trkpt lat="46.75098" lon="0.40232">
        <ele>134.2</ele>
        <time>2024-10-13T07:08:46Z</time>
      </trkpt>
      <trkpt lat="46.75097" lon="0.40235">
        <ele>134.4</ele>
        <time>2024-10-13T07:08:48Z</time>
      </trkpt>
      <trkpt lat="46.75098" lon="0.40241">
        <ele>134.4</ele>
        <time>2024-10-13T07:08:50Z</time>
      </trkpt>
      <trkpt lat="46.75098" lon="0.40247">
        <ele>134.4</ele>
        <time>2024-10-13T07:08:52Z</time>
      </trkpt>
      <trkpt lat="46.751" lon="0.4025">
        <ele>134.4</ele>
        <time>2024-10-13T07:08:53Z</time>
      </trkpt>
      <trkpt lat="46.75102" lon="0.4026">
        <ele>134.4</ele>
        <time>2024-10-13T07:08:57Z</time>
      </trkpt>
      <trkpt lat="46.75104" lon="0.40267">
        <ele>135</ele>
        <time>2024-10-13T07:09:00Z</time>
      </trkpt>
      <trkpt lat="46.75104" lon="0.4027">
        <ele>135.2</ele>
        <time>2024-10-13T07:09:01Z</time>
      </trkpt>
      <trkpt lat="46.75106" lon="0.40279">
        <ele>135.4</ele>
        <time>2024-10-13T07:09:04Z</time>
      </trkpt>
      <trkpt lat="46.75108" lon="0.40283">
        <ele>135.6</ele>
        <time>2024-10-13T07:09:06Z</time>
      </trkpt>
      <trkpt lat="46.75113" lon="0.40302">
        <ele>136.2</ele>
        <time>2024-10-13T07:09:11Z</time>
      </trkpt>
      <trkpt lat="46.75114" lon="0.40306">
        <ele>136.4</ele>
        <time>2024-10-13T07:09:12Z</time>
      </trkpt>
      <trkpt lat="46.75119" lon="0.40335">
        <ele>136.4</ele>
        <time>2024-10-13T07:09:18Z</time>
      </trkpt>
      <trkpt lat="46.75121" lon="0.40368">
        <ele>135.8</ele>
        <time>2024-10-13T07:09:23Z</time>
      </trkpt>
      <trkpt lat="46.75122" lon="0.40376">
        <ele>135.8</ele>
        <time>2024-10-13T07:09:25Z</time>
      </trkpt>
      <trkpt lat="46.75125" lon="0.40381">
        <ele>136.2</ele>
        <time>2024-10-13T07:09:28Z</time>
      </trkpt>
      <trkpt lat="46.75126" lon="0.40383">
        <ele>136.4</ele>
        <time>2024-10-13T07:09:29Z</time>
      </trkpt>
      <trkpt lat="46.75128" lon="0.40388">
        <ele>136.4</ele>
        <time>2024-10-13T07:09:31Z</time>
      </trkpt>
      <trkpt lat="46.75133" lon="0.40389">
        <ele>136.8</ele>
        <time>2024-10-13T07:09:33Z</time>
      </trkpt>
      <trkpt lat="46.75141" lon="0.40392">
        <ele>137.4</ele>
        <time>2024-10-13T07:09:36Z</time>
      </trkpt>
      <trkpt lat="46.7515" lon="0.40398">
        <ele>138.2</ele>
        <time>2024-10-13T07:09:40Z</time>
      </trkpt>
      <trkpt lat="46.75156" lon="0.40399">
        <ele>138.6</ele>
        <time>2024-10-13T07:09:42Z</time>
      </trkpt>
      <trkpt lat="46.75166" lon="0.40402">
        <ele>139.4</ele>
        <time>2024-10-13T07:09:46Z</time>
      </trkpt>
      <trkpt lat="46.7517" lon="0.40403">
        <ele>139.6</ele>
        <time>2024-10-13T07:09:48Z</time>
      </trkpt>
      <trkpt lat="46.75182" lon="0.40405">
        <ele>140.4</ele>
        <time>2024-10-13T07:09:53Z</time>
      </trkpt>
      <trkpt lat="46.75188" lon="0.40404">
        <ele>140.6</ele>
        <time>2024-10-13T07:09:55Z</time>
      </trkpt>
      <trkpt lat="46.75196" lon="0.40403">
        <ele>140.8</ele>
        <time>2024-10-13T07:09:58Z</time>
      </trkpt>
      <trkpt lat="46.75211" lon="0.4041">
        <ele>141.4</ele>
        <time>2024-10-13T07:10:03Z</time>
      </trkpt>
      <trkpt lat="46.75219" lon="0.40414">
        <ele>142</ele>
        <time>2024-10-13T07:10:06Z</time>
      </trkpt>
      <trkpt lat="46.75227" lon="0.40418">
        <ele>142.4</ele>
        <time>2024-10-13T07:10:09Z</time>
      </trkpt>
      <trkpt lat="46.75236" lon="0.40416">
        <ele>143</ele>
        <time>2024-10-13T07:10:12Z</time>
      </trkpt>
      <trkpt lat="46.75241" lon="0.40416">
        <ele>143.2</ele>
        <time>2024-10-13T07:10:14Z</time>
      </trkpt>
      <trkpt lat="46.75256" lon="0.40415">
        <ele>144</ele>
        <time>2024-10-13T07:10:19Z</time>
      </trkpt>
      <trkpt lat="46.7526" lon="0.40415">
        <ele>144.2</ele>
        <time>2024-10-13T07:10:20Z</time>
      </trkpt>
      <trkpt lat="46.75283" lon="0.40416">
        <ele>144.8</ele>
        <time>2024-10-13T07:10:27Z</time>
      </trkpt>
      <trkpt lat="46.7529" lon="0.40415">
        <ele>145</ele>
        <time>2024-10-13T07:10:29Z</time>
      </trkpt>
      <trkpt lat="46.75294" lon="0.40415">
        <ele>145</ele>
        <time>2024-10-13T07:10:30Z</time>
      </trkpt>
      <trkpt lat="46.75306" lon="0.40415">
        <ele>145.2</ele>
        <time>2024-10-13T07:10:33Z</time>
      </trkpt>
      <trkpt lat="46.75317" lon="0.40409">
        <ele>145.4</ele>
        <time>2024-10-13T07:10:37Z</time>
      </trkpt>
      <trkpt lat="46.75323" lon="0.40409">
        <ele>145.6</ele>
        <time>2024-10-13T07:10:39Z</time>
      </trkpt>
      <trkpt lat="46.75326" lon="0.40409">
        <ele>145.8</ele>
        <time>2024-10-13T07:10:40Z</time>
      </trkpt>
      <trkpt lat="46.75333" lon="0.40412">
        <ele>145.8</ele>
        <time>2024-10-13T07:10:42Z</time>
      </trkpt>
      <trkpt lat="46.75344" lon="0.40413">
        <ele>146</ele>
        <time>2024-10-13T07:10:44Z</time>
      </trkpt>
      <trkpt lat="46.75348" lon="0.40413">
        <ele>146</ele>
        <time>2024-10-13T07:10:45Z</time>
      </trkpt>
      <trkpt lat="46.75352" lon="0.40414">
        <ele>146</ele>
        <time>2024-10-13T07:10:46Z</time>
      </trkpt>
      <trkpt lat="46.75358" lon="0.40413">
        <ele>146</ele>
        <time>2024-10-13T07:10:48Z</time>
      </trkpt>
      <trkpt lat="46.75367" lon="0.40413">
        <ele>146</ele>
        <time>2024-10-13T07:10:50Z</time>
      </trkpt>
      <trkpt lat="46.75391" lon="0.40409">
        <ele>146</ele>
        <time>2024-10-13T07:10:56Z</time>
      </trkpt>
      <trkpt lat="46.75408" lon="0.4041">
        <ele>146.2</ele>
        <time>2024-10-13T07:11:02Z</time>
      </trkpt>
      <trkpt lat="46.75412" lon="0.40413">
        <ele>146.2</ele>
        <time>2024-10-13T07:11:03Z</time>
      </trkpt>
      <trkpt lat="46.75425" lon="0.40427">
        <ele>146.2</ele>
        <time>2024-10-13T07:11:08Z</time>
      </trkpt>
      <trkpt lat="46.75434" lon="0.4044">
        <ele>146.2</ele>
        <time>2024-10-13T07:11:12Z</time>
      </trkpt>
      <trkpt lat="46.75434" lon="0.40442">
        <ele>146.2</ele>
        <time>2024-10-13T07:11:13Z</time>
      </trkpt>
      <trkpt lat="46.75439" lon="0.4046">
        <ele>146.2</ele>
        <time>2024-10-13T07:11:19Z</time>
      </trkpt>
      <trkpt lat="46.75447" lon="0.40483">
        <ele>146.2</ele>
        <time>2024-10-13T07:11:25Z</time>
      </trkpt>
      <trkpt lat="46.75454" lon="0.405">
        <ele>146</ele>
        <time>2024-10-13T07:11:29Z</time>
      </trkpt>
      <trkpt lat="46.75459" lon="0.4052">
        <ele>145.8</ele>
        <time>2024-10-13T07:11:34Z</time>
      </trkpt>
      <trkpt lat="46.75461" lon="0.4053">
        <ele>145.8</ele>
        <time>2024-10-13T07:11:37Z</time>
      </trkpt>
      <trkpt lat="46.75463" lon="0.40532">
        <ele>145.8</ele>
        <time>2024-10-13T07:11:38Z</time>
      </trkpt>
      <trkpt lat="46.75467" lon="0.40538">
        <ele>145.8</ele>
        <time>2024-10-13T07:11:40Z</time>
      </trkpt>
      <trkpt lat="46.75472" lon="0.4055">
        <ele>145.6</ele>
        <time>2024-10-13T07:11:43Z</time>
      </trkpt>
      <trkpt lat="46.75474" lon="0.40555">
        <ele>145.6</ele>
        <time>2024-10-13T07:11:44Z</time>
      </trkpt>
      <trkpt lat="46.75473" lon="0.40561">
        <ele>145.6</ele>
        <time>2024-10-13T07:11:46Z</time>
      </trkpt>
      <trkpt lat="46.7547" lon="0.40579">
        <ele>145.4</ele>
        <time>2024-10-13T07:11:51Z</time>
      </trkpt>
      <trkpt lat="46.75472" lon="0.40597">
        <ele>145</ele>
        <time>2024-10-13T07:11:56Z</time>
      </trkpt>
      <trkpt lat="46.75473" lon="0.40601">
        <ele>144.8</ele>
        <time>2024-10-13T07:11:57Z</time>
      </trkpt>
      <trkpt lat="46.75474" lon="0.40629">
        <ele>144.6</ele>
        <time>2024-10-13T07:12:03Z</time>
      </trkpt>
      <trkpt lat="46.75481" lon="0.40658">
        <ele>144.4</ele>
        <time>2024-10-13T07:12:09Z</time>
      </trkpt>
      <trkpt lat="46.75481" lon="0.40679">
        <ele>144.2</ele>
        <time>2024-10-13T07:12:14Z</time>
      </trkpt>
      <trkpt lat="46.75482" lon="0.40702">
        <ele>144.4</ele>
        <time>2024-10-13T07:12:20Z</time>
      </trkpt>
      <trkpt lat="46.75482" lon="0.40725">
        <ele>144.4</ele>
        <time>2024-10-13T07:12:25Z</time>
      </trkpt>
      <trkpt lat="46.75482" lon="0.40728">
        <ele>144.4</ele>
        <time>2024-10-13T07:12:26Z</time>
      </trkpt>
      <trkpt lat="46.75471" lon="0.4075">
        <ele>144.4</ele>
        <time>2024-10-13T07:12:32Z</time>
      </trkpt>
      <trkpt lat="46.75464" lon="0.40757">
        <ele>144.4</ele>
        <time>2024-10-13T07:12:34Z</time>
      </trkpt>
      <trkpt lat="46.75462" lon="0.40763">
        <ele>144.4</ele>
        <time>2024-10-13T07:12:36Z</time>
      </trkpt>
      <trkpt lat="46.7546" lon="0.40776">
        <ele>144</ele>
        <time>2024-10-13T07:12:40Z</time>
      </trkpt>
      <trkpt lat="46.7546" lon="0.40779">
        <ele>144</ele>
        <time>2024-10-13T07:12:41Z</time>
      </trkpt>
      <trkpt lat="46.75461" lon="0.40804">
        <ele>144</ele>
        <time>2024-10-13T07:12:47Z</time>
      </trkpt>
      <trkpt lat="46.75459" lon="0.40837">
        <ele>143.8</ele>
        <time>2024-10-13T07:12:53Z</time>
      </trkpt>
      <trkpt lat="46.75459" lon="0.4086">
        <ele>144</ele>
        <time>2024-10-13T07:12:57Z</time>
      </trkpt>
      <trkpt lat="46.75467" lon="0.40873">
        <ele>144</ele>
        <time>2024-10-13T07:13:01Z</time>
      </trkpt>
      <trkpt lat="46.75468" lon="0.40892">
        <ele>143.8</ele>
        <time>2024-10-13T07:13:06Z</time>
      </trkpt>
      <trkpt lat="46.75469" lon="0.40898">
        <ele>143.8</ele>
        <time>2024-10-13T07:13:08Z</time>
      </trkpt>
      <trkpt lat="46.75471" lon="0.40904">
        <ele>143.8</ele>
        <time>2024-10-13T07:13:11Z</time>
      </trkpt>
      <trkpt lat="46.75474" lon="0.40907">
        <ele>143.6</ele>
        <time>2024-10-13T07:13:13Z</time>
      </trkpt>
      <trkpt lat="46.75476" lon="0.40909">
        <ele>143.6</ele>
        <time>2024-10-13T07:13:15Z</time>
      </trkpt>
      <trkpt lat="46.75477" lon="0.40912">
        <ele>143.8</ele>
        <time>2024-10-13T07:13:17Z</time>
      </trkpt>
      <trkpt lat="46.75478" lon="0.40919">
        <ele>143.6</ele>
        <time>2024-10-13T07:13:19Z</time>
      </trkpt>
      <trkpt lat="46.75473" lon="0.40922">
        <ele>143.8</ele>
        <time>2024-10-13T07:13:21Z</time>
      </trkpt>
      <trkpt lat="46.75451" lon="0.40928">
        <ele>144</ele>
        <time>2024-10-13T07:13:27Z</time>
      </trkpt>
      <trkpt lat="46.75448" lon="0.40929">
        <ele>144.2</ele>
        <time>2024-10-13T07:13:28Z</time>
      </trkpt>
      <trkpt lat="46.75428" lon="0.40931">
        <ele>144</ele>
        <time>2024-10-13T07:13:32Z</time>
      </trkpt>
      <trkpt lat="46.75395" lon="0.40923">
        <ele>143.4</ele>
        <time>2024-10-13T07:13:38Z</time>
      </trkpt>
      <trkpt lat="46.7535" lon="0.40908">
        <ele>144</ele>
        <time>2024-10-13T07:13:45Z</time>
      </trkpt>
      <trkpt lat="46.75313" lon="0.40898">
        <ele>144.2</ele>
        <time>2024-10-13T07:13:51Z</time>
      </trkpt>
      <trkpt lat="46.75254" lon="0.40885">
        <ele>144.6</ele>
        <time>2024-10-13T07:14:01Z</time>
      </trkpt>
      <trkpt lat="46.75204" lon="0.4088">
        <ele>144.2</ele>
        <time>2024-10-13T07:14:09Z</time>
      </trkpt>
      <trkpt lat="46.75147" lon="0.40882">
        <ele>143.4</ele>
        <time>2024-10-13T07:14:17Z</time>
      </trkpt>
      <trkpt lat="46.75104" lon="0.40885">
        <ele>143</ele>
        <time>2024-10-13T07:14:23Z</time>
      </trkpt>
      <trkpt lat="46.75081" lon="0.40886">
        <ele>142.4</ele>
        <time>2024-10-13T07:14:26Z</time>
      </trkpt>
      <trkpt lat="46.75025" lon="0.40886">
        <ele>142.2</ele>
        <time>2024-10-13T07:14:34Z</time>
      </trkpt>
      <trkpt lat="46.74979" lon="0.40886">
        <ele>142</ele>
        <time>2024-10-13T07:14:41Z</time>
      </trkpt>
      <trkpt lat="46.74973" lon="0.40885">
        <ele>142</ele>
        <time>2024-10-13T07:14:42Z</time>
      </trkpt>
      <trkpt lat="46.74961" lon="0.40885">
        <ele>142</ele>
        <time>2024-10-13T07:14:44Z</time>
      </trkpt>
      <trkpt lat="46.74952" lon="0.40891">
        <ele>142</ele>
        <time>2024-10-13T07:14:46Z</time>
      </trkpt>
      <trkpt lat="46.74936" lon="0.40912">
        <ele>142.2</ele>
        <time>2024-10-13T07:14:50Z</time>
      </trkpt>
      <trkpt lat="46.74912" lon="0.40952">
        <ele>142.4</ele>
        <time>2024-10-13T07:14:56Z</time>
      </trkpt>
      <trkpt lat="46.74887" lon="0.40999">
        <ele>143</ele>
        <time>2024-10-13T07:15:02Z</time>
      </trkpt>
      <trkpt lat="46.74879" lon="0.41016">
        <ele>143</ele>
        <time>2024-10-13T07:15:04Z</time>
      </trkpt>
      <trkpt lat="46.74857" lon="0.41065">
        <ele>143</ele>
        <time>2024-10-13T07:15:10Z</time>
      </trkpt>
      <trkpt lat="46.74823" lon="0.41133">
        <ele>142.6</ele>
        <time>2024-10-13T07:15:18Z</time>
      </trkpt>
      <trkpt lat="46.74815" lon="0.41157">
        <ele>142.4</ele>
        <time>2024-10-13T07:15:21Z</time>
      </trkpt>
      <trkpt lat="46.74812" lon="0.41161">
        <ele>142.2</ele>
        <time>2024-10-13T07:15:22Z</time>
      </trkpt>
      <trkpt lat="46.74808" lon="0.41164">
        <ele>142</ele>
        <time>2024-10-13T07:15:23Z</time>
      </trkpt>
      <trkpt lat="46.74805" lon="0.41164">
        <ele>142</ele>
        <time>2024-10-13T07:15:24Z</time>
      </trkpt>
      <trkpt lat="46.74801" lon="0.41164">
        <ele>142</ele>
        <time>2024-10-13T07:15:25Z</time>
      </trkpt>
      <trkpt lat="46.74779" lon="0.41157">
        <ele>141.8</ele>
        <time>2024-10-13T07:15:29Z</time>
      </trkpt>
      <trkpt lat="46.74742" lon="0.41132">
        <ele>141.8</ele>
        <time>2024-10-13T07:15:35Z</time>
      </trkpt>
      <trkpt lat="46.74708" lon="0.4111">
        <ele>141.8</ele>
        <time>2024-10-13T07:15:41Z</time>
      </trkpt>
      <trkpt lat="46.74676" lon="0.4109">
        <ele>140.8</ele>
        <time>2024-10-13T07:15:46Z</time>
      </trkpt>
      <trkpt lat="46.7467" lon="0.41086">
        <ele>140.8</ele>
        <time>2024-10-13T07:15:47Z</time>
      </trkpt>
      <trkpt lat="46.74644" lon="0.4107">
        <ele>140.4</ele>
        <time>2024-10-13T07:15:52Z</time>
      </trkpt>
      <trkpt lat="46.74641" lon="0.41068">
        <ele>139.8</ele>
        <time>2024-10-13T07:15:53Z</time>
      </trkpt>
      <trkpt lat="46.74636" lon="0.41065">
        <ele>139.2</ele>
        <time>2024-10-13T07:15:56Z</time>
      </trkpt>
      <trkpt lat="46.74627" lon="0.41056">
        <ele>139.4</ele>
        <time>2024-10-13T07:16:01Z</time>
      </trkpt>
      <trkpt lat="46.74611" lon="0.41042">
        <ele>139</ele>
        <time>2024-10-13T07:16:05Z</time>
      </trkpt>
      <trkpt lat="46.74584" lon="0.41021">
        <ele>138.8</ele>
        <time>2024-10-13T07:16:11Z</time>
      </trkpt>
      <trkpt lat="46.74552" lon="0.41001">
        <ele>138.8</ele>
        <time>2024-10-13T07:16:17Z</time>
      </trkpt>
      <trkpt lat="46.74547" lon="0.40998">
        <ele>138.8</ele>
        <time>2024-10-13T07:16:18Z</time>
      </trkpt>
      <trkpt lat="46.74543" lon="0.40998">
        <ele>138.6</ele>
        <time>2024-10-13T07:16:19Z</time>
      </trkpt>
      <trkpt lat="46.74535" lon="0.41">
        <ele>138.4</ele>
        <time>2024-10-13T07:16:21Z</time>
      </trkpt>
      <trkpt lat="46.74512" lon="0.41013">
        <ele>138.4</ele>
        <time>2024-10-13T07:16:26Z</time>
      </trkpt>
      <trkpt lat="46.74497" lon="0.41019">
        <ele>139.2</ele>
        <time>2024-10-13T07:16:29Z</time>
      </trkpt>
      <trkpt lat="46.74488" lon="0.41021">
        <ele>139.6</ele>
        <time>2024-10-13T07:16:31Z</time>
      </trkpt>
      <trkpt lat="46.74468" lon="0.41024">
        <ele>139.8</ele>
        <time>2024-10-13T07:16:35Z</time>
      </trkpt>
      <trkpt lat="46.74454" lon="0.41024">
        <ele>140.2</ele>
        <time>2024-10-13T07:16:38Z</time>
      </trkpt>
      <trkpt lat="46.74437" lon="0.41025">
        <ele>140.8</ele>
        <time>2024-10-13T07:16:42Z</time>
      </trkpt>
      <trkpt lat="46.74428" lon="0.41027">
        <ele>141.4</ele>
        <time>2024-10-13T07:16:44Z</time>
      </trkpt>
      <trkpt lat="46.74411" lon="0.41034">
        <ele>141.8</ele>
        <time>2024-10-13T07:16:48Z</time>
      </trkpt>
      <trkpt lat="46.74404" lon="0.41039">
        <ele>142</ele>
        <time>2024-10-13T07:16:50Z</time>
      </trkpt>
      <trkpt lat="46.74378" lon="0.41057">
        <ele>142.4</ele>
        <time>2024-10-13T07:16:57Z</time>
      </trkpt>
      <trkpt lat="46.74354" lon="0.41072">
        <ele>142.8</ele>
        <time>2024-10-13T07:17:03Z</time>
      </trkpt>
      <trkpt lat="46.74345" lon="0.41076">
        <ele>143</ele>
        <time>2024-10-13T07:17:05Z</time>
      </trkpt>
      <trkpt lat="46.74317" lon="0.41094">
        <ele>143.8</ele>
        <time>2024-10-13T07:17:12Z</time>
      </trkpt>
      <trkpt lat="46.74313" lon="0.41097">
        <ele>143.8</ele>
        <time>2024-10-13T07:17:13Z</time>
      </trkpt>
      <trkpt lat="46.74301" lon="0.41105">
        <ele>144.2</ele>
        <time>2024-10-13T07:17:16Z</time>
      </trkpt>
      <trkpt lat="46.74296" lon="0.41113">
        <ele>144.4</ele>
        <time>2024-10-13T07:17:18Z</time>
      </trkpt>
      <trkpt lat="46.74291" lon="0.41123">
        <ele>144.4</ele>
        <time>2024-10-13T07:17:20Z</time>
      </trkpt>
      <trkpt lat="46.74284" lon="0.41125">
        <ele>144.4</ele>
        <time>2024-10-13T07:17:22Z</time>
      </trkpt>
      <trkpt lat="46.74267" lon="0.41116">
        <ele>144.4</ele>
        <time>2024-10-13T07:17:26Z</time>
      </trkpt>
      <trkpt lat="46.74227" lon="0.41097">
        <ele>143.8</ele>
        <time>2024-10-13T07:17:34Z</time>
      </trkpt>
      <trkpt lat="46.74185" lon="0.41082">
        <ele>143</ele>
        <time>2024-10-13T07:17:42Z</time>
      </trkpt>
      <trkpt lat="46.74171" lon="0.41079">
        <ele>143</ele>
        <time>2024-10-13T07:17:45Z</time>
      </trkpt>
      <trkpt lat="46.74167" lon="0.41081">
        <ele>142.8</ele>
        <time>2024-10-13T07:17:46Z</time>
      </trkpt>
      <trkpt lat="46.74163" lon="0.41084">
        <ele>142.6</ele>
        <time>2024-10-13T07:17:47Z</time>
      </trkpt>
      <trkpt lat="46.7416" lon="0.41094">
        <ele>142.6</ele>
        <time>2024-10-13T07:17:49Z</time>
      </trkpt>
      <trkpt lat="46.7416" lon="0.411">
        <ele>142.2</ele>
        <time>2024-10-13T07:17:50Z</time>
      </trkpt>
      <trkpt lat="46.74157" lon="0.41117">
        <ele>141.6</ele>
        <time>2024-10-13T07:17:53Z</time>
      </trkpt>
      <trkpt lat="46.74156" lon="0.41122">
        <ele>141.6</ele>
        <time>2024-10-13T07:17:54Z</time>
      </trkpt>
      <trkpt lat="46.74153" lon="0.41127">
        <ele>141</ele>
        <time>2024-10-13T07:17:56Z</time>
      </trkpt>
      <trkpt lat="46.7415" lon="0.41128">
        <ele>140.6</ele>
        <time>2024-10-13T07:17:57Z</time>
      </trkpt>
      <trkpt lat="46.74139" lon="0.41126">
        <ele>140</ele>
        <time>2024-10-13T07:18:00Z</time>
      </trkpt>
      <trkpt lat="46.74131" lon="0.41124">
        <ele>139.6</ele>
        <time>2024-10-13T07:18:02Z</time>
      </trkpt>
      <trkpt lat="46.74126" lon="0.41123">
        <ele>139.4</ele>
        <time>2024-10-13T07:18:03Z</time>
      </trkpt>
      <trkpt lat="46.74112" lon="0.41119">
        <ele>138.8</ele>
        <time>2024-10-13T07:18:06Z</time>
      </trkpt>
      <trkpt lat="46.74106" lon="0.41118">
        <ele>138</ele>
        <time>2024-10-13T07:18:07Z</time>
      </trkpt>
      <trkpt lat="46.74095" lon="0.41117">
        <ele>136.6</ele>
        <time>2024-10-13T07:18:09Z</time>
      </trkpt>
      <trkpt lat="46.7409" lon="0.41117">
        <ele>135.8</ele>
        <time>2024-10-13T07:18:10Z</time>
      </trkpt>
      <trkpt lat="46.74086" lon="0.41118">
        <ele>134.8</ele>
        <time>2024-10-13T07:18:11Z</time>
      </trkpt>
      <trkpt lat="46.74083" lon="0.41119">
        <ele>134</ele>
        <time>2024-10-13T07:18:12Z</time>
      </trkpt>
      <trkpt lat="46.7408" lon="0.41118">
        <ele>133.2</ele>
        <time>2024-10-13T07:18:13Z</time>
      </trkpt>
      <trkpt lat="46.74069" lon="0.41107">
        <ele>131.6</ele>
        <time>2024-10-13T07:18:16Z</time>
      </trkpt>
      <trkpt lat="46.74066" lon="0.41101">
        <ele>130.8</ele>
        <time>2024-10-13T07:18:17Z</time>
      </trkpt>
      <trkpt lat="46.74062" lon="0.41094">
        <ele>130.2</ele>
        <time>2024-10-13T07:18:18Z</time>
      </trkpt>
      <trkpt lat="46.74053" lon="0.41081">
        <ele>129.2</ele>
        <time>2024-10-13T07:18:20Z</time>
      </trkpt>
      <trkpt lat="46.74047" lon="0.41077">
        <ele>128.8</ele>
        <time>2024-10-13T07:18:21Z</time>
      </trkpt>
      <trkpt lat="46.74042" lon="0.41075">
        <ele>128</ele>
        <time>2024-10-13T07:18:22Z</time>
      </trkpt>
      <trkpt lat="46.74038" lon="0.41075">
        <ele>127.4</ele>
        <time>2024-10-13T07:18:23Z</time>
      </trkpt>
      <trkpt lat="46.74035" lon="0.41075">
        <ele>126.6</ele>
        <time>2024-10-13T07:18:24Z</time>
      </trkpt>
      <trkpt lat="46.74032" lon="0.41077">
        <ele>125.6</ele>
        <time>2024-10-13T07:18:25Z</time>
      </trkpt>
      <trkpt lat="46.7403" lon="0.4108">
        <ele>125</ele>
        <time>2024-10-13T07:18:26Z</time>
      </trkpt>
      <trkpt lat="46.74028" lon="0.41084">
        <ele>124.6</ele>
        <time>2024-10-13T07:18:27Z</time>
      </trkpt>
      <trkpt lat="46.74027" lon="0.41089">
        <ele>124.2</ele>
        <time>2024-10-13T07:18:28Z</time>
      </trkpt>
      <trkpt lat="46.74023" lon="0.41104">
        <ele>123.4</ele>
        <time>2024-10-13T07:18:30Z</time>
      </trkpt>
      <trkpt lat="46.74021" lon="0.41113">
        <ele>123.4</ele>
        <time>2024-10-13T07:18:31Z</time>
      </trkpt>
      <trkpt lat="46.74017" lon="0.41134">
        <ele>122.4</ele>
        <time>2024-10-13T07:18:33Z</time>
      </trkpt>
      <trkpt lat="46.74016" lon="0.41144">
        <ele>122</ele>
        <time>2024-10-13T07:18:34Z</time>
      </trkpt>
      <trkpt lat="46.74014" lon="0.41166">
        <ele>121.2</ele>
        <time>2024-10-13T07:18:36Z</time>
      </trkpt>
      <trkpt lat="46.74012" lon="0.41183">
        <ele>120</ele>
        <time>2024-10-13T07:18:38Z</time>
      </trkpt>
      <trkpt lat="46.74009" lon="0.41188">
        <ele>119.4</ele>
        <time>2024-10-13T07:18:39Z</time>
      </trkpt>
      <trkpt lat="46.74004" lon="0.41193">
        <ele>118.8</ele>
        <time>2024-10-13T07:18:40Z</time>
      </trkpt>
      <trkpt lat="46.7399" lon="0.41195">
        <ele>117.6</ele>
        <time>2024-10-13T07:18:42Z</time>
      </trkpt>
      <trkpt lat="46.73965" lon="0.41191">
        <ele>116.2</ele>
        <time>2024-10-13T07:18:45Z</time>
      </trkpt>
      <trkpt lat="46.73956" lon="0.4119">
        <ele>115</ele>
        <time>2024-10-13T07:18:46Z</time>
      </trkpt>
      <trkpt lat="46.73925" lon="0.41185">
        <ele>113.4</ele>
        <time>2024-10-13T07:18:49Z</time>
      </trkpt>
      <trkpt lat="46.73903" lon="0.41183">
        <ele>112.2</ele>
        <time>2024-10-13T07:18:51Z</time>
      </trkpt>
      <trkpt lat="46.73893" lon="0.41181">
        <ele>111.8</ele>
        <time>2024-10-13T07:18:52Z</time>
      </trkpt>
      <trkpt lat="46.73882" lon="0.4118">
        <ele>111</ele>
        <time>2024-10-13T07:18:53Z</time>
      </trkpt>
      <trkpt lat="46.73861" lon="0.41178">
        <ele>109.8</ele>
        <time>2024-10-13T07:18:55Z</time>
      </trkpt>
      <trkpt lat="46.73841" lon="0.41175">
        <ele>108.4</ele>
        <time>2024-10-13T07:18:57Z</time>
      </trkpt>
      <trkpt lat="46.7382" lon="0.41173">
        <ele>107.2</ele>
        <time>2024-10-13T07:18:59Z</time>
      </trkpt>
      <trkpt lat="46.7381" lon="0.41173">
        <ele>106.6</ele>
        <time>2024-10-13T07:19:00Z</time>
      </trkpt>
      <trkpt lat="46.73801" lon="0.41173">
        <ele>106.4</ele>
        <time>2024-10-13T07:19:01Z</time>
      </trkpt>
      <trkpt lat="46.73793" lon="0.41175">
        <ele>105.6</ele>
        <time>2024-10-13T07:19:02Z</time>
      </trkpt>
      <trkpt lat="46.73787" lon="0.41178">
        <ele>105.2</ele>
        <time>2024-10-13T07:19:03Z</time>
      </trkpt>
      <trkpt lat="46.73783" lon="0.41183">
        <ele>104.4</ele>
        <time>2024-10-13T07:19:04Z</time>
      </trkpt>
      <trkpt lat="46.73781" lon="0.41189">
        <ele>104.2</ele>
        <time>2024-10-13T07:19:05Z</time>
      </trkpt>
      <trkpt lat="46.7378" lon="0.41197">
        <ele>103.8</ele>
        <time>2024-10-13T07:19:06Z</time>
      </trkpt>
      <trkpt lat="46.7378" lon="0.41206">
        <ele>103.2</ele>
        <time>2024-10-13T07:19:07Z</time>
      </trkpt>
      <trkpt lat="46.73782" lon="0.41225">
        <ele>102</ele>
        <time>2024-10-13T07:19:09Z</time>
      </trkpt>
      <trkpt lat="46.73783" lon="0.41236">
        <ele>101.4</ele>
        <time>2024-10-13T07:19:10Z</time>
      </trkpt>
      <trkpt lat="46.73783" lon="0.41247">
        <ele>100.8</ele>
        <time>2024-10-13T07:19:11Z</time>
      </trkpt>
      <trkpt lat="46.73783" lon="0.41271">
        <ele>99.6</ele>
        <time>2024-10-13T07:19:13Z</time>
      </trkpt>
      <trkpt lat="46.73788" lon="0.41317">
        <ele>98.6</ele>
        <time>2024-10-13T07:19:17Z</time>
      </trkpt>
      <trkpt lat="46.7379" lon="0.41327">
        <ele>98.6</ele>
        <time>2024-10-13T07:19:18Z</time>
      </trkpt>
      <trkpt lat="46.73806" lon="0.41397">
        <ele>98</ele>
        <time>2024-10-13T07:19:25Z</time>
      </trkpt>
      <trkpt lat="46.73825" lon="0.41473">
        <ele>98.4</ele>
        <time>2024-10-13T07:19:33Z</time>
      </trkpt>
      <trkpt lat="46.73842" lon="0.41544">
        <ele>98</ele>
        <time>2024-10-13T07:19:41Z</time>
      </trkpt>
      <trkpt lat="46.7386" lon="0.41618">
        <ele>98.2</ele>
        <time>2024-10-13T07:19:50Z</time>
      </trkpt>
      <trkpt lat="46.73874" lon="0.41677">
        <ele>98</ele>
        <time>2024-10-13T07:19:58Z</time>
      </trkpt>
      <trkpt lat="46.73891" lon="0.41741">
        <ele>98.6</ele>
        <time>2024-10-13T07:20:07Z</time>
      </trkpt>
      <trkpt lat="46.73909" lon="0.41815">
        <ele>98.8</ele>
        <time>2024-10-13T07:20:17Z</time>
      </trkpt>
      <trkpt lat="46.73926" lon="0.41886">
        <ele>99.4</ele>
        <time>2024-10-13T07:20:27Z</time>
      </trkpt>
      <trkpt lat="46.73932" lon="0.41914">
        <ele>99.8</ele>
        <time>2024-10-13T07:20:31Z</time>
      </trkpt>
      <trkpt lat="46.73937" lon="0.41943">
        <ele>100.2</ele>
        <time>2024-10-13T07:20:35Z</time>
      </trkpt>
      <trkpt lat="46.73945" lon="0.41989">
        <ele>100.4</ele>
        <time>2024-10-13T07:20:42Z</time>
      </trkpt>
      <trkpt lat="46.73945" lon="0.41996">
        <ele>100.4</ele>
        <time>2024-10-13T07:20:43Z</time>
      </trkpt>
      <trkpt lat="46.73944" lon="0.42002">
        <ele>100.4</ele>
        <time>2024-10-13T07:20:44Z</time>
      </trkpt>
      <trkpt lat="46.73938" lon="0.4201">
        <ele>100.4</ele>
        <time>2024-10-13T07:20:46Z</time>
      </trkpt>
      <trkpt lat="46.73929" lon="0.42015">
        <ele>100.2</ele>
        <time>2024-10-13T07:20:48Z</time>
      </trkpt>
      <trkpt lat="46.73918" lon="0.42019">
        <ele>100</ele>
        <time>2024-10-13T07:20:50Z</time>
      </trkpt>
      <trkpt lat="46.73895" lon="0.42029">
        <ele>99.6</ele>
        <time>2024-10-13T07:20:54Z</time>
      </trkpt>
      <trkpt lat="46.73877" lon="0.42036">
        <ele>99.4</ele>
        <time>2024-10-13T07:20:57Z</time>
      </trkpt>
      <trkpt lat="46.73835" lon="0.42053">
        <ele>99</ele>
        <time>2024-10-13T07:21:04Z</time>
      </trkpt>
      <trkpt lat="46.73802" lon="0.42077">
        <ele>99</ele>
        <time>2024-10-13T07:21:10Z</time>
      </trkpt>
      <trkpt lat="46.73773" lon="0.42093">
        <ele>98.8</ele>
        <time>2024-10-13T07:21:15Z</time>
      </trkpt>
      <trkpt lat="46.73766" lon="0.42094">
        <ele>98.2</ele>
        <time>2024-10-13T07:21:16Z</time>
      </trkpt>
      <trkpt lat="46.73753" lon="0.42093">
        <ele>97.8</ele>
        <time>2024-10-13T07:21:18Z</time>
      </trkpt>
      <trkpt lat="46.73747" lon="0.4209">
        <ele>97.6</ele>
        <time>2024-10-13T07:21:19Z</time>
      </trkpt>
      <trkpt lat="46.73741" lon="0.42084">
        <ele>97.4</ele>
        <time>2024-10-13T07:21:20Z</time>
      </trkpt>
      <trkpt lat="46.7373" lon="0.4207">
        <ele>97.2</ele>
        <time>2024-10-13T07:21:22Z</time>
      </trkpt>
      <trkpt lat="46.7372" lon="0.42053">
        <ele>96.6</ele>
        <time>2024-10-13T07:21:24Z</time>
      </trkpt>
      <trkpt lat="46.73704" lon="0.42027">
        <ele>95.4</ele>
        <time>2024-10-13T07:21:27Z</time>
      </trkpt>
      <trkpt lat="46.73698" lon="0.42019">
        <ele>95</ele>
        <time>2024-10-13T07:21:28Z</time>
      </trkpt>
      <trkpt lat="46.7368" lon="0.41998">
        <ele>94.4</ele>
        <time>2024-10-13T07:21:31Z</time>
      </trkpt>
      <trkpt lat="46.73675" lon="0.41994">
        <ele>94.2</ele>
        <time>2024-10-13T07:21:32Z</time>
      </trkpt>
      <trkpt lat="46.7367" lon="0.41992">
        <ele>94.2</ele>
        <time>2024-10-13T07:21:33Z</time>
      </trkpt>
      <trkpt lat="46.73656" lon="0.41991">
        <ele>93.8</ele>
        <time>2024-10-13T07:21:36Z</time>
      </trkpt>
      <trkpt lat="46.73639" lon="0.41993">
        <ele>93.2</ele>
        <time>2024-10-13T07:21:40Z</time>
      </trkpt>
      <trkpt lat="46.73625" lon="0.41996">
        <ele>93.2</ele>
        <time>2024-10-13T07:21:43Z</time>
      </trkpt>
      <trkpt lat="46.73592" lon="0.42012">
        <ele>94.2</ele>
        <time>2024-10-13T07:21:50Z</time>
      </trkpt>
      <trkpt lat="46.73588" lon="0.42016">
        <ele>94.2</ele>
        <time>2024-10-13T07:21:51Z</time>
      </trkpt>
      <trkpt lat="46.73567" lon="0.42038">
        <ele>93.6</ele>
        <time>2024-10-13T07:21:56Z</time>
      </trkpt>
      <trkpt lat="46.73552" lon="0.42055">
        <ele>93</ele>
        <time>2024-10-13T07:22:00Z</time>
      </trkpt>
      <trkpt lat="46.73548" lon="0.42056">
        <ele>93.2</ele>
        <time>2024-10-13T07:22:01Z</time>
      </trkpt>
      <trkpt lat="46.73543" lon="0.42055">
        <ele>93.2</ele>
        <time>2024-10-13T07:22:02Z</time>
      </trkpt>
      <trkpt lat="46.73535" lon="0.42046">
        <ele>93.2</ele>
        <time>2024-10-13T07:22:04Z</time>
      </trkpt>
      <trkpt lat="46.73511" lon="0.42005">
        <ele>92.2</ele>
        <time>2024-10-13T07:22:10Z</time>
      </trkpt>
      <trkpt lat="46.73497" lon="0.41983">
        <ele>91</ele>
        <time>2024-10-13T07:22:13Z</time>
      </trkpt>
      <trkpt lat="46.73478" lon="0.41956">
        <ele>90.8</ele>
        <time>2024-10-13T07:22:17Z</time>
      </trkpt>
      <trkpt lat="46.73448" lon="0.4192">
        <ele>90.4</ele>
        <time>2024-10-13T07:22:23Z</time>
      </trkpt>
      <trkpt lat="46.73441" lon="0.41917">
        <ele>90.2</ele>
        <time>2024-10-13T07:22:24Z</time>
      </trkpt>
      <trkpt lat="46.73435" lon="0.41914">
        <ele>89.8</ele>
        <time>2024-10-13T07:22:25Z</time>
      </trkpt>
      <trkpt lat="46.73397" lon="0.41903">
        <ele>89.4</ele>
        <time>2024-10-13T07:22:31Z</time>
      </trkpt>
      <trkpt lat="46.73368" lon="0.41892">
        <ele>88.8</ele>
        <time>2024-10-13T07:22:36Z</time>
      </trkpt>
      <trkpt lat="46.7335" lon="0.41884">
        <ele>89</ele>
        <time>2024-10-13T07:22:39Z</time>
      </trkpt>
      <trkpt lat="46.73306" lon="0.41859">
        <ele>88.8</ele>
        <time>2024-10-13T07:22:47Z</time>
      </trkpt>
      <trkpt lat="46.73262" lon="0.41839">
        <ele>89.6</ele>
        <time>2024-10-13T07:22:55Z</time>
      </trkpt>
      <trkpt lat="46.73257" lon="0.41838">
        <ele>89.8</ele>
        <time>2024-10-13T07:22:56Z</time>
      </trkpt>
      <trkpt lat="46.73229" lon="0.41833">
        <ele>89.6</ele>
        <time>2024-10-13T07:23:01Z</time>
      </trkpt>
      <trkpt lat="46.73171" lon="0.41832">
        <ele>89.8</ele>
        <time>2024-10-13T07:23:12Z</time>
      </trkpt>
      <trkpt lat="46.73121" lon="0.41841">
        <ele>90</ele>
        <time>2024-10-13T07:23:22Z</time>
      </trkpt>
      <trkpt lat="46.731" lon="0.4185">
        <ele>90</ele>
        <time>2024-10-13T07:23:27Z</time>
      </trkpt>
      <trkpt lat="46.73098" lon="0.41853">
        <ele>90</ele>
        <time>2024-10-13T07:23:28Z</time>
      </trkpt>
      <trkpt lat="46.73098" lon="0.41857">
        <ele>90</ele>
        <time>2024-10-13T07:23:29Z</time>
      </trkpt>
      <trkpt lat="46.731" lon="0.41863">
        <ele>90.2</ele>
        <time>2024-10-13T07:23:31Z</time>
      </trkpt>
      <trkpt lat="46.73112" lon="0.41889">
        <ele>90.6</ele>
        <time>2024-10-13T07:23:37Z</time>
      </trkpt>
      <trkpt lat="46.73116" lon="0.41898">
        <ele>91</ele>
        <time>2024-10-13T07:23:39Z</time>
      </trkpt>
      <trkpt lat="46.73127" lon="0.41922">
        <ele>91.4</ele>
        <time>2024-10-13T07:23:45Z</time>
      </trkpt>
      <trkpt lat="46.73134" lon="0.41938">
        <ele>92.2</ele>
        <time>2024-10-13T07:23:49Z</time>
      </trkpt>
      <trkpt lat="46.73145" lon="0.41962">
        <ele>92.8</ele>
        <time>2024-10-13T07:23:56Z</time>
      </trkpt>
      <trkpt lat="46.73151" lon="0.41974">
        <ele>93.4</ele>
        <time>2024-10-13T07:24:00Z</time>
      </trkpt>
      <trkpt lat="46.7316" lon="0.41993">
        <ele>94</ele>
        <time>2024-10-13T07:24:06Z</time>
      </trkpt>
      <trkpt lat="46.73163" lon="0.41998">
        <ele>94.4</ele>
        <time>2024-10-13T07:24:08Z</time>
      </trkpt>
      <trkpt lat="46.73173" lon="0.42015">
        <ele>95.4</ele>
        <time>2024-10-13T07:24:15Z</time>
      </trkpt>
      <trkpt lat="46.73183" lon="0.42027">
        <ele>96.8</ele>
        <time>2024-10-13T07:24:21Z</time>
      </trkpt>
      <trkpt lat="46.73188" lon="0.42033">
        <ele>97.4</ele>
        <time>2024-10-13T07:24:24Z</time>
      </trkpt>
      <trkpt lat="46.7319" lon="0.42037">
        <ele>97.8</ele>
        <time>2024-10-13T07:24:26Z</time>
      </trkpt>
      <trkpt lat="46.73196" lon="0.42044">
        <ele>99</ele>
        <time>2024-10-13T07:24:30Z</time>
      </trkpt>
      <trkpt lat="46.732" lon="0.42049">
        <ele>99.2</ele>
        <time>2024-10-13T07:24:33Z</time>
      </trkpt>
      <trkpt lat="46.73208" lon="0.42058">
        <ele>100.2</ele>
        <time>2024-10-13T07:24:39Z</time>
      </trkpt>
      <trkpt lat="46.73212" lon="0.42064">
        <ele>100.8</ele>
        <time>2024-10-13T07:24:42Z</time>
      </trkpt>
      <trkpt lat="46.73214" lon="0.42067">
        <ele>101.2</ele>
        <time>2024-10-13T07:24:44Z</time>
      </trkpt>
      <trkpt lat="46.73222" lon="0.42077">
        <ele>102.2</ele>
        <time>2024-10-13T07:24:50Z</time>
      </trkpt>
      <trkpt lat="46.73223" lon="0.42079">
        <ele>102.2</ele>
        <time>2024-10-13T07:24:51Z</time>
      </trkpt>
      <trkpt lat="46.73231" lon="0.42089">
        <ele>103.4</ele>
        <time>2024-10-13T07:24:57Z</time>
      </trkpt>
      <trkpt lat="46.73232" lon="0.42092">
        <ele>103.8</ele>
        <time>2024-10-13T07:24:59Z</time>
      </trkpt>
      <trkpt lat="46.73233" lon="0.42095">
        <ele>104</ele>
        <time>2024-10-13T07:25:01Z</time>
      </trkpt>
      <trkpt lat="46.73231" lon="0.42099">
        <ele>104.6</ele>
        <time>2024-10-13T07:25:04Z</time>
      </trkpt>
      <trkpt lat="46.73227" lon="0.42103">
        <ele>105.8</ele>
        <time>2024-10-13T07:25:08Z</time>
      </trkpt>
      <trkpt lat="46.73221" lon="0.42109">
        <ele>106.6</ele>
        <time>2024-10-13T07:25:13Z</time>
      </trkpt>
      <trkpt lat="46.73219" lon="0.42112">
        <ele>106.8</ele>
        <time>2024-10-13T07:25:15Z</time>
      </trkpt>
      <trkpt lat="46.73212" lon="0.42121">
        <ele>107.6</ele>
        <time>2024-10-13T07:25:21Z</time>
      </trkpt>
      <trkpt lat="46.7321" lon="0.42125">
        <ele>107.8</ele>
        <time>2024-10-13T07:25:23Z</time>
      </trkpt>
      <trkpt lat="46.73202" lon="0.42134">
        <ele>109</ele>
        <time>2024-10-13T07:25:29Z</time>
      </trkpt>
      <trkpt lat="46.732" lon="0.42136">
        <ele>109</ele>
        <time>2024-10-13T07:25:30Z</time>
      </trkpt>
      <trkpt lat="46.73192" lon="0.42147">
        <ele>110</ele>
        <time>2024-10-13T07:25:36Z</time>
      </trkpt>
      <trkpt lat="46.73189" lon="0.42151">
        <ele>110.4</ele>
        <time>2024-10-13T07:25:38Z</time>
      </trkpt>
      <trkpt lat="46.73183" lon="0.42158">
        <ele>111</ele>
        <time>2024-10-13T07:25:42Z</time>
      </trkpt>
      <trkpt lat="46.73174" lon="0.42167">
        <ele>111.6</ele>
        <time>2024-10-13T07:25:47Z</time>
      </trkpt>
      <trkpt lat="46.73167" lon="0.42175">
        <ele>112.2</ele>
        <time>2024-10-13T07:25:52Z</time>
      </trkpt>
      <trkpt lat="46.73154" lon="0.42189">
        <ele>112.8</ele>
        <time>2024-10-13T07:25:59Z</time>
      </trkpt>
      <trkpt lat="46.73143" lon="0.42205">
        <ele>113.2</ele>
        <time>2024-10-13T07:26:05Z</time>
      </trkpt>
      <trkpt lat="46.73135" lon="0.42226">
        <ele>114.2</ele>
        <time>2024-10-13T07:26:11Z</time>
      </trkpt>
      <trkpt lat="46.73135" lon="0.42228">
        <ele>114.4</ele>
        <time>2024-10-13T07:26:12Z</time>
      </trkpt>
      <trkpt lat="46.73135" lon="0.42241">
        <ele>115.4</ele>
        <time>2024-10-13T07:26:18Z</time>
      </trkpt>
      <trkpt lat="46.73134" lon="0.42245">
        <ele>116</ele>
        <time>2024-10-13T07:26:20Z</time>
      </trkpt>
      <trkpt lat="46.73133" lon="0.4225">
        <ele>116.4</ele>
        <time>2024-10-13T07:26:22Z</time>
      </trkpt>
      <trkpt lat="46.73127" lon="0.42259">
        <ele>117.2</ele>
        <time>2024-10-13T07:26:26Z</time>
      </trkpt>
      <trkpt lat="46.73115" lon="0.42276">
        <ele>117</ele>
        <time>2024-10-13T07:26:32Z</time>
      </trkpt>
      <trkpt lat="46.7311" lon="0.42286">
        <ele>116.6</ele>
        <time>2024-10-13T07:26:34Z</time>
      </trkpt>
      <trkpt lat="46.73106" lon="0.42298">
        <ele>116.2</ele>
        <time>2024-10-13T07:26:36Z</time>
      </trkpt>
      <trkpt lat="46.73106" lon="0.42305">
        <ele>115.8</ele>
        <time>2024-10-13T07:26:37Z</time>
      </trkpt>
      <trkpt lat="46.73106" lon="0.42313">
        <ele>115.6</ele>
        <time>2024-10-13T07:26:38Z</time>
      </trkpt>
      <trkpt lat="46.73106" lon="0.42321">
        <ele>115.2</ele>
        <time>2024-10-13T07:26:39Z</time>
      </trkpt>
      <trkpt lat="46.73106" lon="0.42329">
        <ele>115</ele>
        <time>2024-10-13T07:26:40Z</time>
      </trkpt>
      <trkpt lat="46.73101" lon="0.42342">
        <ele>114.4</ele>
        <time>2024-10-13T07:26:42Z</time>
      </trkpt>
      <trkpt lat="46.73099" lon="0.42348">
        <ele>114.2</ele>
        <time>2024-10-13T07:26:43Z</time>
      </trkpt>
      <trkpt lat="46.73091" lon="0.42366">
        <ele>112.4</ele>
        <time>2024-10-13T07:26:47Z</time>
      </trkpt>
      <trkpt lat="46.73088" lon="0.42372">
        <ele>111.4</ele>
        <time>2024-10-13T07:26:49Z</time>
      </trkpt>
      <trkpt lat="46.73085" lon="0.42387">
        <ele>110.8</ele>
        <time>2024-10-13T07:26:52Z</time>
      </trkpt>
      <trkpt lat="46.73086" lon="0.42397">
        <ele>111</ele>
        <time>2024-10-13T07:26:54Z</time>
      </trkpt>
      <trkpt lat="46.73089" lon="0.4241">
        <ele>111</ele>
        <time>2024-10-13T07:26:56Z</time>
      </trkpt>
      <trkpt lat="46.73105" lon="0.42462">
        <ele>111.4</ele>
        <time>2024-10-13T07:27:03Z</time>
      </trkpt>
      <trkpt lat="46.73126" lon="0.42519">
        <ele>111.8</ele>
        <time>2024-10-13T07:27:10Z</time>
      </trkpt>
      <trkpt lat="46.73156" lon="0.42573">
        <ele>112.4</ele>
        <time>2024-10-13T07:27:18Z</time>
      </trkpt>
      <trkpt lat="46.7316" lon="0.4258">
        <ele>112.6</ele>
        <time>2024-10-13T07:27:19Z</time>
      </trkpt>
      <trkpt lat="46.73173" lon="0.42613">
        <ele>112.8</ele>
        <time>2024-10-13T07:27:24Z</time>
      </trkpt>
      <trkpt lat="46.73192" lon="0.42674">
        <ele>112.4</ele>
        <time>2024-10-13T07:27:32Z</time>
      </trkpt>
      <trkpt lat="46.73196" lon="0.42691">
        <ele>112.2</ele>
        <time>2024-10-13T07:27:34Z</time>
      </trkpt>
      <trkpt lat="46.73202" lon="0.4272">
        <ele>111.6</ele>
        <time>2024-10-13T07:27:37Z</time>
      </trkpt>
      <trkpt lat="46.73204" lon="0.42729">
        <ele>111.6</ele>
        <time>2024-10-13T07:27:38Z</time>
      </trkpt>
      <trkpt lat="46.7321" lon="0.42747">
        <ele>111</ele>
        <time>2024-10-13T07:27:40Z</time>
      </trkpt>
      <trkpt lat="46.73213" lon="0.42757">
        <ele>110.6</ele>
        <time>2024-10-13T07:27:42Z</time>
      </trkpt>
      <trkpt lat="46.73215" lon="0.42758">
        <ele>110.4</ele>
        <time>2024-10-13T07:27:43Z</time>
      </trkpt>
      <trkpt lat="46.73216" lon="0.42755">
        <ele>110.2</ele>
        <time>2024-10-13T07:27:45Z</time>
      </trkpt>
      <trkpt lat="46.73225" lon="0.42745">
        <ele>111</ele>
        <time>2024-10-13T07:27:51Z</time>
      </trkpt>
      <trkpt lat="46.73227" lon="0.42741">
        <ele>111.4</ele>
        <time>2024-10-13T07:27:53Z</time>
      </trkpt>
      <trkpt lat="46.7323" lon="0.42739">
        <ele>112.8</ele>
        <time>2024-10-13T07:27:56Z</time>
      </trkpt>
      <trkpt lat="46.73234" lon="0.42743">
        <ele>114</ele>
        <time>2024-10-13T07:28:00Z</time>
      </trkpt>
      <trkpt lat="46.73237" lon="0.42745">
        <ele>114.4</ele>
        <time>2024-10-13T07:28:02Z</time>
      </trkpt>
      <trkpt lat="46.73239" lon="0.42747">
        <ele>115</ele>
        <time>2024-10-13T07:28:04Z</time>
      </trkpt>
      <trkpt lat="46.73246" lon="0.4275">
        <ele>116.4</ele>
        <time>2024-10-13T07:28:08Z</time>
      </trkpt>
      <trkpt lat="46.73247" lon="0.4275">
        <ele>116.6</ele>
        <time>2024-10-13T07:28:09Z</time>
      </trkpt>
      <trkpt lat="46.7325" lon="0.4275">
        <ele>117.4</ele>
        <time>2024-10-13T07:28:11Z</time>
      </trkpt>
      <trkpt lat="46.73254" lon="0.42751">
        <ele>118.6</ele>
        <time>2024-10-13T07:28:15Z</time>
      </trkpt>
      <trkpt lat="46.73255" lon="0.42751">
        <ele>118.8</ele>
        <time>2024-10-13T07:28:16Z</time>
      </trkpt>
      <trkpt lat="46.73257" lon="0.42752">
        <ele>119.2</ele>
        <time>2024-10-13T07:28:19Z</time>
      </trkpt>
      <trkpt lat="46.73258" lon="0.42752">
        <ele>119.8</ele>
        <time>2024-10-13T07:28:20Z</time>
      </trkpt>
      <trkpt lat="46.7326" lon="0.42752">
        <ele>120.2</ele>
        <time>2024-10-13T07:28:22Z</time>
      </trkpt>
      <trkpt lat="46.73261" lon="0.42752">
        <ele>120.4</ele>
        <time>2024-10-13T07:28:23Z</time>
      </trkpt>
      <trkpt lat="46.73266" lon="0.42752">
        <ele>121</ele>
        <time>2024-10-13T07:28:26Z</time>
      </trkpt>
      <trkpt lat="46.73268" lon="0.42754">
        <ele>121.4</ele>
        <time>2024-10-13T07:28:28Z</time>
      </trkpt>
      <trkpt lat="46.73269" lon="0.42756">
        <ele>121.8</ele>
        <time>2024-10-13T07:28:29Z</time>
      </trkpt>
      <trkpt lat="46.7327" lon="0.42759">
        <ele>122</ele>
        <time>2024-10-13T07:28:31Z</time>
      </trkpt>
      <trkpt lat="46.73275" lon="0.42765">
        <ele>122.8</ele>
        <time>2024-10-13T07:28:35Z</time>
      </trkpt>
      <trkpt lat="46.73277" lon="0.42769">
        <ele>123.2</ele>
        <time>2024-10-13T07:28:37Z</time>
      </trkpt>
      <trkpt lat="46.73284" lon="0.42781">
        <ele>123.6</ele>
        <time>2024-10-13T07:28:43Z</time>
      </trkpt>
      <trkpt lat="46.73288" lon="0.42789">
        <ele>124</ele>
        <time>2024-10-13T07:28:47Z</time>
      </trkpt>
      <trkpt lat="46.73291" lon="0.4279">
        <ele>124.2</ele>
        <time>2024-10-13T07:28:49Z</time>
      </trkpt>
      <trkpt lat="46.73293" lon="0.4279">
        <ele>125.2</ele>
        <time>2024-10-13T07:28:52Z</time>
      </trkpt>
      <trkpt lat="46.73294" lon="0.4279">
        <ele>125.4</ele>
        <time>2024-10-13T07:28:53Z</time>
      </trkpt>
      <trkpt lat="46.73296" lon="0.42788">
        <ele>125.8</ele>
        <time>2024-10-13T07:28:56Z</time>
      </trkpt>
      <trkpt lat="46.73297" lon="0.42788">
        <ele>126.6</ele>
        <time>2024-10-13T07:28:58Z</time>
      </trkpt>
      <trkpt lat="46.73302" lon="0.42784">
        <ele>127.4</ele>
        <time>2024-10-13T07:29:03Z</time>
      </trkpt>
      <trkpt lat="46.73303" lon="0.42783">
        <ele>127.8</ele>
        <time>2024-10-13T07:29:04Z</time>
      </trkpt>
      <trkpt lat="46.73308" lon="0.42781">
        <ele>129</ele>
        <time>2024-10-13T07:29:09Z</time>
      </trkpt>
      <trkpt lat="46.73308" lon="0.4278">
        <ele>129.4</ele>
        <time>2024-10-13T07:29:10Z</time>
      </trkpt>
      <trkpt lat="46.73312" lon="0.42779">
        <ele>130.2</ele>
        <time>2024-10-13T07:29:14Z</time>
      </trkpt>
      <trkpt lat="46.73315" lon="0.42776">
        <ele>131.2</ele>
        <time>2024-10-13T07:29:18Z</time>
      </trkpt>
      <trkpt lat="46.73318" lon="0.42773">
        <ele>132.2</ele>
        <time>2024-10-13T07:29:22Z</time>
      </trkpt>
      <trkpt lat="46.73324" lon="0.42768">
        <ele>133.4</ele>
        <time>2024-10-13T07:29:28Z</time>
      </trkpt>
      <trkpt lat="46.73327" lon="0.42767">
        <ele>134</ele>
        <time>2024-10-13T07:29:30Z</time>
      </trkpt>
      <trkpt lat="46.73329" lon="0.42768">
        <ele>134.4</ele>
        <time>2024-10-13T07:29:31Z</time>
      </trkpt>
      <trkpt lat="46.7333" lon="0.42769">
        <ele>134.6</ele>
        <time>2024-10-13T07:29:32Z</time>
      </trkpt>
      <trkpt lat="46.73339" lon="0.42778">
        <ele>135</ele>
        <time>2024-10-13T07:29:38Z</time>
      </trkpt>
      <trkpt lat="46.73342" lon="0.42779">
        <ele>135.2</ele>
        <time>2024-10-13T07:29:39Z</time>
      </trkpt>
      <trkpt lat="46.73345" lon="0.42784">
        <ele>135.6</ele>
        <time>2024-10-13T07:29:41Z</time>
      </trkpt>
      <trkpt lat="46.73346" lon="0.42787">
        <ele>135.8</ele>
        <time>2024-10-13T07:29:42Z</time>
      </trkpt>
      <trkpt lat="46.73363" lon="0.42809">
        <ele>136.4</ele>
        <time>2024-10-13T07:29:49Z</time>
      </trkpt>
      <trkpt lat="46.73368" lon="0.42816">
        <ele>136.6</ele>
        <time>2024-10-13T07:29:51Z</time>
      </trkpt>
      <trkpt lat="46.73382" lon="0.42836">
        <ele>137</ele>
        <time>2024-10-13T07:29:56Z</time>
      </trkpt>
      <trkpt lat="46.73402" lon="0.42862">
        <ele>137.2</ele>
        <time>2024-10-13T07:30:03Z</time>
      </trkpt>
      <trkpt lat="46.73431" lon="0.42906">
        <ele>137.4</ele>
        <time>2024-10-13T07:30:12Z</time>
      </trkpt>
      <trkpt lat="46.73457" lon="0.42946">
        <ele>137</ele>
        <time>2024-10-13T07:30:19Z</time>
      </trkpt>
      <trkpt lat="46.73481" lon="0.42986">
        <ele>135.6</ele>
        <time>2024-10-13T07:30:25Z</time>
      </trkpt>
      <trkpt lat="46.73491" lon="0.43004">
        <ele>134.2</ele>
        <time>2024-10-13T07:30:29Z</time>
      </trkpt>
      <trkpt lat="46.735" lon="0.43015">
        <ele>133.2</ele>
        <time>2024-10-13T07:30:35Z</time>
      </trkpt>
      <trkpt lat="46.73511" lon="0.43031">
        <ele>132.4</ele>
        <time>2024-10-13T07:30:40Z</time>
      </trkpt>
      <trkpt lat="46.73514" lon="0.43035">
        <ele>132.2</ele>
        <time>2024-10-13T07:30:41Z</time>
      </trkpt>
      <trkpt lat="46.73527" lon="0.43055">
        <ele>131</ele>
        <time>2024-10-13T07:30:45Z</time>
      </trkpt>
      <trkpt lat="46.73538" lon="0.43067">
        <ele>130</ele>
        <time>2024-10-13T07:30:48Z</time>
      </trkpt>
      <trkpt lat="46.73542" lon="0.43073">
        <ele>129</ele>
        <time>2024-10-13T07:30:50Z</time>
      </trkpt>
      <trkpt lat="46.73544" lon="0.43075">
        <ele>128.4</ele>
        <time>2024-10-13T07:30:51Z</time>
      </trkpt>
      <trkpt lat="46.73552" lon="0.43075">
        <ele>127.2</ele>
        <time>2024-10-13T07:30:54Z</time>
      </trkpt>
      <trkpt lat="46.73556" lon="0.43075">
        <ele>126.8</ele>
        <time>2024-10-13T07:30:57Z</time>
      </trkpt>
      <trkpt lat="46.73557" lon="0.43077">
        <ele>126.8</ele>
        <time>2024-10-13T07:30:58Z</time>
      </trkpt>
      <trkpt lat="46.73563" lon="0.43092">
        <ele>127.8</ele>
        <time>2024-10-13T07:31:04Z</time>
      </trkpt>
      <trkpt lat="46.73564" lon="0.43094">
        <ele>128.6</ele>
        <time>2024-10-13T07:31:05Z</time>
      </trkpt>
      <trkpt lat="46.73577" lon="0.4311">
        <ele>128.8</ele>
        <time>2024-10-13T07:31:10Z</time>
      </trkpt>
      <trkpt lat="46.736" lon="0.4315">
        <ele>128</ele>
        <time>2024-10-13T07:31:17Z</time>
      </trkpt>
      <trkpt lat="46.73605" lon="0.4316">
        <ele>128</ele>
        <time>2024-10-13T07:31:19Z</time>
      </trkpt>
      <trkpt lat="46.7361" lon="0.43169">
        <ele>127.6</ele>
        <time>2024-10-13T07:31:21Z</time>
      </trkpt>
      <trkpt lat="46.73612" lon="0.43173">
        <ele>127.2</ele>
        <time>2024-10-13T07:31:22Z</time>
      </trkpt>
      <trkpt lat="46.73615" lon="0.43177">
        <ele>127.2</ele>
        <time>2024-10-13T07:31:23Z</time>
      </trkpt>
      <trkpt lat="46.73632" lon="0.43209">
        <ele>126.8</ele>
        <time>2024-10-13T07:31:29Z</time>
      </trkpt>
      <trkpt lat="46.73648" lon="0.43228">
        <ele>126.6</ele>
        <time>2024-10-13T07:31:34Z</time>
      </trkpt>
      <trkpt lat="46.73651" lon="0.4323">
        <ele>126.6</ele>
        <time>2024-10-13T07:31:35Z</time>
      </trkpt>
      <trkpt lat="46.73659" lon="0.43232">
        <ele>126.2</ele>
        <time>2024-10-13T07:31:38Z</time>
      </trkpt>
      <trkpt lat="46.73664" lon="0.43236">
        <ele>125.8</ele>
        <time>2024-10-13T07:31:40Z</time>
      </trkpt>
      <trkpt lat="46.73665" lon="0.43239">
        <ele>125.4</ele>
        <time>2024-10-13T07:31:41Z</time>
      </trkpt>
      <trkpt lat="46.73665" lon="0.43242">
        <ele>125.2</ele>
        <time>2024-10-13T07:31:42Z</time>
      </trkpt>
      <trkpt lat="46.73664" lon="0.43243">
        <ele>125</ele>
        <time>2024-10-13T07:31:43Z</time>
      </trkpt>
      <trkpt lat="46.73652" lon="0.43252">
        <ele>123.8</ele>
        <time>2024-10-13T07:31:46Z</time>
      </trkpt>
      <trkpt lat="46.73641" lon="0.43262">
        <ele>122.4</ele>
        <time>2024-10-13T07:31:48Z</time>
      </trkpt>
      <trkpt lat="46.7363" lon="0.43276">
        <ele>120.8</ele>
        <time>2024-10-13T07:31:50Z</time>
      </trkpt>
      <trkpt lat="46.73623" lon="0.43283">
        <ele>119.6</ele>
        <time>2024-10-13T07:31:51Z</time>
      </trkpt>
      <trkpt lat="46.73611" lon="0.43296">
        <ele>116.8</ele>
        <time>2024-10-13T07:31:53Z</time>
      </trkpt>
      <trkpt lat="46.73605" lon="0.43303">
        <ele>115.8</ele>
        <time>2024-10-13T07:31:54Z</time>
      </trkpt>
      <trkpt lat="46.73598" lon="0.43312">
        <ele>114.2</ele>
        <time>2024-10-13T07:31:55Z</time>
      </trkpt>
      <trkpt lat="46.73592" lon="0.43321">
        <ele>111.2</ele>
        <time>2024-10-13T07:31:56Z</time>
      </trkpt>
      <trkpt lat="46.73579" lon="0.4334">
        <ele>109.4</ele>
        <time>2024-10-13T07:31:57Z</time>
      </trkpt>
      <trkpt lat="46.73579" lon="0.4334">
        <ele>108.2</ele>
        <time>2024-10-13T07:31:59Z</time>
      </trkpt>
      <trkpt lat="46.73569" lon="0.43353">
        <ele>106.8</ele>
        <time>2024-10-13T07:32:00Z</time>
      </trkpt>
      <trkpt lat="46.73566" lon="0.43359">
        <ele>105.2</ele>
        <time>2024-10-13T07:32:01Z</time>
      </trkpt>
      <trkpt lat="46.73564" lon="0.43365">
        <ele>104</ele>
        <time>2024-10-13T07:32:02Z</time>
      </trkpt>
      <trkpt lat="46.73563" lon="0.43371">
        <ele>102.6</ele>
        <time>2024-10-13T07:32:03Z</time>
      </trkpt>
      <trkpt lat="46.73564" lon="0.43377">
        <ele>101.8</ele>
        <time>2024-10-13T07:32:04Z</time>
      </trkpt>
      <trkpt lat="46.73567" lon="0.43382">
        <ele>101</ele>
        <time>2024-10-13T07:32:05Z</time>
      </trkpt>
      <trkpt lat="46.73572" lon="0.4339">
        <ele>100.2</ele>
        <time>2024-10-13T07:32:07Z</time>
      </trkpt>
      <trkpt lat="46.73575" lon="0.43394">
        <ele>100</ele>
        <time>2024-10-13T07:32:08Z</time>
      </trkpt>
      <trkpt lat="46.73584" lon="0.43403">
        <ele>100</ele>
        <time>2024-10-13T07:32:10Z</time>
      </trkpt>
      <trkpt lat="46.73592" lon="0.43416">
        <ele>100</ele>
        <time>2024-10-13T07:32:12Z</time>
      </trkpt>
      <trkpt lat="46.73624" lon="0.43467">
        <ele>99.8</ele>
        <time>2024-10-13T07:32:19Z</time>
      </trkpt>
      <trkpt lat="46.73636" lon="0.43504">
        <ele>99</ele>
        <time>2024-10-13T07:32:23Z</time>
      </trkpt>
      <trkpt lat="46.7364" lon="0.43514">
        <ele>98.6</ele>
        <time>2024-10-13T07:32:24Z</time>
      </trkpt>
      <trkpt lat="46.73646" lon="0.43532">
        <ele>97.8</ele>
        <time>2024-10-13T07:32:26Z</time>
      </trkpt>
      <trkpt lat="46.73649" lon="0.4354">
        <ele>97.8</ele>
        <time>2024-10-13T07:32:27Z</time>
      </trkpt>
      <trkpt lat="46.73649" lon="0.43547">
        <ele>97.4</ele>
        <time>2024-10-13T07:32:28Z</time>
      </trkpt>
      <trkpt lat="46.73648" lon="0.43553">
        <ele>97.2</ele>
        <time>2024-10-13T07:32:29Z</time>
      </trkpt>
      <trkpt lat="46.73646" lon="0.43559">
        <ele>96.8</ele>
        <time>2024-10-13T07:32:30Z</time>
      </trkpt>
      <trkpt lat="46.73643" lon="0.43564">
        <ele>96.6</ele>
        <time>2024-10-13T07:32:31Z</time>
      </trkpt>
      <trkpt lat="46.73636" lon="0.43588">
        <ele>95.6</ele>
        <time>2024-10-13T07:32:34Z</time>
      </trkpt>
      <trkpt lat="46.73635" lon="0.43605">
        <ele>94.2</ele>
        <time>2024-10-13T07:32:36Z</time>
      </trkpt>
      <trkpt lat="46.73632" lon="0.43623">
        <ele>93.2</ele>
        <time>2024-10-13T07:32:38Z</time>
      </trkpt>
      <trkpt lat="46.73629" lon="0.43632">
        <ele>92.8</ele>
        <time>2024-10-13T07:32:39Z</time>
      </trkpt>
      <trkpt lat="46.73626" lon="0.43639">
        <ele>92.6</ele>
        <time>2024-10-13T07:32:40Z</time>
      </trkpt>
      <trkpt lat="46.73622" lon="0.43647">
        <ele>91.6</ele>
        <time>2024-10-13T07:32:41Z</time>
      </trkpt>
      <trkpt lat="46.73617" lon="0.43654">
        <ele>91</ele>
        <time>2024-10-13T07:32:42Z</time>
      </trkpt>
      <trkpt lat="46.73612" lon="0.43661">
        <ele>90.6</ele>
        <time>2024-10-13T07:32:43Z</time>
      </trkpt>
      <trkpt lat="46.73595" lon="0.43679">
        <ele>89.2</ele>
        <time>2024-10-13T07:32:46Z</time>
      </trkpt>
      <trkpt lat="46.73589" lon="0.43684">
        <ele>88.6</ele>
        <time>2024-10-13T07:32:47Z</time>
      </trkpt>
      <trkpt lat="46.73583" lon="0.43688">
        <ele>87.6</ele>
        <time>2024-10-13T07:32:48Z</time>
      </trkpt>
      <trkpt lat="46.73572" lon="0.43695">
        <ele>86.8</ele>
        <time>2024-10-13T07:32:50Z</time>
      </trkpt>
      <trkpt lat="46.73567" lon="0.43699">
        <ele>86.6</ele>
        <time>2024-10-13T07:32:51Z</time>
      </trkpt>
      <trkpt lat="46.73563" lon="0.43704">
        <ele>86.4</ele>
        <time>2024-10-13T07:32:52Z</time>
      </trkpt>
      <trkpt lat="46.7356" lon="0.4371">
        <ele>86.4</ele>
        <time>2024-10-13T07:32:53Z</time>
      </trkpt>
      <trkpt lat="46.73559" lon="0.43717">
        <ele>86.4</ele>
        <time>2024-10-13T07:32:54Z</time>
      </trkpt>
      <trkpt lat="46.73555" lon="0.43739">
        <ele>86.4</ele>
        <time>2024-10-13T07:32:57Z</time>
      </trkpt>
      <trkpt lat="46.73553" lon="0.43757">
        <ele>86.4</ele>
        <time>2024-10-13T07:33:00Z</time>
      </trkpt>
      <trkpt lat="46.73552" lon="0.43768">
        <ele>86.8</ele>
        <time>2024-10-13T07:33:02Z</time>
      </trkpt>
      <trkpt lat="46.73551" lon="0.43785">
        <ele>87.4</ele>
        <time>2024-10-13T07:33:05Z</time>
      </trkpt>
      <trkpt lat="46.73551" lon="0.43792">
        <ele>87.6</ele>
        <time>2024-10-13T07:33:06Z</time>
      </trkpt>
      <trkpt lat="46.73552" lon="0.43798">
        <ele>88</ele>
        <time>2024-10-13T07:33:07Z</time>
      </trkpt>
      <trkpt lat="46.73553" lon="0.43804">
        <ele>88.2</ele>
        <time>2024-10-13T07:33:08Z</time>
      </trkpt>
      <trkpt lat="46.73554" lon="0.43815">
        <ele>88.4</ele>
        <time>2024-10-13T07:33:10Z</time>
      </trkpt>
      <trkpt lat="46.7356" lon="0.43836">
        <ele>88.6</ele>
        <time>2024-10-13T07:33:14Z</time>
      </trkpt>
      <trkpt lat="46.73571" lon="0.43866">
        <ele>89.4</ele>
        <time>2024-10-13T07:33:20Z</time>
      </trkpt>
      <trkpt lat="46.73576" lon="0.43872">
        <ele>89.8</ele>
        <time>2024-10-13T07:33:22Z</time>
      </trkpt>
      <trkpt lat="46.73586" lon="0.43874">
        <ele>90.4</ele>
        <time>2024-10-13T07:33:25Z</time>
      </trkpt>
      <trkpt lat="46.73595" lon="0.43877">
        <ele>90.8</ele>
        <time>2024-10-13T07:33:28Z</time>
      </trkpt>
      <trkpt lat="46.73603" lon="0.43881">
        <ele>91</ele>
        <time>2024-10-13T07:33:30Z</time>
      </trkpt>
      <trkpt lat="46.73624" lon="0.43889">
        <ele>91.8</ele>
        <time>2024-10-13T07:33:36Z</time>
      </trkpt>
      <trkpt lat="46.73638" lon="0.43896">
        <ele>92.4</ele>
        <time>2024-10-13T07:33:40Z</time>
      </trkpt>
      <trkpt lat="46.73646" lon="0.43898">
        <ele>93</ele>
        <time>2024-10-13T07:33:42Z</time>
      </trkpt>
      <trkpt lat="46.7367" lon="0.43903">
        <ele>94</ele>
        <time>2024-10-13T07:33:49Z</time>
      </trkpt>
      <trkpt lat="46.73672" lon="0.43903">
        <ele>94.2</ele>
        <time>2024-10-13T07:33:50Z</time>
      </trkpt>
      <trkpt lat="46.73688" lon="0.43902">
        <ele>95.2</ele>
        <time>2024-10-13T07:33:56Z</time>
      </trkpt>
      <trkpt lat="46.7369" lon="0.43901">
        <ele>95.2</ele>
        <time>2024-10-13T07:33:57Z</time>
      </trkpt>
      <trkpt lat="46.737" lon="0.439">
        <ele>96.2</ele>
        <time>2024-10-13T07:34:01Z</time>
      </trkpt>
      <trkpt lat="46.73712" lon="0.43897">
        <ele>97.2</ele>
        <time>2024-10-13T07:34:06Z</time>
      </trkpt>
      <trkpt lat="46.73722" lon="0.43896">
        <ele>98.6</ele>
        <time>2024-10-13T07:34:11Z</time>
      </trkpt>
      <trkpt lat="46.73727" lon="0.43895">
        <ele>99.2</ele>
        <time>2024-10-13T07:34:13Z</time>
      </trkpt>
      <trkpt lat="46.73731" lon="0.43894">
        <ele>99.6</ele>
        <time>2024-10-13T07:34:15Z</time>
      </trkpt>
      <trkpt lat="46.73739" lon="0.43891">
        <ele>100.6</ele>
        <time>2024-10-13T07:34:20Z</time>
      </trkpt>
      <trkpt lat="46.7374" lon="0.43891">
        <ele>100.6</ele>
        <time>2024-10-13T07:34:21Z</time>
      </trkpt>
      <trkpt lat="46.73745" lon="0.43893">
        <ele>101.8</ele>
        <time>2024-10-13T07:34:25Z</time>
      </trkpt>
      <trkpt lat="46.73746" lon="0.43893">
        <ele>102</ele>
        <time>2024-10-13T07:34:26Z</time>
      </trkpt>
      <trkpt lat="46.73752" lon="0.43894">
        <ele>103</ele>
        <time>2024-10-13T07:34:30Z</time>
      </trkpt>
      <trkpt lat="46.73758" lon="0.43895">
        <ele>103.4</ele>
        <time>2024-10-13T07:34:33Z</time>
      </trkpt>
      <trkpt lat="46.73762" lon="0.43898">
        <ele>104.2</ele>
        <time>2024-10-13T07:34:36Z</time>
      </trkpt>
      <trkpt lat="46.73771" lon="0.43903">
        <ele>105.2</ele>
        <time>2024-10-13T07:34:42Z</time>
      </trkpt>
      <trkpt lat="46.73773" lon="0.43905">
        <ele>105.4</ele>
        <time>2024-10-13T07:34:43Z</time>
      </trkpt>
      <trkpt lat="46.73777" lon="0.43913">
        <ele>106.4</ele>
        <time>2024-10-13T07:34:47Z</time>
      </trkpt>
      <trkpt lat="46.7378" lon="0.4392">
        <ele>106.8</ele>
        <time>2024-10-13T07:34:50Z</time>
      </trkpt>
      <trkpt lat="46.73782" lon="0.43925">
        <ele>107.4</ele>
        <time>2024-10-13T07:34:52Z</time>
      </trkpt>
      <trkpt lat="46.73788" lon="0.4394">
        <ele>108.6</ele>
        <time>2024-10-13T07:34:57Z</time>
      </trkpt>
      <trkpt lat="46.73789" lon="0.43942">
        <ele>108.8</ele>
        <time>2024-10-13T07:34:58Z</time>
      </trkpt>
      <trkpt lat="46.73795" lon="0.43959">
        <ele>109.8</ele>
        <time>2024-10-13T07:35:04Z</time>
      </trkpt>
      <trkpt lat="46.73796" lon="0.43961">
        <ele>110</ele>
        <time>2024-10-13T07:35:05Z</time>
      </trkpt>
      <trkpt lat="46.73797" lon="0.43961">
        <ele>110</ele>
        <time>2024-10-13T07:35:06Z</time>
      </trkpt>
      <trkpt lat="46.73798" lon="0.43961">
        <ele>110.2</ele>
        <time>2024-10-13T07:35:07Z</time>
      </trkpt>
      <trkpt lat="46.738" lon="0.43956">
        <ele>110.6</ele>
        <time>2024-10-13T07:35:10Z</time>
      </trkpt>
      <trkpt lat="46.73802" lon="0.43954">
        <ele>111</ele>
        <time>2024-10-13T07:35:12Z</time>
      </trkpt>
      <trkpt lat="46.73808" lon="0.43952">
        <ele>112</ele>
        <time>2024-10-13T07:35:16Z</time>
      </trkpt>
      <trkpt lat="46.73814" lon="0.43948">
        <ele>113</ele>
        <time>2024-10-13T07:35:21Z</time>
      </trkpt>
      <trkpt lat="46.73817" lon="0.43947">
        <ele>113.4</ele>
        <time>2024-10-13T07:35:23Z</time>
      </trkpt>
      <trkpt lat="46.7382" lon="0.43945">
        <ele>114.2</ele>
        <time>2024-10-13T07:35:26Z</time>
      </trkpt>
      <trkpt lat="46.73825" lon="0.43939">
        <ele>115.6</ele>
        <time>2024-10-13T07:35:31Z</time>
      </trkpt>
      <trkpt lat="46.73826" lon="0.43938">
        <ele>115.8</ele>
        <time>2024-10-13T07:35:32Z</time>
      </trkpt>
      <trkpt lat="46.73831" lon="0.43934">
        <ele>116.4</ele>
        <time>2024-10-13T07:35:36Z</time>
      </trkpt>
      <trkpt lat="46.73831" lon="0.43934">
        <ele>116.6</ele>
        <time>2024-10-13T07:35:37Z</time>
      </trkpt>
      <trkpt lat="46.73834" lon="0.43933">
        <ele>117.4</ele>
        <time>2024-10-13T07:35:40Z</time>
      </trkpt>
      <trkpt lat="46.73836" lon="0.43933">
        <ele>117.6</ele>
        <time>2024-10-13T07:35:41Z</time>
      </trkpt>
      <trkpt lat="46.7384" lon="0.43934">
        <ele>118.6</ele>
        <time>2024-10-13T07:35:46Z</time>
      </trkpt>
      <trkpt lat="46.73845" lon="0.43937">
        <ele>119.8</ele>
        <time>2024-10-13T07:35:51Z</time>
      </trkpt>
      <trkpt lat="46.73848" lon="0.43938">
        <ele>120.4</ele>
        <time>2024-10-13T07:35:53Z</time>
      </trkpt>
      <trkpt lat="46.7385" lon="0.43938">
        <ele>121</ele>
        <time>2024-10-13T07:35:55Z</time>
      </trkpt>
      <trkpt lat="46.73854" lon="0.43935">
        <ele>122</ele>
        <time>2024-10-13T07:36:00Z</time>
      </trkpt>
      <trkpt lat="46.73855" lon="0.43934">
        <ele>122.2</ele>
        <time>2024-10-13T07:36:01Z</time>
      </trkpt>
      <trkpt lat="46.73858" lon="0.43928">
        <ele>123.2</ele>
        <time>2024-10-13T07:36:06Z</time>
      </trkpt>
      <trkpt lat="46.7386" lon="0.43924">
        <ele>123.8</ele>
        <time>2024-10-13T07:36:08Z</time>
      </trkpt>
      <trkpt lat="46.7386" lon="0.43923">
        <ele>124</ele>
        <time>2024-10-13T07:36:09Z</time>
      </trkpt>
      <trkpt lat="46.73861" lon="0.4392">
        <ele>124.4</ele>
        <time>2024-10-13T07:36:11Z</time>
      </trkpt>
      <trkpt lat="46.73866" lon="0.43912">
        <ele>125.6</ele>
        <time>2024-10-13T07:36:16Z</time>
      </trkpt>
      <trkpt lat="46.73868" lon="0.43907">
        <ele>126.2</ele>
        <time>2024-10-13T07:36:19Z</time>
      </trkpt>
      <trkpt lat="46.73869" lon="0.43904">
        <ele>126.6</ele>
        <time>2024-10-13T07:36:21Z</time>
      </trkpt>
      <trkpt lat="46.7387" lon="0.439">
        <ele>127.6</ele>
        <time>2024-10-13T07:36:25Z</time>
      </trkpt>
      <trkpt lat="46.73871" lon="0.43897">
        <ele>128</ele>
        <time>2024-10-13T07:36:28Z</time>
      </trkpt>
      <trkpt lat="46.73872" lon="0.43885">
        <ele>129</ele>
        <time>2024-10-13T07:36:34Z</time>
      </trkpt>
      <trkpt lat="46.73874" lon="0.43879">
        <ele>129.6</ele>
        <time>2024-10-13T07:36:36Z</time>
      </trkpt>
      <trkpt lat="46.73875" lon="0.43874">
        <ele>130</ele>
        <time>2024-10-13T07:36:38Z</time>
      </trkpt>
      <trkpt lat="46.73881" lon="0.43857">
        <ele>130.8</ele>
        <time>2024-10-13T07:36:44Z</time>
      </trkpt>
      <trkpt lat="46.73886" lon="0.43846">
        <ele>131</ele>
        <time>2024-10-13T07:36:48Z</time>
      </trkpt>
      <trkpt lat="46.73893" lon="0.43838">
        <ele>131.2</ele>
        <time>2024-10-13T07:36:51Z</time>
      </trkpt>
      <trkpt lat="46.73919" lon="0.43816">
        <ele>132</ele>
        <time>2024-10-13T07:37:00Z</time>
      </trkpt>
      <trkpt lat="46.73922" lon="0.43814">
        <ele>132</ele>
        <time>2024-10-13T07:37:01Z</time>
      </trkpt>
      <trkpt lat="46.73949" lon="0.43791">
        <ele>132.4</ele>
        <time>2024-10-13T07:37:09Z</time>
      </trkpt>
      <trkpt lat="46.73971" lon="0.43777">
        <ele>132.6</ele>
        <time>2024-10-13T07:37:15Z</time>
      </trkpt>
      <trkpt lat="46.73996" lon="0.43759">
        <ele>132.8</ele>
        <time>2024-10-13T07:37:21Z</time>
      </trkpt>
      <trkpt lat="46.7402" lon="0.43744">
        <ele>133.2</ele>
        <time>2024-10-13T07:37:27Z</time>
      </trkpt>
      <trkpt lat="46.74024" lon="0.43741">
        <ele>133.4</ele>
        <time>2024-10-13T07:37:28Z</time>
      </trkpt>
      <trkpt lat="46.74059" lon="0.43717">
        <ele>133.8</ele>
        <time>2024-10-13T07:37:36Z</time>
      </trkpt>
      <trkpt lat="46.74083" lon="0.43702">
        <ele>134.2</ele>
        <time>2024-10-13T07:37:41Z</time>
      </trkpt>
      <trkpt lat="46.74092" lon="0.43696">
        <ele>134.4</ele>
        <time>2024-10-13T07:37:43Z</time>
      </trkpt>
      <trkpt lat="46.74129" lon="0.43669">
        <ele>134.8</ele>
        <time>2024-10-13T07:37:51Z</time>
      </trkpt>
      <trkpt lat="46.74169" lon="0.43644">
        <ele>134.6</ele>
        <time>2024-10-13T07:37:59Z</time>
      </trkpt>
      <trkpt lat="46.74204" lon="0.43626">
        <ele>134.8</ele>
        <time>2024-10-13T07:38:06Z</time>
      </trkpt>
      <trkpt lat="46.74209" lon="0.43624">
        <ele>134.8</ele>
        <time>2024-10-13T07:38:07Z</time>
      </trkpt>
      <trkpt lat="46.74251" lon="0.43604">
        <ele>135</ele>
        <time>2024-10-13T07:38:16Z</time>
      </trkpt>
      <trkpt lat="46.7426" lon="0.436">
        <ele>135.4</ele>
        <time>2024-10-13T07:38:18Z</time>
      </trkpt>
      <trkpt lat="46.74295" lon="0.43588">
        <ele>135.2</ele>
        <time>2024-10-13T07:38:25Z</time>
      </trkpt>
      <trkpt lat="46.74334" lon="0.43577">
        <ele>135.6</ele>
        <time>2024-10-13T07:38:33Z</time>
      </trkpt>
      <trkpt lat="46.74375" lon="0.43565">
        <ele>135.6</ele>
        <time>2024-10-13T07:38:41Z</time>
      </trkpt>
      <trkpt lat="46.74416" lon="0.43551">
        <ele>135.4</ele>
        <time>2024-10-13T07:38:49Z</time>
      </trkpt>
      <trkpt lat="46.7445" lon="0.43535">
        <ele>135.6</ele>
        <time>2024-10-13T07:38:56Z</time>
      </trkpt>
      <trkpt lat="46.74491" lon="0.43509">
        <ele>134.8</ele>
        <time>2024-10-13T07:39:04Z</time>
      </trkpt>
      <trkpt lat="46.74501" lon="0.43501">
        <ele>134.2</ele>
        <time>2024-10-13T07:39:06Z</time>
      </trkpt>
      <trkpt lat="46.74521" lon="0.43482">
        <ele>133.2</ele>
        <time>2024-10-13T07:39:10Z</time>
      </trkpt>
      <trkpt lat="46.74529" lon="0.43472">
        <ele>132.4</ele>
        <time>2024-10-13T07:39:12Z</time>
      </trkpt>
      <trkpt lat="46.74535" lon="0.43459">
        <ele>132.2</ele>
        <time>2024-10-13T07:39:14Z</time>
      </trkpt>
      <trkpt lat="46.74537" lon="0.43453">
        <ele>132.2</ele>
        <time>2024-10-13T07:39:15Z</time>
      </trkpt>
      <trkpt lat="46.74539" lon="0.43447">
        <ele>132</ele>
        <time>2024-10-13T07:39:16Z</time>
      </trkpt>
      <trkpt lat="46.74551" lon="0.43407">
        <ele>132</ele>
        <time>2024-10-13T07:39:22Z</time>
      </trkpt>
      <trkpt lat="46.74561" lon="0.43357">
        <ele>131.8</ele>
        <time>2024-10-13T07:39:29Z</time>
      </trkpt>
      <trkpt lat="46.74565" lon="0.4331">
        <ele>132</ele>
        <time>2024-10-13T07:39:35Z</time>
      </trkpt>
      <trkpt lat="46.74575" lon="0.43266">
        <ele>132</ele>
        <time>2024-10-13T07:39:41Z</time>
      </trkpt>
      <trkpt lat="46.74578" lon="0.43246">
        <ele>132.2</ele>
        <time>2024-10-13T07:39:44Z</time>
      </trkpt>
      <trkpt lat="46.74582" lon="0.43224">
        <ele>132.2</ele>
        <time>2024-10-13T07:39:47Z</time>
      </trkpt>
      <trkpt lat="46.74582" lon="0.43218">
        <ele>132.4</ele>
        <time>2024-10-13T07:39:48Z</time>
      </trkpt>
      <trkpt lat="46.74584" lon="0.43204">
        <ele>131.6</ele>
        <time>2024-10-13T07:39:51Z</time>
      </trkpt>
      <trkpt lat="46.7458" lon="0.43185">
        <ele>132</ele>
        <time>2024-10-13T07:39:56Z</time>
      </trkpt>
      <trkpt lat="46.74573" lon="0.43166">
        <ele>132.4</ele>
        <time>2024-10-13T07:40:02Z</time>
      </trkpt>
      <trkpt lat="46.74569" lon="0.43156">
        <ele>133.4</ele>
        <time>2024-10-13T07:40:04Z</time>
      </trkpt>
      <trkpt lat="46.74561" lon="0.43136">
        <ele>133.6</ele>
        <time>2024-10-13T07:40:08Z</time>
      </trkpt>
      <trkpt lat="46.74551" lon="0.43113">
        <ele>133.8</ele>
        <time>2024-10-13T07:40:15Z</time>
      </trkpt>
      <trkpt lat="46.74545" lon="0.43105">
        <ele>134</ele>
        <time>2024-10-13T07:40:18Z</time>
      </trkpt>
      <trkpt lat="46.74539" lon="0.43102">
        <ele>134.2</ele>
        <time>2024-10-13T07:40:20Z</time>
      </trkpt>
      <trkpt lat="46.74529" lon="0.431">
        <ele>134.4</ele>
        <time>2024-10-13T07:40:23Z</time>
      </trkpt>
      <trkpt lat="46.7452" lon="0.43102">
        <ele>134.8</ele>
        <time>2024-10-13T07:40:26Z</time>
      </trkpt>
      <trkpt lat="46.74509" lon="0.43102">
        <ele>135.4</ele>
        <time>2024-10-13T07:40:31Z</time>
      </trkpt>
      <trkpt lat="46.74508" lon="0.431">
        <ele>135.4</ele>
        <time>2024-10-13T07:40:32Z</time>
      </trkpt>
      <trkpt lat="46.74511" lon="0.43093">
        <ele>135.4</ele>
        <time>2024-10-13T07:40:35Z</time>
      </trkpt>
      <trkpt lat="46.7453" lon="0.43087">
        <ele>135.4</ele>
        <time>2024-10-13T07:40:40Z</time>
      </trkpt>
      <trkpt lat="46.74561" lon="0.43071">
        <ele>135.4</ele>
        <time>2024-10-13T07:40:47Z</time>
      </trkpt>
      <trkpt lat="46.74602" lon="0.4305">
        <ele>134.8</ele>
        <time>2024-10-13T07:40:55Z</time>
      </trkpt>
      <trkpt lat="46.74645" lon="0.43036">
        <ele>133.4</ele>
        <time>2024-10-13T07:41:02Z</time>
      </trkpt>
      <trkpt lat="46.74658" lon="0.43034">
        <ele>133.2</ele>
        <time>2024-10-13T07:41:04Z</time>
      </trkpt>
      <trkpt lat="46.74685" lon="0.43031">
        <ele>133</ele>
        <time>2024-10-13T07:41:08Z</time>
      </trkpt>
      <trkpt lat="46.74726" lon="0.43026">
        <ele>132.6</ele>
        <time>2024-10-13T07:41:14Z</time>
      </trkpt>
      <trkpt lat="46.74744" lon="0.43023">
        <ele>132.2</ele>
        <time>2024-10-13T07:41:17Z</time>
      </trkpt>
      <trkpt lat="46.74767" lon="0.4302">
        <ele>132</ele>
        <time>2024-10-13T07:41:21Z</time>
      </trkpt>
      <trkpt lat="46.74793" lon="0.43019">
        <ele>132.4</ele>
        <time>2024-10-13T07:41:26Z</time>
      </trkpt>
      <trkpt lat="46.74802" lon="0.43012">
        <ele>132.6</ele>
        <time>2024-10-13T07:41:28Z</time>
      </trkpt>
      <trkpt lat="46.74805" lon="0.43">
        <ele>132.6</ele>
        <time>2024-10-13T07:41:30Z</time>
      </trkpt>
      <trkpt lat="46.74804" lon="0.42994">
        <ele>132.8</ele>
        <time>2024-10-13T07:41:31Z</time>
      </trkpt>
      <trkpt lat="46.74804" lon="0.42988">
        <ele>132.8</ele>
        <time>2024-10-13T07:41:32Z</time>
      </trkpt>
      <trkpt lat="46.74799" lon="0.42955">
        <ele>133.2</ele>
        <time>2024-10-13T07:41:37Z</time>
      </trkpt>
      <trkpt lat="46.74794" lon="0.42931">
        <ele>134</ele>
        <time>2024-10-13T07:41:41Z</time>
      </trkpt>
      <trkpt lat="46.74789" lon="0.42921">
        <ele>134.4</ele>
        <time>2024-10-13T07:41:43Z</time>
      </trkpt>
      <trkpt lat="46.74782" lon="0.42916">
        <ele>134.4</ele>
        <time>2024-10-13T07:41:45Z</time>
      </trkpt>
      <trkpt lat="46.74778" lon="0.42916">
        <ele>134.6</ele>
        <time>2024-10-13T07:41:46Z</time>
      </trkpt>
      <trkpt lat="46.74773" lon="0.42916">
        <ele>134.6</ele>
        <time>2024-10-13T07:41:47Z</time>
      </trkpt>
      <trkpt lat="46.74747" lon="0.4292">
        <ele>134.2</ele>
        <time>2024-10-13T07:41:52Z</time>
      </trkpt>
      <trkpt lat="46.74718" lon="0.42926">
        <ele>133.8</ele>
        <time>2024-10-13T07:41:58Z</time>
      </trkpt>
      <trkpt lat="46.74702" lon="0.4293">
        <ele>133.4</ele>
        <time>2024-10-13T07:42:01Z</time>
      </trkpt>
      <trkpt lat="46.74691" lon="0.4293">
        <ele>133.4</ele>
        <time>2024-10-13T07:42:03Z</time>
      </trkpt>
      <trkpt lat="46.7468" lon="0.42925">
        <ele>133.4</ele>
        <time>2024-10-13T07:42:05Z</time>
      </trkpt>
      <trkpt lat="46.74673" lon="0.42915">
        <ele>133.4</ele>
        <time>2024-10-13T07:42:07Z</time>
      </trkpt>
      <trkpt lat="46.74669" lon="0.42902">
        <ele>133.4</ele>
        <time>2024-10-13T07:42:09Z</time>
      </trkpt>
      <trkpt lat="46.74669" lon="0.42887">
        <ele>133.6</ele>
        <time>2024-10-13T07:42:11Z</time>
      </trkpt>
      <trkpt lat="46.74667" lon="0.42858">
        <ele>134.4</ele>
        <time>2024-10-13T07:42:15Z</time>
      </trkpt>
      <trkpt lat="46.74664" lon="0.4283">
        <ele>134.8</ele>
        <time>2024-10-13T07:42:19Z</time>
      </trkpt>
      <trkpt lat="46.7466" lon="0.42799">
        <ele>135.4</ele>
        <time>2024-10-13T07:42:24Z</time>
      </trkpt>
      <trkpt lat="46.74659" lon="0.42781">
        <ele>135.4</ele>
        <time>2024-10-13T07:42:27Z</time>
      </trkpt>
      <trkpt lat="46.7465" lon="0.42732">
        <ele>135.8</ele>
        <time>2024-10-13T07:42:35Z</time>
      </trkpt>
      <trkpt lat="46.7464" lon="0.42677">
        <ele>135.8</ele>
        <time>2024-10-13T07:42:43Z</time>
      </trkpt>
      <trkpt lat="46.74634" lon="0.42627">
        <ele>136</ele>
        <time>2024-10-13T07:42:50Z</time>
      </trkpt>
      <trkpt lat="46.7463" lon="0.42597">
        <ele>135.8</ele>
        <time>2024-10-13T07:42:54Z</time>
      </trkpt>
      <trkpt lat="46.74632" lon="0.42582">
        <ele>135.6</ele>
        <time>2024-10-13T07:42:56Z</time>
      </trkpt>
      <trkpt lat="46.74636" lon="0.42573">
        <ele>135.6</ele>
        <time>2024-10-13T07:42:58Z</time>
      </trkpt>
      <trkpt lat="46.7464" lon="0.4257">
        <ele>135.6</ele>
        <time>2024-10-13T07:42:59Z</time>
      </trkpt>
      <trkpt lat="46.74646" lon="0.42568">
        <ele>135.6</ele>
        <time>2024-10-13T07:43:00Z</time>
      </trkpt>
      <trkpt lat="46.74663" lon="0.42566">
        <ele>135.8</ele>
        <time>2024-10-13T07:43:03Z</time>
      </trkpt>
      <trkpt lat="46.74719" lon="0.42564">
        <ele>136.2</ele>
        <time>2024-10-13T07:43:13Z</time>
      </trkpt>
      <trkpt lat="46.74757" lon="0.42564">
        <ele>136.6</ele>
        <time>2024-10-13T07:43:20Z</time>
      </trkpt>
      <trkpt lat="46.74774" lon="0.42563">
        <ele>137</ele>
        <time>2024-10-13T07:43:23Z</time>
      </trkpt>
      <trkpt lat="46.74819" lon="0.42564">
        <ele>137.2</ele>
        <time>2024-10-13T07:43:32Z</time>
      </trkpt>
      <trkpt lat="46.74829" lon="0.42562">
        <ele>137.2</ele>
        <time>2024-10-13T07:43:34Z</time>
      </trkpt>
      <trkpt lat="46.74837" lon="0.42558">
        <ele>137.2</ele>
        <time>2024-10-13T07:43:36Z</time>
      </trkpt>
      <trkpt lat="46.74841" lon="0.42553">
        <ele>137.2</ele>
        <time>2024-10-13T07:43:37Z</time>
      </trkpt>
      <trkpt lat="46.74843" lon="0.42548">
        <ele>137.2</ele>
        <time>2024-10-13T07:43:38Z</time>
      </trkpt>
      <trkpt lat="46.74848" lon="0.42536">
        <ele>137.2</ele>
        <time>2024-10-13T07:43:40Z</time>
      </trkpt>
      <trkpt lat="46.7485" lon="0.42529">
        <ele>137.2</ele>
        <time>2024-10-13T07:43:41Z</time>
      </trkpt>
      <trkpt lat="46.74867" lon="0.42472">
        <ele>137.2</ele>
        <time>2024-10-13T07:43:50Z</time>
      </trkpt>
      <trkpt lat="46.74873" lon="0.42453">
        <ele>137.6</ele>
        <time>2024-10-13T07:43:51Z</time>
      </trkpt>
      <trkpt lat="46.74893" lon="0.42394">
        <ele>137.2</ele>
        <time>2024-10-13T07:44:03Z</time>
      </trkpt>
      <trkpt lat="46.74895" lon="0.42389">
        <ele>137</ele>
        <time>2024-10-13T07:44:04Z</time>
      </trkpt>
      <trkpt lat="46.74903" lon="0.42383">
        <ele>137.2</ele>
        <time>2024-10-13T07:44:06Z</time>
      </trkpt>
      <trkpt lat="46.74911" lon="0.42384">
        <ele>137.2</ele>
        <time>2024-10-13T07:44:08Z</time>
      </trkpt>
      <trkpt lat="46.7492" lon="0.42389">
        <ele>137.4</ele>
        <time>2024-10-13T07:44:10Z</time>
      </trkpt>
      <trkpt lat="46.74953" lon="0.42408">
        <ele>137.4</ele>
        <time>2024-10-13T07:44:17Z</time>
      </trkpt>
      <trkpt lat="46.74986" lon="0.42426">
        <ele>138</ele>
        <time>2024-10-13T07:44:24Z</time>
      </trkpt>
      <trkpt lat="46.75014" lon="0.42442">
        <ele>138</ele>
        <time>2024-10-13T07:44:31Z</time>
      </trkpt>
      <trkpt lat="46.75038" lon="0.42468">
        <ele>138.2</ele>
        <time>2024-10-13T07:44:38Z</time>
      </trkpt>
      <trkpt lat="46.75045" lon="0.42475">
        <ele>138.4</ele>
        <time>2024-10-13T07:44:40Z</time>
      </trkpt>
      <trkpt lat="46.75052" lon="0.42489">
        <ele>138.6</ele>
        <time>2024-10-13T07:44:43Z</time>
      </trkpt>
      <trkpt lat="46.75055" lon="0.42494">
        <ele>138.6</ele>
        <time>2024-10-13T07:44:44Z</time>
      </trkpt>
      <trkpt lat="46.75072" lon="0.42523">
        <ele>139</ele>
        <time>2024-10-13T07:44:50Z</time>
      </trkpt>
      <trkpt lat="46.75092" lon="0.42549">
        <ele>139.2</ele>
        <time>2024-10-13T07:44:56Z</time>
      </trkpt>
      <trkpt lat="46.75114" lon="0.42578">
        <ele>139.4</ele>
        <time>2024-10-13T07:45:03Z</time>
      </trkpt>
      <trkpt lat="46.75126" lon="0.42596">
        <ele>139.8</ele>
        <time>2024-10-13T07:45:07Z</time>
      </trkpt>
      <trkpt lat="46.75134" lon="0.42613">
        <ele>139.8</ele>
        <time>2024-10-13T07:45:10Z</time>
      </trkpt>
      <trkpt lat="46.75148" lon="0.42639">
        <ele>139.6</ele>
        <time>2024-10-13T07:45:15Z</time>
      </trkpt>
      <trkpt lat="46.75154" lon="0.42653">
        <ele>139.8</ele>
        <time>2024-10-13T07:45:17Z</time>
      </trkpt>
      <trkpt lat="46.75174" lon="0.42709">
        <ele>139.8</ele>
        <time>2024-10-13T07:45:25Z</time>
      </trkpt>
      <trkpt lat="46.75197" lon="0.42756">
        <ele>139.6</ele>
        <time>2024-10-13T07:45:32Z</time>
      </trkpt>
      <trkpt lat="46.75226" lon="0.42801">
        <ele>139</ele>
        <time>2024-10-13T07:45:39Z</time>
      </trkpt>
      <trkpt lat="46.7523" lon="0.42808">
        <ele>138.8</ele>
        <time>2024-10-13T07:45:40Z</time>
      </trkpt>
      <trkpt lat="46.75243" lon="0.4284">
        <ele>137.8</ele>
        <time>2024-10-13T07:45:44Z</time>
      </trkpt>
      <trkpt lat="46.75246" lon="0.42849">
        <ele>137.4</ele>
        <time>2024-10-13T07:45:45Z</time>
      </trkpt>
      <trkpt lat="46.7525" lon="0.42861">
        <ele>136.8</ele>
        <time>2024-10-13T07:45:47Z</time>
      </trkpt>
      <trkpt lat="46.75253" lon="0.42864">
        <ele>136.6</ele>
        <time>2024-10-13T07:45:48Z</time>
      </trkpt>
      <trkpt lat="46.75255" lon="0.42864">
        <ele>136.4</ele>
        <time>2024-10-13T07:45:49Z</time>
      </trkpt>
      <trkpt lat="46.75257" lon="0.42863">
        <ele>136.2</ele>
        <time>2024-10-13T07:45:50Z</time>
      </trkpt>
      <trkpt lat="46.75259" lon="0.42861">
        <ele>136</ele>
        <time>2024-10-13T07:45:51Z</time>
      </trkpt>
      <trkpt lat="46.75275" lon="0.42843">
        <ele>135.8</ele>
        <time>2024-10-13T07:45:56Z</time>
      </trkpt>
      <trkpt lat="46.75297" lon="0.42807">
        <ele>136.4</ele>
        <time>2024-10-13T07:46:03Z</time>
      </trkpt>
      <trkpt lat="46.75327" lon="0.42755">
        <ele>136</ele>
        <time>2024-10-13T07:46:11Z</time>
      </trkpt>
      <trkpt lat="46.75357" lon="0.4271">
        <ele>135.2</ele>
        <time>2024-10-13T07:46:18Z</time>
      </trkpt>
      <trkpt lat="46.75361" lon="0.42705">
        <ele>135.2</ele>
        <time>2024-10-13T07:46:19Z</time>
      </trkpt>
      <trkpt lat="46.75387" lon="0.42674">
        <ele>134.6</ele>
        <time>2024-10-13T07:46:25Z</time>
      </trkpt>
      <trkpt lat="46.75402" lon="0.42655">
        <ele>134.4</ele>
        <time>2024-10-13T07:46:29Z</time>
      </trkpt>
      <trkpt lat="46.7541" lon="0.42649">
        <ele>134.2</ele>
        <time>2024-10-13T07:46:31Z</time>
      </trkpt>
      <trkpt lat="46.75441" lon="0.42624">
        <ele>133.6</ele>
        <time>2024-10-13T07:46:39Z</time>
      </trkpt>
      <trkpt lat="46.75456" lon="0.42609">
        <ele>133.4</ele>
        <time>2024-10-13T07:46:43Z</time>
      </trkpt>
      <trkpt lat="46.75463" lon="0.42601">
        <ele>133.4</ele>
        <time>2024-10-13T07:46:45Z</time>
      </trkpt>
      <trkpt lat="46.75471" lon="0.42592">
        <ele>133.4</ele>
        <time>2024-10-13T07:46:47Z</time>
      </trkpt>
      <trkpt lat="46.7548" lon="0.42587">
        <ele>133.2</ele>
        <time>2024-10-13T07:46:49Z</time>
      </trkpt>
      <trkpt lat="46.75483" lon="0.42587">
        <ele>133.2</ele>
        <time>2024-10-13T07:46:50Z</time>
      </trkpt>
      <trkpt lat="46.75486" lon="0.42589">
        <ele>133</ele>
        <time>2024-10-13T07:46:51Z</time>
      </trkpt>
      <trkpt lat="46.75493" lon="0.42597">
        <ele>132.4</ele>
        <time>2024-10-13T07:46:54Z</time>
      </trkpt>
      <trkpt lat="46.75512" lon="0.42618">
        <ele>132.4</ele>
        <time>2024-10-13T07:47:01Z</time>
      </trkpt>
      <trkpt lat="46.75515" lon="0.42618">
        <ele>132.4</ele>
        <time>2024-10-13T07:47:02Z</time>
      </trkpt>
      <trkpt lat="46.75521" lon="0.42612">
        <ele>132.4</ele>
        <time>2024-10-13T07:47:05Z</time>
      </trkpt>
      <trkpt lat="46.75536" lon="0.42592">
        <ele>132.4</ele>
        <time>2024-10-13T07:47:10Z</time>
      </trkpt>
      <trkpt lat="46.75542" lon="0.42583">
        <ele>132</ele>
        <time>2024-10-13T07:47:12Z</time>
      </trkpt>
      <trkpt lat="46.75562" lon="0.42555">
        <ele>131.6</ele>
        <time>2024-10-13T07:47:18Z</time>
      </trkpt>
      <trkpt lat="46.75566" lon="0.4255">
        <ele>131.4</ele>
        <time>2024-10-13T07:47:19Z</time>
      </trkpt>
      <trkpt lat="46.75572" lon="0.42543">
        <ele>130.8</ele>
        <time>2024-10-13T07:47:21Z</time>
      </trkpt>
      <trkpt lat="46.75573" lon="0.42541">
        <ele>130.6</ele>
        <time>2024-10-13T07:47:22Z</time>
      </trkpt>
      <trkpt lat="46.7558" lon="0.4254">
        <ele>130.4</ele>
        <time>2024-10-13T07:47:26Z</time>
      </trkpt>
      <trkpt lat="46.75587" lon="0.42544">
        <ele>130.2</ele>
        <time>2024-10-13T07:47:30Z</time>
      </trkpt>
      <trkpt lat="46.75591" lon="0.42546">
        <ele>130.2</ele>
        <time>2024-10-13T07:47:32Z</time>
      </trkpt>
      <trkpt lat="46.75593" lon="0.42546">
        <ele>130</ele>
        <time>2024-10-13T07:47:33Z</time>
      </trkpt>
      <trkpt lat="46.75602" lon="0.42545">
        <ele>130</ele>
        <time>2024-10-13T07:47:37Z</time>
      </trkpt>
      <trkpt lat="46.75609" lon="0.42546">
        <ele>129.8</ele>
        <time>2024-10-13T07:47:40Z</time>
      </trkpt>
      <trkpt lat="46.75612" lon="0.42546">
        <ele>129.4</ele>
        <time>2024-10-13T07:47:42Z</time>
      </trkpt>
      <trkpt lat="46.75615" lon="0.42545">
        <ele>129.2</ele>
        <time>2024-10-13T07:47:44Z</time>
      </trkpt>
      <trkpt lat="46.75618" lon="0.42545">
        <ele>129.2</ele>
        <time>2024-10-13T07:47:46Z</time>
      </trkpt>
      <trkpt lat="46.7562" lon="0.42546">
        <ele>128.8</ele>
        <time>2024-10-13T07:47:47Z</time>
      </trkpt>
      <trkpt lat="46.75621" lon="0.42546">
        <ele>128.8</ele>
        <time>2024-10-13T07:47:48Z</time>
      </trkpt>
      <trkpt lat="46.75629" lon="0.42551">
        <ele>128.6</ele>
        <time>2024-10-13T07:47:52Z</time>
      </trkpt>
      <trkpt lat="46.75635" lon="0.42549">
        <ele>128.4</ele>
        <time>2024-10-13T07:47:54Z</time>
      </trkpt>
      <trkpt lat="46.75641" lon="0.42548">
        <ele>128.2</ele>
        <time>2024-10-13T07:47:56Z</time>
      </trkpt>
      <trkpt lat="46.75645" lon="0.42549">
        <ele>128.2</ele>
        <time>2024-10-13T07:47:58Z</time>
      </trkpt>
      <trkpt lat="46.75647" lon="0.42551">
        <ele>128.2</ele>
        <time>2024-10-13T07:47:59Z</time>
      </trkpt>
      <trkpt lat="46.75649" lon="0.42551">
        <ele>128.2</ele>
        <time>2024-10-13T07:48:00Z</time>
      </trkpt>
      <trkpt lat="46.75655" lon="0.42549">
        <ele>128</ele>
        <time>2024-10-13T07:48:03Z</time>
      </trkpt>
      <trkpt lat="46.75658" lon="0.4254">
        <ele>127.4</ele>
        <time>2024-10-13T07:48:06Z</time>
      </trkpt>
      <trkpt lat="46.7566" lon="0.42536">
        <ele>127.2</ele>
        <time>2024-10-13T07:48:07Z</time>
      </trkpt>
      <trkpt lat="46.75664" lon="0.4253">
        <ele>126.8</ele>
        <time>2024-10-13T07:48:09Z</time>
      </trkpt>
      <trkpt lat="46.75667" lon="0.42528">
        <ele>126.4</ele>
        <time>2024-10-13T07:48:10Z</time>
      </trkpt>
      <trkpt lat="46.75671" lon="0.42525">
        <ele>126</ele>
        <time>2024-10-13T07:48:11Z</time>
      </trkpt>
      <trkpt lat="46.75674" lon="0.42521">
        <ele>125.8</ele>
        <time>2024-10-13T07:48:12Z</time>
      </trkpt>
      <trkpt lat="46.75679" lon="0.42512">
        <ele>125</ele>
        <time>2024-10-13T07:48:14Z</time>
      </trkpt>
      <trkpt lat="46.75684" lon="0.42506">
        <ele>124.6</ele>
        <time>2024-10-13T07:48:16Z</time>
      </trkpt>
      <trkpt lat="46.75689" lon="0.42506">
        <ele>124.2</ele>
        <time>2024-10-13T07:48:18Z</time>
      </trkpt>
      <trkpt lat="46.75697" lon="0.42508">
        <ele>124.2</ele>
        <time>2024-10-13T07:48:20Z</time>
      </trkpt>
      <trkpt lat="46.75707" lon="0.42513">
        <ele>124</ele>
        <time>2024-10-13T07:48:22Z</time>
      </trkpt>
      <trkpt lat="46.75726" lon="0.42524">
        <ele>123.8</ele>
        <time>2024-10-13T07:48:25Z</time>
      </trkpt>
      <trkpt lat="46.75748" lon="0.42536">
        <ele>123</ele>
        <time>2024-10-13T07:48:28Z</time>
      </trkpt>
      <trkpt lat="46.75765" lon="0.42542">
        <ele>122.4</ele>
        <time>2024-10-13T07:48:30Z</time>
      </trkpt>
      <trkpt lat="46.75787" lon="0.42549">
        <ele>121.6</ele>
        <time>2024-10-13T07:48:33Z</time>
      </trkpt>
      <trkpt lat="46.75801" lon="0.42553">
        <ele>121</ele>
        <time>2024-10-13T07:48:35Z</time>
      </trkpt>
      <trkpt lat="46.75819" lon="0.42557">
        <ele>120.6</ele>
        <time>2024-10-13T07:48:38Z</time>
      </trkpt>
      <trkpt lat="46.75841" lon="0.42557">
        <ele>120.2</ele>
        <time>2024-10-13T07:48:42Z</time>
      </trkpt>
      <trkpt lat="46.75851" lon="0.4256">
        <ele>119.6</ele>
        <time>2024-10-13T07:48:44Z</time>
      </trkpt>
      <trkpt lat="46.75857" lon="0.42562">
        <ele>119.4</ele>
        <time>2024-10-13T07:48:45Z</time>
      </trkpt>
      <trkpt lat="46.75863" lon="0.42566">
        <ele>119.2</ele>
        <time>2024-10-13T07:48:46Z</time>
      </trkpt>
      <trkpt lat="46.75875" lon="0.42579">
        <ele>119</ele>
        <time>2024-10-13T07:48:48Z</time>
      </trkpt>
      <trkpt lat="46.75885" lon="0.42592">
        <ele>118.6</ele>
        <time>2024-10-13T07:48:50Z</time>
      </trkpt>
      <trkpt lat="46.7589" lon="0.42598">
        <ele>118.4</ele>
        <time>2024-10-13T07:48:51Z</time>
      </trkpt>
      <trkpt lat="46.75913" lon="0.42627">
        <ele>118</ele>
        <time>2024-10-13T07:48:55Z</time>
      </trkpt>
      <trkpt lat="46.75927" lon="0.42648">
        <ele>117.2</ele>
        <time>2024-10-13T07:48:58Z</time>
      </trkpt>
      <trkpt lat="46.75929" lon="0.42652">
        <ele>117.2</ele>
        <time>2024-10-13T07:48:59Z</time>
      </trkpt>
      <trkpt lat="46.75936" lon="0.42661">
        <ele>116.6</ele>
        <time>2024-10-13T07:49:03Z</time>
      </trkpt>
      <trkpt lat="46.7594" lon="0.42663">
        <ele>116.2</ele>
        <time>2024-10-13T07:49:05Z</time>
      </trkpt>
      <trkpt lat="46.75942" lon="0.42663">
        <ele>116.2</ele>
        <time>2024-10-13T07:49:06Z</time>
      </trkpt>
      <trkpt lat="46.75946" lon="0.42662">
        <ele>116.4</ele>
        <time>2024-10-13T07:49:09Z</time>
      </trkpt>
      <trkpt lat="46.75947" lon="0.42663">
        <ele>116.6</ele>
        <time>2024-10-13T07:49:10Z</time>
      </trkpt>
      <trkpt lat="46.75949" lon="0.42662">
        <ele>116.8</ele>
        <time>2024-10-13T07:49:11Z</time>
      </trkpt>
      <trkpt lat="46.75953" lon="0.42654">
        <ele>117.2</ele>
        <time>2024-10-13T07:49:15Z</time>
      </trkpt>
      <trkpt lat="46.75958" lon="0.42648">
        <ele>118.2</ele>
        <time>2024-10-13T07:49:19Z</time>
      </trkpt>
      <trkpt lat="46.7596" lon="0.42645">
        <ele>119.4</ele>
        <time>2024-10-13T07:49:21Z</time>
      </trkpt>
      <trkpt lat="46.75962" lon="0.42643">
        <ele>120</ele>
        <time>2024-10-13T07:49:23Z</time>
      </trkpt>
      <trkpt lat="46.75963" lon="0.42641">
        <ele>120.2</ele>
        <time>2024-10-13T07:49:24Z</time>
      </trkpt>
      <trkpt lat="46.75963" lon="0.4264">
        <ele>120.6</ele>
        <time>2024-10-13T07:49:25Z</time>
      </trkpt>
      <trkpt lat="46.75966" lon="0.42633">
        <ele>121.2</ele>
        <time>2024-10-13T07:49:29Z</time>
      </trkpt>
      <trkpt lat="46.75967" lon="0.42629">
        <ele>121.6</ele>
        <time>2024-10-13T07:49:31Z</time>
      </trkpt>
      <trkpt lat="46.75965" lon="0.42622">
        <ele>121.8</ele>
        <time>2024-10-13T07:49:34Z</time>
      </trkpt>
      <trkpt lat="46.75966" lon="0.42617">
        <ele>122</ele>
        <time>2024-10-13T07:49:36Z</time>
      </trkpt>
      <trkpt lat="46.75971" lon="0.42611">
        <ele>122.6</ele>
        <time>2024-10-13T07:49:41Z</time>
      </trkpt>
      <trkpt lat="46.75972" lon="0.42609">
        <ele>122.6</ele>
        <time>2024-10-13T07:49:42Z</time>
      </trkpt>
      <trkpt lat="46.75973" lon="0.42608">
        <ele>123</ele>
        <time>2024-10-13T07:49:43Z</time>
      </trkpt>
      <trkpt lat="46.75974" lon="0.42605">
        <ele>123</ele>
        <time>2024-10-13T07:49:45Z</time>
      </trkpt>
      <trkpt lat="46.75978" lon="0.42597">
        <ele>123.2</ele>
        <time>2024-10-13T07:49:49Z</time>
      </trkpt>
      <trkpt lat="46.75983" lon="0.42591">
        <ele>123.6</ele>
        <time>2024-10-13T07:49:53Z</time>
      </trkpt>
      <trkpt lat="46.75987" lon="0.42585">
        <ele>124</ele>
        <time>2024-10-13T07:49:56Z</time>
      </trkpt>
      <trkpt lat="46.75989" lon="0.42582">
        <ele>124</ele>
        <time>2024-10-13T07:49:57Z</time>
      </trkpt>
      <trkpt lat="46.75989" lon="0.42569">
        <ele>124.2</ele>
        <time>2024-10-13T07:50:02Z</time>
      </trkpt>
      <trkpt lat="46.7599" lon="0.42566">
        <ele>124.4</ele>
        <time>2024-10-13T07:50:04Z</time>
      </trkpt>
      <trkpt lat="46.75992" lon="0.42556">
        <ele>124.6</ele>
        <time>2024-10-13T07:50:08Z</time>
      </trkpt>
      <trkpt lat="46.75993" lon="0.42549">
        <ele>124.8</ele>
        <time>2024-10-13T07:50:10Z</time>
      </trkpt>
      <trkpt lat="46.75996" lon="0.42525">
        <ele>125</ele>
        <time>2024-10-13T07:50:16Z</time>
      </trkpt>
      <trkpt lat="46.75996" lon="0.42502">
        <ele>125.4</ele>
        <time>2024-10-13T07:50:23Z</time>
      </trkpt>
      <trkpt lat="46.75998" lon="0.42482">
        <ele>125.6</ele>
        <time>2024-10-13T07:50:29Z</time>
      </trkpt>
      <trkpt lat="46.75999" lon="0.4248">
        <ele>125.8</ele>
        <time>2024-10-13T07:50:30Z</time>
      </trkpt>
      <trkpt lat="46.76001" lon="0.42468">
        <ele>126</ele>
        <time>2024-10-13T07:50:34Z</time>
      </trkpt>
      <trkpt lat="46.76001" lon="0.42444">
        <ele>126.4</ele>
        <time>2024-10-13T07:50:40Z</time>
      </trkpt>
      <trkpt lat="46.76001" lon="0.42431">
        <ele>126.8</ele>
        <time>2024-10-13T07:50:44Z</time>
      </trkpt>
      <trkpt lat="46.76003" lon="0.42429">
        <ele>126.8</ele>
        <time>2024-10-13T07:50:45Z</time>
      </trkpt>
      <trkpt lat="46.76005" lon="0.42428">
        <ele>126.8</ele>
        <time>2024-10-13T07:50:46Z</time>
      </trkpt>
      <trkpt lat="46.76012" lon="0.42423">
        <ele>127.4</ele>
        <time>2024-10-13T07:50:49Z</time>
      </trkpt>
      <trkpt lat="46.76013" lon="0.42421">
        <ele>127.4</ele>
        <time>2024-10-13T07:50:50Z</time>
      </trkpt>
      <trkpt lat="46.76022" lon="0.4241">
        <ele>127.6</ele>
        <time>2024-10-13T07:50:55Z</time>
      </trkpt>
      <trkpt lat="46.76027" lon="0.42404">
        <ele>127.8</ele>
        <time>2024-10-13T07:50:58Z</time>
      </trkpt>
      <trkpt lat="46.76033" lon="0.42396">
        <ele>128.2</ele>
        <time>2024-10-13T07:51:01Z</time>
      </trkpt>
      <trkpt lat="46.76042" lon="0.42375">
        <ele>128.6</ele>
        <time>2024-10-13T07:51:07Z</time>
      </trkpt>
      <trkpt lat="46.76046" lon="0.42366">
        <ele>128.8</ele>
        <time>2024-10-13T07:51:10Z</time>
      </trkpt>
      <trkpt lat="46.7605" lon="0.42359">
        <ele>128.8</ele>
        <time>2024-10-13T07:51:13Z</time>
      </trkpt>
      <trkpt lat="46.76052" lon="0.42358">
        <ele>128.8</ele>
        <time>2024-10-13T07:51:14Z</time>
      </trkpt>
      <trkpt lat="46.76061" lon="0.4235">
        <ele>128.8</ele>
        <time>2024-10-13T07:51:20Z</time>
      </trkpt>
      <trkpt lat="46.76068" lon="0.42345">
        <ele>129.2</ele>
        <time>2024-10-13T07:51:25Z</time>
      </trkpt>
      <trkpt lat="46.7607" lon="0.42343">
        <ele>129.2</ele>
        <time>2024-10-13T07:51:26Z</time>
      </trkpt>
      <trkpt lat="46.76076" lon="0.42341">
        <ele>129.2</ele>
        <time>2024-10-13T07:51:28Z</time>
      </trkpt>
      <trkpt lat="46.7608" lon="0.42343">
        <ele>129.4</ele>
        <time>2024-10-13T07:51:30Z</time>
      </trkpt>
      <trkpt lat="46.76084" lon="0.42343">
        <ele>129.4</ele>
        <time>2024-10-13T07:51:32Z</time>
      </trkpt>
      <trkpt lat="46.76086" lon="0.4234">
        <ele>129.6</ele>
        <time>2024-10-13T07:51:34Z</time>
      </trkpt>
      <trkpt lat="46.76089" lon="0.42329">
        <ele>129.8</ele>
        <time>2024-10-13T07:51:38Z</time>
      </trkpt>
      <trkpt lat="46.76087" lon="0.42324">
        <ele>129.8</ele>
        <time>2024-10-13T07:51:41Z</time>
      </trkpt>
      <trkpt lat="46.76084" lon="0.42315">
        <ele>129.4</ele>
        <time>2024-10-13T07:51:46Z</time>
      </trkpt>
      <trkpt lat="46.76081" lon="0.42305">
        <ele>129.2</ele>
        <time>2024-10-13T07:51:50Z</time>
      </trkpt>
      <trkpt lat="46.76081" lon="0.42302">
        <ele>129.2</ele>
        <time>2024-10-13T07:51:51Z</time>
      </trkpt>
      <trkpt lat="46.76078" lon="0.42285">
        <ele>129.4</ele>
        <time>2024-10-13T07:51:57Z</time>
      </trkpt>
      <trkpt lat="46.76079" lon="0.42271">
        <ele>129</ele>
        <time>2024-10-13T07:52:01Z</time>
      </trkpt>
      <trkpt lat="46.76082" lon="0.42266">
        <ele>129.2</ele>
        <time>2024-10-13T07:52:03Z</time>
      </trkpt>
      <trkpt lat="46.76088" lon="0.42261">
        <ele>129.4</ele>
        <time>2024-10-13T07:52:06Z</time>
      </trkpt>
      <trkpt lat="46.76099" lon="0.42246">
        <ele>129.4</ele>
        <time>2024-10-13T07:52:14Z</time>
      </trkpt>
      <trkpt lat="46.76106" lon="0.42235">
        <ele>130.2</ele>
        <time>2024-10-13T07:52:19Z</time>
      </trkpt>
      <trkpt lat="46.76119" lon="0.42226">
        <ele>130.6</ele>
        <time>2024-10-13T07:52:24Z</time>
      </trkpt>
      <trkpt lat="46.76123" lon="0.4222">
        <ele>131</ele>
        <time>2024-10-13T07:52:26Z</time>
      </trkpt>
      <trkpt lat="46.76131" lon="0.4221">
        <ele>131.2</ele>
        <time>2024-10-13T07:52:30Z</time>
      </trkpt>
      <trkpt lat="46.76135" lon="0.42197">
        <ele>131.2</ele>
        <time>2024-10-13T07:52:35Z</time>
      </trkpt>
      <trkpt lat="46.76144" lon="0.42177">
        <ele>131.4</ele>
        <time>2024-10-13T07:52:41Z</time>
      </trkpt>
      <trkpt lat="46.76156" lon="0.42161">
        <ele>131.6</ele>
        <time>2024-10-13T07:52:46Z</time>
      </trkpt>
      <trkpt lat="46.76159" lon="0.42158">
        <ele>131.6</ele>
        <time>2024-10-13T07:52:47Z</time>
      </trkpt>
      <trkpt lat="46.76164" lon="0.42153">
        <ele>131.8</ele>
        <time>2024-10-13T07:52:49Z</time>
      </trkpt>
      <trkpt lat="46.76169" lon="0.42146">
        <ele>132</ele>
        <time>2024-10-13T07:52:51Z</time>
      </trkpt>
      <trkpt lat="46.76173" lon="0.42139">
        <ele>132</ele>
        <time>2024-10-13T07:52:53Z</time>
      </trkpt>
      <trkpt lat="46.76182" lon="0.42125">
        <ele>132</ele>
        <time>2024-10-13T07:52:57Z</time>
      </trkpt>
      <trkpt lat="46.76182" lon="0.42117">
        <ele>132</ele>
        <time>2024-10-13T07:52:59Z</time>
      </trkpt>
      <trkpt lat="46.76182" lon="0.4211">
        <ele>132</ele>
        <time>2024-10-13T07:53:01Z</time>
      </trkpt>
      <trkpt lat="46.76182" lon="0.42097">
        <ele>132</ele>
        <time>2024-10-13T07:53:05Z</time>
      </trkpt>
      <trkpt lat="46.76184" lon="0.42075">
        <ele>132</ele>
        <time>2024-10-13T07:53:12Z</time>
      </trkpt>
      <trkpt lat="46.76182" lon="0.42053">
        <ele>132</ele>
        <time>2024-10-13T07:53:18Z</time>
      </trkpt>
      <trkpt lat="46.76179" lon="0.42046">
        <ele>132</ele>
        <time>2024-10-13T07:53:20Z</time>
      </trkpt>
      <trkpt lat="46.76178" lon="0.42039">
        <ele>132</ele>
        <time>2024-10-13T07:53:22Z</time>
      </trkpt>
      <trkpt lat="46.76181" lon="0.42013">
        <ele>132</ele>
        <time>2024-10-13T07:53:27Z</time>
      </trkpt>
      <trkpt lat="46.76185" lon="0.42004">
        <ele>131.8</ele>
        <time>2024-10-13T07:53:30Z</time>
      </trkpt>
      <trkpt lat="46.76186" lon="0.42002">
        <ele>132</ele>
        <time>2024-10-13T07:53:31Z</time>
      </trkpt>
      <trkpt lat="46.76194" lon="0.4199">
        <ele>132</ele>
        <time>2024-10-13T07:53:36Z</time>
      </trkpt>
      <trkpt lat="46.76208" lon="0.41977">
        <ele>132</ele>
        <time>2024-10-13T07:53:41Z</time>
      </trkpt>
      <trkpt lat="46.76211" lon="0.41968">
        <ele>132.2</ele>
        <time>2024-10-13T07:53:43Z</time>
      </trkpt>
      <trkpt lat="46.76216" lon="0.41961">
        <ele>132</ele>
        <time>2024-10-13T07:53:45Z</time>
      </trkpt>
      <trkpt lat="46.76229" lon="0.41947">
        <ele>131.6</ele>
        <time>2024-10-13T07:53:51Z</time>
      </trkpt>
      <trkpt lat="46.76232" lon="0.41947">
        <ele>131.6</ele>
        <time>2024-10-13T07:53:53Z</time>
      </trkpt>
      <trkpt lat="46.76236" lon="0.41949">
        <ele>131.4</ele>
        <time>2024-10-13T07:53:55Z</time>
      </trkpt>
      <trkpt lat="46.76238" lon="0.41951">
        <ele>131.4</ele>
        <time>2024-10-13T07:53:56Z</time>
      </trkpt>
      <trkpt lat="46.7624" lon="0.41955">
        <ele>131.4</ele>
        <time>2024-10-13T07:53:58Z</time>
      </trkpt>
      <trkpt lat="46.76241" lon="0.41957">
        <ele>131.4</ele>
        <time>2024-10-13T07:53:59Z</time>
      </trkpt>
      <trkpt lat="46.76242" lon="0.41968">
        <ele>131.6</ele>
        <time>2024-10-13T07:54:03Z</time>
      </trkpt>
      <trkpt lat="46.76242" lon="0.4197">
        <ele>131.8</ele>
        <time>2024-10-13T07:54:04Z</time>
      </trkpt>
      <trkpt lat="46.76243" lon="0.41972">
        <ele>131.8</ele>
        <time>2024-10-13T07:54:05Z</time>
      </trkpt>
      <trkpt lat="46.76247" lon="0.41976">
        <ele>132</ele>
        <time>2024-10-13T07:54:07Z</time>
      </trkpt>
      <trkpt lat="46.76251" lon="0.41977">
        <ele>132</ele>
        <time>2024-10-13T07:54:08Z</time>
      </trkpt>
      <trkpt lat="46.76258" lon="0.41984">
        <ele>131.8</ele>
        <time>2024-10-13T07:54:11Z</time>
      </trkpt>
      <trkpt lat="46.76262" lon="0.41989">
        <ele>131.8</ele>
        <time>2024-10-13T07:54:13Z</time>
      </trkpt>
      <trkpt lat="46.76273" lon="0.42005">
        <ele>131.6</ele>
        <time>2024-10-13T07:54:18Z</time>
      </trkpt>
      <trkpt lat="46.76276" lon="0.42027">
        <ele>131.6</ele>
        <time>2024-10-13T07:54:23Z</time>
      </trkpt>
      <trkpt lat="46.76277" lon="0.42046">
        <ele>132</ele>
        <time>2024-10-13T07:54:28Z</time>
      </trkpt>
      <trkpt lat="46.76278" lon="0.42049">
        <ele>132</ele>
        <time>2024-10-13T07:54:29Z</time>
      </trkpt>
      <trkpt lat="46.76281" lon="0.42054">
        <ele>131.8</ele>
        <time>2024-10-13T07:54:31Z</time>
      </trkpt>
      <trkpt lat="46.76282" lon="0.42054">
        <ele>131.8</ele>
        <time>2024-10-13T07:54:32Z</time>
      </trkpt>
      <trkpt lat="46.76286" lon="0.42059">
        <ele>131.8</ele>
        <time>2024-10-13T07:54:35Z</time>
      </trkpt>
      <trkpt lat="46.76288" lon="0.42065">
        <ele>132</ele>
        <time>2024-10-13T07:54:37Z</time>
      </trkpt>
      <trkpt lat="46.76293" lon="0.42084">
        <ele>131.6</ele>
        <time>2024-10-13T07:54:42Z</time>
      </trkpt>
      <trkpt lat="46.76293" lon="0.42092">
        <ele>131.6</ele>
        <time>2024-10-13T07:54:45Z</time>
      </trkpt>
      <trkpt lat="46.76297" lon="0.42102">
        <ele>132</ele>
        <time>2024-10-13T07:54:48Z</time>
      </trkpt>
      <trkpt lat="46.76304" lon="0.42127">
        <ele>132</ele>
        <time>2024-10-13T07:54:54Z</time>
      </trkpt>
      <trkpt lat="46.7631" lon="0.42151">
        <ele>132</ele>
        <time>2024-10-13T07:55:00Z</time>
      </trkpt>
      <trkpt lat="46.76315" lon="0.42171">
        <ele>131.6</ele>
        <time>2024-10-13T07:55:05Z</time>
      </trkpt>
      <trkpt lat="46.7632" lon="0.42188">
        <ele>131.4</ele>
        <time>2024-10-13T07:55:10Z</time>
      </trkpt>
      <trkpt lat="46.76324" lon="0.42191">
        <ele>131.4</ele>
        <time>2024-10-13T07:55:11Z</time>
      </trkpt>
      <trkpt lat="46.76337" lon="0.42205">
        <ele>131.4</ele>
        <time>2024-10-13T07:55:17Z</time>
      </trkpt>
      <trkpt lat="46.76347" lon="0.42219">
        <ele>131.6</ele>
        <time>2024-10-13T07:55:22Z</time>
      </trkpt>
      <trkpt lat="46.76349" lon="0.4222">
        <ele>131.6</ele>
        <time>2024-10-13T07:55:23Z</time>
      </trkpt>
      <trkpt lat="46.76365" lon="0.42235">
        <ele>131.6</ele>
        <time>2024-10-13T07:55:29Z</time>
      </trkpt>
      <trkpt lat="46.76366" lon="0.42237">
        <ele>131.4</ele>
        <time>2024-10-13T07:55:30Z</time>
      </trkpt>
      <trkpt lat="46.76369" lon="0.4225">
        <ele>131.4</ele>
        <time>2024-10-13T07:55:33Z</time>
      </trkpt>
      <trkpt lat="46.76373" lon="0.42258">
        <ele>131.4</ele>
        <time>2024-10-13T07:55:35Z</time>
      </trkpt>
      <trkpt lat="46.76379" lon="0.42259">
        <ele>131.2</ele>
        <time>2024-10-13T07:55:37Z</time>
      </trkpt>
      <trkpt lat="46.7639" lon="0.4225">
        <ele>131.2</ele>
        <time>2024-10-13T07:55:41Z</time>
      </trkpt>
      <trkpt lat="46.76401" lon="0.42243">
        <ele>131.4</ele>
        <time>2024-10-13T07:55:44Z</time>
      </trkpt>
      <trkpt lat="46.7641" lon="0.42239">
        <ele>131.6</ele>
        <time>2024-10-13T07:55:47Z</time>
      </trkpt>
      <trkpt lat="46.76423" lon="0.42228">
        <ele>131.4</ele>
        <time>2024-10-13T07:55:53Z</time>
      </trkpt>
      <trkpt lat="46.76434" lon="0.42212">
        <ele>131.2</ele>
        <time>2024-10-13T07:55:58Z</time>
      </trkpt>
      <trkpt lat="46.76445" lon="0.42199">
        <ele>131.2</ele>
        <time>2024-10-13T07:56:02Z</time>
      </trkpt>
      <trkpt lat="46.76447" lon="0.42198">
        <ele>131</ele>
        <time>2024-10-13T07:56:03Z</time>
      </trkpt>
      <trkpt lat="46.76449" lon="0.42199">
        <ele>131</ele>
        <time>2024-10-13T07:56:04Z</time>
      </trkpt>
      <trkpt lat="46.76453" lon="0.42203">
        <ele>131</ele>
        <time>2024-10-13T07:56:06Z</time>
      </trkpt>
      <trkpt lat="46.76455" lon="0.42205">
        <ele>131</ele>
        <time>2024-10-13T07:56:07Z</time>
      </trkpt>
      <trkpt lat="46.76464" lon="0.42209">
        <ele>131.2</ele>
        <time>2024-10-13T07:56:10Z</time>
      </trkpt>
      <trkpt lat="46.76468" lon="0.42214">
        <ele>131.4</ele>
        <time>2024-10-13T07:56:12Z</time>
      </trkpt>
      <trkpt lat="46.7647" lon="0.42219">
        <ele>131.2</ele>
        <time>2024-10-13T07:56:13Z</time>
      </trkpt>
      <trkpt lat="46.76476" lon="0.42226">
        <ele>131</ele>
        <time>2024-10-13T07:56:17Z</time>
      </trkpt>
      <trkpt lat="46.76486" lon="0.4223">
        <ele>130.8</ele>
        <time>2024-10-13T07:56:20Z</time>
      </trkpt>
      <trkpt lat="46.76491" lon="0.42248">
        <ele>130.8</ele>
        <time>2024-10-13T07:56:25Z</time>
      </trkpt>
      <trkpt lat="46.76492" lon="0.42252">
        <ele>130.8</ele>
        <time>2024-10-13T07:56:26Z</time>
      </trkpt>
      <trkpt lat="46.76493" lon="0.42266">
        <ele>131</ele>
        <time>2024-10-13T07:56:29Z</time>
      </trkpt>
      <trkpt lat="46.76495" lon="0.42268">
        <ele>131</ele>
        <time>2024-10-13T07:56:30Z</time>
      </trkpt>
      <trkpt lat="46.76497" lon="0.42269">
        <ele>131</ele>
        <time>2024-10-13T07:56:31Z</time>
      </trkpt>
      <trkpt lat="46.76506" lon="0.42274">
        <ele>131.4</ele>
        <time>2024-10-13T07:56:36Z</time>
      </trkpt>
      <trkpt lat="46.76509" lon="0.42276">
        <ele>131.2</ele>
        <time>2024-10-13T07:56:37Z</time>
      </trkpt>
      <trkpt lat="46.76514" lon="0.42283">
        <ele>131</ele>
        <time>2024-10-13T07:56:40Z</time>
      </trkpt>
      <trkpt lat="46.76518" lon="0.42289">
        <ele>131</ele>
        <time>2024-10-13T07:56:43Z</time>
      </trkpt>
      <trkpt lat="46.76522" lon="0.42291">
        <ele>130.8</ele>
        <time>2024-10-13T07:56:45Z</time>
      </trkpt>
      <trkpt lat="46.76524" lon="0.42293">
        <ele>131</ele>
        <time>2024-10-13T07:56:47Z</time>
      </trkpt>
      <trkpt lat="46.76526" lon="0.42296">
        <ele>131</ele>
        <time>2024-10-13T07:56:49Z</time>
      </trkpt>
      <trkpt lat="46.76527" lon="0.42299">
        <ele>131</ele>
        <time>2024-10-13T07:56:50Z</time>
      </trkpt>
      <trkpt lat="46.76532" lon="0.42317">
        <ele>130.8</ele>
        <time>2024-10-13T07:56:56Z</time>
      </trkpt>
      <trkpt lat="46.76543" lon="0.42329">
        <ele>130.8</ele>
        <time>2024-10-13T07:57:01Z</time>
      </trkpt>
      <trkpt lat="46.76551" lon="0.42343">
        <ele>130.8</ele>
        <time>2024-10-13T07:57:05Z</time>
      </trkpt>
      <trkpt lat="46.76553" lon="0.42344">
        <ele>131</ele>
        <time>2024-10-13T07:57:06Z</time>
      </trkpt>
      <trkpt lat="46.76563" lon="0.42341">
        <ele>131</ele>
        <time>2024-10-13T07:57:09Z</time>
      </trkpt>
      <trkpt lat="46.76568" lon="0.42338">
        <ele>130.8</ele>
        <time>2024-10-13T07:57:11Z</time>
      </trkpt>
      <trkpt lat="46.7658" lon="0.42332">
        <ele>131</ele>
        <time>2024-10-13T07:57:16Z</time>
      </trkpt>
      <trkpt lat="46.76591" lon="0.4232">
        <ele>131.4</ele>
        <time>2024-10-13T07:57:22Z</time>
      </trkpt>
      <trkpt lat="46.76593" lon="0.42314">
        <ele>131.2</ele>
        <time>2024-10-13T07:57:24Z</time>
      </trkpt>
      <trkpt lat="46.76596" lon="0.42305">
        <ele>130.8</ele>
        <time>2024-10-13T07:57:27Z</time>
      </trkpt>
      <trkpt lat="46.76597" lon="0.42302">
        <ele>130.8</ele>
        <time>2024-10-13T07:57:28Z</time>
      </trkpt>
      <trkpt lat="46.76605" lon="0.4229">
        <ele>130.6</ele>
        <time>2024-10-13T07:57:32Z</time>
      </trkpt>
      <trkpt lat="46.76618" lon="0.42272">
        <ele>130.4</ele>
        <time>2024-10-13T07:57:39Z</time>
      </trkpt>
      <trkpt lat="46.76632" lon="0.42261">
        <ele>130.2</ele>
        <time>2024-10-13T07:57:45Z</time>
      </trkpt>
      <trkpt lat="46.76643" lon="0.42249">
        <ele>130.2</ele>
        <time>2024-10-13T07:57:50Z</time>
      </trkpt>
      <trkpt lat="46.7666" lon="0.4225">
        <ele>130.4</ele>
        <time>2024-10-13T07:57:55Z</time>
      </trkpt>
      <trkpt lat="46.76684" lon="0.4227">
        <ele>130.4</ele>
        <time>2024-10-13T07:58:01Z</time>
      </trkpt>
      <trkpt lat="46.76703" lon="0.42297">
        <ele>130.6</ele>
        <time>2024-10-13T07:58:08Z</time>
      </trkpt>
      <trkpt lat="46.76717" lon="0.42332">
        <ele>130.6</ele>
        <time>2024-10-13T07:58:14Z</time>
      </trkpt>
      <trkpt lat="46.76732" lon="0.42376">
        <ele>131</ele>
        <time>2024-10-13T07:58:21Z</time>
      </trkpt>
      <trkpt lat="46.76731" lon="0.42386">
        <ele>131.2</ele>
        <time>2024-10-13T07:58:23Z</time>
      </trkpt>
      <trkpt lat="46.76728" lon="0.4239">
        <ele>131.2</ele>
        <time>2024-10-13T07:58:24Z</time>
      </trkpt>
      <trkpt lat="46.76726" lon="0.42393">
        <ele>131.2</ele>
        <time>2024-10-13T07:58:25Z</time>
      </trkpt>
      <trkpt lat="46.7671" lon="0.4241">
        <ele>131.2</ele>
        <time>2024-10-13T07:58:30Z</time>
      </trkpt>
      <trkpt lat="46.76696" lon="0.42424">
        <ele>131.2</ele>
        <time>2024-10-13T07:58:34Z</time>
      </trkpt>
      <trkpt lat="46.76681" lon="0.42442">
        <ele>131</ele>
        <time>2024-10-13T07:58:38Z</time>
      </trkpt>
      <trkpt lat="46.76661" lon="0.42467">
        <ele>131</ele>
        <time>2024-10-13T07:58:44Z</time>
      </trkpt>
      <trkpt lat="46.76653" lon="0.42477">
        <ele>131</ele>
        <time>2024-10-13T07:58:46Z</time>
      </trkpt>
      <trkpt lat="46.76634" lon="0.42498">
        <ele>131</ele>
        <time>2024-10-13T07:58:50Z</time>
      </trkpt>
      <trkpt lat="46.766" lon="0.42534">
        <ele>131.2</ele>
        <time>2024-10-13T07:58:57Z</time>
      </trkpt>
      <trkpt lat="46.76575" lon="0.42561">
        <ele>131</ele>
        <time>2024-10-13T07:59:03Z</time>
      </trkpt>
      <trkpt lat="46.76547" lon="0.42589">
        <ele>130.8</ele>
        <time>2024-10-13T07:59:09Z</time>
      </trkpt>
      <trkpt lat="46.76508" lon="0.42628">
        <ele>130.4</ele>
        <time>2024-10-13T07:59:17Z</time>
      </trkpt>
      <trkpt lat="46.76474" lon="0.4266">
        <ele>130.2</ele>
        <time>2024-10-13T07:59:24Z</time>
      </trkpt>
      <trkpt lat="46.7647" lon="0.42665">
        <ele>130.2</ele>
        <time>2024-10-13T07:59:25Z</time>
      </trkpt>
      <trkpt lat="46.76461" lon="0.42674">
        <ele>129.8</ele>
        <time>2024-10-13T07:59:27Z</time>
      </trkpt>
      <trkpt lat="46.76453" lon="0.42681">
        <ele>129.8</ele>
        <time>2024-10-13T07:59:29Z</time>
      </trkpt>
      <trkpt lat="46.76449" lon="0.42684">
        <ele>129.6</ele>
        <time>2024-10-13T07:59:30Z</time>
      </trkpt>
      <trkpt lat="46.76441" lon="0.42687">
        <ele>129.6</ele>
        <time>2024-10-13T07:59:32Z</time>
      </trkpt>
      <trkpt lat="46.76434" lon="0.42684">
        <ele>129.6</ele>
        <time>2024-10-13T07:59:34Z</time>
      </trkpt>
      <trkpt lat="46.76413" lon="0.42681">
        <ele>129</ele>
        <time>2024-10-13T07:59:40Z</time>
      </trkpt>
      <trkpt lat="46.76407" lon="0.42682">
        <ele>128.8</ele>
        <time>2024-10-13T07:59:41Z</time>
      </trkpt>
      <trkpt lat="46.76399" lon="0.42686">
        <ele>128.8</ele>
        <time>2024-10-13T07:59:46Z</time>
      </trkpt>
      <trkpt lat="46.76398" lon="0.42686">
        <ele>128.6</ele>
        <time>2024-10-13T07:59:47Z</time>
      </trkpt>
      <trkpt lat="46.76395" lon="0.42687">
        <ele>127.6</ele>
        <time>2024-10-13T07:59:50Z</time>
      </trkpt>
      <trkpt lat="46.76393" lon="0.42687">
        <ele>127.6</ele>
        <time>2024-10-13T07:59:51Z</time>
      </trkpt>
      <trkpt lat="46.76388" lon="0.42687">
        <ele>127.6</ele>
        <time>2024-10-13T08:00:04Z</time>
      </trkpt>
      <trkpt lat="46.76385" lon="0.42687">
        <ele>127.6</ele>
        <time>2024-10-13T08:00:20Z</time>
      </trkpt>
      <trkpt lat="46.76384" lon="0.42685">
        <ele>127.6</ele>
        <time>2024-10-13T08:00:40Z</time>
      </trkpt>
      <trkpt lat="46.76384" lon="0.42684">
        <ele>127.6</ele>
        <time>2024-10-13T08:01:00Z</time>
      </trkpt>
      <trkpt lat="46.76383" lon="0.42683">
        <ele>127.6</ele>
        <time>2024-10-13T08:01:17Z</time>
      </trkpt>
      <trkpt lat="46.76382" lon="0.42684">
        <ele>127.6</ele>
        <time>2024-10-13T08:01:33Z</time>
      </trkpt>
      <trkpt lat="46.76386" lon="0.42679">
        <ele>127.6</ele>
        <time>2024-10-13T08:01:48Z</time>
      </trkpt>
      <trkpt lat="46.76391" lon="0.42675">
        <ele>127.6</ele>
        <time>2024-10-13T08:02:03Z</time>
      </trkpt>
      <trkpt lat="46.76392" lon="0.42676">
        <ele>127.6</ele>
        <time>2024-10-13T08:02:22Z</time>
      </trkpt>
      <trkpt lat="46.7639" lon="0.42676">
        <ele>127.6</ele>
        <time>2024-10-13T08:02:39Z</time>
      </trkpt>
      <trkpt lat="46.76387" lon="0.42677">
        <ele>127.6</ele>
        <time>2024-10-13T08:02:42Z</time>
      </trkpt>
      <trkpt lat="46.76382" lon="0.42678">
        <ele>127.6</ele>
        <time>2024-10-13T08:02:52Z</time>
      </trkpt>
      <trkpt lat="46.76381" lon="0.42685">
        <ele>127.6</ele>
        <time>2024-10-13T08:03:09Z</time>
      </trkpt>
      <trkpt lat="46.76379" lon="0.42689">
        <ele>127.6</ele>
        <time>2024-10-13T08:03:23Z</time>
      </trkpt>
      <trkpt lat="46.76383" lon="0.42688">
        <ele>127.6</ele>
        <time>2024-10-13T08:03:38Z</time>
      </trkpt>
      <trkpt lat="46.76385" lon="0.42685">
        <ele>127.6</ele>
        <time>2024-10-13T08:03:53Z</time>
      </trkpt>
      <trkpt lat="46.76385" lon="0.42682">
        <ele>127.6</ele>
        <time>2024-10-13T08:04:09Z</time>
      </trkpt>
      <trkpt lat="46.76384" lon="0.42679">
        <ele>127.6</ele>
        <time>2024-10-13T08:04:23Z</time>
      </trkpt>
      <trkpt lat="46.76382" lon="0.42679">
        <ele>127.6</ele>
        <time>2024-10-13T08:04:41Z</time>
      </trkpt>
      <trkpt lat="46.76382" lon="0.42678">
        <ele>127.6</ele>
        <time>2024-10-13T08:04:59Z</time>
      </trkpt>
      <trkpt lat="46.76381" lon="0.42678">
        <ele>127.6</ele>
        <time>2024-10-13T08:05:18Z</time>
      </trkpt>
      <trkpt lat="46.7638" lon="0.42678">
        <ele>127.6</ele>
        <time>2024-10-13T08:05:37Z</time>
      </trkpt>
      <trkpt lat="46.7638" lon="0.42679">
        <ele>127.6</ele>
        <time>2024-10-13T08:05:50Z</time>
      </trkpt>
      <trkpt lat="46.76379" lon="0.42681">
        <ele>127.6</ele>
        <time>2024-10-13T08:06:07Z</time>
      </trkpt>
      <trkpt lat="46.76374" lon="0.42691">
        <ele>127.6</ele>
        <time>2024-10-13T08:06:18Z</time>
      </trkpt>
      <trkpt lat="46.76371" lon="0.42696">
        <ele>127.6</ele>
        <time>2024-10-13T08:06:22Z</time>
      </trkpt>
      <trkpt lat="46.76363" lon="0.4271">
        <ele>127.4</ele>
        <time>2024-10-13T08:06:28Z</time>
      </trkpt>
      <trkpt lat="46.76355" lon="0.42726">
        <ele>126.6</ele>
        <time>2024-10-13T08:06:34Z</time>
      </trkpt>
      <trkpt lat="46.76354" lon="0.42728">
        <ele>126.6</ele>
        <time>2024-10-13T08:06:35Z</time>
      </trkpt>
      <trkpt lat="46.76346" lon="0.42742">
        <ele>126</ele>
        <time>2024-10-13T08:06:41Z</time>
      </trkpt>
      <trkpt lat="46.76342" lon="0.42752">
        <ele>125.6</ele>
        <time>2024-10-13T08:06:44Z</time>
      </trkpt>
      <trkpt lat="46.76337" lon="0.42762">
        <ele>125.2</ele>
        <time>2024-10-13T08:06:47Z</time>
      </trkpt>
      <trkpt lat="46.76333" lon="0.42771">
        <ele>124.6</ele>
        <time>2024-10-13T08:06:50Z</time>
      </trkpt>
      <trkpt lat="46.76327" lon="0.42781">
        <ele>124.2</ele>
        <time>2024-10-13T08:06:52Z</time>
      </trkpt>
      <trkpt lat="46.76326" lon="0.42787">
        <ele>123.8</ele>
        <time>2024-10-13T08:06:54Z</time>
      </trkpt>
      <trkpt lat="46.76327" lon="0.42796">
        <ele>123.6</ele>
        <time>2024-10-13T08:06:57Z</time>
      </trkpt>
      <trkpt lat="46.76329" lon="0.42815">
        <ele>124</ele>
        <time>2024-10-13T08:07:03Z</time>
      </trkpt>
      <trkpt lat="46.76335" lon="0.4283">
        <ele>124.4</ele>
        <time>2024-10-13T08:07:08Z</time>
      </trkpt>
      <trkpt lat="46.7634" lon="0.4283">
        <ele>124.8</ele>
        <time>2024-10-13T08:07:11Z</time>
      </trkpt>
      <trkpt lat="46.76346" lon="0.42832">
        <ele>125.4</ele>
        <time>2024-10-13T08:07:14Z</time>
      </trkpt>
      <trkpt lat="46.76348" lon="0.42833">
        <ele>125.6</ele>
        <time>2024-10-13T08:07:15Z</time>
      </trkpt>
      <trkpt lat="46.76354" lon="0.4283">
        <ele>126.2</ele>
        <time>2024-10-13T08:07:19Z</time>
      </trkpt>
      <trkpt lat="46.76357" lon="0.42828">
        <ele>126.6</ele>
        <time>2024-10-13T08:07:21Z</time>
      </trkpt>
      <trkpt lat="46.76364" lon="0.42828">
        <ele>127</ele>
        <time>2024-10-13T08:07:24Z</time>
      </trkpt>
      <trkpt lat="46.7638" lon="0.42828">
        <ele>127.6</ele>
        <time>2024-10-13T08:07:30Z</time>
      </trkpt>
      <trkpt lat="46.76394" lon="0.42829">
        <ele>128</ele>
        <time>2024-10-13T08:07:35Z</time>
      </trkpt>
      <trkpt lat="46.76407" lon="0.4283">
        <ele>128.4</ele>
        <time>2024-10-13T08:07:39Z</time>
      </trkpt>
      <trkpt lat="46.76412" lon="0.42827">
        <ele>128.6</ele>
        <time>2024-10-13T08:07:41Z</time>
      </trkpt>
      <trkpt lat="46.76424" lon="0.42816">
        <ele>128.6</ele>
        <time>2024-10-13T08:07:46Z</time>
      </trkpt>
      <trkpt lat="46.76435" lon="0.42808">
        <ele>128.6</ele>
        <time>2024-10-13T08:07:50Z</time>
      </trkpt>
      <trkpt lat="46.7644" lon="0.42803">
        <ele>128.8</ele>
        <time>2024-10-13T08:07:52Z</time>
      </trkpt>
      <trkpt lat="46.76458" lon="0.42788">
        <ele>129.4</ele>
        <time>2024-10-13T08:07:58Z</time>
      </trkpt>
      <trkpt lat="46.76472" lon="0.42795">
        <ele>129.6</ele>
        <time>2024-10-13T08:08:02Z</time>
      </trkpt>
      <trkpt lat="46.76479" lon="0.42801">
        <ele>129.8</ele>
        <time>2024-10-13T08:08:04Z</time>
      </trkpt>
      <trkpt lat="46.76494" lon="0.42811">
        <ele>130</ele>
        <time>2024-10-13T08:08:07Z</time>
      </trkpt>
      <trkpt lat="46.76523" lon="0.42843">
        <ele>130</ele>
        <time>2024-10-13T08:08:14Z</time>
      </trkpt>
      <trkpt lat="46.76549" lon="0.42881">
        <ele>129.8</ele>
        <time>2024-10-13T08:08:21Z</time>
      </trkpt>
      <trkpt lat="46.76576" lon="0.4292">
        <ele>129.8</ele>
        <time>2024-10-13T08:08:28Z</time>
      </trkpt>
      <trkpt lat="46.76579" lon="0.42926">
        <ele>129.8</ele>
        <time>2024-10-13T08:08:29Z</time>
      </trkpt>
      <trkpt lat="46.76585" lon="0.42935">
        <ele>129.6</ele>
        <time>2024-10-13T08:08:31Z</time>
      </trkpt>
      <trkpt lat="46.76587" lon="0.42936">
        <ele>129.6</ele>
        <time>2024-10-13T08:08:32Z</time>
      </trkpt>
      <trkpt lat="46.7659" lon="0.42936">
        <ele>129.4</ele>
        <time>2024-10-13T08:08:34Z</time>
      </trkpt>
      <trkpt lat="46.76595" lon="0.4293">
        <ele>129.4</ele>
        <time>2024-10-13T08:08:37Z</time>
      </trkpt>
      <trkpt lat="46.76607" lon="0.4292">
        <ele>129.6</ele>
        <time>2024-10-13T08:08:44Z</time>
      </trkpt>
      <trkpt lat="46.76611" lon="0.4292">
        <ele>129.4</ele>
        <time>2024-10-13T08:08:46Z</time>
      </trkpt>
      <trkpt lat="46.76616" lon="0.42916">
        <ele>129.4</ele>
        <time>2024-10-13T08:08:48Z</time>
      </trkpt>
      <trkpt lat="46.76625" lon="0.42901">
        <ele>129.6</ele>
        <time>2024-10-13T08:08:54Z</time>
      </trkpt>
      <trkpt lat="46.76631" lon="0.42896">
        <ele>129.4</ele>
        <time>2024-10-13T08:08:57Z</time>
      </trkpt>
      <trkpt lat="46.76632" lon="0.42897">
        <ele>129.4</ele>
        <time>2024-10-13T08:08:58Z</time>
      </trkpt>
      <trkpt lat="46.76632" lon="0.42899">
        <ele>129.4</ele>
        <time>2024-10-13T08:08:59Z</time>
      </trkpt>
      <trkpt lat="46.76635" lon="0.42905">
        <ele>129.4</ele>
        <time>2024-10-13T08:09:02Z</time>
      </trkpt>
      <trkpt lat="46.76637" lon="0.42906">
        <ele>129.4</ele>
        <time>2024-10-13T08:09:03Z</time>
      </trkpt>
      <trkpt lat="46.76639" lon="0.42909">
        <ele>129.4</ele>
        <time>2024-10-13T08:09:05Z</time>
      </trkpt>
      <trkpt lat="46.76639" lon="0.42915">
        <ele>129.4</ele>
        <time>2024-10-13T08:09:07Z</time>
      </trkpt>
      <trkpt lat="46.7664" lon="0.42918">
        <ele>129.4</ele>
        <time>2024-10-13T08:09:08Z</time>
      </trkpt>
      <trkpt lat="46.76644" lon="0.42929">
        <ele>129.4</ele>
        <time>2024-10-13T08:09:12Z</time>
      </trkpt>
      <trkpt lat="46.76653" lon="0.4295">
        <ele>129.4</ele>
        <time>2024-10-13T08:09:17Z</time>
      </trkpt>
      <trkpt lat="46.76664" lon="0.42963">
        <ele>129.6</ele>
        <time>2024-10-13T08:09:22Z</time>
      </trkpt>
      <trkpt lat="46.76677" lon="0.42971">
        <ele>129.8</ele>
        <time>2024-10-13T08:09:27Z</time>
      </trkpt>
      <trkpt lat="46.76688" lon="0.42985">
        <ele>129.8</ele>
        <time>2024-10-13T08:09:33Z</time>
      </trkpt>
      <trkpt lat="46.767" lon="0.42987">
        <ele>129.6</ele>
        <time>2024-10-13T08:09:38Z</time>
      </trkpt>
      <trkpt lat="46.76702" lon="0.42988">
        <ele>130</ele>
        <time>2024-10-13T08:09:39Z</time>
      </trkpt>
      <trkpt lat="46.76719" lon="0.42986">
        <ele>130.4</ele>
        <time>2024-10-13T08:09:44Z</time>
      </trkpt>
      <trkpt lat="46.76726" lon="0.42983">
        <ele>130.4</ele>
        <time>2024-10-13T08:09:46Z</time>
      </trkpt>
      <trkpt lat="46.76732" lon="0.42979">
        <ele>130.4</ele>
        <time>2024-10-13T08:09:48Z</time>
      </trkpt>
      <trkpt lat="46.76734" lon="0.42977">
        <ele>130.2</ele>
        <time>2024-10-13T08:09:49Z</time>
      </trkpt>
      <trkpt lat="46.76735" lon="0.42975">
        <ele>130</ele>
        <time>2024-10-13T08:09:50Z</time>
      </trkpt>
      <trkpt lat="46.76739" lon="0.4297">
        <ele>130</ele>
        <time>2024-10-13T08:09:53Z</time>
      </trkpt>
      <trkpt lat="46.7674" lon="0.4297">
        <ele>130.2</ele>
        <time>2024-10-13T08:09:54Z</time>
      </trkpt>
      <trkpt lat="46.76745" lon="0.42971">
        <ele>130.4</ele>
        <time>2024-10-13T08:09:58Z</time>
      </trkpt>
      <trkpt lat="46.76747" lon="0.4297">
        <ele>130.4</ele>
        <time>2024-10-13T08:09:59Z</time>
      </trkpt>
      <trkpt lat="46.76753" lon="0.42965">
        <ele>130.4</ele>
        <time>2024-10-13T08:10:03Z</time>
      </trkpt>
      <trkpt lat="46.76761" lon="0.42964">
        <ele>130.6</ele>
        <time>2024-10-13T08:10:06Z</time>
      </trkpt>
      <trkpt lat="46.76763" lon="0.42961">
        <ele>130.6</ele>
        <time>2024-10-13T08:10:07Z</time>
      </trkpt>
      <trkpt lat="46.76773" lon="0.42949">
        <ele>130.4</ele>
        <time>2024-10-13T08:10:12Z</time>
      </trkpt>
      <trkpt lat="46.76781" lon="0.42928">
        <ele>130.6</ele>
        <time>2024-10-13T08:10:18Z</time>
      </trkpt>
      <trkpt lat="46.7678" lon="0.42917">
        <ele>130.4</ele>
        <time>2024-10-13T08:10:22Z</time>
      </trkpt>
      <trkpt lat="46.76782" lon="0.42915">
        <ele>130.4</ele>
        <time>2024-10-13T08:10:23Z</time>
      </trkpt>
      <trkpt lat="46.76796" lon="0.42896">
        <ele>130.4</ele>
        <time>2024-10-13T08:10:30Z</time>
      </trkpt>
      <trkpt lat="46.76809" lon="0.42885">
        <ele>130.4</ele>
        <time>2024-10-13T08:10:36Z</time>
      </trkpt>
      <trkpt lat="46.76826" lon="0.42884">
        <ele>130.4</ele>
        <time>2024-10-13T08:10:42Z</time>
      </trkpt>
      <trkpt lat="46.76838" lon="0.4288">
        <ele>130.2</ele>
        <time>2024-10-13T08:10:48Z</time>
      </trkpt>
      <trkpt lat="46.76852" lon="0.42871">
        <ele>130.4</ele>
        <time>2024-10-13T08:10:53Z</time>
      </trkpt>
      <trkpt lat="46.76867" lon="0.42865">
        <ele>130.6</ele>
        <time>2024-10-13T08:10:58Z</time>
      </trkpt>
      <trkpt lat="46.76869" lon="0.42866">
        <ele>130.6</ele>
        <time>2024-10-13T08:10:59Z</time>
      </trkpt>
      <trkpt lat="46.76884" lon="0.42865">
        <ele>130.8</ele>
        <time>2024-10-13T08:11:02Z</time>
      </trkpt>
      <trkpt lat="46.76887" lon="0.42869">
        <ele>131</ele>
        <time>2024-10-13T08:11:04Z</time>
      </trkpt>
      <trkpt lat="46.76888" lon="0.42875">
        <ele>130.8</ele>
        <time>2024-10-13T08:11:07Z</time>
      </trkpt>
      <trkpt lat="46.76887" lon="0.42878">
        <ele>130.8</ele>
        <time>2024-10-13T08:11:09Z</time>
      </trkpt>
      <trkpt lat="46.76886" lon="0.42888">
        <ele>130.8</ele>
        <time>2024-10-13T08:11:16Z</time>
      </trkpt>
      <trkpt lat="46.76892" lon="0.42897">
        <ele>130.6</ele>
        <time>2024-10-13T08:11:22Z</time>
      </trkpt>
      <trkpt lat="46.76892" lon="0.42899">
        <ele>130.8</ele>
        <time>2024-10-13T08:11:23Z</time>
      </trkpt>
      <trkpt lat="46.76895" lon="0.42907">
        <ele>130.8</ele>
        <time>2024-10-13T08:11:27Z</time>
      </trkpt>
      <trkpt lat="46.76898" lon="0.42915">
        <ele>130.8</ele>
        <time>2024-10-13T08:11:30Z</time>
      </trkpt>
      <trkpt lat="46.76907" lon="0.42935">
        <ele>130.6</ele>
        <time>2024-10-13T08:11:36Z</time>
      </trkpt>
      <trkpt lat="46.76917" lon="0.42957">
        <ele>130.8</ele>
        <time>2024-10-13T08:11:41Z</time>
      </trkpt>
      <trkpt lat="46.76921" lon="0.42972">
        <ele>131</ele>
        <time>2024-10-13T08:11:45Z</time>
      </trkpt>
      <trkpt lat="46.7692" lon="0.42982">
        <ele>130.8</ele>
        <time>2024-10-13T08:11:47Z</time>
      </trkpt>
      <trkpt lat="46.76917" lon="0.42993">
        <ele>130.6</ele>
        <time>2024-10-13T08:11:49Z</time>
      </trkpt>
      <trkpt lat="46.76914" lon="0.43014">
        <ele>130.4</ele>
        <time>2024-10-13T08:11:53Z</time>
      </trkpt>
      <trkpt lat="46.7692" lon="0.43033">
        <ele>130.6</ele>
        <time>2024-10-13T08:11:58Z</time>
      </trkpt>
      <trkpt lat="46.76926" lon="0.43051">
        <ele>130.8</ele>
        <time>2024-10-13T08:12:02Z</time>
      </trkpt>
      <trkpt lat="46.76933" lon="0.43074">
        <ele>130.8</ele>
        <time>2024-10-13T08:12:07Z</time>
      </trkpt>
      <trkpt lat="46.76943" lon="0.43084">
        <ele>130.6</ele>
        <time>2024-10-13T08:12:11Z</time>
      </trkpt>
      <trkpt lat="46.76945" lon="0.43085">
        <ele>130.6</ele>
        <time>2024-10-13T08:12:12Z</time>
      </trkpt>
      <trkpt lat="46.7695" lon="0.4308">
        <ele>130.4</ele>
        <time>2024-10-13T08:12:14Z</time>
      </trkpt>
      <trkpt lat="46.76955" lon="0.43073">
        <ele>130.6</ele>
        <time>2024-10-13T08:12:16Z</time>
      </trkpt>
      <trkpt lat="46.76961" lon="0.43065">
        <ele>130.6</ele>
        <time>2024-10-13T08:12:19Z</time>
      </trkpt>
      <trkpt lat="46.76972" lon="0.43065">
        <ele>130.4</ele>
        <time>2024-10-13T08:12:24Z</time>
      </trkpt>
      <trkpt lat="46.76985" lon="0.43079">
        <ele>130.4</ele>
        <time>2024-10-13T08:12:29Z</time>
      </trkpt>
      <trkpt lat="46.7699" lon="0.43083">
        <ele>130.6</ele>
        <time>2024-10-13T08:12:31Z</time>
      </trkpt>
      <trkpt lat="46.76996" lon="0.43087">
        <ele>130.6</ele>
        <time>2024-10-13T08:12:33Z</time>
      </trkpt>
      <trkpt lat="46.77006" lon="0.43099">
        <ele>130.4</ele>
        <time>2024-10-13T08:12:38Z</time>
      </trkpt>
      <trkpt lat="46.77014" lon="0.43109">
        <ele>130.2</ele>
        <time>2024-10-13T08:12:42Z</time>
      </trkpt>
      <trkpt lat="46.77016" lon="0.43123">
        <ele>130.2</ele>
        <time>2024-10-13T08:12:47Z</time>
      </trkpt>
      <trkpt lat="46.77018" lon="0.43139">
        <ele>130.4</ele>
        <time>2024-10-13T08:12:53Z</time>
      </trkpt>
      <trkpt lat="46.77018" lon="0.4316">
        <ele>130.4</ele>
        <time>2024-10-13T08:12:59Z</time>
      </trkpt>
      <trkpt lat="46.77025" lon="0.43181">
        <ele>131</ele>
        <time>2024-10-13T08:13:05Z</time>
      </trkpt>
      <trkpt lat="46.77028" lon="0.43187">
        <ele>131</ele>
        <time>2024-10-13T08:13:07Z</time>
      </trkpt>
      <trkpt lat="46.77034" lon="0.43193">
        <ele>131</ele>
        <time>2024-10-13T08:13:09Z</time>
      </trkpt>
      <trkpt lat="46.77042" lon="0.43214">
        <ele>130.6</ele>
        <time>2024-10-13T08:13:14Z</time>
      </trkpt>
      <trkpt lat="46.77052" lon="0.43231">
        <ele>130.8</ele>
        <time>2024-10-13T08:13:19Z</time>
      </trkpt>
      <trkpt lat="46.77064" lon="0.43234">
        <ele>130.8</ele>
        <time>2024-10-13T08:13:24Z</time>
      </trkpt>
      <trkpt lat="46.77082" lon="0.43239">
        <ele>130.6</ele>
        <time>2024-10-13T08:13:30Z</time>
      </trkpt>
      <trkpt lat="46.77085" lon="0.43245">
        <ele>130.6</ele>
        <time>2024-10-13T08:13:32Z</time>
      </trkpt>
      <trkpt lat="46.77085" lon="0.43252">
        <ele>130.8</ele>
        <time>2024-10-13T08:13:34Z</time>
      </trkpt>
      <trkpt lat="46.77087" lon="0.43255">
        <ele>130.8</ele>
        <time>2024-10-13T08:13:35Z</time>
      </trkpt>
      <trkpt lat="46.77091" lon="0.43262">
        <ele>131</ele>
        <time>2024-10-13T08:13:38Z</time>
      </trkpt>
      <trkpt lat="46.77097" lon="0.4328">
        <ele>131</ele>
        <time>2024-10-13T08:13:44Z</time>
      </trkpt>
      <trkpt lat="46.77102" lon="0.43304">
        <ele>130.8</ele>
        <time>2024-10-13T08:13:50Z</time>
      </trkpt>
      <trkpt lat="46.77102" lon="0.4331">
        <ele>131.2</ele>
        <time>2024-10-13T08:13:53Z</time>
      </trkpt>
      <trkpt lat="46.77101" lon="0.4331">
        <ele>131.2</ele>
        <time>2024-10-13T08:13:54Z</time>
      </trkpt>
      <trkpt lat="46.77101" lon="0.4331">
        <ele>131.2</ele>
        <time>2024-10-13T08:13:55Z</time>
      </trkpt>
      <trkpt lat="46.77096" lon="0.43319">
        <ele>131.6</ele>
        <time>2024-10-13T08:13:58Z</time>
      </trkpt>
      <trkpt lat="46.77091" lon="0.43323">
        <ele>131.8</ele>
        <time>2024-10-13T08:14:01Z</time>
      </trkpt>
      <trkpt lat="46.77087" lon="0.43324">
        <ele>131.8</ele>
        <time>2024-10-13T08:14:03Z</time>
      </trkpt>
      <trkpt lat="46.77083" lon="0.43326">
        <ele>131.6</ele>
        <time>2024-10-13T08:14:05Z</time>
      </trkpt>
      <trkpt lat="46.77079" lon="0.43332">
        <ele>131.4</ele>
        <time>2024-10-13T08:14:07Z</time>
      </trkpt>
      <trkpt lat="46.77076" lon="0.43337">
        <ele>131.4</ele>
        <time>2024-10-13T08:14:08Z</time>
      </trkpt>
      <trkpt lat="46.77073" lon="0.43343">
        <ele>131.4</ele>
        <time>2024-10-13T08:14:09Z</time>
      </trkpt>
      <trkpt lat="46.77073" lon="0.43355">
        <ele>131.2</ele>
        <time>2024-10-13T08:14:12Z</time>
      </trkpt>
      <trkpt lat="46.77068" lon="0.43375">
        <ele>131</ele>
        <time>2024-10-13T08:14:17Z</time>
      </trkpt>
      <trkpt lat="46.77068" lon="0.43381">
        <ele>130.8</ele>
        <time>2024-10-13T08:14:19Z</time>
      </trkpt>
      <trkpt lat="46.77065" lon="0.43393">
        <ele>130.8</ele>
        <time>2024-10-13T08:14:22Z</time>
      </trkpt>
      <trkpt lat="46.77066" lon="0.43396">
        <ele>130.8</ele>
        <time>2024-10-13T08:14:23Z</time>
      </trkpt>
      <trkpt lat="46.77076" lon="0.43413">
        <ele>131.2</ele>
        <time>2024-10-13T08:14:28Z</time>
      </trkpt>
      <trkpt lat="46.77078" lon="0.43426">
        <ele>131.2</ele>
        <time>2024-10-13T08:14:31Z</time>
      </trkpt>
      <trkpt lat="46.77077" lon="0.43431">
        <ele>131.2</ele>
        <time>2024-10-13T08:14:32Z</time>
      </trkpt>
      <trkpt lat="46.77074" lon="0.43451">
        <ele>130.8</ele>
        <time>2024-10-13T08:14:37Z</time>
      </trkpt>
      <trkpt lat="46.77069" lon="0.43483">
        <ele>130.6</ele>
        <time>2024-10-13T08:14:43Z</time>
      </trkpt>
      <trkpt lat="46.77065" lon="0.43499">
        <ele>130</ele>
        <time>2024-10-13T08:14:47Z</time>
      </trkpt>
      <trkpt lat="46.77061" lon="0.43509">
        <ele>129.8</ele>
        <time>2024-10-13T08:14:50Z</time>
      </trkpt>
      <trkpt lat="46.77057" lon="0.43541">
        <ele>129.8</ele>
        <time>2024-10-13T08:14:56Z</time>
      </trkpt>
      <trkpt lat="46.77064" lon="0.43564">
        <ele>129.6</ele>
        <time>2024-10-13T08:15:00Z</time>
      </trkpt>
      <trkpt lat="46.77067" lon="0.43568">
        <ele>129.4</ele>
        <time>2024-10-13T08:15:02Z</time>
      </trkpt>
      <trkpt lat="46.77066" lon="0.43573">
        <ele>129.2</ele>
        <time>2024-10-13T08:15:04Z</time>
      </trkpt>
      <trkpt lat="46.77065" lon="0.43579">
        <ele>129.4</ele>
        <time>2024-10-13T08:15:06Z</time>
      </trkpt>
      <trkpt lat="46.77064" lon="0.43584">
        <ele>129.4</ele>
        <time>2024-10-13T08:15:08Z</time>
      </trkpt>
      <trkpt lat="46.77065" lon="0.43594">
        <ele>129.4</ele>
        <time>2024-10-13T08:15:11Z</time>
      </trkpt>
      <trkpt lat="46.77072" lon="0.43622">
        <ele>129</ele>
        <time>2024-10-13T08:15:17Z</time>
      </trkpt>
      <trkpt lat="46.7708" lon="0.43645">
        <ele>128.8</ele>
        <time>2024-10-13T08:15:23Z</time>
      </trkpt>
      <trkpt lat="46.77082" lon="0.4365">
        <ele>129</ele>
        <time>2024-10-13T08:15:25Z</time>
      </trkpt>
      <trkpt lat="46.77084" lon="0.43659">
        <ele>129</ele>
        <time>2024-10-13T08:15:28Z</time>
      </trkpt>
      <trkpt lat="46.77086" lon="0.43673">
        <ele>128.8</ele>
        <time>2024-10-13T08:15:34Z</time>
      </trkpt>
      <trkpt lat="46.77087" lon="0.43679">
        <ele>128.2</ele>
        <time>2024-10-13T08:15:36Z</time>
      </trkpt>
      <trkpt lat="46.77087" lon="0.43685">
        <ele>127.8</ele>
        <time>2024-10-13T08:15:40Z</time>
      </trkpt>
      <trkpt lat="46.77081" lon="0.43697">
        <ele>127.6</ele>
        <time>2024-10-13T08:15:45Z</time>
      </trkpt>
      <trkpt lat="46.77079" lon="0.437">
        <ele>127.6</ele>
        <time>2024-10-13T08:15:46Z</time>
      </trkpt>
      <trkpt lat="46.77076" lon="0.43705">
        <ele>127.4</ele>
        <time>2024-10-13T08:15:48Z</time>
      </trkpt>
      <trkpt lat="46.77071" lon="0.43709">
        <ele>127</ele>
        <time>2024-10-13T08:15:50Z</time>
      </trkpt>
      <trkpt lat="46.77065" lon="0.43713">
        <ele>126.6</ele>
        <time>2024-10-13T08:15:52Z</time>
      </trkpt>
      <trkpt lat="46.77044" lon="0.43729">
        <ele>126</ele>
        <time>2024-10-13T08:15:59Z</time>
      </trkpt>
      <trkpt lat="46.77041" lon="0.43729">
        <ele>126</ele>
        <time>2024-10-13T08:16:00Z</time>
      </trkpt>
      <trkpt lat="46.77024" lon="0.43731">
        <ele>125.6</ele>
        <time>2024-10-13T08:16:05Z</time>
      </trkpt>
      <trkpt lat="46.7702" lon="0.43733">
        <ele>125.4</ele>
        <time>2024-10-13T08:16:06Z</time>
      </trkpt>
      <trkpt lat="46.77012" lon="0.43737">
        <ele>125.2</ele>
        <time>2024-10-13T08:16:09Z</time>
      </trkpt>
      <trkpt lat="46.77003" lon="0.43743">
        <ele>125.2</ele>
        <time>2024-10-13T08:16:13Z</time>
      </trkpt>
      <trkpt lat="46.77003" lon="0.43744">
        <ele>125.2</ele>
        <time>2024-10-13T08:16:14Z</time>
      </trkpt>
      <trkpt lat="46.77" lon="0.43751">
        <ele>125</ele>
        <time>2024-10-13T08:16:17Z</time>
      </trkpt>
      <trkpt lat="46.76997" lon="0.43755">
        <ele>125</ele>
        <time>2024-10-13T08:16:19Z</time>
      </trkpt>
      <trkpt lat="46.76997" lon="0.43759">
        <ele>124.8</ele>
        <time>2024-10-13T08:16:20Z</time>
      </trkpt>
      <trkpt lat="46.76999" lon="0.43768">
        <ele>124.4</ele>
        <time>2024-10-13T08:16:23Z</time>
      </trkpt>
      <trkpt lat="46.76994" lon="0.43798">
        <ele>124.2</ele>
        <time>2024-10-13T08:16:27Z</time>
      </trkpt>
      <trkpt lat="46.76993" lon="0.43808">
        <ele>124.2</ele>
        <time>2024-10-13T08:16:28Z</time>
      </trkpt>
      <trkpt lat="46.7699" lon="0.43851">
        <ele>124</ele>
        <time>2024-10-13T08:16:32Z</time>
      </trkpt>
      <trkpt lat="46.76987" lon="0.43903">
        <ele>124.4</ele>
        <time>2024-10-13T08:16:38Z</time>
      </trkpt>
      <trkpt lat="46.76979" lon="0.43957">
        <ele>125</ele>
        <time>2024-10-13T08:16:45Z</time>
      </trkpt>
      <trkpt lat="46.76971" lon="0.44017">
        <ele>125.2</ele>
        <time>2024-10-13T08:16:52Z</time>
      </trkpt>
      <trkpt lat="46.76968" lon="0.44056">
        <ele>125</ele>
        <time>2024-10-13T08:16:57Z</time>
      </trkpt>
      <trkpt lat="46.76968" lon="0.44062">
        <ele>125</ele>
        <time>2024-10-13T08:16:58Z</time>
      </trkpt>
      <trkpt lat="46.76966" lon="0.44087">
        <ele>124.4</ele>
        <time>2024-10-13T08:17:02Z</time>
      </trkpt>
      <trkpt lat="46.76963" lon="0.44096">
        <ele>124.2</ele>
        <time>2024-10-13T08:17:04Z</time>
      </trkpt>
      <trkpt lat="46.76959" lon="0.44101">
        <ele>124</ele>
        <time>2024-10-13T08:17:06Z</time>
      </trkpt>
      <trkpt lat="46.76953" lon="0.44104">
        <ele>123.8</ele>
        <time>2024-10-13T08:17:08Z</time>
      </trkpt>
      <trkpt lat="46.76929" lon="0.44116">
        <ele>123.8</ele>
        <time>2024-10-13T08:17:14Z</time>
      </trkpt>
      <trkpt lat="46.76912" lon="0.44124">
        <ele>123.2</ele>
        <time>2024-10-13T08:17:18Z</time>
      </trkpt>
      <trkpt lat="46.76905" lon="0.4413">
        <ele>123.2</ele>
        <time>2024-10-13T08:17:20Z</time>
      </trkpt>
      <trkpt lat="46.7689" lon="0.44137">
        <ele>122.6</ele>
        <time>2024-10-13T08:17:24Z</time>
      </trkpt>
      <trkpt lat="46.76883" lon="0.44141">
        <ele>122.4</ele>
        <time>2024-10-13T08:17:26Z</time>
      </trkpt>
      <trkpt lat="46.76855" lon="0.44155">
        <ele>121.6</ele>
        <time>2024-10-13T08:17:32Z</time>
      </trkpt>
      <trkpt lat="46.76839" lon="0.44162">
        <ele>119.8</ele>
        <time>2024-10-13T08:17:35Z</time>
      </trkpt>
      <trkpt lat="46.76826" lon="0.44168">
        <ele>118.2</ele>
        <time>2024-10-13T08:17:38Z</time>
      </trkpt>
      <trkpt lat="46.76814" lon="0.4417">
        <ele>117.4</ele>
        <time>2024-10-13T08:17:40Z</time>
      </trkpt>
      <trkpt lat="46.76809" lon="0.44171">
        <ele>117</ele>
        <time>2024-10-13T08:17:41Z</time>
      </trkpt>
      <trkpt lat="46.76791" lon="0.44168">
        <ele>115.8</ele>
        <time>2024-10-13T08:17:44Z</time>
      </trkpt>
      <trkpt lat="46.76782" lon="0.44168">
        <ele>115.4</ele>
        <time>2024-10-13T08:17:45Z</time>
      </trkpt>
      <trkpt lat="46.76764" lon="0.44167">
        <ele>114.8</ele>
        <time>2024-10-13T08:17:47Z</time>
      </trkpt>
      <trkpt lat="46.76734" lon="0.44167">
        <ele>112.8</ele>
        <time>2024-10-13T08:17:50Z</time>
      </trkpt>
      <trkpt lat="46.76725" lon="0.44167">
        <ele>111.6</ele>
        <time>2024-10-13T08:17:51Z</time>
      </trkpt>
      <trkpt lat="46.76717" lon="0.44166">
        <ele>110.8</ele>
        <time>2024-10-13T08:17:52Z</time>
      </trkpt>
      <trkpt lat="46.76709" lon="0.44163">
        <ele>110.2</ele>
        <time>2024-10-13T08:17:53Z</time>
      </trkpt>
      <trkpt lat="46.76692" lon="0.44156">
        <ele>109.6</ele>
        <time>2024-10-13T08:17:56Z</time>
      </trkpt>
      <trkpt lat="46.76665" lon="0.44145">
        <ele>109.6</ele>
        <time>2024-10-13T08:18:01Z</time>
      </trkpt>
      <trkpt lat="46.76655" lon="0.44144">
        <ele>110</ele>
        <time>2024-10-13T08:18:03Z</time>
      </trkpt>
      <trkpt lat="46.76646" lon="0.44143">
        <ele>110.4</ele>
        <time>2024-10-13T08:18:05Z</time>
      </trkpt>
      <trkpt lat="46.76642" lon="0.44141">
        <ele>110.6</ele>
        <time>2024-10-13T08:18:06Z</time>
      </trkpt>
      <trkpt lat="46.76631" lon="0.4414">
        <ele>111.2</ele>
        <time>2024-10-13T08:18:09Z</time>
      </trkpt>
      <trkpt lat="46.7662" lon="0.4414">
        <ele>112.2</ele>
        <time>2024-10-13T08:18:12Z</time>
      </trkpt>
      <trkpt lat="46.76606" lon="0.44136">
        <ele>113.4</ele>
        <time>2024-10-13T08:18:17Z</time>
      </trkpt>
      <trkpt lat="46.76589" lon="0.44137">
        <ele>114.2</ele>
        <time>2024-10-13T08:18:22Z</time>
      </trkpt>
      <trkpt lat="46.76586" lon="0.44137">
        <ele>114.4</ele>
        <time>2024-10-13T08:18:23Z</time>
      </trkpt>
      <trkpt lat="46.76571" lon="0.44132">
        <ele>115.4</ele>
        <time>2024-10-13T08:18:28Z</time>
      </trkpt>
      <trkpt lat="46.76568" lon="0.44132">
        <ele>115.6</ele>
        <time>2024-10-13T08:18:29Z</time>
      </trkpt>
      <trkpt lat="46.76551" lon="0.44133">
        <ele>116.4</ele>
        <time>2024-10-13T08:18:35Z</time>
      </trkpt>
      <trkpt lat="46.76551" lon="0.44133">
        <ele>116.6</ele>
        <time>2024-10-13T08:18:36Z</time>
      </trkpt>
      <trkpt lat="46.76528" lon="0.4413">
        <ele>117</ele>
        <time>2024-10-13T08:18:43Z</time>
      </trkpt>
      <trkpt lat="46.7652" lon="0.44126">
        <ele>117.6</ele>
        <time>2024-10-13T08:18:47Z</time>
      </trkpt>
      <trkpt lat="46.76517" lon="0.44122">
        <ele>118</ele>
        <time>2024-10-13T08:18:49Z</time>
      </trkpt>
      <trkpt lat="46.76514" lon="0.44107">
        <ele>118.6</ele>
        <time>2024-10-13T08:18:54Z</time>
      </trkpt>
      <trkpt lat="46.7651" lon="0.44088">
        <ele>119.4</ele>
        <time>2024-10-13T08:19:00Z</time>
      </trkpt>
      <trkpt lat="46.76507" lon="0.44069">
        <ele>119.8</ele>
        <time>2024-10-13T08:19:05Z</time>
      </trkpt>
      <trkpt lat="46.76502" lon="0.44045">
        <ele>120.4</ele>
        <time>2024-10-13T08:19:11Z</time>
      </trkpt>
      <trkpt lat="46.76501" lon="0.44032">
        <ele>120.6</ele>
        <time>2024-10-13T08:19:17Z</time>
      </trkpt>
      <trkpt lat="46.76498" lon="0.44013">
        <ele>120.8</ele>
        <time>2024-10-13T08:19:29Z</time>
      </trkpt>
      <trkpt lat="46.76495" lon="0.44005">
        <ele>120.8</ele>
        <time>2024-10-13T08:19:35Z</time>
      </trkpt>
      <trkpt lat="46.76493" lon="0.43995">
        <ele>121</ele>
        <time>2024-10-13T08:19:38Z</time>
      </trkpt>
      <trkpt lat="46.76488" lon="0.43968">
        <ele>121.4</ele>
        <time>2024-10-13T08:19:45Z</time>
      </trkpt>
      <trkpt lat="46.76488" lon="0.4395">
        <ele>121.6</ele>
        <time>2024-10-13T08:19:49Z</time>
      </trkpt>
      <trkpt lat="46.76488" lon="0.43946">
        <ele>121.8</ele>
        <time>2024-10-13T08:19:50Z</time>
      </trkpt>
      <trkpt lat="46.76486" lon="0.43938">
        <ele>121.6</ele>
        <time>2024-10-13T08:19:53Z</time>
      </trkpt>
      <trkpt lat="46.7648" lon="0.43934">
        <ele>121.6</ele>
        <time>2024-10-13T08:19:59Z</time>
      </trkpt>
      <trkpt lat="46.76478" lon="0.43934">
        <ele>121.6</ele>
        <time>2024-10-13T08:20:00Z</time>
      </trkpt>
      <trkpt lat="46.76471" lon="0.43935">
        <ele>121.8</ele>
        <time>2024-10-13T08:20:03Z</time>
      </trkpt>
      <trkpt lat="46.76469" lon="0.43936">
        <ele>122</ele>
        <time>2024-10-13T08:20:04Z</time>
      </trkpt>
      <trkpt lat="46.76455" lon="0.43938">
        <ele>122.2</ele>
        <time>2024-10-13T08:20:09Z</time>
      </trkpt>
      <trkpt lat="46.76447" lon="0.43939">
        <ele>122.2</ele>
        <time>2024-10-13T08:20:12Z</time>
      </trkpt>
      <trkpt lat="46.76444" lon="0.4394">
        <ele>122.4</ele>
        <time>2024-10-13T08:20:13Z</time>
      </trkpt>
      <trkpt lat="46.76428" lon="0.43945">
        <ele>122.6</ele>
        <time>2024-10-13T08:20:18Z</time>
      </trkpt>
      <trkpt lat="46.76409" lon="0.43951">
        <ele>122.2</ele>
        <time>2024-10-13T08:20:23Z</time>
      </trkpt>
      <trkpt lat="46.764" lon="0.43955">
        <ele>122</ele>
        <time>2024-10-13T08:20:25Z</time>
      </trkpt>
      <trkpt lat="46.76385" lon="0.43956">
        <ele>121.6</ele>
        <time>2024-10-13T08:20:29Z</time>
      </trkpt>
      <trkpt lat="46.76369" lon="0.43954">
        <ele>120.4</ele>
        <time>2024-10-13T08:20:34Z</time>
      </trkpt>
      <trkpt lat="46.76365" lon="0.43952">
        <ele>120.2</ele>
        <time>2024-10-13T08:20:35Z</time>
      </trkpt>
      <trkpt lat="46.76362" lon="0.43951">
        <ele>120</ele>
        <time>2024-10-13T08:20:36Z</time>
      </trkpt>
      <trkpt lat="46.76359" lon="0.43951">
        <ele>119.4</ele>
        <time>2024-10-13T08:20:37Z</time>
      </trkpt>
      <trkpt lat="46.76355" lon="0.43952">
        <ele>119.2</ele>
        <time>2024-10-13T08:20:38Z</time>
      </trkpt>
      <trkpt lat="46.76345" lon="0.43951">
        <ele>119</ele>
        <time>2024-10-13T08:20:41Z</time>
      </trkpt>
      <trkpt lat="46.7634" lon="0.43949">
        <ele>119</ele>
        <time>2024-10-13T08:20:43Z</time>
      </trkpt>
      <trkpt lat="46.76337" lon="0.43946">
        <ele>119</ele>
        <time>2024-10-13T08:20:45Z</time>
      </trkpt>
      <trkpt lat="46.76337" lon="0.43928">
        <ele>119.6</ele>
        <time>2024-10-13T08:20:51Z</time>
      </trkpt>
      <trkpt lat="46.76337" lon="0.43913">
        <ele>120.2</ele>
        <time>2024-10-13T08:20:57Z</time>
      </trkpt>
      <trkpt lat="46.76339" lon="0.43907">
        <ele>120.2</ele>
        <time>2024-10-13T08:20:59Z</time>
      </trkpt>
      <trkpt lat="46.76342" lon="0.43903">
        <ele>120.6</ele>
        <time>2024-10-13T08:21:01Z</time>
      </trkpt>
      <trkpt lat="46.76346" lon="0.43897">
        <ele>121.2</ele>
        <time>2024-10-13T08:21:03Z</time>
      </trkpt>
      <trkpt lat="46.76348" lon="0.43895">
        <ele>121.4</ele>
        <time>2024-10-13T08:21:04Z</time>
      </trkpt>
      <trkpt lat="46.76349" lon="0.43892">
        <ele>121.4</ele>
        <time>2024-10-13T08:21:05Z</time>
      </trkpt>
      <trkpt lat="46.76355" lon="0.43884">
        <ele>121.6</ele>
        <time>2024-10-13T08:21:08Z</time>
      </trkpt>
      <trkpt lat="46.7636" lon="0.43878">
        <ele>121.6</ele>
        <time>2024-10-13T08:21:10Z</time>
      </trkpt>
      <trkpt lat="46.76373" lon="0.43852">
        <ele>122.4</ele>
        <time>2024-10-13T08:21:17Z</time>
      </trkpt>
      <trkpt lat="46.76382" lon="0.43833">
        <ele>122.4</ele>
        <time>2024-10-13T08:21:21Z</time>
      </trkpt>
      <trkpt lat="46.76387" lon="0.43824">
        <ele>122.4</ele>
        <time>2024-10-13T08:21:23Z</time>
      </trkpt>
      <trkpt lat="46.76403" lon="0.43795">
        <ele>122.6</ele>
        <time>2024-10-13T08:21:30Z</time>
      </trkpt>
      <trkpt lat="46.76422" lon="0.43765">
        <ele>123</ele>
        <time>2024-10-13T08:21:37Z</time>
      </trkpt>
      <trkpt lat="46.76424" lon="0.43762">
        <ele>123.4</ele>
        <time>2024-10-13T08:21:38Z</time>
      </trkpt>
      <trkpt lat="46.76437" lon="0.43742">
        <ele>123.6</ele>
        <time>2024-10-13T08:21:43Z</time>
      </trkpt>
      <trkpt lat="46.76439" lon="0.43738">
        <ele>123.6</ele>
        <time>2024-10-13T08:21:44Z</time>
      </trkpt>
      <trkpt lat="46.7645" lon="0.43714">
        <ele>124</ele>
        <time>2024-10-13T08:21:49Z</time>
      </trkpt>
      <trkpt lat="46.76461" lon="0.43691">
        <ele>123.4</ele>
        <time>2024-10-13T08:21:54Z</time>
      </trkpt>
      <trkpt lat="46.76466" lon="0.43666">
        <ele>123.6</ele>
        <time>2024-10-13T08:21:59Z</time>
      </trkpt>
      <trkpt lat="46.76472" lon="0.43632">
        <ele>123.4</ele>
        <time>2024-10-13T08:22:05Z</time>
      </trkpt>
      <trkpt lat="46.76479" lon="0.43581">
        <ele>123</ele>
        <time>2024-10-13T08:22:13Z</time>
      </trkpt>
      <trkpt lat="46.76483" lon="0.43546">
        <ele>122.2</ele>
        <time>2024-10-13T08:22:19Z</time>
      </trkpt>
      <trkpt lat="46.76484" lon="0.43537">
        <ele>121.8</ele>
        <time>2024-10-13T08:22:21Z</time>
      </trkpt>
      <trkpt lat="46.76483" lon="0.43527">
        <ele>121.6</ele>
        <time>2024-10-13T08:22:25Z</time>
      </trkpt>
      <trkpt lat="46.76475" lon="0.43516">
        <ele>121.6</ele>
        <time>2024-10-13T08:22:30Z</time>
      </trkpt>
      <trkpt lat="46.76472" lon="0.43512">
        <ele>121</ele>
        <time>2024-10-13T08:22:32Z</time>
      </trkpt>
      <trkpt lat="46.76468" lon="0.43503">
        <ele>119.8</ele>
        <time>2024-10-13T08:22:35Z</time>
      </trkpt>
      <trkpt lat="46.76467" lon="0.43501">
        <ele>119.6</ele>
        <time>2024-10-13T08:22:36Z</time>
      </trkpt>
      <trkpt lat="46.76466" lon="0.43497">
        <ele>118.8</ele>
        <time>2024-10-13T08:22:38Z</time>
      </trkpt>
      <trkpt lat="46.76461" lon="0.43487">
        <ele>117.4</ele>
        <time>2024-10-13T08:22:41Z</time>
      </trkpt>
      <trkpt lat="46.76459" lon="0.43474">
        <ele>116.4</ele>
        <time>2024-10-13T08:22:44Z</time>
      </trkpt>
      <trkpt lat="46.76458" lon="0.43468">
        <ele>116.4</ele>
        <time>2024-10-13T08:22:46Z</time>
      </trkpt>
      <trkpt lat="46.76451" lon="0.43457">
        <ele>117</ele>
        <time>2024-10-13T08:22:53Z</time>
      </trkpt>
      <trkpt lat="46.76445" lon="0.43458">
        <ele>115</ele>
        <time>2024-10-13T08:22:58Z</time>
      </trkpt>
      <trkpt lat="46.76441" lon="0.43457">
        <ele>114.4</ele>
        <time>2024-10-13T08:23:00Z</time>
      </trkpt>
      <trkpt lat="46.76436" lon="0.43454">
        <ele>113.4</ele>
        <time>2024-10-13T08:23:02Z</time>
      </trkpt>
      <trkpt lat="46.76433" lon="0.43452">
        <ele>113</ele>
        <time>2024-10-13T08:23:03Z</time>
      </trkpt>
      <trkpt lat="46.76432" lon="0.43449">
        <ele>112.4</ele>
        <time>2024-10-13T08:23:04Z</time>
      </trkpt>
      <trkpt lat="46.76427" lon="0.43438">
        <ele>112</ele>
        <time>2024-10-13T08:23:07Z</time>
      </trkpt>
      <trkpt lat="46.7642" lon="0.43425">
        <ele>114</ele>
        <time>2024-10-13T08:23:12Z</time>
      </trkpt>
      <trkpt lat="46.76414" lon="0.43411">
        <ele>115.2</ele>
        <time>2024-10-13T08:23:17Z</time>
      </trkpt>
      <trkpt lat="46.76411" lon="0.43405">
        <ele>115.4</ele>
        <time>2024-10-13T08:23:19Z</time>
      </trkpt>
      <trkpt lat="46.76409" lon="0.43399">
        <ele>116.2</ele>
        <time>2024-10-13T08:23:21Z</time>
      </trkpt>
      <trkpt lat="46.76402" lon="0.43383">
        <ele>117</ele>
        <time>2024-10-13T08:23:25Z</time>
      </trkpt>
      <trkpt lat="46.76398" lon="0.43378">
        <ele>117</ele>
        <time>2024-10-13T08:23:26Z</time>
      </trkpt>
      <trkpt lat="46.76391" lon="0.43368">
        <ele>117</ele>
        <time>2024-10-13T08:23:30Z</time>
      </trkpt>
      <trkpt lat="46.76386" lon="0.4336">
        <ele>117.2</ele>
        <time>2024-10-13T08:23:33Z</time>
      </trkpt>
      <trkpt lat="46.76379" lon="0.43345">
        <ele>117.4</ele>
        <time>2024-10-13T08:23:37Z</time>
      </trkpt>
      <trkpt lat="46.76365" lon="0.43326">
        <ele>117.6</ele>
        <time>2024-10-13T08:23:44Z</time>
      </trkpt>
      <trkpt lat="46.76354" lon="0.43313">
        <ele>117</ele>
        <time>2024-10-13T08:23:49Z</time>
      </trkpt>
      <trkpt lat="46.76339" lon="0.43293">
        <ele>116.2</ele>
        <time>2024-10-13T08:23:56Z</time>
      </trkpt>
      <trkpt lat="46.76328" lon="0.43281">
        <ele>114.8</ele>
        <time>2024-10-13T08:24:01Z</time>
      </trkpt>
      <trkpt lat="46.76321" lon="0.43274">
        <ele>114.4</ele>
        <time>2024-10-13T08:24:03Z</time>
      </trkpt>
      <trkpt lat="46.76317" lon="0.43271">
        <ele>113.6</ele>
        <time>2024-10-13T08:24:04Z</time>
      </trkpt>
      <trkpt lat="46.76296" lon="0.43252">
        <ele>112.6</ele>
        <time>2024-10-13T08:24:09Z</time>
      </trkpt>
      <trkpt lat="46.76278" lon="0.43241">
        <ele>112.4</ele>
        <time>2024-10-13T08:24:14Z</time>
      </trkpt>
      <trkpt lat="46.76259" lon="0.43236">
        <ele>111.4</ele>
        <time>2024-10-13T08:24:18Z</time>
      </trkpt>
      <trkpt lat="46.76255" lon="0.43234">
        <ele>111</ele>
        <time>2024-10-13T08:24:19Z</time>
      </trkpt>
      <trkpt lat="46.76246" lon="0.43233">
        <ele>110.4</ele>
        <time>2024-10-13T08:24:22Z</time>
      </trkpt>
      <trkpt lat="46.76241" lon="0.43231">
        <ele>110</ele>
        <time>2024-10-13T08:24:24Z</time>
      </trkpt>
      <trkpt lat="46.76238" lon="0.43229">
        <ele>109.2</ele>
        <time>2024-10-13T08:24:25Z</time>
      </trkpt>
      <trkpt lat="46.76227" lon="0.43218">
        <ele>108.8</ele>
        <time>2024-10-13T08:24:29Z</time>
      </trkpt>
      <trkpt lat="46.76222" lon="0.4321">
        <ele>108.8</ele>
        <time>2024-10-13T08:24:31Z</time>
      </trkpt>
      <trkpt lat="46.76211" lon="0.43193">
        <ele>109</ele>
        <time>2024-10-13T08:24:35Z</time>
      </trkpt>
      <trkpt lat="46.76192" lon="0.43161">
        <ele>110.2</ele>
        <time>2024-10-13T08:24:42Z</time>
      </trkpt>
      <trkpt lat="46.76189" lon="0.43155">
        <ele>110.4</ele>
        <time>2024-10-13T08:24:43Z</time>
      </trkpt>
      <trkpt lat="46.76171" lon="0.43115">
        <ele>111</ele>
        <time>2024-10-13T08:24:50Z</time>
      </trkpt>
      <trkpt lat="46.76167" lon="0.43105">
        <ele>111.2</ele>
        <time>2024-10-13T08:24:52Z</time>
      </trkpt>
      <trkpt lat="46.76161" lon="0.43095">
        <ele>111.2</ele>
        <time>2024-10-13T08:24:54Z</time>
      </trkpt>
      <trkpt lat="46.76158" lon="0.43091">
        <ele>111.2</ele>
        <time>2024-10-13T08:24:55Z</time>
      </trkpt>
      <trkpt lat="46.76138" lon="0.43079">
        <ele>111.2</ele>
        <time>2024-10-13T08:25:01Z</time>
      </trkpt>
      <trkpt lat="46.76133" lon="0.43079">
        <ele>111.4</ele>
        <time>2024-10-13T08:25:02Z</time>
      </trkpt>
      <trkpt lat="46.76128" lon="0.43078">
        <ele>111.4</ele>
        <time>2024-10-13T08:25:03Z</time>
      </trkpt>
      <trkpt lat="46.76118" lon="0.43078">
        <ele>111.8</ele>
        <time>2024-10-13T08:25:05Z</time>
      </trkpt>
      <trkpt lat="46.76095" lon="0.43078">
        <ele>112.2</ele>
        <time>2024-10-13T08:25:10Z</time>
      </trkpt>
      <trkpt lat="46.76086" lon="0.43077">
        <ele>112.4</ele>
        <time>2024-10-13T08:25:13Z</time>
      </trkpt>
      <trkpt lat="46.7608" lon="0.43075">
        <ele>112.6</ele>
        <time>2024-10-13T08:25:15Z</time>
      </trkpt>
      <trkpt lat="46.76071" lon="0.43074">
        <ele>113</ele>
        <time>2024-10-13T08:25:17Z</time>
      </trkpt>
      <trkpt lat="46.76053" lon="0.43077">
        <ele>113.4</ele>
        <time>2024-10-13T08:25:21Z</time>
      </trkpt>
      <trkpt lat="46.76046" lon="0.43078">
        <ele>114.2</ele>
        <time>2024-10-13T08:25:24Z</time>
      </trkpt>
      <trkpt lat="46.76036" lon="0.43078">
        <ele>114.6</ele>
        <time>2024-10-13T08:25:28Z</time>
      </trkpt>
      <trkpt lat="46.76029" lon="0.43077">
        <ele>115</ele>
        <time>2024-10-13T08:25:31Z</time>
      </trkpt>
      <trkpt lat="46.76019" lon="0.43069">
        <ele>115.6</ele>
        <time>2024-10-13T08:25:35Z</time>
      </trkpt>
      <trkpt lat="46.76009" lon="0.43071">
        <ele>115.8</ele>
        <time>2024-10-13T08:25:37Z</time>
      </trkpt>
      <trkpt lat="46.75986" lon="0.43068">
        <ele>116.4</ele>
        <time>2024-10-13T08:25:44Z</time>
      </trkpt>
      <trkpt lat="46.75981" lon="0.43067">
        <ele>116.8</ele>
        <time>2024-10-13T08:25:46Z</time>
      </trkpt>
      <trkpt lat="46.75965" lon="0.43064">
        <ele>117.4</ele>
        <time>2024-10-13T08:25:52Z</time>
      </trkpt>
      <trkpt lat="46.75959" lon="0.43063">
        <ele>117.8</ele>
        <time>2024-10-13T08:25:54Z</time>
      </trkpt>
      <trkpt lat="46.75943" lon="0.43063">
        <ele>118.8</ele>
        <time>2024-10-13T08:25:59Z</time>
      </trkpt>
      <trkpt lat="46.75941" lon="0.43063">
        <ele>118.8</ele>
        <time>2024-10-13T08:26:00Z</time>
      </trkpt>
      <trkpt lat="46.75914" lon="0.43069">
        <ele>119.4</ele>
        <time>2024-10-13T08:26:06Z</time>
      </trkpt>
      <trkpt lat="46.75905" lon="0.4307">
        <ele>119.8</ele>
        <time>2024-10-13T08:26:10Z</time>
      </trkpt>
      <trkpt lat="46.75899" lon="0.43072">
        <ele>120</ele>
        <time>2024-10-13T08:26:11Z</time>
      </trkpt>
      <trkpt lat="46.75895" lon="0.43075">
        <ele>120.4</ele>
        <time>2024-10-13T08:26:12Z</time>
      </trkpt>
      <trkpt lat="46.75883" lon="0.43078">
        <ele>121.2</ele>
        <time>2024-10-13T08:26:16Z</time>
      </trkpt>
      <trkpt lat="46.75872" lon="0.4308">
        <ele>122</ele>
        <time>2024-10-13T08:26:20Z</time>
      </trkpt>
      <trkpt lat="46.75871" lon="0.4308">
        <ele>122.2</ele>
        <time>2024-10-13T08:26:21Z</time>
      </trkpt>
      <trkpt lat="46.75859" lon="0.43084">
        <ele>123</ele>
        <time>2024-10-13T08:26:28Z</time>
      </trkpt>
      <trkpt lat="46.75855" lon="0.43085">
        <ele>123.4</ele>
        <time>2024-10-13T08:26:30Z</time>
      </trkpt>
      <trkpt lat="46.75843" lon="0.43086">
        <ele>124</ele>
        <time>2024-10-13T08:26:33Z</time>
      </trkpt>
      <trkpt lat="46.75824" lon="0.43088">
        <ele>124.6</ele>
        <time>2024-10-13T08:26:38Z</time>
      </trkpt>
      <trkpt lat="46.75807" lon="0.43094">
        <ele>124.6</ele>
        <time>2024-10-13T08:26:41Z</time>
      </trkpt>
      <trkpt lat="46.75779" lon="0.43101">
        <ele>125.6</ele>
        <time>2024-10-13T08:26:47Z</time>
      </trkpt>
      <trkpt lat="46.75773" lon="0.43102">
        <ele>125.8</ele>
        <time>2024-10-13T08:26:48Z</time>
      </trkpt>
      <trkpt lat="46.7574" lon="0.43109">
        <ele>126.6</ele>
        <time>2024-10-13T08:26:55Z</time>
      </trkpt>
      <trkpt lat="46.75732" lon="0.43109">
        <ele>126.8</ele>
        <time>2024-10-13T08:26:57Z</time>
      </trkpt>
      <trkpt lat="46.75709" lon="0.43107">
        <ele>127.2</ele>
        <time>2024-10-13T08:27:02Z</time>
      </trkpt>
      <trkpt lat="46.75678" lon="0.43103">
        <ele>127.8</ele>
        <time>2024-10-13T08:27:09Z</time>
      </trkpt>
      <trkpt lat="46.75644" lon="0.43094">
        <ele>128.2</ele>
        <time>2024-10-13T08:27:17Z</time>
      </trkpt>
      <trkpt lat="46.75617" lon="0.43082">
        <ele>128.2</ele>
        <time>2024-10-13T08:27:24Z</time>
      </trkpt>
      <trkpt lat="46.7561" lon="0.43078">
        <ele>128.2</ele>
        <time>2024-10-13T08:27:26Z</time>
      </trkpt>
      <trkpt lat="46.75604" lon="0.43071">
        <ele>128.2</ele>
        <time>2024-10-13T08:27:28Z</time>
      </trkpt>
      <trkpt lat="46.75602" lon="0.43066">
        <ele>128.2</ele>
        <time>2024-10-13T08:27:29Z</time>
      </trkpt>
      <trkpt lat="46.75579" lon="0.43031">
        <ele>128.6</ele>
        <time>2024-10-13T08:27:37Z</time>
      </trkpt>
      <trkpt lat="46.75576" lon="0.43026">
        <ele>128.8</ele>
        <time>2024-10-13T08:27:38Z</time>
      </trkpt>
      <trkpt lat="46.75555" lon="0.42998">
        <ele>129.2</ele>
        <time>2024-10-13T08:27:44Z</time>
      </trkpt>
      <trkpt lat="46.7553" lon="0.42972">
        <ele>129.8</ele>
        <time>2024-10-13T08:27:50Z</time>
      </trkpt>
      <trkpt lat="46.75502" lon="0.42943">
        <ele>130.4</ele>
        <time>2024-10-13T08:27:57Z</time>
      </trkpt>
      <trkpt lat="46.75495" lon="0.42937">
        <ele>130.2</ele>
        <time>2024-10-13T08:27:59Z</time>
      </trkpt>
      <trkpt lat="46.7548" lon="0.4293">
        <ele>131</ele>
        <time>2024-10-13T08:28:02Z</time>
      </trkpt>
      <trkpt lat="46.75447" lon="0.42914">
        <ele>132</ele>
        <time>2024-10-13T08:28:09Z</time>
      </trkpt>
      <trkpt lat="46.75433" lon="0.42906">
        <ele>132.2</ele>
        <time>2024-10-13T08:28:12Z</time>
      </trkpt>
      <trkpt lat="46.75422" lon="0.42899">
        <ele>132.8</ele>
        <time>2024-10-13T08:28:15Z</time>
      </trkpt>
      <trkpt lat="46.75405" lon="0.42892">
        <ele>133.2</ele>
        <time>2024-10-13T08:28:19Z</time>
      </trkpt>
      <trkpt lat="46.75385" lon="0.42885">
        <ele>133.6</ele>
        <time>2024-10-13T08:28:23Z</time>
      </trkpt>
      <trkpt lat="46.75345" lon="0.42871">
        <ele>133.8</ele>
        <time>2024-10-13T08:28:30Z</time>
      </trkpt>
      <trkpt lat="46.75308" lon="0.42865">
        <ele>133.6</ele>
        <time>2024-10-13T08:28:36Z</time>
      </trkpt>
      <trkpt lat="46.75302" lon="0.42865">
        <ele>133.8</ele>
        <time>2024-10-13T08:28:37Z</time>
      </trkpt>
      <trkpt lat="46.75286" lon="0.42868">
        <ele>133.8</ele>
        <time>2024-10-13T08:28:40Z</time>
      </trkpt>
      <trkpt lat="46.75264" lon="0.42875">
        <ele>134.2</ele>
        <time>2024-10-13T08:28:44Z</time>
      </trkpt>
      <trkpt lat="46.75259" lon="0.42877">
        <ele>134.2</ele>
        <time>2024-10-13T08:28:45Z</time>
      </trkpt>
      <trkpt lat="46.75231" lon="0.42888">
        <ele>134.8</ele>
        <time>2024-10-13T08:28:51Z</time>
      </trkpt>
      <trkpt lat="46.75219" lon="0.42896">
        <ele>135.2</ele>
        <time>2024-10-13T08:28:54Z</time>
      </trkpt>
      <trkpt lat="46.75205" lon="0.42905">
        <ele>135.4</ele>
        <time>2024-10-13T08:28:57Z</time>
      </trkpt>
      <trkpt lat="46.75178" lon="0.42931">
        <ele>135</ele>
        <time>2024-10-13T08:29:04Z</time>
      </trkpt>
      <trkpt lat="46.75172" lon="0.42939">
        <ele>134.2</ele>
        <time>2024-10-13T08:29:06Z</time>
      </trkpt>
      <trkpt lat="46.75159" lon="0.42955">
        <ele>133.2</ele>
        <time>2024-10-13T08:29:10Z</time>
      </trkpt>
      <trkpt lat="46.75153" lon="0.42963">
        <ele>133</ele>
        <time>2024-10-13T08:29:12Z</time>
      </trkpt>
      <trkpt lat="46.7514" lon="0.42983">
        <ele>132</ele>
        <time>2024-10-13T08:29:17Z</time>
      </trkpt>
      <trkpt lat="46.75137" lon="0.42987">
        <ele>131.8</ele>
        <time>2024-10-13T08:29:18Z</time>
      </trkpt>
      <trkpt lat="46.75121" lon="0.43014">
        <ele>130.6</ele>
        <time>2024-10-13T08:29:23Z</time>
      </trkpt>
      <trkpt lat="46.75115" lon="0.43025">
        <ele>130</ele>
        <time>2024-10-13T08:29:25Z</time>
      </trkpt>
      <trkpt lat="46.75102" lon="0.43047">
        <ele>129.6</ele>
        <time>2024-10-13T08:29:28Z</time>
      </trkpt>
      <trkpt lat="46.75095" lon="0.43063">
        <ele>129.2</ele>
        <time>2024-10-13T08:29:30Z</time>
      </trkpt>
      <trkpt lat="46.7509" lon="0.43072">
        <ele>128.6</ele>
        <time>2024-10-13T08:29:31Z</time>
      </trkpt>
      <trkpt lat="46.75076" lon="0.431">
        <ele>127.4</ele>
        <time>2024-10-13T08:29:34Z</time>
      </trkpt>
      <trkpt lat="46.75067" lon="0.4312">
        <ele>126.8</ele>
        <time>2024-10-13T08:29:36Z</time>
      </trkpt>
      <trkpt lat="46.7506" lon="0.4314">
        <ele>126.2</ele>
        <time>2024-10-13T08:29:38Z</time>
      </trkpt>
      <trkpt lat="46.7505" lon="0.43167">
        <ele>125.2</ele>
        <time>2024-10-13T08:29:41Z</time>
      </trkpt>
      <trkpt lat="46.75047" lon="0.43175">
        <ele>124.6</ele>
        <time>2024-10-13T08:29:42Z</time>
      </trkpt>
      <trkpt lat="46.75039" lon="0.43193">
        <ele>123.8</ele>
        <time>2024-10-13T08:29:44Z</time>
      </trkpt>
      <trkpt lat="46.7503" lon="0.43211">
        <ele>122.4</ele>
        <time>2024-10-13T08:29:46Z</time>
      </trkpt>
      <trkpt lat="46.75024" lon="0.43221">
        <ele>121.8</ele>
        <time>2024-10-13T08:29:47Z</time>
      </trkpt>
      <trkpt lat="46.75013" lon="0.43242">
        <ele>120.8</ele>
        <time>2024-10-13T08:29:49Z</time>
      </trkpt>
      <trkpt lat="46.75003" lon="0.43265">
        <ele>119.6</ele>
        <time>2024-10-13T08:29:51Z</time>
      </trkpt>
      <trkpt lat="46.74997" lon="0.43277">
        <ele>119</ele>
        <time>2024-10-13T08:29:52Z</time>
      </trkpt>
      <trkpt lat="46.74989" lon="0.43299">
        <ele>118.4</ele>
        <time>2024-10-13T08:29:54Z</time>
      </trkpt>
      <trkpt lat="46.74977" lon="0.4333">
        <ele>117.2</ele>
        <time>2024-10-13T08:29:57Z</time>
      </trkpt>
      <trkpt lat="46.74975" lon="0.43341">
        <ele>116.8</ele>
        <time>2024-10-13T08:29:58Z</time>
      </trkpt>
      <trkpt lat="46.74968" lon="0.43358">
        <ele>115.8</ele>
        <time>2024-10-13T08:30:00Z</time>
      </trkpt>
      <trkpt lat="46.74965" lon="0.43367">
        <ele>115.4</ele>
        <time>2024-10-13T08:30:01Z</time>
      </trkpt>
      <trkpt lat="46.74951" lon="0.43397">
        <ele>114.4</ele>
        <time>2024-10-13T08:30:04Z</time>
      </trkpt>
      <trkpt lat="46.74941" lon="0.43429">
        <ele>113.2</ele>
        <time>2024-10-13T08:30:07Z</time>
      </trkpt>
      <trkpt lat="46.74928" lon="0.43472">
        <ele>112</ele>
        <time>2024-10-13T08:30:11Z</time>
      </trkpt>
      <trkpt lat="46.74918" lon="0.435">
        <ele>111.4</ele>
        <time>2024-10-13T08:30:14Z</time>
      </trkpt>
      <trkpt lat="46.7491" lon="0.43526">
        <ele>111</ele>
        <time>2024-10-13T08:30:17Z</time>
      </trkpt>
      <trkpt lat="46.74904" lon="0.4355">
        <ele>110.6</ele>
        <time>2024-10-13T08:30:20Z</time>
      </trkpt>
      <trkpt lat="46.74894" lon="0.43601">
        <ele>110.4</ele>
        <time>2024-10-13T08:30:26Z</time>
      </trkpt>
      <trkpt lat="46.74891" lon="0.43621">
        <ele>110.6</ele>
        <time>2024-10-13T08:30:30Z</time>
      </trkpt>
      <trkpt lat="46.74889" lon="0.43633">
        <ele>111.8</ele>
        <time>2024-10-13T08:30:36Z</time>
      </trkpt>
      <trkpt lat="46.74889" lon="0.43634">
        <ele>111.8</ele>
        <time>2024-10-13T08:30:37Z</time>
      </trkpt>
      <trkpt lat="46.74889" lon="0.43629">
        <ele>111.6</ele>
        <time>2024-10-13T08:30:44Z</time>
      </trkpt>
      <trkpt lat="46.74892" lon="0.43612">
        <ele>110.8</ele>
        <time>2024-10-13T08:30:49Z</time>
      </trkpt>
      <trkpt lat="46.74894" lon="0.43599">
        <ele>110.2</ele>
        <time>2024-10-13T08:30:51Z</time>
      </trkpt>
      <trkpt lat="46.74897" lon="0.43586">
        <ele>109.8</ele>
        <time>2024-10-13T08:30:53Z</time>
      </trkpt>
      <trkpt lat="46.74898" lon="0.43579">
        <ele>109.8</ele>
        <time>2024-10-13T08:30:54Z</time>
      </trkpt>
      <trkpt lat="46.74902" lon="0.43548">
        <ele>110.4</ele>
        <time>2024-10-13T08:30:59Z</time>
      </trkpt>
      <trkpt lat="46.74904" lon="0.43537">
        <ele>110.4</ele>
        <time>2024-10-13T08:31:01Z</time>
      </trkpt>
      <trkpt lat="46.74912" lon="0.43517">
        <ele>110.4</ele>
        <time>2024-10-13T08:31:06Z</time>
      </trkpt>
      <trkpt lat="46.74914" lon="0.43517">
        <ele>110.4</ele>
        <time>2024-10-13T08:31:07Z</time>
      </trkpt>
      <trkpt lat="46.74921" lon="0.43526">
        <ele>110.6</ele>
        <time>2024-10-13T08:31:10Z</time>
      </trkpt>
      <trkpt lat="46.74934" lon="0.43545">
        <ele>110.4</ele>
        <time>2024-10-13T08:31:14Z</time>
      </trkpt>
      <trkpt lat="46.74963" lon="0.43571">
        <ele>110</ele>
        <time>2024-10-13T08:31:20Z</time>
      </trkpt>
      <trkpt lat="46.75002" lon="0.43607">
        <ele>109</ele>
        <time>2024-10-13T08:31:28Z</time>
      </trkpt>
      <trkpt lat="46.75013" lon="0.43616">
        <ele>108.8</ele>
        <time>2024-10-13T08:31:30Z</time>
      </trkpt>
      <trkpt lat="46.75044" lon="0.43646">
        <ele>107.6</ele>
        <time>2024-10-13T08:31:36Z</time>
      </trkpt>
      <trkpt lat="46.7508" lon="0.43677">
        <ele>106.2</ele>
        <time>2024-10-13T08:31:42Z</time>
      </trkpt>
      <trkpt lat="46.75086" lon="0.43682">
        <ele>106</ele>
        <time>2024-10-13T08:31:43Z</time>
      </trkpt>
      <trkpt lat="46.7511" lon="0.43706">
        <ele>105.2</ele>
        <time>2024-10-13T08:31:47Z</time>
      </trkpt>
      <trkpt lat="46.75126" lon="0.43727">
        <ele>104.8</ele>
        <time>2024-10-13T08:31:50Z</time>
      </trkpt>
      <trkpt lat="46.75131" lon="0.43736">
        <ele>104.6</ele>
        <time>2024-10-13T08:31:51Z</time>
      </trkpt>
      <trkpt lat="46.7514" lon="0.43765">
        <ele>104.8</ele>
        <time>2024-10-13T08:31:54Z</time>
      </trkpt>
      <trkpt lat="46.75145" lon="0.438">
        <ele>106</ele>
        <time>2024-10-13T08:31:58Z</time>
      </trkpt>
      <trkpt lat="46.75145" lon="0.43809">
        <ele>106.4</ele>
        <time>2024-10-13T08:31:59Z</time>
      </trkpt>
      <trkpt lat="46.75143" lon="0.43837">
        <ele>107.2</ele>
        <time>2024-10-13T08:32:03Z</time>
      </trkpt>
      <trkpt lat="46.75141" lon="0.43844">
        <ele>107.6</ele>
        <time>2024-10-13T08:32:04Z</time>
      </trkpt>
      <trkpt lat="46.7514" lon="0.4385">
        <ele>108</ele>
        <time>2024-10-13T08:32:05Z</time>
      </trkpt>
      <trkpt lat="46.75137" lon="0.4386">
        <ele>108.8</ele>
        <time>2024-10-13T08:32:07Z</time>
      </trkpt>
      <trkpt lat="46.75132" lon="0.43871">
        <ele>109.6</ele>
        <time>2024-10-13T08:32:10Z</time>
      </trkpt>
      <trkpt lat="46.75129" lon="0.43873">
        <ele>109.8</ele>
        <time>2024-10-13T08:32:11Z</time>
      </trkpt>
      <trkpt lat="46.7512" lon="0.43874">
        <ele>110</ele>
        <time>2024-10-13T08:32:14Z</time>
      </trkpt>
      <trkpt lat="46.75101" lon="0.43866">
        <ele>110.6</ele>
        <time>2024-10-13T08:32:19Z</time>
      </trkpt>
      <trkpt lat="46.75094" lon="0.43862">
        <ele>110.8</ele>
        <time>2024-10-13T08:32:21Z</time>
      </trkpt>
      <trkpt lat="46.75073" lon="0.43855">
        <ele>111.4</ele>
        <time>2024-10-13T08:32:26Z</time>
      </trkpt>
      <trkpt lat="46.75065" lon="0.43853">
        <ele>111.8</ele>
        <time>2024-10-13T08:32:28Z</time>
      </trkpt>
      <trkpt lat="46.75039" lon="0.4385">
        <ele>112.8</ele>
        <time>2024-10-13T08:32:34Z</time>
      </trkpt>
      <trkpt lat="46.7503" lon="0.43849">
        <ele>112.8</ele>
        <time>2024-10-13T08:32:36Z</time>
      </trkpt>
      <trkpt lat="46.74998" lon="0.43852">
        <ele>113.8</ele>
        <time>2024-10-13T08:32:43Z</time>
      </trkpt>
      <trkpt lat="46.74994" lon="0.43853">
        <ele>114</ele>
        <time>2024-10-13T08:32:44Z</time>
      </trkpt>
      <trkpt lat="46.74954" lon="0.43859">
        <ele>114.2</ele>
        <time>2024-10-13T08:32:52Z</time>
      </trkpt>
      <trkpt lat="46.74916" lon="0.43861">
        <ele>113.6</ele>
        <time>2024-10-13T08:32:59Z</time>
      </trkpt>
      <trkpt lat="46.74896" lon="0.4386">
        <ele>113.4</ele>
        <time>2024-10-13T08:33:03Z</time>
      </trkpt>
      <trkpt lat="46.74889" lon="0.43866">
        <ele>113.4</ele>
        <time>2024-10-13T08:33:05Z</time>
      </trkpt>
      <trkpt lat="46.74889" lon="0.43879">
        <ele>113.4</ele>
        <time>2024-10-13T08:33:07Z</time>
      </trkpt>
      <trkpt lat="46.7489" lon="0.43886">
        <ele>113.4</ele>
        <time>2024-10-13T08:33:08Z</time>
      </trkpt>
      <trkpt lat="46.74897" lon="0.4392">
        <ele>112.8</ele>
        <time>2024-10-13T08:33:12Z</time>
      </trkpt>
      <trkpt lat="46.74901" lon="0.43938">
        <ele>112.4</ele>
        <time>2024-10-13T08:33:14Z</time>
      </trkpt>
      <trkpt lat="46.74913" lon="0.43981">
        <ele>111.8</ele>
        <time>2024-10-13T08:33:19Z</time>
      </trkpt>
      <trkpt lat="46.74916" lon="0.43989">
        <ele>111.6</ele>
        <time>2024-10-13T08:33:20Z</time>
      </trkpt>
      <trkpt lat="46.74923" lon="0.44006">
        <ele>111.2</ele>
        <time>2024-10-13T08:33:22Z</time>
      </trkpt>
      <trkpt lat="46.7494" lon="0.44032">
        <ele>110.8</ele>
        <time>2024-10-13T08:33:26Z</time>
      </trkpt>
      <trkpt lat="46.74943" lon="0.44039">
        <ele>110.8</ele>
        <time>2024-10-13T08:33:27Z</time>
      </trkpt>
      <trkpt lat="46.74943" lon="0.44046">
        <ele>110.8</ele>
        <time>2024-10-13T08:33:28Z</time>
      </trkpt>
      <trkpt lat="46.74941" lon="0.44052">
        <ele>110.8</ele>
        <time>2024-10-13T08:33:29Z</time>
      </trkpt>
      <trkpt lat="46.74938" lon="0.44058">
        <ele>110.8</ele>
        <time>2024-10-13T08:33:30Z</time>
      </trkpt>
      <trkpt lat="46.74923" lon="0.44083">
        <ele>111.4</ele>
        <time>2024-10-13T08:33:34Z</time>
      </trkpt>
      <trkpt lat="46.74919" lon="0.44089">
        <ele>111.6</ele>
        <time>2024-10-13T08:33:35Z</time>
      </trkpt>
      <trkpt lat="46.74896" lon="0.44122">
        <ele>112.2</ele>
        <time>2024-10-13T08:33:40Z</time>
      </trkpt>
      <trkpt lat="46.74858" lon="0.44179">
        <ele>111.8</ele>
        <time>2024-10-13T08:33:48Z</time>
      </trkpt>
      <trkpt lat="46.74854" lon="0.44186">
        <ele>111.6</ele>
        <time>2024-10-13T08:33:49Z</time>
      </trkpt>
      <trkpt lat="46.74818" lon="0.44231">
        <ele>111</ele>
        <time>2024-10-13T08:33:56Z</time>
      </trkpt>
      <trkpt lat="46.74812" lon="0.44237">
        <ele>110.6</ele>
        <time>2024-10-13T08:33:57Z</time>
      </trkpt>
      <trkpt lat="46.74773" lon="0.44278">
        <ele>109.4</ele>
        <time>2024-10-13T08:34:04Z</time>
      </trkpt>
      <trkpt lat="46.74743" lon="0.44318">
        <ele>108.4</ele>
        <time>2024-10-13T08:34:10Z</time>
      </trkpt>
      <trkpt lat="46.74733" lon="0.4433">
        <ele>107.8</ele>
        <time>2024-10-13T08:34:12Z</time>
      </trkpt>
      <trkpt lat="46.74724" lon="0.44343">
        <ele>107.2</ele>
        <time>2024-10-13T08:34:14Z</time>
      </trkpt>
      <trkpt lat="46.74705" lon="0.44369">
        <ele>106</ele>
        <time>2024-10-13T08:34:18Z</time>
      </trkpt>
      <trkpt lat="46.74698" lon="0.44381">
        <ele>105.4</ele>
        <time>2024-10-13T08:34:20Z</time>
      </trkpt>
      <trkpt lat="46.74696" lon="0.44386">
        <ele>105</ele>
        <time>2024-10-13T08:34:21Z</time>
      </trkpt>
      <trkpt lat="46.74699" lon="0.44397">
        <ele>104.6</ele>
        <time>2024-10-13T08:34:24Z</time>
      </trkpt>
      <trkpt lat="46.74701" lon="0.44399">
        <ele>104.6</ele>
        <time>2024-10-13T08:34:25Z</time>
      </trkpt>
      <trkpt lat="46.74712" lon="0.44401">
        <ele>104.6</ele>
        <time>2024-10-13T08:34:28Z</time>
      </trkpt>
      <trkpt lat="46.74723" lon="0.44404">
        <ele>104.8</ele>
        <time>2024-10-13T08:34:31Z</time>
      </trkpt>
      <trkpt lat="46.74729" lon="0.4441">
        <ele>105.4</ele>
        <time>2024-10-13T08:34:33Z</time>
      </trkpt>
      <trkpt lat="46.74733" lon="0.44417">
        <ele>106</ele>
        <time>2024-10-13T08:34:35Z</time>
      </trkpt>
      <trkpt lat="46.7474" lon="0.44426">
        <ele>106.8</ele>
        <time>2024-10-13T08:34:38Z</time>
      </trkpt>
      <trkpt lat="46.74743" lon="0.44428">
        <ele>107.4</ele>
        <time>2024-10-13T08:34:39Z</time>
      </trkpt>
      <trkpt lat="46.74752" lon="0.44439">
        <ele>108.6</ele>
        <time>2024-10-13T08:34:43Z</time>
      </trkpt>
      <trkpt lat="46.74755" lon="0.44441">
        <ele>108.8</ele>
        <time>2024-10-13T08:34:44Z</time>
      </trkpt>
      <trkpt lat="46.74763" lon="0.44448">
        <ele>109.8</ele>
        <time>2024-10-13T08:34:47Z</time>
      </trkpt>
      <trkpt lat="46.74776" lon="0.4446">
        <ele>111</ele>
        <time>2024-10-13T08:34:52Z</time>
      </trkpt>
      <trkpt lat="46.74785" lon="0.4447">
        <ele>112.2</ele>
        <time>2024-10-13T08:34:56Z</time>
      </trkpt>
      <trkpt lat="46.74791" lon="0.44477">
        <ele>113</ele>
        <time>2024-10-13T08:34:59Z</time>
      </trkpt>
      <trkpt lat="46.74792" lon="0.44479">
        <ele>113.2</ele>
        <time>2024-10-13T08:35:00Z</time>
      </trkpt>
      <trkpt lat="46.748" lon="0.44492">
        <ele>114.6</ele>
        <time>2024-10-13T08:35:05Z</time>
      </trkpt>
      <trkpt lat="46.74802" lon="0.44494">
        <ele>114.8</ele>
        <time>2024-10-13T08:35:06Z</time>
      </trkpt>
      <trkpt lat="46.74806" lon="0.44501">
        <ele>115.8</ele>
        <time>2024-10-13T08:35:09Z</time>
      </trkpt>
      <trkpt lat="46.74811" lon="0.44511">
        <ele>117</ele>
        <time>2024-10-13T08:35:13Z</time>
      </trkpt>
      <trkpt lat="46.74812" lon="0.44513">
        <ele>117.2</ele>
        <time>2024-10-13T08:35:14Z</time>
      </trkpt>
      <trkpt lat="46.74815" lon="0.44518">
        <ele>118</ele>
        <time>2024-10-13T08:35:16Z</time>
      </trkpt>
      <trkpt lat="46.74822" lon="0.44532">
        <ele>119.6</ele>
        <time>2024-10-13T08:35:22Z</time>
      </trkpt>
      <trkpt lat="46.74831" lon="0.44543">
        <ele>120.6</ele>
        <time>2024-10-13T08:35:27Z</time>
      </trkpt>
      <trkpt lat="46.74834" lon="0.44548">
        <ele>121</ele>
        <time>2024-10-13T08:35:29Z</time>
      </trkpt>
      <trkpt lat="46.74836" lon="0.44553">
        <ele>121.8</ele>
        <time>2024-10-13T08:35:31Z</time>
      </trkpt>
      <trkpt lat="46.7484" lon="0.44565">
        <ele>122.8</ele>
        <time>2024-10-13T08:35:35Z</time>
      </trkpt>
      <trkpt lat="46.74842" lon="0.44571">
        <ele>123.2</ele>
        <time>2024-10-13T08:35:37Z</time>
      </trkpt>
      <trkpt lat="46.74854" lon="0.44595">
        <ele>123.8</ele>
        <time>2024-10-13T08:35:44Z</time>
      </trkpt>
      <trkpt lat="46.74856" lon="0.44599">
        <ele>123.8</ele>
        <time>2024-10-13T08:35:45Z</time>
      </trkpt>
      <trkpt lat="46.74868" lon="0.4462">
        <ele>124.8</ele>
        <time>2024-10-13T08:35:51Z</time>
      </trkpt>
      <trkpt lat="46.74873" lon="0.44628">
        <ele>125</ele>
        <time>2024-10-13T08:35:53Z</time>
      </trkpt>
      <trkpt lat="46.74897" lon="0.44661">
        <ele>125.4</ele>
        <time>2024-10-13T08:36:02Z</time>
      </trkpt>
      <trkpt lat="46.74904" lon="0.44678">
        <ele>125.4</ele>
        <time>2024-10-13T08:36:06Z</time>
      </trkpt>
      <trkpt lat="46.74903" lon="0.44682">
        <ele>125.6</ele>
        <time>2024-10-13T08:36:07Z</time>
      </trkpt>
      <trkpt lat="46.749" lon="0.44688">
        <ele>126</ele>
        <time>2024-10-13T08:36:09Z</time>
      </trkpt>
      <trkpt lat="46.74893" lon="0.44699">
        <ele>126.2</ele>
        <time>2024-10-13T08:36:12Z</time>
      </trkpt>
      <trkpt lat="46.74877" lon="0.44723">
        <ele>126.6</ele>
        <time>2024-10-13T08:36:19Z</time>
      </trkpt>
      <trkpt lat="46.7487" lon="0.44734">
        <ele>127</ele>
        <time>2024-10-13T08:36:22Z</time>
      </trkpt>
      <trkpt lat="46.74858" lon="0.44753">
        <ele>127.6</ele>
        <time>2024-10-13T08:36:27Z</time>
      </trkpt>
      <trkpt lat="46.74848" lon="0.44783">
        <ele>127.8</ele>
        <time>2024-10-13T08:36:33Z</time>
      </trkpt>
      <trkpt lat="46.74847" lon="0.44789">
        <ele>128</ele>
        <time>2024-10-13T08:36:34Z</time>
      </trkpt>
      <trkpt lat="46.74845" lon="0.44822">
        <ele>128.2</ele>
        <time>2024-10-13T08:36:40Z</time>
      </trkpt>
      <trkpt lat="46.74847" lon="0.44868">
        <ele>128.2</ele>
        <time>2024-10-13T08:36:48Z</time>
      </trkpt>
      <trkpt lat="46.74854" lon="0.44905">
        <ele>128.6</ele>
        <time>2024-10-13T08:36:55Z</time>
      </trkpt>
      <trkpt lat="46.74858" lon="0.44939">
        <ele>128</ele>
        <time>2024-10-13T08:37:02Z</time>
      </trkpt>
      <trkpt lat="46.7486" lon="0.44944">
        <ele>128.2</ele>
        <time>2024-10-13T08:37:04Z</time>
      </trkpt>
      <trkpt lat="46.74863" lon="0.44946">
        <ele>128.2</ele>
        <time>2024-10-13T08:37:06Z</time>
      </trkpt>
      <trkpt lat="46.74881" lon="0.44951">
        <ele>128.4</ele>
        <time>2024-10-13T08:37:12Z</time>
      </trkpt>
      <trkpt lat="46.74905" lon="0.44958">
        <ele>128.2</ele>
        <time>2024-10-13T08:37:19Z</time>
      </trkpt>
      <trkpt lat="46.74912" lon="0.4496">
        <ele>128</ele>
        <time>2024-10-13T08:37:21Z</time>
      </trkpt>
      <trkpt lat="46.74926" lon="0.44964">
        <ele>127.2</ele>
        <time>2024-10-13T08:37:25Z</time>
      </trkpt>
      <trkpt lat="46.74932" lon="0.44967">
        <ele>127</ele>
        <time>2024-10-13T08:37:27Z</time>
      </trkpt>
      <trkpt lat="46.74948" lon="0.44973">
        <ele>125.8</ele>
        <time>2024-10-13T08:37:32Z</time>
      </trkpt>
      <trkpt lat="46.74951" lon="0.44975">
        <ele>125.4</ele>
        <time>2024-10-13T08:37:33Z</time>
      </trkpt>
      <trkpt lat="46.74961" lon="0.44981">
        <ele>124.8</ele>
        <time>2024-10-13T08:37:36Z</time>
      </trkpt>
      <trkpt lat="46.74972" lon="0.44988">
        <ele>123.8</ele>
        <time>2024-10-13T08:37:39Z</time>
      </trkpt>
      <trkpt lat="46.74976" lon="0.44991">
        <ele>123.6</ele>
        <time>2024-10-13T08:37:40Z</time>
      </trkpt>
      <trkpt lat="46.74996" lon="0.45005">
        <ele>122.2</ele>
        <time>2024-10-13T08:37:45Z</time>
      </trkpt>
      <trkpt lat="46.75011" lon="0.45014">
        <ele>121.2</ele>
        <time>2024-10-13T08:37:49Z</time>
      </trkpt>
      <trkpt lat="46.75015" lon="0.45016">
        <ele>120.6</ele>
        <time>2024-10-13T08:37:50Z</time>
      </trkpt>
      <trkpt lat="46.75023" lon="0.45021">
        <ele>120</ele>
        <time>2024-10-13T08:37:52Z</time>
      </trkpt>
      <trkpt lat="46.75041" lon="0.45031">
        <ele>118.8</ele>
        <time>2024-10-13T08:37:55Z</time>
      </trkpt>
      <trkpt lat="46.75053" lon="0.45038">
        <ele>117.6</ele>
        <time>2024-10-13T08:37:57Z</time>
      </trkpt>
      <trkpt lat="46.75064" lon="0.45045">
        <ele>116.4</ele>
        <time>2024-10-13T08:37:59Z</time>
      </trkpt>
      <trkpt lat="46.75074" lon="0.45051">
        <ele>115.2</ele>
        <time>2024-10-13T08:38:01Z</time>
      </trkpt>
      <trkpt lat="46.7509" lon="0.45056">
        <ele>114.4</ele>
        <time>2024-10-13T08:38:04Z</time>
      </trkpt>
      <trkpt lat="46.75095" lon="0.45054">
        <ele>114.2</ele>
        <time>2024-10-13T08:38:05Z</time>
      </trkpt>
      <trkpt lat="46.7511" lon="0.45044">
        <ele>113.6</ele>
        <time>2024-10-13T08:38:09Z</time>
      </trkpt>
      <trkpt lat="46.75115" lon="0.45027">
        <ele>113.2</ele>
        <time>2024-10-13T08:38:12Z</time>
      </trkpt>
      <trkpt lat="46.75118" lon="0.45021">
        <ele>113.2</ele>
        <time>2024-10-13T08:38:13Z</time>
      </trkpt>
      <trkpt lat="46.75119" lon="0.45015">
        <ele>113</ele>
        <time>2024-10-13T08:38:14Z</time>
      </trkpt>
      <trkpt lat="46.75125" lon="0.44992">
        <ele>112</ele>
        <time>2024-10-13T08:38:17Z</time>
      </trkpt>
      <trkpt lat="46.75126" lon="0.44983">
        <ele>111.8</ele>
        <time>2024-10-13T08:38:18Z</time>
      </trkpt>
      <trkpt lat="46.75135" lon="0.44951">
        <ele>111</ele>
        <time>2024-10-13T08:38:23Z</time>
      </trkpt>
      <trkpt lat="46.75138" lon="0.44943">
        <ele>111</ele>
        <time>2024-10-13T08:38:24Z</time>
      </trkpt>
      <trkpt lat="46.75147" lon="0.44907">
        <ele>110</ele>
        <time>2024-10-13T08:38:28Z</time>
      </trkpt>
      <trkpt lat="46.75149" lon="0.44888">
        <ele>109.8</ele>
        <time>2024-10-13T08:38:30Z</time>
      </trkpt>
      <trkpt lat="46.7516" lon="0.44835">
        <ele>109.6</ele>
        <time>2024-10-13T08:38:35Z</time>
      </trkpt>
      <trkpt lat="46.75175" lon="0.44772">
        <ele>109.8</ele>
        <time>2024-10-13T08:38:42Z</time>
      </trkpt>
      <trkpt lat="46.75182" lon="0.4475">
        <ele>110</ele>
        <time>2024-10-13T08:38:45Z</time>
      </trkpt>
      <trkpt lat="46.75186" lon="0.44746">
        <ele>110</ele>
        <time>2024-10-13T08:38:46Z</time>
      </trkpt>
      <trkpt lat="46.7519" lon="0.44744">
        <ele>109.8</ele>
        <time>2024-10-13T08:38:47Z</time>
      </trkpt>
      <trkpt lat="46.75206" lon="0.44738">
        <ele>109.4</ele>
        <time>2024-10-13T08:38:50Z</time>
      </trkpt>
      <trkpt lat="46.75216" lon="0.44732">
        <ele>109</ele>
        <time>2024-10-13T08:38:52Z</time>
      </trkpt>
      <trkpt lat="46.75228" lon="0.44725">
        <ele>108.2</ele>
        <time>2024-10-13T08:38:54Z</time>
      </trkpt>
      <trkpt lat="46.75234" lon="0.4472">
        <ele>107.8</ele>
        <time>2024-10-13T08:38:55Z</time>
      </trkpt>
      <trkpt lat="46.75246" lon="0.44711">
        <ele>107.4</ele>
        <time>2024-10-13T08:38:57Z</time>
      </trkpt>
      <trkpt lat="46.75256" lon="0.44699">
        <ele>106.8</ele>
        <time>2024-10-13T08:38:59Z</time>
      </trkpt>
      <trkpt lat="46.75265" lon="0.44682">
        <ele>105.8</ele>
        <time>2024-10-13T08:39:01Z</time>
      </trkpt>
      <trkpt lat="46.75273" lon="0.44663">
        <ele>104.8</ele>
        <time>2024-10-13T08:39:03Z</time>
      </trkpt>
      <trkpt lat="46.75278" lon="0.44654">
        <ele>104.6</ele>
        <time>2024-10-13T08:39:04Z</time>
      </trkpt>
      <trkpt lat="46.75292" lon="0.44625">
        <ele>103</ele>
        <time>2024-10-13T08:39:07Z</time>
      </trkpt>
      <trkpt lat="46.75298" lon="0.44618">
        <ele>102.4</ele>
        <time>2024-10-13T08:39:08Z</time>
      </trkpt>
      <trkpt lat="46.75305" lon="0.44613">
        <ele>101.8</ele>
        <time>2024-10-13T08:39:09Z</time>
      </trkpt>
      <trkpt lat="46.75328" lon="0.44601">
        <ele>100.4</ele>
        <time>2024-10-13T08:39:12Z</time>
      </trkpt>
      <trkpt lat="46.75351" lon="0.44591">
        <ele>98.6</ele>
        <time>2024-10-13T08:39:15Z</time>
      </trkpt>
      <trkpt lat="46.75366" lon="0.44584">
        <ele>97.6</ele>
        <time>2024-10-13T08:39:17Z</time>
      </trkpt>
      <trkpt lat="46.75374" lon="0.4458">
        <ele>96.6</ele>
        <time>2024-10-13T08:39:18Z</time>
      </trkpt>
      <trkpt lat="46.75382" lon="0.44579">
        <ele>96</ele>
        <time>2024-10-13T08:39:19Z</time>
      </trkpt>
      <trkpt lat="46.7539" lon="0.44579">
        <ele>95.4</ele>
        <time>2024-10-13T08:39:20Z</time>
      </trkpt>
      <trkpt lat="46.75398" lon="0.44581">
        <ele>94.8</ele>
        <time>2024-10-13T08:39:21Z</time>
      </trkpt>
      <trkpt lat="46.75413" lon="0.44591">
        <ele>94.4</ele>
        <time>2024-10-13T08:39:23Z</time>
      </trkpt>
      <trkpt lat="46.75419" lon="0.44598">
        <ele>94.2</ele>
        <time>2024-10-13T08:39:24Z</time>
      </trkpt>
      <trkpt lat="46.75444" lon="0.44634">
        <ele>93</ele>
        <time>2024-10-13T08:39:29Z</time>
      </trkpt>
      <trkpt lat="46.75448" lon="0.44642">
        <ele>92.8</ele>
        <time>2024-10-13T08:39:30Z</time>
      </trkpt>
      <trkpt lat="46.75462" lon="0.44663">
        <ele>92</ele>
        <time>2024-10-13T08:39:33Z</time>
      </trkpt>
      <trkpt lat="46.75473" lon="0.44678">
        <ele>91</ele>
        <time>2024-10-13T08:39:35Z</time>
      </trkpt>
      <trkpt lat="46.75478" lon="0.44686">
        <ele>90.4</ele>
        <time>2024-10-13T08:39:36Z</time>
      </trkpt>
      <trkpt lat="46.75484" lon="0.44695">
        <ele>89.8</ele>
        <time>2024-10-13T08:39:37Z</time>
      </trkpt>
      <trkpt lat="46.75496" lon="0.44711">
        <ele>88.4</ele>
        <time>2024-10-13T08:39:39Z</time>
      </trkpt>
      <trkpt lat="46.75508" lon="0.44729">
        <ele>87.2</ele>
        <time>2024-10-13T08:39:41Z</time>
      </trkpt>
      <trkpt lat="46.75515" lon="0.44739">
        <ele>86</ele>
        <time>2024-10-13T08:39:42Z</time>
      </trkpt>
      <trkpt lat="46.75521" lon="0.44748">
        <ele>84.8</ele>
        <time>2024-10-13T08:39:43Z</time>
      </trkpt>
      <trkpt lat="46.75534" lon="0.44767">
        <ele>83.6</ele>
        <time>2024-10-13T08:39:45Z</time>
      </trkpt>
      <trkpt lat="46.7554" lon="0.44778">
        <ele>81.2</ele>
        <time>2024-10-13T08:39:46Z</time>
      </trkpt>
      <trkpt lat="46.75551" lon="0.448">
        <ele>80.6</ele>
        <time>2024-10-13T08:39:48Z</time>
      </trkpt>
      <trkpt lat="46.75555" lon="0.44811">
        <ele>80</ele>
        <time>2024-10-13T08:39:49Z</time>
      </trkpt>
      <trkpt lat="46.75557" lon="0.44822">
        <ele>79</ele>
        <time>2024-10-13T08:39:50Z</time>
      </trkpt>
      <trkpt lat="46.75557" lon="0.44835">
        <ele>78.4</ele>
        <time>2024-10-13T08:39:51Z</time>
      </trkpt>
      <trkpt lat="46.75556" lon="0.44846">
        <ele>78</ele>
        <time>2024-10-13T08:39:52Z</time>
      </trkpt>
      <trkpt lat="46.75557" lon="0.44874">
        <ele>77.2</ele>
        <time>2024-10-13T08:39:54Z</time>
      </trkpt>
      <trkpt lat="46.75557" lon="0.44891">
        <ele>77</ele>
        <time>2024-10-13T08:39:57Z</time>
      </trkpt>
      <trkpt lat="46.75557" lon="0.44899">
        <ele>76.8</ele>
        <time>2024-10-13T08:39:58Z</time>
      </trkpt>
      <trkpt lat="46.75553" lon="0.44927">
        <ele>76.6</ele>
        <time>2024-10-13T08:40:01Z</time>
      </trkpt>
      <trkpt lat="46.7555" lon="0.44985">
        <ele>76.2</ele>
        <time>2024-10-13T08:40:07Z</time>
      </trkpt>
      <trkpt lat="46.75551" lon="0.45069">
        <ele>76.2</ele>
        <time>2024-10-13T08:40:15Z</time>
      </trkpt>
      <trkpt lat="46.75548" lon="0.45158">
        <ele>75.8</ele>
        <time>2024-10-13T08:40:24Z</time>
      </trkpt>
      <trkpt lat="46.75547" lon="0.45168">
        <ele>75.6</ele>
        <time>2024-10-13T08:40:25Z</time>
      </trkpt>
      <trkpt lat="46.75545" lon="0.45234">
        <ele>75.2</ele>
        <time>2024-10-13T08:40:32Z</time>
      </trkpt>
      <trkpt lat="46.75539" lon="0.4529">
        <ele>75</ele>
        <time>2024-10-13T08:40:38Z</time>
      </trkpt>
      <trkpt lat="46.7553" lon="0.45352">
        <ele>74.8</ele>
        <time>2024-10-13T08:40:45Z</time>
      </trkpt>
      <trkpt lat="46.7552" lon="0.45402">
        <ele>74.4</ele>
        <time>2024-10-13T08:40:51Z</time>
      </trkpt>
      <trkpt lat="46.75508" lon="0.45445">
        <ele>74.6</ele>
        <time>2024-10-13T08:40:57Z</time>
      </trkpt>
      <trkpt lat="46.75508" lon="0.45456">
        <ele>74.4</ele>
        <time>2024-10-13T08:40:59Z</time>
      </trkpt>
      <trkpt lat="46.75513" lon="0.45466">
        <ele>74.2</ele>
        <time>2024-10-13T08:41:01Z</time>
      </trkpt>
      <trkpt lat="46.75521" lon="0.45474">
        <ele>74</ele>
        <time>2024-10-13T08:41:03Z</time>
      </trkpt>
      <trkpt lat="46.75531" lon="0.45484">
        <ele>74</ele>
        <time>2024-10-13T08:41:05Z</time>
      </trkpt>
      <trkpt lat="46.75552" lon="0.45509">
        <ele>73</ele>
        <time>2024-10-13T08:41:09Z</time>
      </trkpt>
      <trkpt lat="46.75562" lon="0.45523">
        <ele>72.4</ele>
        <time>2024-10-13T08:41:11Z</time>
      </trkpt>
      <trkpt lat="46.75575" lon="0.45532">
        <ele>72.2</ele>
        <time>2024-10-13T08:41:13Z</time>
      </trkpt>
      <trkpt lat="46.75585" lon="0.45533">
        <ele>71.8</ele>
        <time>2024-10-13T08:41:15Z</time>
      </trkpt>
      <trkpt lat="46.75594" lon="0.45526">
        <ele>71.6</ele>
        <time>2024-10-13T08:41:17Z</time>
      </trkpt>
      <trkpt lat="46.756" lon="0.45522">
        <ele>71.2</ele>
        <time>2024-10-13T08:41:18Z</time>
      </trkpt>
      <trkpt lat="46.75606" lon="0.45519">
        <ele>71</ele>
        <time>2024-10-13T08:41:19Z</time>
      </trkpt>
      <trkpt lat="46.75612" lon="0.45517">
        <ele>70.8</ele>
        <time>2024-10-13T08:41:20Z</time>
      </trkpt>
      <trkpt lat="46.75617" lon="0.45518">
        <ele>70.6</ele>
        <time>2024-10-13T08:41:21Z</time>
      </trkpt>
      <trkpt lat="46.75625" lon="0.45524">
        <ele>70.4</ele>
        <time>2024-10-13T08:41:23Z</time>
      </trkpt>
      <trkpt lat="46.75628" lon="0.45529">
        <ele>70.4</ele>
        <time>2024-10-13T08:41:24Z</time>
      </trkpt>
      <trkpt lat="46.7563" lon="0.45535">
        <ele>70.4</ele>
        <time>2024-10-13T08:41:25Z</time>
      </trkpt>
      <trkpt lat="46.75635" lon="0.45562">
        <ele>70.4</ele>
        <time>2024-10-13T08:41:29Z</time>
      </trkpt>
      <trkpt lat="46.75643" lon="0.45599">
        <ele>70.2</ele>
        <time>2024-10-13T08:41:34Z</time>
      </trkpt>
      <trkpt lat="46.75645" lon="0.45607">
        <ele>70</ele>
        <time>2024-10-13T08:41:35Z</time>
      </trkpt>
      <trkpt lat="46.75651" lon="0.45629">
        <ele>69.8</ele>
        <time>2024-10-13T08:41:38Z</time>
      </trkpt>
      <trkpt lat="46.75659" lon="0.4566">
        <ele>69.8</ele>
        <time>2024-10-13T08:41:42Z</time>
      </trkpt>
      <trkpt lat="46.75672" lon="0.45715">
        <ele>69.2</ele>
        <time>2024-10-13T08:41:49Z</time>
      </trkpt>
      <trkpt lat="46.75681" lon="0.45724">
        <ele>69.2</ele>
        <time>2024-10-13T08:41:51Z</time>
      </trkpt>
      <trkpt lat="46.75688" lon="0.45726">
        <ele>69.2</ele>
        <time>2024-10-13T08:41:52Z</time>
      </trkpt>
      <trkpt lat="46.75695" lon="0.45726">
        <ele>69.2</ele>
        <time>2024-10-13T08:41:53Z</time>
      </trkpt>
      <trkpt lat="46.75709" lon="0.45727">
        <ele>69.2</ele>
        <time>2024-10-13T08:41:55Z</time>
      </trkpt>
      <trkpt lat="46.75715" lon="0.45729">
        <ele>69.2</ele>
        <time>2024-10-13T08:41:56Z</time>
      </trkpt>
      <trkpt lat="46.7572" lon="0.45735">
        <ele>69.2</ele>
        <time>2024-10-13T08:41:57Z</time>
      </trkpt>
      <trkpt lat="46.75732" lon="0.45747">
        <ele>69.2</ele>
        <time>2024-10-13T08:41:59Z</time>
      </trkpt>
      <trkpt lat="46.75754" lon="0.45788">
        <ele>70.6</ele>
        <time>2024-10-13T08:42:05Z</time>
      </trkpt>
      <trkpt lat="46.75763" lon="0.45808">
        <ele>71</ele>
        <time>2024-10-13T08:42:08Z</time>
      </trkpt>
      <trkpt lat="46.75779" lon="0.45835">
        <ele>72</ele>
        <time>2024-10-13T08:42:12Z</time>
      </trkpt>
      <trkpt lat="46.75814" lon="0.45894">
        <ele>71.2</ele>
        <time>2024-10-13T08:42:20Z</time>
      </trkpt>
      <trkpt lat="46.75841" lon="0.45943">
        <ele>70.4</ele>
        <time>2024-10-13T08:42:27Z</time>
      </trkpt>
      <trkpt lat="46.75849" lon="0.45957">
        <ele>70</ele>
        <time>2024-10-13T08:42:29Z</time>
      </trkpt>
      <trkpt lat="46.75863" lon="0.45988">
        <ele>69.6</ele>
        <time>2024-10-13T08:42:33Z</time>
      </trkpt>
      <trkpt lat="46.75881" lon="0.46037">
        <ele>69.4</ele>
        <time>2024-10-13T08:42:39Z</time>
      </trkpt>
      <trkpt lat="46.75885" lon="0.46044">
        <ele>69.4</ele>
        <time>2024-10-13T08:42:40Z</time>
      </trkpt>
      <trkpt lat="46.75889" lon="0.46051">
        <ele>69.4</ele>
        <time>2024-10-13T08:42:41Z</time>
      </trkpt>
      <trkpt lat="46.75898" lon="0.46061">
        <ele>69.6</ele>
        <time>2024-10-13T08:42:43Z</time>
      </trkpt>
      <trkpt lat="46.75903" lon="0.46066">
        <ele>69.4</ele>
        <time>2024-10-13T08:42:44Z</time>
      </trkpt>
      <trkpt lat="46.75949" lon="0.46097">
        <ele>69.2</ele>
        <time>2024-10-13T08:42:52Z</time>
      </trkpt>
      <trkpt lat="46.75961" lon="0.46106">
        <ele>69</ele>
        <time>2024-10-13T08:42:54Z</time>
      </trkpt>
      <trkpt lat="46.75986" lon="0.4613">
        <ele>68.6</ele>
        <time>2024-10-13T08:42:58Z</time>
      </trkpt>
      <trkpt lat="46.76006" lon="0.46158">
        <ele>68</ele>
        <time>2024-10-13T08:43:02Z</time>
      </trkpt>
      <trkpt lat="46.7601" lon="0.46164">
        <ele>67.6</ele>
        <time>2024-10-13T08:43:03Z</time>
      </trkpt>
      <trkpt lat="46.76012" lon="0.46172">
        <ele>67</ele>
        <time>2024-10-13T08:43:04Z</time>
      </trkpt>
      <trkpt lat="46.76012" lon="0.46179">
        <ele>66.6</ele>
        <time>2024-10-13T08:43:05Z</time>
      </trkpt>
      <trkpt lat="46.76009" lon="0.46193">
        <ele>66.2</ele>
        <time>2024-10-13T08:43:07Z</time>
      </trkpt>
      <trkpt lat="46.76009" lon="0.462">
        <ele>66.2</ele>
        <time>2024-10-13T08:43:08Z</time>
      </trkpt>
      <trkpt lat="46.76009" lon="0.46214">
        <ele>66.2</ele>
        <time>2024-10-13T08:43:10Z</time>
      </trkpt>
      <trkpt lat="46.76011" lon="0.46221">
        <ele>66.2</ele>
        <time>2024-10-13T08:43:11Z</time>
      </trkpt>
      <trkpt lat="46.76013" lon="0.46229">
        <ele>66.2</ele>
        <time>2024-10-13T08:43:12Z</time>
      </trkpt>
      <trkpt lat="46.76024" lon="0.46261">
        <ele>66.2</ele>
        <time>2024-10-13T08:43:16Z</time>
      </trkpt>
      <trkpt lat="46.7603" lon="0.46279">
        <ele>65.6</ele>
        <time>2024-10-13T08:43:18Z</time>
      </trkpt>
      <trkpt lat="46.76044" lon="0.46324">
        <ele>64.6</ele>
        <time>2024-10-13T08:43:23Z</time>
      </trkpt>
      <trkpt lat="46.76046" lon="0.46334">
        <ele>64.6</ele>
        <time>2024-10-13T08:43:24Z</time>
      </trkpt>
      <trkpt lat="46.76047" lon="0.46356">
        <ele>64.6</ele>
        <time>2024-10-13T08:43:26Z</time>
      </trkpt>
      <trkpt lat="46.76043" lon="0.46375">
        <ele>64.2</ele>
        <time>2024-10-13T08:43:28Z</time>
      </trkpt>
      <trkpt lat="46.76041" lon="0.46384">
        <ele>64</ele>
        <time>2024-10-13T08:43:29Z</time>
      </trkpt>
      <trkpt lat="46.7604" lon="0.46392">
        <ele>63.8</ele>
        <time>2024-10-13T08:43:30Z</time>
      </trkpt>
      <trkpt lat="46.76039" lon="0.46401">
        <ele>63.6</ele>
        <time>2024-10-13T08:43:31Z</time>
      </trkpt>
      <trkpt lat="46.76041" lon="0.46408">
        <ele>63.4</ele>
        <time>2024-10-13T08:43:32Z</time>
      </trkpt>
      <trkpt lat="46.7605" lon="0.46419">
        <ele>63</ele>
        <time>2024-10-13T08:43:34Z</time>
      </trkpt>
      <trkpt lat="46.76056" lon="0.46424">
        <ele>62.4</ele>
        <time>2024-10-13T08:43:35Z</time>
      </trkpt>
      <trkpt lat="46.76075" lon="0.46441">
        <ele>61.2</ele>
        <time>2024-10-13T08:43:38Z</time>
      </trkpt>
      <trkpt lat="46.76089" lon="0.46455">
        <ele>61.2</ele>
        <time>2024-10-13T08:43:40Z</time>
      </trkpt>
      <trkpt lat="46.76108" lon="0.46476">
        <ele>61</ele>
        <time>2024-10-13T08:43:43Z</time>
      </trkpt>
      <trkpt lat="46.76119" lon="0.46487">
        <ele>61</ele>
        <time>2024-10-13T08:43:45Z</time>
      </trkpt>
      <trkpt lat="46.76125" lon="0.46491">
        <ele>61</ele>
        <time>2024-10-13T08:43:46Z</time>
      </trkpt>
      <trkpt lat="46.76136" lon="0.46497">
        <ele>61</ele>
        <time>2024-10-13T08:43:48Z</time>
      </trkpt>
      <trkpt lat="46.76142" lon="0.46498">
        <ele>61</ele>
        <time>2024-10-13T08:43:49Z</time>
      </trkpt>
      <trkpt lat="46.76181" lon="0.465">
        <ele>62.2</ele>
        <time>2024-10-13T08:43:55Z</time>
      </trkpt>
      <trkpt lat="46.76187" lon="0.465">
        <ele>62.4</ele>
        <time>2024-10-13T08:43:56Z</time>
      </trkpt>
      <trkpt lat="46.76216" lon="0.465">
        <ele>63.2</ele>
        <time>2024-10-13T08:44:02Z</time>
      </trkpt>
      <trkpt lat="46.76224" lon="0.46499">
        <ele>63.2</ele>
        <time>2024-10-13T08:44:04Z</time>
      </trkpt>
      <trkpt lat="46.76231" lon="0.46495">
        <ele>63.4</ele>
        <time>2024-10-13T08:44:07Z</time>
      </trkpt>
      <trkpt lat="46.76231" lon="0.46479">
        <ele>64.2</ele>
        <time>2024-10-13T08:44:11Z</time>
      </trkpt>
      <trkpt lat="46.76229" lon="0.46449">
        <ele>64.2</ele>
        <time>2024-10-13T08:44:16Z</time>
      </trkpt>
      <trkpt lat="46.76229" lon="0.46435">
        <ele>64.2</ele>
        <time>2024-10-13T08:44:18Z</time>
      </trkpt>
      <trkpt lat="46.76231" lon="0.46387">
        <ele>64</ele>
        <time>2024-10-13T08:44:24Z</time>
      </trkpt>
      <trkpt lat="46.76243" lon="0.46337">
        <ele>63.4</ele>
        <time>2024-10-13T08:44:30Z</time>
      </trkpt>
      <trkpt lat="46.76263" lon="0.46292">
        <ele>63.6</ele>
        <time>2024-10-13T08:44:36Z</time>
      </trkpt>
      <trkpt lat="46.76299" lon="0.46233">
        <ele>64</ele>
        <time>2024-10-13T08:44:45Z</time>
      </trkpt>
      <trkpt lat="46.76322" lon="0.46186">
        <ele>64</ele>
        <time>2024-10-13T08:44:51Z</time>
      </trkpt>
      <trkpt lat="46.76328" lon="0.46169">
        <ele>63.8</ele>
        <time>2024-10-13T08:44:53Z</time>
      </trkpt>
      <trkpt lat="46.76335" lon="0.46146">
        <ele>63.8</ele>
        <time>2024-10-13T08:44:56Z</time>
      </trkpt>
      <trkpt lat="46.76339" lon="0.46117">
        <ele>64.2</ele>
        <time>2024-10-13T08:45:00Z</time>
      </trkpt>
      <trkpt lat="46.76339" lon="0.46103">
        <ele>64.2</ele>
        <time>2024-10-13T08:45:02Z</time>
      </trkpt>
      <trkpt lat="46.76336" lon="0.46065">
        <ele>64.6</ele>
        <time>2024-10-13T08:45:07Z</time>
      </trkpt>
      <trkpt lat="46.76333" lon="0.4605">
        <ele>64.6</ele>
        <time>2024-10-13T08:45:09Z</time>
      </trkpt>
      <trkpt lat="46.76313" lon="0.45994">
        <ele>65.6</ele>
        <time>2024-10-13T08:45:17Z</time>
      </trkpt>
      <trkpt lat="46.76296" lon="0.45956">
        <ele>67</ele>
        <time>2024-10-13T08:45:23Z</time>
      </trkpt>
      <trkpt lat="46.76291" lon="0.45943">
        <ele>67.4</ele>
        <time>2024-10-13T08:45:25Z</time>
      </trkpt>
      <trkpt lat="46.76277" lon="0.4591">
        <ele>68</ele>
        <time>2024-10-13T08:45:30Z</time>
      </trkpt>
      <trkpt lat="46.76264" lon="0.4588">
        <ele>69</ele>
        <time>2024-10-13T08:45:35Z</time>
      </trkpt>
      <trkpt lat="46.76262" lon="0.45874">
        <ele>69.2</ele>
        <time>2024-10-13T08:45:36Z</time>
      </trkpt>
      <trkpt lat="46.76263" lon="0.45864">
        <ele>69.4</ele>
        <time>2024-10-13T08:45:38Z</time>
      </trkpt>
      <trkpt lat="46.7627" lon="0.45859">
        <ele>69.6</ele>
        <time>2024-10-13T08:45:40Z</time>
      </trkpt>
      <trkpt lat="46.76274" lon="0.45858">
        <ele>69.6</ele>
        <time>2024-10-13T08:45:41Z</time>
      </trkpt>
      <trkpt lat="46.76279" lon="0.45857">
        <ele>69.6</ele>
        <time>2024-10-13T08:45:42Z</time>
      </trkpt>
      <trkpt lat="46.76306" lon="0.45855">
        <ele>69.6</ele>
        <time>2024-10-13T08:45:47Z</time>
      </trkpt>
      <trkpt lat="46.76361" lon="0.45844">
        <ele>68.8</ele>
        <time>2024-10-13T08:45:56Z</time>
      </trkpt>
      <trkpt lat="46.76367" lon="0.45843">
        <ele>68.8</ele>
        <time>2024-10-13T08:45:57Z</time>
      </trkpt>
      <trkpt lat="46.76379" lon="0.45844">
        <ele>68.8</ele>
        <time>2024-10-13T08:45:59Z</time>
      </trkpt>
      <trkpt lat="46.76385" lon="0.45846">
        <ele>68.6</ele>
        <time>2024-10-13T08:46:00Z</time>
      </trkpt>
      <trkpt lat="46.7639" lon="0.45849">
        <ele>68.6</ele>
        <time>2024-10-13T08:46:01Z</time>
      </trkpt>
      <trkpt lat="46.76405" lon="0.45862">
        <ele>68.4</ele>
        <time>2024-10-13T08:46:04Z</time>
      </trkpt>
      <trkpt lat="46.76416" lon="0.45867">
        <ele>68.2</ele>
        <time>2024-10-13T08:46:06Z</time>
      </trkpt>
      <trkpt lat="46.76427" lon="0.4587">
        <ele>68.2</ele>
        <time>2024-10-13T08:46:08Z</time>
      </trkpt>
      <trkpt lat="46.76432" lon="0.45871">
        <ele>68.2</ele>
        <time>2024-10-13T08:46:09Z</time>
      </trkpt>
      <trkpt lat="46.76466" lon="0.45876">
        <ele>68.6</ele>
        <time>2024-10-13T08:46:16Z</time>
      </trkpt>
      <trkpt lat="46.76483" lon="0.45867">
        <ele>69.2</ele>
        <time>2024-10-13T08:46:21Z</time>
      </trkpt>
      <trkpt lat="46.76504" lon="0.45851">
        <ele>70.2</ele>
        <time>2024-10-13T08:46:28Z</time>
      </trkpt>
      <trkpt lat="46.76512" lon="0.45845">
        <ele>71.2</ele>
        <time>2024-10-13T08:46:31Z</time>
      </trkpt>
      <trkpt lat="46.76524" lon="0.45837">
        <ele>72.2</ele>
        <time>2024-10-13T08:46:36Z</time>
      </trkpt>
      <trkpt lat="46.76526" lon="0.45836">
        <ele>72.4</ele>
        <time>2024-10-13T08:46:37Z</time>
      </trkpt>
      <trkpt lat="46.76534" lon="0.4583">
        <ele>73.6</ele>
        <time>2024-10-13T08:46:41Z</time>
      </trkpt>
      <trkpt lat="46.76542" lon="0.45825">
        <ele>74.2</ele>
        <time>2024-10-13T08:46:45Z</time>
      </trkpt>
      <trkpt lat="46.76549" lon="0.45821">
        <ele>74.6</ele>
        <time>2024-10-13T08:46:48Z</time>
      </trkpt>
      <trkpt lat="46.76556" lon="0.45816">
        <ele>75.8</ele>
        <time>2024-10-13T08:46:52Z</time>
      </trkpt>
      <trkpt lat="46.76561" lon="0.45812">
        <ele>76.6</ele>
        <time>2024-10-13T08:46:55Z</time>
      </trkpt>
      <trkpt lat="46.76563" lon="0.4581">
        <ele>76.8</ele>
        <time>2024-10-13T08:46:56Z</time>
      </trkpt>
      <trkpt lat="46.76572" lon="0.45803">
        <ele>77.8</ele>
        <time>2024-10-13T08:47:01Z</time>
      </trkpt>
      <trkpt lat="46.76575" lon="0.45801">
        <ele>78.2</ele>
        <time>2024-10-13T08:47:03Z</time>
      </trkpt>
      <trkpt lat="46.76578" lon="0.45798">
        <ele>78.8</ele>
        <time>2024-10-13T08:47:05Z</time>
      </trkpt>
      <trkpt lat="46.76584" lon="0.45794">
        <ele>79.8</ele>
        <time>2024-10-13T08:47:09Z</time>
      </trkpt>
      <trkpt lat="46.76588" lon="0.4579">
        <ele>80.8</ele>
        <time>2024-10-13T08:47:12Z</time>
      </trkpt>
      <trkpt lat="46.76595" lon="0.45785">
        <ele>82.2</ele>
        <time>2024-10-13T08:47:17Z</time>
      </trkpt>
      <trkpt lat="46.76599" lon="0.45781">
        <ele>83.2</ele>
        <time>2024-10-13T08:47:21Z</time>
      </trkpt>
      <trkpt lat="46.76601" lon="0.45779">
        <ele>83.4</ele>
        <time>2024-10-13T08:47:22Z</time>
      </trkpt>
      <trkpt lat="46.76604" lon="0.45776">
        <ele>84</ele>
        <time>2024-10-13T08:47:25Z</time>
      </trkpt>
      <trkpt lat="46.76606" lon="0.45775">
        <ele>84.2</ele>
        <time>2024-10-13T08:47:27Z</time>
      </trkpt>
      <trkpt lat="46.76609" lon="0.45774">
        <ele>84.8</ele>
        <time>2024-10-13T08:47:29Z</time>
      </trkpt>
      <trkpt lat="46.76612" lon="0.45772">
        <ele>85.4</ele>
        <time>2024-10-13T08:47:32Z</time>
      </trkpt>
      <trkpt lat="46.76617" lon="0.4577">
        <ele>86.6</ele>
        <time>2024-10-13T08:47:36Z</time>
      </trkpt>
      <trkpt lat="46.7662" lon="0.45767">
        <ele>87.2</ele>
        <time>2024-10-13T08:47:39Z</time>
      </trkpt>
      <trkpt lat="46.76623" lon="0.45766">
        <ele>87.6</ele>
        <time>2024-10-13T08:47:41Z</time>
      </trkpt>
      <trkpt lat="46.76629" lon="0.45763">
        <ele>88.8</ele>
        <time>2024-10-13T08:47:47Z</time>
      </trkpt>
      <trkpt lat="46.7663" lon="0.45762">
        <ele>89</ele>
        <time>2024-10-13T08:47:48Z</time>
      </trkpt>
      <trkpt lat="46.76633" lon="0.45761">
        <ele>90</ele>
        <time>2024-10-13T08:47:51Z</time>
      </trkpt>
      <trkpt lat="46.7664" lon="0.45756">
        <ele>91</ele>
        <time>2024-10-13T08:47:56Z</time>
      </trkpt>
      <trkpt lat="46.76642" lon="0.45754">
        <ele>91.4</ele>
        <time>2024-10-13T08:47:58Z</time>
      </trkpt>
      <trkpt lat="46.76645" lon="0.45751">
        <ele>92.2</ele>
        <time>2024-10-13T08:48:00Z</time>
      </trkpt>
      <trkpt lat="46.76647" lon="0.45741">
        <ele>92.4</ele>
        <time>2024-10-13T08:48:04Z</time>
      </trkpt>
      <trkpt lat="46.76643" lon="0.45717">
        <ele>91.8</ele>
        <time>2024-10-13T08:48:08Z</time>
      </trkpt>
      <trkpt lat="46.76637" lon="0.45686">
        <ele>90.8</ele>
        <time>2024-10-13T08:48:12Z</time>
      </trkpt>
      <trkpt lat="46.76632" lon="0.45669">
        <ele>90.4</ele>
        <time>2024-10-13T08:48:14Z</time>
      </trkpt>
      <trkpt lat="46.76622" lon="0.45641">
        <ele>89.6</ele>
        <time>2024-10-13T08:48:17Z</time>
      </trkpt>
      <trkpt lat="46.76614" lon="0.45621">
        <ele>89.2</ele>
        <time>2024-10-13T08:48:19Z</time>
      </trkpt>
      <trkpt lat="46.76606" lon="0.45601">
        <ele>88.2</ele>
        <time>2024-10-13T08:48:21Z</time>
      </trkpt>
      <trkpt lat="46.76597" lon="0.45579">
        <ele>87.2</ele>
        <time>2024-10-13T08:48:23Z</time>
      </trkpt>
      <trkpt lat="46.76583" lon="0.45547">
        <ele>86</ele>
        <time>2024-10-13T08:48:26Z</time>
      </trkpt>
      <trkpt lat="46.76579" lon="0.45536">
        <ele>85.6</ele>
        <time>2024-10-13T08:48:27Z</time>
      </trkpt>
      <trkpt lat="46.76554" lon="0.45479">
        <ele>84.8</ele>
        <time>2024-10-13T08:48:33Z</time>
      </trkpt>
      <trkpt lat="46.76551" lon="0.4547">
        <ele>84.8</ele>
        <time>2024-10-13T08:48:34Z</time>
      </trkpt>
      <trkpt lat="46.76519" lon="0.45396">
        <ele>84.2</ele>
        <time>2024-10-13T08:48:42Z</time>
      </trkpt>
      <trkpt lat="46.76515" lon="0.45387">
        <ele>84.4</ele>
        <time>2024-10-13T08:48:43Z</time>
      </trkpt>
      <trkpt lat="46.76485" lon="0.45314">
        <ele>84.2</ele>
        <time>2024-10-13T08:48:51Z</time>
      </trkpt>
      <trkpt lat="46.76479" lon="0.45296">
        <ele>84</ele>
        <time>2024-10-13T08:48:53Z</time>
      </trkpt>
      <trkpt lat="46.76477" lon="0.45278">
        <ele>84.2</ele>
        <time>2024-10-13T08:48:55Z</time>
      </trkpt>
      <trkpt lat="46.76478" lon="0.45254">
        <ele>84.6</ele>
        <time>2024-10-13T08:48:58Z</time>
      </trkpt>
      <trkpt lat="46.76478" lon="0.45247">
        <ele>84.8</ele>
        <time>2024-10-13T08:48:59Z</time>
      </trkpt>
      <trkpt lat="46.76476" lon="0.45219">
        <ele>86</ele>
        <time>2024-10-13T08:49:03Z</time>
      </trkpt>
      <trkpt lat="46.76476" lon="0.45213">
        <ele>86.4</ele>
        <time>2024-10-13T08:49:04Z</time>
      </trkpt>
      <trkpt lat="46.76476" lon="0.45202">
        <ele>87.2</ele>
        <time>2024-10-13T08:49:06Z</time>
      </trkpt>
      <trkpt lat="46.76474" lon="0.45178">
        <ele>88.2</ele>
        <time>2024-10-13T08:49:10Z</time>
      </trkpt>
      <trkpt lat="46.76474" lon="0.4517">
        <ele>88.6</ele>
        <time>2024-10-13T08:49:11Z</time>
      </trkpt>
      <trkpt lat="46.76474" lon="0.4515">
        <ele>89.2</ele>
        <time>2024-10-13T08:49:14Z</time>
      </trkpt>
      <trkpt lat="46.76476" lon="0.45133">
        <ele>89.8</ele>
        <time>2024-10-13T08:49:17Z</time>
      </trkpt>
      <trkpt lat="46.76478" lon="0.45122">
        <ele>90.4</ele>
        <time>2024-10-13T08:49:19Z</time>
      </trkpt>
      <trkpt lat="46.76484" lon="0.45098">
        <ele>91.4</ele>
        <time>2024-10-13T08:49:24Z</time>
      </trkpt>
      <trkpt lat="46.76486" lon="0.45093">
        <ele>91.6</ele>
        <time>2024-10-13T08:49:25Z</time>
      </trkpt>
      <trkpt lat="46.76491" lon="0.45069">
        <ele>92.8</ele>
        <time>2024-10-13T08:49:30Z</time>
      </trkpt>
      <trkpt lat="46.76492" lon="0.4506">
        <ele>93.4</ele>
        <time>2024-10-13T08:49:32Z</time>
      </trkpt>
      <trkpt lat="46.76493" lon="0.45042">
        <ele>94</ele>
        <time>2024-10-13T08:49:36Z</time>
      </trkpt>
      <trkpt lat="46.76493" lon="0.45028">
        <ele>95</ele>
        <time>2024-10-13T08:49:39Z</time>
      </trkpt>
      <trkpt lat="46.76493" lon="0.45023">
        <ele>95.2</ele>
        <time>2024-10-13T08:49:40Z</time>
      </trkpt>
      <trkpt lat="46.76492" lon="0.44998">
        <ele>96</ele>
        <time>2024-10-13T08:49:45Z</time>
      </trkpt>
      <trkpt lat="46.7649" lon="0.44985">
        <ele>96.4</ele>
        <time>2024-10-13T08:49:48Z</time>
      </trkpt>
      <trkpt lat="46.76485" lon="0.4496">
        <ele>96.6</ele>
        <time>2024-10-13T08:49:53Z</time>
      </trkpt>
      <trkpt lat="46.7648" lon="0.44935">
        <ele>96.6</ele>
        <time>2024-10-13T08:49:57Z</time>
      </trkpt>
      <trkpt lat="46.76469" lon="0.44896">
        <ele>96.4</ele>
        <time>2024-10-13T08:50:03Z</time>
      </trkpt>
      <trkpt lat="46.76452" lon="0.44838">
        <ele>95</ele>
        <time>2024-10-13T08:50:10Z</time>
      </trkpt>
      <trkpt lat="46.76449" lon="0.44829">
        <ele>95</ele>
        <time>2024-10-13T08:50:11Z</time>
      </trkpt>
      <trkpt lat="46.76438" lon="0.44794">
        <ele>94</ele>
        <time>2024-10-13T08:50:15Z</time>
      </trkpt>
      <trkpt lat="46.76429" lon="0.44766">
        <ele>93.4</ele>
        <time>2024-10-13T08:50:18Z</time>
      </trkpt>
      <trkpt lat="46.76427" lon="0.4474">
        <ele>93.2</ele>
        <time>2024-10-13T08:50:21Z</time>
      </trkpt>
      <trkpt lat="46.76428" lon="0.44733">
        <ele>93.2</ele>
        <time>2024-10-13T08:50:22Z</time>
      </trkpt>
      <trkpt lat="46.76433" lon="0.44697">
        <ele>95.2</ele>
        <time>2024-10-13T08:50:28Z</time>
      </trkpt>
      <trkpt lat="46.76431" lon="0.4469">
        <ele>95.4</ele>
        <time>2024-10-13T08:50:30Z</time>
      </trkpt>
      <trkpt lat="46.76428" lon="0.44688">
        <ele>95.6</ele>
        <time>2024-10-13T08:50:31Z</time>
      </trkpt>
      <trkpt lat="46.7641" lon="0.44676">
        <ele>94</ele>
        <time>2024-10-13T08:50:35Z</time>
      </trkpt>
      <trkpt lat="46.76404" lon="0.44673">
        <ele>93.8</ele>
        <time>2024-10-13T08:50:36Z</time>
      </trkpt>
      <trkpt lat="46.76396" lon="0.44665">
        <ele>93.4</ele>
        <time>2024-10-13T08:50:38Z</time>
      </trkpt>
      <trkpt lat="46.76393" lon="0.44661">
        <ele>93.2</ele>
        <time>2024-10-13T08:50:39Z</time>
      </trkpt>
      <trkpt lat="46.7639" lon="0.44653">
        <ele>93</ele>
        <time>2024-10-13T08:50:41Z</time>
      </trkpt>
      <trkpt lat="46.76389" lon="0.44645">
        <ele>93.4</ele>
        <time>2024-10-13T08:50:43Z</time>
      </trkpt>
      <trkpt lat="46.76387" lon="0.44632">
        <ele>93.8</ele>
        <time>2024-10-13T08:50:48Z</time>
      </trkpt>
      <trkpt lat="46.76385" lon="0.44619">
        <ele>94.4</ele>
        <time>2024-10-13T08:50:54Z</time>
      </trkpt>
      <trkpt lat="46.76385" lon="0.44618">
        <ele>94.4</ele>
        <time>2024-10-13T08:50:55Z</time>
      </trkpt>
      <trkpt lat="46.7638" lon="0.44613">
        <ele>95.2</ele>
        <time>2024-10-13T08:50:59Z</time>
      </trkpt>
      <trkpt lat="46.76374" lon="0.44608">
        <ele>96</ele>
        <time>2024-10-13T08:51:03Z</time>
      </trkpt>
      <trkpt lat="46.76373" lon="0.44606">
        <ele>96.2</ele>
        <time>2024-10-13T08:51:04Z</time>
      </trkpt>
      <trkpt lat="46.76372" lon="0.44605">
        <ele>96.4</ele>
        <time>2024-10-13T08:51:05Z</time>
      </trkpt>
      <trkpt lat="46.76368" lon="0.44602">
        <ele>97.6</ele>
        <time>2024-10-13T08:51:08Z</time>
      </trkpt>
      <trkpt lat="46.76365" lon="0.44599">
        <ele>98.2</ele>
        <time>2024-10-13T08:51:10Z</time>
      </trkpt>
      <trkpt lat="46.76362" lon="0.44596">
        <ele>98.6</ele>
        <time>2024-10-13T08:51:12Z</time>
      </trkpt>
      <trkpt lat="46.76358" lon="0.44589">
        <ele>99</ele>
        <time>2024-10-13T08:51:15Z</time>
      </trkpt>
      <trkpt lat="46.76355" lon="0.44583">
        <ele>99.2</ele>
        <time>2024-10-13T08:51:17Z</time>
      </trkpt>
      <trkpt lat="46.76353" lon="0.44576">
        <ele>99.6</ele>
        <time>2024-10-13T08:51:21Z</time>
      </trkpt>
      <trkpt lat="46.76352" lon="0.44574">
        <ele>99.8</ele>
        <time>2024-10-13T08:51:22Z</time>
      </trkpt>
      <trkpt lat="46.76351" lon="0.44569">
        <ele>99.8</ele>
        <time>2024-10-13T08:51:24Z</time>
      </trkpt>
      <trkpt lat="46.7635" lon="0.44566">
        <ele>100</ele>
        <time>2024-10-13T08:51:25Z</time>
      </trkpt>
      <trkpt lat="46.7635" lon="0.44564">
        <ele>100</ele>
        <time>2024-10-13T08:51:26Z</time>
      </trkpt>
      <trkpt lat="46.7635" lon="0.44559">
        <ele>99.8</ele>
        <time>2024-10-13T08:51:30Z</time>
      </trkpt>
      <trkpt lat="46.7635" lon="0.44555">
        <ele>100.2</ele>
        <time>2024-10-13T08:51:33Z</time>
      </trkpt>
      <trkpt lat="46.76346" lon="0.4455">
        <ele>100.6</ele>
        <time>2024-10-13T08:51:36Z</time>
      </trkpt>
      <trkpt lat="46.76344" lon="0.44548">
        <ele>101.2</ele>
        <time>2024-10-13T08:51:38Z</time>
      </trkpt>
      <trkpt lat="46.76343" lon="0.44546">
        <ele>102</ele>
        <time>2024-10-13T08:51:40Z</time>
      </trkpt>
      <trkpt lat="46.76342" lon="0.44545">
        <ele>102.8</ele>
        <time>2024-10-13T08:51:41Z</time>
      </trkpt>
      <trkpt lat="46.76341" lon="0.44539">
        <ele>104</ele>
        <time>2024-10-13T08:51:44Z</time>
      </trkpt>
      <trkpt lat="46.76341" lon="0.44538">
        <ele>104.2</ele>
        <time>2024-10-13T08:51:45Z</time>
      </trkpt>
      <trkpt lat="46.76341" lon="0.44536">
        <ele>104.4</ele>
        <time>2024-10-13T08:51:46Z</time>
      </trkpt>
      <trkpt lat="46.76342" lon="0.44529">
        <ele>105</ele>
        <time>2024-10-13T08:51:50Z</time>
      </trkpt>
      <trkpt lat="46.76342" lon="0.44527">
        <ele>105</ele>
        <time>2024-10-13T08:51:51Z</time>
      </trkpt>
      <trkpt lat="46.76342" lon="0.44523">
        <ele>105.4</ele>
        <time>2024-10-13T08:51:53Z</time>
      </trkpt>
      <trkpt lat="46.76341" lon="0.44506">
        <ele>106.2</ele>
        <time>2024-10-13T08:51:59Z</time>
      </trkpt>
      <trkpt lat="46.76341" lon="0.44503">
        <ele>106.6</ele>
        <time>2024-10-13T08:52:00Z</time>
      </trkpt>
      <trkpt lat="46.7634" lon="0.44495">
        <ele>107.4</ele>
        <time>2024-10-13T08:52:03Z</time>
      </trkpt>
      <trkpt lat="46.76342" lon="0.44482">
        <ele>108.2</ele>
        <time>2024-10-13T08:52:07Z</time>
      </trkpt>
      <trkpt lat="46.76343" lon="0.44476">
        <ele>108.4</ele>
        <time>2024-10-13T08:52:09Z</time>
      </trkpt>
      <trkpt lat="46.76343" lon="0.4446">
        <ele>109.6</ele>
        <time>2024-10-13T08:52:15Z</time>
      </trkpt>
      <trkpt lat="46.76344" lon="0.44446">
        <ele>110.4</ele>
        <time>2024-10-13T08:52:21Z</time>
      </trkpt>
      <trkpt lat="46.76344" lon="0.44444">
        <ele>110.6</ele>
        <time>2024-10-13T08:52:22Z</time>
      </trkpt>
      <trkpt lat="46.76343" lon="0.44425">
        <ele>111.6</ele>
        <time>2024-10-13T08:52:28Z</time>
      </trkpt>
      <trkpt lat="46.76342" lon="0.44423">
        <ele>111.6</ele>
        <time>2024-10-13T08:52:29Z</time>
      </trkpt>
      <trkpt lat="46.76342" lon="0.44413">
        <ele>112.8</ele>
        <time>2024-10-13T08:52:34Z</time>
      </trkpt>
      <trkpt lat="46.76342" lon="0.44411">
        <ele>113</ele>
        <time>2024-10-13T08:52:35Z</time>
      </trkpt>
      <trkpt lat="46.76343" lon="0.44409">
        <ele>113.2</ele>
        <time>2024-10-13T08:52:36Z</time>
      </trkpt>
      <trkpt lat="46.76343" lon="0.44404">
        <ele>114</ele>
        <time>2024-10-13T08:52:39Z</time>
      </trkpt>
      <trkpt lat="46.76345" lon="0.44396">
        <ele>115</ele>
        <time>2024-10-13T08:52:43Z</time>
      </trkpt>
      <trkpt lat="46.76346" lon="0.44395">
        <ele>115</ele>
        <time>2024-10-13T08:52:44Z</time>
      </trkpt>
      <trkpt lat="46.76352" lon="0.44392">
        <ele>115.2</ele>
        <time>2024-10-13T08:52:48Z</time>
      </trkpt>
      <trkpt lat="46.76355" lon="0.44392">
        <ele>114.8</ele>
        <time>2024-10-13T08:52:49Z</time>
      </trkpt>
      <trkpt lat="46.76361" lon="0.44388">
        <ele>113.8</ele>
        <time>2024-10-13T08:52:51Z</time>
      </trkpt>
      <trkpt lat="46.76365" lon="0.44386">
        <ele>113.4</ele>
        <time>2024-10-13T08:52:52Z</time>
      </trkpt>
      <trkpt lat="46.76369" lon="0.44385">
        <ele>112.4</ele>
        <time>2024-10-13T08:52:53Z</time>
      </trkpt>
      <trkpt lat="46.76377" lon="0.44384">
        <ele>110.2</ele>
        <time>2024-10-13T08:52:55Z</time>
      </trkpt>
      <trkpt lat="46.76381" lon="0.44383">
        <ele>109.4</ele>
        <time>2024-10-13T08:52:56Z</time>
      </trkpt>
      <trkpt lat="46.76384" lon="0.44383">
        <ele>108.4</ele>
        <time>2024-10-13T08:52:57Z</time>
      </trkpt>
      <trkpt lat="46.76387" lon="0.44381">
        <ele>106.6</ele>
        <time>2024-10-13T08:52:58Z</time>
      </trkpt>
      <trkpt lat="46.76393" lon="0.44377">
        <ele>105.2</ele>
        <time>2024-10-13T08:53:00Z</time>
      </trkpt>
      <trkpt lat="46.76401" lon="0.44369">
        <ele>105</ele>
        <time>2024-10-13T08:53:02Z</time>
      </trkpt>
      <trkpt lat="46.76411" lon="0.44353">
        <ele>105.8</ele>
        <time>2024-10-13T08:53:08Z</time>
      </trkpt>
      <trkpt lat="46.76413" lon="0.44348">
        <ele>106.4</ele>
        <time>2024-10-13T08:53:10Z</time>
      </trkpt>
      <trkpt lat="46.76425" lon="0.44328">
        <ele>107.4</ele>
        <time>2024-10-13T08:53:18Z</time>
      </trkpt>
      <trkpt lat="46.76434" lon="0.44312">
        <ele>108.6</ele>
        <time>2024-10-13T08:53:24Z</time>
      </trkpt>
      <trkpt lat="46.7644" lon="0.44301">
        <ele>109.4</ele>
        <time>2024-10-13T08:53:28Z</time>
      </trkpt>
      <trkpt lat="46.76444" lon="0.44295">
        <ele>110</ele>
        <time>2024-10-13T08:53:30Z</time>
      </trkpt>
      <trkpt lat="46.76449" lon="0.44288">
        <ele>110.4</ele>
        <time>2024-10-13T08:53:33Z</time>
      </trkpt>
      <trkpt lat="46.76452" lon="0.44285">
        <ele>110.4</ele>
        <time>2024-10-13T08:53:34Z</time>
      </trkpt>
      <trkpt lat="46.76457" lon="0.44281">
        <ele>110.4</ele>
        <time>2024-10-13T08:53:36Z</time>
      </trkpt>
      <trkpt lat="46.76461" lon="0.44278">
        <ele>110.2</ele>
        <time>2024-10-13T08:53:38Z</time>
      </trkpt>
      <trkpt lat="46.76463" lon="0.44276">
        <ele>110</ele>
        <time>2024-10-13T08:53:39Z</time>
      </trkpt>
      <trkpt lat="46.7648" lon="0.44258">
        <ele>109.6</ele>
        <time>2024-10-13T08:53:46Z</time>
      </trkpt>
      <trkpt lat="46.7649" lon="0.44247">
        <ele>110.6</ele>
        <time>2024-10-13T08:53:52Z</time>
      </trkpt>
      <trkpt lat="46.765" lon="0.44237">
        <ele>111</ele>
        <time>2024-10-13T08:53:55Z</time>
      </trkpt>
      <trkpt lat="46.76506" lon="0.44235">
        <ele>111.4</ele>
        <time>2024-10-13T08:53:58Z</time>
      </trkpt>
      <trkpt lat="46.76513" lon="0.44235">
        <ele>111.2</ele>
        <time>2024-10-13T08:54:01Z</time>
      </trkpt>
      <trkpt lat="46.76517" lon="0.44238">
        <ele>110.4</ele>
        <time>2024-10-13T08:54:03Z</time>
      </trkpt>
      <trkpt lat="46.76518" lon="0.44241">
        <ele>110</ele>
        <time>2024-10-13T08:54:04Z</time>
      </trkpt>
      <trkpt lat="46.76519" lon="0.44244">
        <ele>109.6</ele>
        <time>2024-10-13T08:54:05Z</time>
      </trkpt>
      <trkpt lat="46.76521" lon="0.44247">
        <ele>109.4</ele>
        <time>2024-10-13T08:54:06Z</time>
      </trkpt>
      <trkpt lat="46.76527" lon="0.44252">
        <ele>108.6</ele>
        <time>2024-10-13T08:54:08Z</time>
      </trkpt>
      <trkpt lat="46.7653" lon="0.44253">
        <ele>108.4</ele>
        <time>2024-10-13T08:54:09Z</time>
      </trkpt>
      <trkpt lat="46.76534" lon="0.44254">
        <ele>107.4</ele>
        <time>2024-10-13T08:54:11Z</time>
      </trkpt>
      <trkpt lat="46.76536" lon="0.44254">
        <ele>107.4</ele>
        <time>2024-10-13T08:54:12Z</time>
      </trkpt>
      <trkpt lat="46.76538" lon="0.44252">
        <ele>107.2</ele>
        <time>2024-10-13T08:54:13Z</time>
      </trkpt>
      <trkpt lat="46.76553" lon="0.4424">
        <ele>108.2</ele>
        <time>2024-10-13T08:54:21Z</time>
      </trkpt>
      <trkpt lat="46.76555" lon="0.44238">
        <ele>108.4</ele>
        <time>2024-10-13T08:54:22Z</time>
      </trkpt>
      <trkpt lat="46.7657" lon="0.44226">
        <ele>108.8</ele>
        <time>2024-10-13T08:54:28Z</time>
      </trkpt>
      <trkpt lat="46.76579" lon="0.44218">
        <ele>109.6</ele>
        <time>2024-10-13T08:54:33Z</time>
      </trkpt>
      <trkpt lat="46.76581" lon="0.44216">
        <ele>109.8</ele>
        <time>2024-10-13T08:54:34Z</time>
      </trkpt>
      <trkpt lat="46.7659" lon="0.44212">
        <ele>110</ele>
        <time>2024-10-13T08:54:40Z</time>
      </trkpt>
      <trkpt lat="46.76604" lon="0.44203">
        <ele>108.8</ele>
        <time>2024-10-13T08:54:47Z</time>
      </trkpt>
      <trkpt lat="46.76608" lon="0.442">
        <ele>108.8</ele>
        <time>2024-10-13T08:54:49Z</time>
      </trkpt>
      <trkpt lat="46.76612" lon="0.44195">
        <ele>109</ele>
        <time>2024-10-13T08:54:53Z</time>
      </trkpt>
      <trkpt lat="46.76616" lon="0.4419">
        <ele>110.8</ele>
        <time>2024-10-13T08:54:58Z</time>
      </trkpt>
      <trkpt lat="46.76617" lon="0.44188">
        <ele>111</ele>
        <time>2024-10-13T08:54:59Z</time>
      </trkpt>
      <trkpt lat="46.76617" lon="0.44186">
        <ele>111.4</ele>
        <time>2024-10-13T08:55:02Z</time>
      </trkpt>
      <trkpt lat="46.7662" lon="0.44179">
        <ele>111.6</ele>
        <time>2024-10-13T08:55:06Z</time>
      </trkpt>
      <trkpt lat="46.76621" lon="0.44176">
        <ele>111.8</ele>
        <time>2024-10-13T08:55:07Z</time>
      </trkpt>
      <trkpt lat="46.76631" lon="0.44162">
        <ele>111.6</ele>
        <time>2024-10-13T08:55:14Z</time>
      </trkpt>
      <trkpt lat="46.76633" lon="0.44157">
        <ele>111.4</ele>
        <time>2024-10-13T08:55:16Z</time>
      </trkpt>
      <trkpt lat="46.7664" lon="0.44155">
        <ele>111.2</ele>
        <time>2024-10-13T08:55:19Z</time>
      </trkpt>
      <trkpt lat="46.76656" lon="0.44158">
        <ele>111</ele>
        <time>2024-10-13T08:55:25Z</time>
      </trkpt>
      <trkpt lat="46.76671" lon="0.44166">
        <ele>111</ele>
        <time>2024-10-13T08:55:30Z</time>
      </trkpt>
      <trkpt lat="46.76688" lon="0.44175">
        <ele>111</ele>
        <time>2024-10-13T08:55:36Z</time>
      </trkpt>
      <trkpt lat="46.76698" lon="0.44186">
        <ele>110.8</ele>
        <time>2024-10-13T08:55:42Z</time>
      </trkpt>
      <trkpt lat="46.76703" lon="0.44198">
        <ele>111.8</ele>
        <time>2024-10-13T08:55:46Z</time>
      </trkpt>
      <trkpt lat="46.76704" lon="0.44201">
        <ele>112.2</ele>
        <time>2024-10-13T08:55:47Z</time>
      </trkpt>
      <trkpt lat="46.76705" lon="0.44215">
        <ele>113.4</ele>
        <time>2024-10-13T08:55:52Z</time>
      </trkpt>
      <trkpt lat="46.76708" lon="0.44224">
        <ele>114</ele>
        <time>2024-10-13T08:55:55Z</time>
      </trkpt>
      <trkpt lat="46.7671" lon="0.44229">
        <ele>114.6</ele>
        <time>2024-10-13T08:55:57Z</time>
      </trkpt>
      <trkpt lat="46.76713" lon="0.44241">
        <ele>115.6</ele>
        <time>2024-10-13T08:56:02Z</time>
      </trkpt>
      <trkpt lat="46.76715" lon="0.44246">
        <ele>116</ele>
        <time>2024-10-13T08:56:04Z</time>
      </trkpt>
      <trkpt lat="46.76716" lon="0.44259">
        <ele>116.6</ele>
        <time>2024-10-13T08:56:08Z</time>
      </trkpt>
      <trkpt lat="46.76715" lon="0.4427">
        <ele>117.8</ele>
        <time>2024-10-13T08:56:12Z</time>
      </trkpt>
      <trkpt lat="46.76715" lon="0.44289">
        <ele>118.4</ele>
        <time>2024-10-13T08:56:19Z</time>
      </trkpt>
      <trkpt lat="46.76715" lon="0.44298">
        <ele>119</ele>
        <time>2024-10-13T08:56:22Z</time>
      </trkpt>
      <trkpt lat="46.76711" lon="0.44316">
        <ele>119.4</ele>
        <time>2024-10-13T08:56:27Z</time>
      </trkpt>
      <trkpt lat="46.76708" lon="0.44338">
        <ele>120</ele>
        <time>2024-10-13T08:56:32Z</time>
      </trkpt>
      <trkpt lat="46.76704" lon="0.44357">
        <ele>120.8</ele>
        <time>2024-10-13T08:56:36Z</time>
      </trkpt>
      <trkpt lat="46.76704" lon="0.44367">
        <ele>121.2</ele>
        <time>2024-10-13T08:56:38Z</time>
      </trkpt>
      <trkpt lat="46.76701" lon="0.44387">
        <ele>121.4</ele>
        <time>2024-10-13T08:56:43Z</time>
      </trkpt>
      <trkpt lat="46.76699" lon="0.444">
        <ele>122.2</ele>
        <time>2024-10-13T08:56:46Z</time>
      </trkpt>
      <trkpt lat="46.76698" lon="0.44413">
        <ele>122.4</ele>
        <time>2024-10-13T08:56:49Z</time>
      </trkpt>
      <trkpt lat="46.76697" lon="0.44449">
        <ele>122.8</ele>
        <time>2024-10-13T08:56:56Z</time>
      </trkpt>
      <trkpt lat="46.76697" lon="0.44468">
        <ele>123.2</ele>
        <time>2024-10-13T08:57:00Z</time>
      </trkpt>
      <trkpt lat="46.76696" lon="0.44483">
        <ele>123.8</ele>
        <time>2024-10-13T08:57:03Z</time>
      </trkpt>
      <trkpt lat="46.76691" lon="0.44514">
        <ele>124</ele>
        <time>2024-10-13T08:57:10Z</time>
      </trkpt>
      <trkpt lat="46.76686" lon="0.44541">
        <ele>123.8</ele>
        <time>2024-10-13T08:57:15Z</time>
      </trkpt>
      <trkpt lat="46.76683" lon="0.44551">
        <ele>124</ele>
        <time>2024-10-13T08:57:17Z</time>
      </trkpt>
      <trkpt lat="46.7668" lon="0.44578">
        <ele>124</ele>
        <time>2024-10-13T08:57:21Z</time>
      </trkpt>
      <trkpt lat="46.76678" lon="0.44597">
        <ele>124</ele>
        <time>2024-10-13T08:57:23Z</time>
      </trkpt>
      <trkpt lat="46.76677" lon="0.44606">
        <ele>124</ele>
        <time>2024-10-13T08:57:24Z</time>
      </trkpt>
      <trkpt lat="46.7668" lon="0.44629">
        <ele>124.2</ele>
        <time>2024-10-13T08:57:27Z</time>
      </trkpt>
      <trkpt lat="46.76683" lon="0.44635">
        <ele>124.2</ele>
        <time>2024-10-13T08:57:28Z</time>
      </trkpt>
      <trkpt lat="46.76689" lon="0.44656">
        <ele>125</ele>
        <time>2024-10-13T08:57:32Z</time>
      </trkpt>
      <trkpt lat="46.76691" lon="0.44669">
        <ele>125.2</ele>
        <time>2024-10-13T08:57:34Z</time>
      </trkpt>
      <trkpt lat="46.76691" lon="0.44681">
        <ele>125.4</ele>
        <time>2024-10-13T08:57:36Z</time>
      </trkpt>
      <trkpt lat="46.76693" lon="0.44705">
        <ele>125.6</ele>
        <time>2024-10-13T08:57:40Z</time>
      </trkpt>
      <trkpt lat="46.76698" lon="0.44732">
        <ele>126.2</ele>
        <time>2024-10-13T08:57:45Z</time>
      </trkpt>
      <trkpt lat="46.76707" lon="0.44765">
        <ele>126.2</ele>
        <time>2024-10-13T08:57:53Z</time>
      </trkpt>
      <trkpt lat="46.76709" lon="0.44767">
        <ele>126.2</ele>
        <time>2024-10-13T08:57:54Z</time>
      </trkpt>
      <trkpt lat="46.76713" lon="0.44769">
        <ele>126.2</ele>
        <time>2024-10-13T08:57:56Z</time>
      </trkpt>
      <trkpt lat="46.76716" lon="0.44767">
        <ele>126</ele>
        <time>2024-10-13T08:57:57Z</time>
      </trkpt>
      <trkpt lat="46.76723" lon="0.4476">
        <ele>126.2</ele>
        <time>2024-10-13T08:58:00Z</time>
      </trkpt>
      <trkpt lat="46.76729" lon="0.44756">
        <ele>126.2</ele>
        <time>2024-10-13T08:58:02Z</time>
      </trkpt>
      <trkpt lat="46.76746" lon="0.44744">
        <ele>126</ele>
        <time>2024-10-13T08:58:06Z</time>
      </trkpt>
      <trkpt lat="46.76752" lon="0.44734">
        <ele>125.6</ele>
        <time>2024-10-13T08:58:08Z</time>
      </trkpt>
      <trkpt lat="46.7677" lon="0.44693">
        <ele>125.4</ele>
        <time>2024-10-13T08:58:14Z</time>
      </trkpt>
      <trkpt lat="46.76773" lon="0.44652">
        <ele>125.6</ele>
        <time>2024-10-13T08:58:19Z</time>
      </trkpt>
      <trkpt lat="46.76772" lon="0.44637">
        <ele>125</ele>
        <time>2024-10-13T08:58:21Z</time>
      </trkpt>
      <trkpt lat="46.76771" lon="0.44603">
        <ele>124.6</ele>
        <time>2024-10-13T08:58:26Z</time>
      </trkpt>
      <trkpt lat="46.76774" lon="0.44569">
        <ele>125</ele>
        <time>2024-10-13T08:58:32Z</time>
      </trkpt>
      <trkpt lat="46.76776" lon="0.44563">
        <ele>125</ele>
        <time>2024-10-13T08:58:33Z</time>
      </trkpt>
      <trkpt lat="46.76779" lon="0.44558">
        <ele>125</ele>
        <time>2024-10-13T08:58:34Z</time>
      </trkpt>
      <trkpt lat="46.76785" lon="0.44552">
        <ele>125</ele>
        <time>2024-10-13T08:58:36Z</time>
      </trkpt>
      <trkpt lat="46.76803" lon="0.44543">
        <ele>124.6</ele>
        <time>2024-10-13T08:58:40Z</time>
      </trkpt>
      <trkpt lat="46.76823" lon="0.44534">
        <ele>123.8</ele>
        <time>2024-10-13T08:58:44Z</time>
      </trkpt>
      <trkpt lat="46.76829" lon="0.4453">
        <ele>123.4</ele>
        <time>2024-10-13T08:58:45Z</time>
      </trkpt>
      <trkpt lat="46.76862" lon="0.44512">
        <ele>122.8</ele>
        <time>2024-10-13T08:58:49Z</time>
      </trkpt>
      <trkpt lat="46.76871" lon="0.44508">
        <ele>122.8</ele>
        <time>2024-10-13T08:58:50Z</time>
      </trkpt>
      <trkpt lat="46.76904" lon="0.44497">
        <ele>121.4</ele>
        <time>2024-10-13T08:58:54Z</time>
      </trkpt>
      <trkpt lat="46.7692" lon="0.44491">
        <ele>120</ele>
        <time>2024-10-13T08:58:56Z</time>
      </trkpt>
      <trkpt lat="46.76928" lon="0.44489">
        <ele>119.4</ele>
        <time>2024-10-13T08:58:57Z</time>
      </trkpt>
      <trkpt lat="46.76935" lon="0.44488">
        <ele>119</ele>
        <time>2024-10-13T08:58:58Z</time>
      </trkpt>
      <trkpt lat="46.76961" lon="0.44482">
        <ele>117.6</ele>
        <time>2024-10-13T08:59:02Z</time>
      </trkpt>
      <trkpt lat="46.76965" lon="0.4448">
        <ele>116.8</ele>
        <time>2024-10-13T08:59:03Z</time>
      </trkpt>
      <trkpt lat="46.76968" lon="0.44477">
        <ele>116.4</ele>
        <time>2024-10-13T08:59:04Z</time>
      </trkpt>
      <trkpt lat="46.7697" lon="0.44473">
        <ele>116.2</ele>
        <time>2024-10-13T08:59:05Z</time>
      </trkpt>
      <trkpt lat="46.76971" lon="0.44458">
        <ele>116.2</ele>
        <time>2024-10-13T08:59:09Z</time>
      </trkpt>
      <trkpt lat="46.76971" lon="0.44437">
        <ele>117.6</ele>
        <time>2024-10-13T08:59:14Z</time>
      </trkpt>
      <trkpt lat="46.76973" lon="0.44424">
        <ele>118.2</ele>
        <time>2024-10-13T08:59:17Z</time>
      </trkpt>
      <trkpt lat="46.76973" lon="0.44419">
        <ele>118.8</ele>
        <time>2024-10-13T08:59:18Z</time>
      </trkpt>
      <trkpt lat="46.76976" lon="0.44403">
        <ele>119.8</ele>
        <time>2024-10-13T08:59:21Z</time>
      </trkpt>
      <trkpt lat="46.76978" lon="0.44397">
        <ele>120</ele>
        <time>2024-10-13T08:59:22Z</time>
      </trkpt>
      <trkpt lat="46.76979" lon="0.44387">
        <ele>120.8</ele>
        <time>2024-10-13T08:59:24Z</time>
      </trkpt>
      <trkpt lat="46.76982" lon="0.44373">
        <ele>121.2</ele>
        <time>2024-10-13T08:59:27Z</time>
      </trkpt>
      <trkpt lat="46.76983" lon="0.44369">
        <ele>121.4</ele>
        <time>2024-10-13T08:59:28Z</time>
      </trkpt>
      <trkpt lat="46.76983" lon="0.44355">
        <ele>121.8</ele>
        <time>2024-10-13T08:59:31Z</time>
      </trkpt>
      <trkpt lat="46.76983" lon="0.44339">
        <ele>122.4</ele>
        <time>2024-10-13T08:59:34Z</time>
      </trkpt>
      <trkpt lat="46.76984" lon="0.44312">
        <ele>122.8</ele>
        <time>2024-10-13T08:59:38Z</time>
      </trkpt>
      <trkpt lat="46.76986" lon="0.44272">
        <ele>123.4</ele>
        <time>2024-10-13T08:59:43Z</time>
      </trkpt>
      <trkpt lat="46.76987" lon="0.44242">
        <ele>123.8</ele>
        <time>2024-10-13T08:59:47Z</time>
      </trkpt>
      <trkpt lat="46.76986" lon="0.44235">
        <ele>123.8</ele>
        <time>2024-10-13T08:59:48Z</time>
      </trkpt>
      <trkpt lat="46.76985" lon="0.44221">
        <ele>124</ele>
        <time>2024-10-13T08:59:50Z</time>
      </trkpt>
      <trkpt lat="46.76988" lon="0.4421">
        <ele>124</ele>
        <time>2024-10-13T08:59:52Z</time>
      </trkpt>
      <trkpt lat="46.76998" lon="0.44202">
        <ele>124</ele>
        <time>2024-10-13T08:59:56Z</time>
      </trkpt>
      <trkpt lat="46.77023" lon="0.44201">
        <ele>124.2</ele>
        <time>2024-10-13T09:00:02Z</time>
      </trkpt>
      <trkpt lat="46.77037" lon="0.44199">
        <ele>123.8</ele>
        <time>2024-10-13T09:00:06Z</time>
      </trkpt>
      <trkpt lat="46.7704" lon="0.44197">
        <ele>123.6</ele>
        <time>2024-10-13T09:00:07Z</time>
      </trkpt>
      <trkpt lat="46.7705" lon="0.4419">
        <ele>123.4</ele>
        <time>2024-10-13T09:00:10Z</time>
      </trkpt>
      <trkpt lat="46.77062" lon="0.44186">
        <ele>123.2</ele>
        <time>2024-10-13T09:00:13Z</time>
      </trkpt>
      <trkpt lat="46.77089" lon="0.44178">
        <ele>122.2</ele>
        <time>2024-10-13T09:00:19Z</time>
      </trkpt>
      <trkpt lat="46.77095" lon="0.44175">
        <ele>122</ele>
        <time>2024-10-13T09:00:20Z</time>
      </trkpt>
      <trkpt lat="46.77133" lon="0.44164">
        <ele>121.8</ele>
        <time>2024-10-13T09:00:26Z</time>
      </trkpt>
      <trkpt lat="46.77175" lon="0.44162">
        <ele>122.6</ele>
        <time>2024-10-13T09:00:33Z</time>
      </trkpt>
      <trkpt lat="46.77194" lon="0.44159">
        <ele>123.2</ele>
        <time>2024-10-13T09:00:37Z</time>
      </trkpt>
      <trkpt lat="46.77201" lon="0.44158">
        <ele>123.4</ele>
        <time>2024-10-13T09:00:39Z</time>
      </trkpt>
      <trkpt lat="46.77214" lon="0.44155">
        <ele>124.2</ele>
        <time>2024-10-13T09:00:43Z</time>
      </trkpt>
      <trkpt lat="46.77223" lon="0.44151">
        <ele>124.4</ele>
        <time>2024-10-13T09:00:45Z</time>
      </trkpt>
      <trkpt lat="46.77256" lon="0.44131">
        <ele>125</ele>
        <time>2024-10-13T09:00:52Z</time>
      </trkpt>
      <trkpt lat="46.7726" lon="0.44129">
        <ele>125.2</ele>
        <time>2024-10-13T09:00:53Z</time>
      </trkpt>
      <trkpt lat="46.77274" lon="0.44123">
        <ele>125.4</ele>
        <time>2024-10-13T09:00:57Z</time>
      </trkpt>
      <trkpt lat="46.77284" lon="0.44121">
        <ele>125</ele>
        <time>2024-10-13T09:01:01Z</time>
      </trkpt>
      <trkpt lat="46.77291" lon="0.44118">
        <ele>125</ele>
        <time>2024-10-13T09:01:03Z</time>
      </trkpt>
      <trkpt lat="46.7732" lon="0.44119">
        <ele>125</ele>
        <time>2024-10-13T09:01:10Z</time>
      </trkpt>
      <trkpt lat="46.77339" lon="0.4412">
        <ele>124.2</ele>
        <time>2024-10-13T09:01:14Z</time>
      </trkpt>
      <trkpt lat="46.77354" lon="0.4412">
        <ele>123.8</ele>
        <time>2024-10-13T09:01:17Z</time>
      </trkpt>
      <trkpt lat="46.77376" lon="0.44117">
        <ele>123</ele>
        <time>2024-10-13T09:01:21Z</time>
      </trkpt>
      <trkpt lat="46.77392" lon="0.44111">
        <ele>121.4</ele>
        <time>2024-10-13T09:01:24Z</time>
      </trkpt>
      <trkpt lat="46.77403" lon="0.44105">
        <ele>120.8</ele>
        <time>2024-10-13T09:01:26Z</time>
      </trkpt>
      <trkpt lat="46.77411" lon="0.44096">
        <ele>120.6</ele>
        <time>2024-10-13T09:01:28Z</time>
      </trkpt>
      <trkpt lat="46.77413" lon="0.44092">
        <ele>120.2</ele>
        <time>2024-10-13T09:01:29Z</time>
      </trkpt>
      <trkpt lat="46.77416" lon="0.44087">
        <ele>120.2</ele>
        <time>2024-10-13T09:01:30Z</time>
      </trkpt>
      <trkpt lat="46.77421" lon="0.44079">
        <ele>120</ele>
        <time>2024-10-13T09:01:32Z</time>
      </trkpt>
      <trkpt lat="46.77423" lon="0.44074">
        <ele>119.8</ele>
        <time>2024-10-13T09:01:33Z</time>
      </trkpt>
      <trkpt lat="46.77429" lon="0.44059">
        <ele>119.6</ele>
        <time>2024-10-13T09:01:36Z</time>
      </trkpt>
      <trkpt lat="46.77436" lon="0.44049">
        <ele>118.6</ele>
        <time>2024-10-13T09:01:38Z</time>
      </trkpt>
      <trkpt lat="46.77439" lon="0.44044">
        <ele>117.8</ele>
        <time>2024-10-13T09:01:39Z</time>
      </trkpt>
      <trkpt lat="46.77442" lon="0.4404">
        <ele>116.8</ele>
        <time>2024-10-13T09:01:40Z</time>
      </trkpt>
      <trkpt lat="46.77447" lon="0.44033">
        <ele>115.8</ele>
        <time>2024-10-13T09:01:42Z</time>
      </trkpt>
      <trkpt lat="46.77447" lon="0.44031">
        <ele>115.6</ele>
        <time>2024-10-13T09:01:43Z</time>
      </trkpt>
      <trkpt lat="46.77447" lon="0.44028">
        <ele>115.6</ele>
        <time>2024-10-13T09:01:46Z</time>
      </trkpt>
      <trkpt lat="46.77444" lon="0.44021">
        <ele>116</ele>
        <time>2024-10-13T09:01:49Z</time>
      </trkpt>
      <trkpt lat="46.77441" lon="0.44016">
        <ele>116.8</ele>
        <time>2024-10-13T09:01:51Z</time>
      </trkpt>
      <trkpt lat="46.77439" lon="0.44013">
        <ele>118</ele>
        <time>2024-10-13T09:01:53Z</time>
      </trkpt>
      <trkpt lat="46.77436" lon="0.44008">
        <ele>118.8</ele>
        <time>2024-10-13T09:01:56Z</time>
      </trkpt>
      <trkpt lat="46.77434" lon="0.44005">
        <ele>119</ele>
        <time>2024-10-13T09:01:57Z</time>
      </trkpt>
      <trkpt lat="46.77423" lon="0.43988">
        <ele>120.4</ele>
        <time>2024-10-13T09:02:01Z</time>
      </trkpt>
      <trkpt lat="46.77423" lon="0.43988">
        <ele>120.8</ele>
        <time>2024-10-13T09:02:03Z</time>
      </trkpt>
      <trkpt lat="46.7742" lon="0.43985">
        <ele>121.4</ele>
        <time>2024-10-13T09:02:05Z</time>
      </trkpt>
      <trkpt lat="46.77413" lon="0.43978">
        <ele>122.4</ele>
        <time>2024-10-13T09:02:09Z</time>
      </trkpt>
      <trkpt lat="46.77405" lon="0.43971">
        <ele>123.6</ele>
        <time>2024-10-13T09:02:14Z</time>
      </trkpt>
      <trkpt lat="46.77399" lon="0.43963">
        <ele>124</ele>
        <time>2024-10-13T09:02:17Z</time>
      </trkpt>
      <trkpt lat="46.77389" lon="0.43953">
        <ele>124.6</ele>
        <time>2024-10-13T09:02:22Z</time>
      </trkpt>
      <trkpt lat="46.77382" lon="0.43947">
        <ele>125.4</ele>
        <time>2024-10-13T09:02:26Z</time>
      </trkpt>
      <trkpt lat="46.77379" lon="0.43943">
        <ele>125.8</ele>
        <time>2024-10-13T09:02:28Z</time>
      </trkpt>
      <trkpt lat="46.77373" lon="0.43934">
        <ele>126.4</ele>
        <time>2024-10-13T09:02:32Z</time>
      </trkpt>
      <trkpt lat="46.7737" lon="0.43929">
        <ele>127</ele>
        <time>2024-10-13T09:02:34Z</time>
      </trkpt>
      <trkpt lat="46.77359" lon="0.43917">
        <ele>127.6</ele>
        <time>2024-10-13T09:02:40Z</time>
      </trkpt>
      <trkpt lat="46.77353" lon="0.43907">
        <ele>128</ele>
        <time>2024-10-13T09:02:44Z</time>
      </trkpt>
      <trkpt lat="46.77347" lon="0.43895">
        <ele>128.8</ele>
        <time>2024-10-13T09:02:48Z</time>
      </trkpt>
      <trkpt lat="46.77345" lon="0.43889">
        <ele>129</ele>
        <time>2024-10-13T09:02:50Z</time>
      </trkpt>
      <trkpt lat="46.77336" lon="0.43875">
        <ele>129.6</ele>
        <time>2024-10-13T09:02:55Z</time>
      </trkpt>
      <trkpt lat="46.77316" lon="0.43851">
        <ele>130</ele>
        <time>2024-10-13T09:03:04Z</time>
      </trkpt>
      <trkpt lat="46.77313" lon="0.43847">
        <ele>130</ele>
        <time>2024-10-13T09:03:05Z</time>
      </trkpt>
      <trkpt lat="46.77299" lon="0.43829">
        <ele>130.4</ele>
        <time>2024-10-13T09:03:10Z</time>
      </trkpt>
      <trkpt lat="46.77277" lon="0.43807">
        <ele>131</ele>
        <time>2024-10-13T09:03:17Z</time>
      </trkpt>
      <trkpt lat="46.77262" lon="0.43793">
        <ele>130.6</ele>
        <time>2024-10-13T09:03:23Z</time>
      </trkpt>
      <trkpt lat="46.77259" lon="0.43789">
        <ele>130.6</ele>
        <time>2024-10-13T09:03:24Z</time>
      </trkpt>
      <trkpt lat="46.77242" lon="0.43765">
        <ele>130.4</ele>
        <time>2024-10-13T09:03:29Z</time>
      </trkpt>
      <trkpt lat="46.77227" lon="0.43737">
        <ele>130.8</ele>
        <time>2024-10-13T09:03:34Z</time>
      </trkpt>
      <trkpt lat="46.77225" lon="0.43732">
        <ele>130.8</ele>
        <time>2024-10-13T09:03:35Z</time>
      </trkpt>
      <trkpt lat="46.77226" lon="0.43709">
        <ele>131</ele>
        <time>2024-10-13T09:03:39Z</time>
      </trkpt>
      <trkpt lat="46.77232" lon="0.4365">
        <ele>131</ele>
        <time>2024-10-13T09:03:47Z</time>
      </trkpt>
      <trkpt lat="46.77234" lon="0.43596">
        <ele>131</ele>
        <time>2024-10-13T09:03:54Z</time>
      </trkpt>
      <trkpt lat="46.77235" lon="0.43572">
        <ele>131.2</ele>
        <time>2024-10-13T09:03:57Z</time>
      </trkpt>
      <trkpt lat="46.77235" lon="0.43549">
        <ele>131.2</ele>
        <time>2024-10-13T09:04:00Z</time>
      </trkpt>
      <trkpt lat="46.77234" lon="0.43542">
        <ele>131</ele>
        <time>2024-10-13T09:04:01Z</time>
      </trkpt>
      <trkpt lat="46.77229" lon="0.43503">
        <ele>130.2</ele>
        <time>2024-10-13T09:04:06Z</time>
      </trkpt>
      <trkpt lat="46.77225" lon="0.43487">
        <ele>130.2</ele>
        <time>2024-10-13T09:04:08Z</time>
      </trkpt>
      <trkpt lat="46.7722" lon="0.43453">
        <ele>130.2</ele>
        <time>2024-10-13T09:04:12Z</time>
      </trkpt>
      <trkpt lat="46.77208" lon="0.43399">
        <ele>130.6</ele>
        <time>2024-10-13T09:04:17Z</time>
      </trkpt>
      <trkpt lat="46.7719" lon="0.4333">
        <ele>130.2</ele>
        <time>2024-10-13T09:04:24Z</time>
      </trkpt>
      <trkpt lat="46.77176" lon="0.43292">
        <ele>129</ele>
        <time>2024-10-13T09:04:29Z</time>
      </trkpt>
      <trkpt lat="46.77169" lon="0.43271">
        <ele>128.2</ele>
        <time>2024-10-13T09:04:32Z</time>
      </trkpt>
      <trkpt lat="46.77169" lon="0.43267">
        <ele>128</ele>
        <time>2024-10-13T09:04:33Z</time>
      </trkpt>
      <trkpt lat="46.77169" lon="0.43263">
        <ele>128</ele>
        <time>2024-10-13T09:04:34Z</time>
      </trkpt>
      <trkpt lat="46.77169" lon="0.43259">
        <ele>128</ele>
        <time>2024-10-13T09:04:35Z</time>
      </trkpt>
      <trkpt lat="46.77169" lon="0.43255">
        <ele>127.8</ele>
        <time>2024-10-13T09:04:36Z</time>
      </trkpt>
      <trkpt lat="46.77168" lon="0.43247">
        <ele>127.2</ele>
        <time>2024-10-13T09:04:38Z</time>
      </trkpt>
      <trkpt lat="46.77167" lon="0.43243">
        <ele>126.8</ele>
        <time>2024-10-13T09:04:39Z</time>
      </trkpt>
      <trkpt lat="46.77168" lon="0.43239">
        <ele>126.6</ele>
        <time>2024-10-13T09:04:40Z</time>
      </trkpt>
      <trkpt lat="46.7717" lon="0.43231">
        <ele>126.4</ele>
        <time>2024-10-13T09:04:42Z</time>
      </trkpt>
      <trkpt lat="46.77171" lon="0.43222">
        <ele>125.6</ele>
        <time>2024-10-13T09:04:45Z</time>
      </trkpt>
      <trkpt lat="46.77173" lon="0.43217">
        <ele>125.4</ele>
        <time>2024-10-13T09:04:47Z</time>
      </trkpt>
      <trkpt lat="46.77178" lon="0.43198">
        <ele>124.4</ele>
        <time>2024-10-13T09:04:51Z</time>
      </trkpt>
      <trkpt lat="46.7718" lon="0.43194">
        <ele>124.2</ele>
        <time>2024-10-13T09:04:52Z</time>
      </trkpt>
      <trkpt lat="46.77183" lon="0.43188">
        <ele>123.4</ele>
        <time>2024-10-13T09:04:54Z</time>
      </trkpt>
      <trkpt lat="46.77182" lon="0.43179">
        <ele>122.2</ele>
        <time>2024-10-13T09:04:57Z</time>
      </trkpt>
      <trkpt lat="46.77182" lon="0.43175">
        <ele>122</ele>
        <time>2024-10-13T09:05:01Z</time>
      </trkpt>
      <trkpt lat="46.77179" lon="0.43174">
        <ele>122.2</ele>
        <time>2024-10-13T09:05:03Z</time>
      </trkpt>
      <trkpt lat="46.77175" lon="0.43166">
        <ele>122.8</ele>
        <time>2024-10-13T09:05:06Z</time>
      </trkpt>
      <trkpt lat="46.77173" lon="0.43157">
        <ele>123.4</ele>
        <time>2024-10-13T09:05:09Z</time>
      </trkpt>
      <trkpt lat="46.7717" lon="0.43152">
        <ele>123.6</ele>
        <time>2024-10-13T09:05:11Z</time>
      </trkpt>
      <trkpt lat="46.77165" lon="0.43145">
        <ele>123.6</ele>
        <time>2024-10-13T09:05:14Z</time>
      </trkpt>
      <trkpt lat="46.77162" lon="0.43137">
        <ele>123.6</ele>
        <time>2024-10-13T09:05:17Z</time>
      </trkpt>
      <trkpt lat="46.77162" lon="0.43129">
        <ele>123.6</ele>
        <time>2024-10-13T09:05:19Z</time>
      </trkpt>
      <trkpt lat="46.77162" lon="0.43123">
        <ele>123.6</ele>
        <time>2024-10-13T09:05:21Z</time>
      </trkpt>
      <trkpt lat="46.77166" lon="0.43123">
        <ele>122.8</ele>
        <time>2024-10-13T09:05:23Z</time>
      </trkpt>
      <trkpt lat="46.77169" lon="0.43122">
        <ele>122.4</ele>
        <time>2024-10-13T09:05:25Z</time>
      </trkpt>
      <trkpt lat="46.77171" lon="0.43119">
        <ele>121.6</ele>
        <time>2024-10-13T09:05:27Z</time>
      </trkpt>
      <trkpt lat="46.77172" lon="0.43116">
        <ele>121.4</ele>
        <time>2024-10-13T09:05:28Z</time>
      </trkpt>
      <trkpt lat="46.77171" lon="0.43114">
        <ele>121.2</ele>
        <time>2024-10-13T09:05:29Z</time>
      </trkpt>
      <trkpt lat="46.77172" lon="0.43104">
        <ele>120.8</ele>
        <time>2024-10-13T09:05:32Z</time>
      </trkpt>
      <trkpt lat="46.7717" lon="0.43098">
        <ele>120.8</ele>
        <time>2024-10-13T09:05:33Z</time>
      </trkpt>
      <trkpt lat="46.77169" lon="0.43094">
        <ele>120.8</ele>
        <time>2024-10-13T09:05:34Z</time>
      </trkpt>
      <trkpt lat="46.77167" lon="0.43086">
        <ele>120.8</ele>
        <time>2024-10-13T09:05:37Z</time>
      </trkpt>
      <trkpt lat="46.77165" lon="0.43074">
        <ele>120.8</ele>
        <time>2024-10-13T09:05:41Z</time>
      </trkpt>
      <trkpt lat="46.77163" lon="0.43071">
        <ele>120.8</ele>
        <time>2024-10-13T09:05:42Z</time>
      </trkpt>
      <trkpt lat="46.77161" lon="0.43067">
        <ele>121</ele>
        <time>2024-10-13T09:05:43Z</time>
      </trkpt>
      <trkpt lat="46.77156" lon="0.43055">
        <ele>121.2</ele>
        <time>2024-10-13T09:05:45Z</time>
      </trkpt>
      <trkpt lat="46.77154" lon="0.43047">
        <ele>121.6</ele>
        <time>2024-10-13T09:05:47Z</time>
      </trkpt>
      <trkpt lat="46.77148" lon="0.43024">
        <ele>121.2</ele>
        <time>2024-10-13T09:05:53Z</time>
      </trkpt>
      <trkpt lat="46.77138" lon="0.43005">
        <ele>121.8</ele>
        <time>2024-10-13T09:05:58Z</time>
      </trkpt>
      <trkpt lat="46.77137" lon="0.43">
        <ele>122.2</ele>
        <time>2024-10-13T09:05:59Z</time>
      </trkpt>
      <trkpt lat="46.77128" lon="0.42983">
        <ele>123.2</ele>
        <time>2024-10-13T09:06:07Z</time>
      </trkpt>
      <trkpt lat="46.77122" lon="0.42975">
        <ele>123.4</ele>
        <time>2024-10-13T09:06:10Z</time>
      </trkpt>
      <trkpt lat="46.77115" lon="0.42964">
        <ele>123.4</ele>
        <time>2024-10-13T09:06:13Z</time>
      </trkpt>
      <trkpt lat="46.77112" lon="0.42959">
        <ele>123.2</ele>
        <time>2024-10-13T09:06:15Z</time>
      </trkpt>
      <trkpt lat="46.77109" lon="0.42952">
        <ele>123.2</ele>
        <time>2024-10-13T09:06:17Z</time>
      </trkpt>
      <trkpt lat="46.77108" lon="0.42951">
        <ele>123.6</ele>
        <time>2024-10-13T09:06:18Z</time>
      </trkpt>
      <trkpt lat="46.77097" lon="0.42944">
        <ele>124.4</ele>
        <time>2024-10-13T09:06:22Z</time>
      </trkpt>
      <trkpt lat="46.77095" lon="0.42943">
        <ele>124.6</ele>
        <time>2024-10-13T09:06:23Z</time>
      </trkpt>
      <trkpt lat="46.77093" lon="0.42941">
        <ele>124.8</ele>
        <time>2024-10-13T09:06:24Z</time>
      </trkpt>
      <trkpt lat="46.77086" lon="0.42928">
        <ele>125</ele>
        <time>2024-10-13T09:06:28Z</time>
      </trkpt>
      <trkpt lat="46.77083" lon="0.4292">
        <ele>125.2</ele>
        <time>2024-10-13T09:06:30Z</time>
      </trkpt>
      <trkpt lat="46.77081" lon="0.42909">
        <ele>125.2</ele>
        <time>2024-10-13T09:06:33Z</time>
      </trkpt>
      <trkpt lat="46.77078" lon="0.42899">
        <ele>124.4</ele>
        <time>2024-10-13T09:06:36Z</time>
      </trkpt>
      <trkpt lat="46.77076" lon="0.42894">
        <ele>124</ele>
        <time>2024-10-13T09:06:38Z</time>
      </trkpt>
      <trkpt lat="46.77065" lon="0.42888">
        <ele>124.8</ele>
        <time>2024-10-13T09:06:42Z</time>
      </trkpt>
      <trkpt lat="46.77063" lon="0.42885">
        <ele>125</ele>
        <time>2024-10-13T09:06:43Z</time>
      </trkpt>
      <trkpt lat="46.77059" lon="0.42873">
        <ele>125.2</ele>
        <time>2024-10-13T09:06:46Z</time>
      </trkpt>
      <trkpt lat="46.77057" lon="0.42863">
        <ele>125.4</ele>
        <time>2024-10-13T09:06:48Z</time>
      </trkpt>
      <trkpt lat="46.77051" lon="0.42847">
        <ele>125.6</ele>
        <time>2024-10-13T09:06:52Z</time>
      </trkpt>
      <trkpt lat="46.77045" lon="0.42824">
        <ele>126</ele>
        <time>2024-10-13T09:06:57Z</time>
      </trkpt>
      <trkpt lat="46.77042" lon="0.42803">
        <ele>126.2</ele>
        <time>2024-10-13T09:07:02Z</time>
      </trkpt>
      <trkpt lat="46.77041" lon="0.42801">
        <ele>126.2</ele>
        <time>2024-10-13T09:07:03Z</time>
      </trkpt>
      <trkpt lat="46.77035" lon="0.42788">
        <ele>126.2</ele>
        <time>2024-10-13T09:07:07Z</time>
      </trkpt>
      <trkpt lat="46.77022" lon="0.42775">
        <ele>126.2</ele>
        <time>2024-10-13T09:07:11Z</time>
      </trkpt>
      <trkpt lat="46.7701" lon="0.42766">
        <ele>126.6</ele>
        <time>2024-10-13T09:07:16Z</time>
      </trkpt>
      <trkpt lat="46.77009" lon="0.42761">
        <ele>126.8</ele>
        <time>2024-10-13T09:07:17Z</time>
      </trkpt>
      <trkpt lat="46.77009" lon="0.42746">
        <ele>126.4</ele>
        <time>2024-10-13T09:07:21Z</time>
      </trkpt>
      <trkpt lat="46.77007" lon="0.42742">
        <ele>126.2</ele>
        <time>2024-10-13T09:07:22Z</time>
      </trkpt>
      <trkpt lat="46.77004" lon="0.42735">
        <ele>126</ele>
        <time>2024-10-13T09:07:24Z</time>
      </trkpt>
      <trkpt lat="46.77003" lon="0.42731">
        <ele>126</ele>
        <time>2024-10-13T09:07:25Z</time>
      </trkpt>
      <trkpt lat="46.76996" lon="0.42721">
        <ele>126.2</ele>
        <time>2024-10-13T09:07:27Z</time>
      </trkpt>
      <trkpt lat="46.76992" lon="0.42709">
        <ele>126.2</ele>
        <time>2024-10-13T09:07:29Z</time>
      </trkpt>
      <trkpt lat="46.76988" lon="0.42699">
        <ele>125.8</ele>
        <time>2024-10-13T09:07:31Z</time>
      </trkpt>
      <trkpt lat="46.76985" lon="0.42696">
        <ele>125.6</ele>
        <time>2024-10-13T09:07:32Z</time>
      </trkpt>
      <trkpt lat="46.76982" lon="0.42694">
        <ele>125.6</ele>
        <time>2024-10-13T09:07:33Z</time>
      </trkpt>
      <trkpt lat="46.76967" lon="0.42689">
        <ele>126.2</ele>
        <time>2024-10-13T09:07:38Z</time>
      </trkpt>
      <trkpt lat="46.76955" lon="0.42684">
        <ele>126.6</ele>
        <time>2024-10-13T09:07:43Z</time>
      </trkpt>
      <trkpt lat="46.76952" lon="0.42683">
        <ele>126.8</ele>
        <time>2024-10-13T09:07:44Z</time>
      </trkpt>
      <trkpt lat="46.7694" lon="0.42681">
        <ele>128</ele>
        <time>2024-10-13T09:07:49Z</time>
      </trkpt>
      <trkpt lat="46.76938" lon="0.42681">
        <ele>128.2</ele>
        <time>2024-10-13T09:07:50Z</time>
      </trkpt>
      <trkpt lat="46.76915" lon="0.42675">
        <ele>128.6</ele>
        <time>2024-10-13T09:07:56Z</time>
      </trkpt>
      <trkpt lat="46.7691" lon="0.42673">
        <ele>128.6</ele>
        <time>2024-10-13T09:07:57Z</time>
      </trkpt>
      <trkpt lat="46.76891" lon="0.42666">
        <ele>129</ele>
        <time>2024-10-13T09:08:01Z</time>
      </trkpt>
      <trkpt lat="46.76886" lon="0.42664">
        <ele>129</ele>
        <time>2024-10-13T09:08:02Z</time>
      </trkpt>
      <trkpt lat="46.76855" lon="0.42649">
        <ele>129.4</ele>
        <time>2024-10-13T09:08:08Z</time>
      </trkpt>
      <trkpt lat="46.7685" lon="0.42645">
        <ele>129.4</ele>
        <time>2024-10-13T09:08:09Z</time>
      </trkpt>
      <trkpt lat="46.76838" lon="0.42629">
        <ele>129.4</ele>
        <time>2024-10-13T09:08:12Z</time>
      </trkpt>
      <trkpt lat="46.76832" lon="0.42616">
        <ele>129.4</ele>
        <time>2024-10-13T09:08:14Z</time>
      </trkpt>
      <trkpt lat="46.76824" lon="0.42594">
        <ele>129.6</ele>
        <time>2024-10-13T09:08:17Z</time>
      </trkpt>
      <trkpt lat="46.76813" lon="0.42565">
        <ele>129.4</ele>
        <time>2024-10-13T09:08:21Z</time>
      </trkpt>
      <trkpt lat="46.76805" lon="0.42546">
        <ele>129.2</ele>
        <time>2024-10-13T09:08:24Z</time>
      </trkpt>
      <trkpt lat="46.76802" lon="0.42539">
        <ele>129.4</ele>
        <time>2024-10-13T09:08:25Z</time>
      </trkpt>
      <trkpt lat="46.76785" lon="0.42504">
        <ele>129.8</ele>
        <time>2024-10-13T09:08:30Z</time>
      </trkpt>
      <trkpt lat="46.76766" lon="0.42451">
        <ele>129.6</ele>
        <time>2024-10-13T09:08:37Z</time>
      </trkpt>
      <trkpt lat="46.76746" lon="0.424">
        <ele>130</ele>
        <time>2024-10-13T09:08:44Z</time>
      </trkpt>
      <trkpt lat="46.76745" lon="0.42389">
        <ele>129.8</ele>
        <time>2024-10-13T09:08:46Z</time>
      </trkpt>
      <trkpt lat="46.76746" lon="0.42385">
        <ele>129.8</ele>
        <time>2024-10-13T09:08:47Z</time>
      </trkpt>
      <trkpt lat="46.76748" lon="0.42382">
        <ele>129.8</ele>
        <time>2024-10-13T09:08:48Z</time>
      </trkpt>
      <trkpt lat="46.76751" lon="0.42378">
        <ele>129.4</ele>
        <time>2024-10-13T09:08:50Z</time>
      </trkpt>
      <trkpt lat="46.76753" lon="0.42376">
        <ele>129.2</ele>
        <time>2024-10-13T09:08:51Z</time>
      </trkpt>
      <trkpt lat="46.76756" lon="0.42368">
        <ele>128.8</ele>
        <time>2024-10-13T09:08:56Z</time>
      </trkpt>
      <trkpt lat="46.76757" lon="0.42366">
        <ele>128.8</ele>
        <time>2024-10-13T09:08:57Z</time>
      </trkpt>
      <trkpt lat="46.76756" lon="0.42362">
        <ele>128.4</ele>
        <time>2024-10-13T09:09:00Z</time>
      </trkpt>
      <trkpt lat="46.76753" lon="0.4236">
        <ele>128.2</ele>
        <time>2024-10-13T09:09:02Z</time>
      </trkpt>
      <trkpt lat="46.76746" lon="0.42351">
        <ele>128.8</ele>
        <time>2024-10-13T09:09:06Z</time>
      </trkpt>
      <trkpt lat="46.76744" lon="0.42349">
        <ele>129</ele>
        <time>2024-10-13T09:09:07Z</time>
      </trkpt>
      <trkpt lat="46.76742" lon="0.42347">
        <ele>129</ele>
        <time>2024-10-13T09:09:08Z</time>
      </trkpt>
      <trkpt lat="46.76739" lon="0.42336">
        <ele>129</ele>
        <time>2024-10-13T09:09:11Z</time>
      </trkpt>
      <trkpt lat="46.76735" lon="0.42316">
        <ele>128.8</ele>
        <time>2024-10-13T09:09:17Z</time>
      </trkpt>
      <trkpt lat="46.76735" lon="0.42313">
        <ele>128.8</ele>
        <time>2024-10-13T09:09:18Z</time>
      </trkpt>
      <trkpt lat="46.76738" lon="0.42305">
        <ele>128.8</ele>
        <time>2024-10-13T09:09:21Z</time>
      </trkpt>
      <trkpt lat="46.76741" lon="0.42299">
        <ele>128</ele>
        <time>2024-10-13T09:09:24Z</time>
      </trkpt>
      <trkpt lat="46.76745" lon="0.42294">
        <ele>127.8</ele>
        <time>2024-10-13T09:09:26Z</time>
      </trkpt>
      <trkpt lat="46.76749" lon="0.4229">
        <ele>127.8</ele>
        <time>2024-10-13T09:09:28Z</time>
      </trkpt>
      <trkpt lat="46.76755" lon="0.4228">
        <ele>127.4</ele>
        <time>2024-10-13T09:09:31Z</time>
      </trkpt>
      <trkpt lat="46.76757" lon="0.42276">
        <ele>127.4</ele>
        <time>2024-10-13T09:09:32Z</time>
      </trkpt>
      <trkpt lat="46.76758" lon="0.42273">
        <ele>127.4</ele>
        <time>2024-10-13T09:09:33Z</time>
      </trkpt>
      <trkpt lat="46.7676" lon="0.42267">
        <ele>127.2</ele>
        <time>2024-10-13T09:09:35Z</time>
      </trkpt>
      <trkpt lat="46.76761" lon="0.42266">
        <ele>127</ele>
        <time>2024-10-13T09:09:36Z</time>
      </trkpt>
      <trkpt lat="46.76763" lon="0.42266">
        <ele>126.6</ele>
        <time>2024-10-13T09:09:37Z</time>
      </trkpt>
      <trkpt lat="46.76773" lon="0.42263">
        <ele>126.2</ele>
        <time>2024-10-13T09:09:41Z</time>
      </trkpt>
      <trkpt lat="46.76776" lon="0.42258">
        <ele>125.8</ele>
        <time>2024-10-13T09:09:43Z</time>
      </trkpt>
      <trkpt lat="46.76779" lon="0.42253">
        <ele>125.8</ele>
        <time>2024-10-13T09:09:45Z</time>
      </trkpt>
      <trkpt lat="46.76781" lon="0.42252">
        <ele>125.6</ele>
        <time>2024-10-13T09:09:46Z</time>
      </trkpt>
      <trkpt lat="46.76787" lon="0.42248">
        <ele>125.6</ele>
        <time>2024-10-13T09:09:49Z</time>
      </trkpt>
      <trkpt lat="46.76789" lon="0.42247">
        <ele>125.6</ele>
        <time>2024-10-13T09:09:50Z</time>
      </trkpt>
      <trkpt lat="46.76792" lon="0.42244">
        <ele>125</ele>
        <time>2024-10-13T09:09:52Z</time>
      </trkpt>
      <trkpt lat="46.76794" lon="0.42244">
        <ele>124.4</ele>
        <time>2024-10-13T09:09:54Z</time>
      </trkpt>
      <trkpt lat="46.76795" lon="0.42243">
        <ele>124.4</ele>
        <time>2024-10-13T09:09:55Z</time>
      </trkpt>
      <trkpt lat="46.76796" lon="0.42242">
        <ele>124.4</ele>
        <time>2024-10-13T09:09:56Z</time>
      </trkpt>
      <trkpt lat="46.76798" lon="0.42242">
        <ele>124.6</ele>
        <time>2024-10-13T09:09:59Z</time>
      </trkpt>
      <trkpt lat="46.76802" lon="0.42242">
        <ele>124.6</ele>
        <time>2024-10-13T09:10:02Z</time>
      </trkpt>
      <trkpt lat="46.76807" lon="0.42245">
        <ele>124.2</ele>
        <time>2024-10-13T09:10:05Z</time>
      </trkpt>
      <trkpt lat="46.76813" lon="0.42245">
        <ele>124</ele>
        <time>2024-10-13T09:10:07Z</time>
      </trkpt>
      <trkpt lat="46.76817" lon="0.42248">
        <ele>123.8</ele>
        <time>2024-10-13T09:10:09Z</time>
      </trkpt>
      <trkpt lat="46.7682" lon="0.42253">
        <ele>123.4</ele>
        <time>2024-10-13T09:10:11Z</time>
      </trkpt>
      <trkpt lat="46.7682" lon="0.42255">
        <ele>123.4</ele>
        <time>2024-10-13T09:10:12Z</time>
      </trkpt>
      <trkpt lat="46.76822" lon="0.42264">
        <ele>123</ele>
        <time>2024-10-13T09:10:16Z</time>
      </trkpt>
      <trkpt lat="46.76824" lon="0.42281">
        <ele>124.4</ele>
        <time>2024-10-13T09:10:22Z</time>
      </trkpt>
      <trkpt lat="46.76824" lon="0.42284">
        <ele>124.4</ele>
        <time>2024-10-13T09:10:23Z</time>
      </trkpt>
      <trkpt lat="46.76826" lon="0.42302">
        <ele>125.6</ele>
        <time>2024-10-13T09:10:29Z</time>
      </trkpt>
      <trkpt lat="46.76827" lon="0.42306">
        <ele>125.6</ele>
        <time>2024-10-13T09:10:30Z</time>
      </trkpt>
      <trkpt lat="46.76834" lon="0.42317">
        <ele>125.2</ele>
        <time>2024-10-13T09:10:35Z</time>
      </trkpt>
      <trkpt lat="46.76843" lon="0.4234">
        <ele>125.2</ele>
        <time>2024-10-13T09:10:41Z</time>
      </trkpt>
      <trkpt lat="46.76849" lon="0.42364">
        <ele>125.2</ele>
        <time>2024-10-13T09:10:46Z</time>
      </trkpt>
      <trkpt lat="46.7685" lon="0.42368">
        <ele>125.4</ele>
        <time>2024-10-13T09:10:47Z</time>
      </trkpt>
      <trkpt lat="46.76851" lon="0.42378">
        <ele>125.6</ele>
        <time>2024-10-13T09:10:49Z</time>
      </trkpt>
      <trkpt lat="46.76855" lon="0.42389">
        <ele>125.4</ele>
        <time>2024-10-13T09:10:51Z</time>
      </trkpt>
      <trkpt lat="46.76857" lon="0.42391">
        <ele>125.2</ele>
        <time>2024-10-13T09:10:52Z</time>
      </trkpt>
      <trkpt lat="46.76864" lon="0.42394">
        <ele>124.6</ele>
        <time>2024-10-13T09:10:55Z</time>
      </trkpt>
      <trkpt lat="46.76867" lon="0.42396">
        <ele>124.2</ele>
        <time>2024-10-13T09:10:56Z</time>
      </trkpt>
      <trkpt lat="46.76869" lon="0.42398">
        <ele>123.6</ele>
        <time>2024-10-13T09:10:57Z</time>
      </trkpt>
      <trkpt lat="46.76874" lon="0.42404">
        <ele>123</ele>
        <time>2024-10-13T09:10:59Z</time>
      </trkpt>
      <trkpt lat="46.7688" lon="0.42415">
        <ele>123</ele>
        <time>2024-10-13T09:11:02Z</time>
      </trkpt>
      <trkpt lat="46.76887" lon="0.42437">
        <ele>123.6</ele>
        <time>2024-10-13T09:11:08Z</time>
      </trkpt>
      <trkpt lat="46.76893" lon="0.42448">
        <ele>124</ele>
        <time>2024-10-13T09:11:11Z</time>
      </trkpt>
      <trkpt lat="46.76896" lon="0.42458">
        <ele>124</ele>
        <time>2024-10-13T09:11:13Z</time>
      </trkpt>
      <trkpt lat="46.76897" lon="0.42463">
        <ele>124</ele>
        <time>2024-10-13T09:11:14Z</time>
      </trkpt>
      <trkpt lat="46.76898" lon="0.4247">
        <ele>124.4</ele>
        <time>2024-10-13T09:11:16Z</time>
      </trkpt>
      <trkpt lat="46.76896" lon="0.42473">
        <ele>124.6</ele>
        <time>2024-10-13T09:11:17Z</time>
      </trkpt>
      <trkpt lat="46.76893" lon="0.42477">
        <ele>125</ele>
        <time>2024-10-13T09:11:21Z</time>
      </trkpt>
      <trkpt lat="46.76893" lon="0.42483">
        <ele>125</ele>
        <time>2024-10-13T09:11:23Z</time>
      </trkpt>
      <trkpt lat="46.76894" lon="0.42491">
        <ele>125</ele>
        <time>2024-10-13T09:11:25Z</time>
      </trkpt>
      <trkpt lat="46.76898" lon="0.42502">
        <ele>125.2</ele>
        <time>2024-10-13T09:11:27Z</time>
      </trkpt>
      <trkpt lat="46.7691" lon="0.42537">
        <ele>126</ele>
        <time>2024-10-13T09:11:33Z</time>
      </trkpt>
      <trkpt lat="46.76912" lon="0.4254">
        <ele>126</ele>
        <time>2024-10-13T09:11:34Z</time>
      </trkpt>
      <trkpt lat="46.76913" lon="0.4255">
        <ele>126</ele>
        <time>2024-10-13T09:11:36Z</time>
      </trkpt>
      <trkpt lat="46.76914" lon="0.42555">
        <ele>126</ele>
        <time>2024-10-13T09:11:38Z</time>
      </trkpt>
      <trkpt lat="46.76919" lon="0.42555">
        <ele>126</ele>
        <time>2024-10-13T09:11:40Z</time>
      </trkpt>
      <trkpt lat="46.76923" lon="0.42549">
        <ele>126</ele>
        <time>2024-10-13T09:11:42Z</time>
      </trkpt>
      <trkpt lat="46.76932" lon="0.42537">
        <ele>124.4</ele>
        <time>2024-10-13T09:11:45Z</time>
      </trkpt>
      <trkpt lat="46.76935" lon="0.42533">
        <ele>123.6</ele>
        <time>2024-10-13T09:11:46Z</time>
      </trkpt>
      <trkpt lat="46.76942" lon="0.42525">
        <ele>121.4</ele>
        <time>2024-10-13T09:11:48Z</time>
      </trkpt>
      <trkpt lat="46.76945" lon="0.42521">
        <ele>120</ele>
        <time>2024-10-13T09:11:49Z</time>
      </trkpt>
      <trkpt lat="46.76948" lon="0.42517">
        <ele>119.2</ele>
        <time>2024-10-13T09:11:50Z</time>
      </trkpt>
      <trkpt lat="46.7695" lon="0.42513">
        <ele>118.2</ele>
        <time>2024-10-13T09:11:51Z</time>
      </trkpt>
      <trkpt lat="46.76954" lon="0.42507">
        <ele>116.6</ele>
        <time>2024-10-13T09:11:53Z</time>
      </trkpt>
      <trkpt lat="46.76956" lon="0.42504">
        <ele>114.8</ele>
        <time>2024-10-13T09:11:55Z</time>
      </trkpt>
      <trkpt lat="46.76957" lon="0.42503">
        <ele>114.4</ele>
        <time>2024-10-13T09:11:56Z</time>
      </trkpt>
      <trkpt lat="46.7696" lon="0.42503">
        <ele>113.6</ele>
        <time>2024-10-13T09:11:57Z</time>
      </trkpt>
      <trkpt lat="46.76966" lon="0.42502">
        <ele>112.6</ele>
        <time>2024-10-13T09:11:59Z</time>
      </trkpt>
      <trkpt lat="46.76969" lon="0.42498">
        <ele>111.6</ele>
        <time>2024-10-13T09:12:00Z</time>
      </trkpt>
      <trkpt lat="46.76973" lon="0.42494">
        <ele>111</ele>
        <time>2024-10-13T09:12:01Z</time>
      </trkpt>
      <trkpt lat="46.76983" lon="0.42488">
        <ele>109.2</ele>
        <time>2024-10-13T09:12:03Z</time>
      </trkpt>
      <trkpt lat="46.76988" lon="0.42488">
        <ele>108.2</ele>
        <time>2024-10-13T09:12:04Z</time>
      </trkpt>
      <trkpt lat="46.76992" lon="0.42491">
        <ele>107.6</ele>
        <time>2024-10-13T09:12:05Z</time>
      </trkpt>
      <trkpt lat="46.77" lon="0.42502">
        <ele>107</ele>
        <time>2024-10-13T09:12:07Z</time>
      </trkpt>
      <trkpt lat="46.7703" lon="0.42536">
        <ele>106.8</ele>
        <time>2024-10-13T09:12:14Z</time>
      </trkpt>
      <trkpt lat="46.77036" lon="0.42548">
        <ele>106.6</ele>
        <time>2024-10-13T09:12:16Z</time>
      </trkpt>
      <trkpt lat="46.77044" lon="0.42564">
        <ele>106.6</ele>
        <time>2024-10-13T09:12:19Z</time>
      </trkpt>
      <trkpt lat="46.77049" lon="0.42575">
        <ele>106.6</ele>
        <time>2024-10-13T09:12:21Z</time>
      </trkpt>
      <trkpt lat="46.77056" lon="0.42589">
        <ele>106.4</ele>
        <time>2024-10-13T09:12:24Z</time>
      </trkpt>
      <trkpt lat="46.77062" lon="0.42596">
        <ele>106.2</ele>
        <time>2024-10-13T09:12:26Z</time>
      </trkpt>
      <trkpt lat="46.77066" lon="0.42598">
        <ele>105.2</ele>
        <time>2024-10-13T09:12:27Z</time>
      </trkpt>
      <trkpt lat="46.77075" lon="0.42599">
        <ele>104</ele>
        <time>2024-10-13T09:12:29Z</time>
      </trkpt>
      <trkpt lat="46.77082" lon="0.42598">
        <ele>103.4</ele>
        <time>2024-10-13T09:12:30Z</time>
      </trkpt>
      <trkpt lat="46.7709" lon="0.42596">
        <ele>102.8</ele>
        <time>2024-10-13T09:12:31Z</time>
      </trkpt>
      <trkpt lat="46.77097" lon="0.42594">
        <ele>101.8</ele>
        <time>2024-10-13T09:12:32Z</time>
      </trkpt>
      <trkpt lat="46.77114" lon="0.42586">
        <ele>100</ele>
        <time>2024-10-13T09:12:34Z</time>
      </trkpt>
      <trkpt lat="46.77122" lon="0.42584">
        <ele>98.8</ele>
        <time>2024-10-13T09:12:35Z</time>
      </trkpt>
      <trkpt lat="46.77129" lon="0.42584">
        <ele>97.6</ele>
        <time>2024-10-13T09:12:36Z</time>
      </trkpt>
      <trkpt lat="46.77137" lon="0.42587">
        <ele>97</ele>
        <time>2024-10-13T09:12:37Z</time>
      </trkpt>
      <trkpt lat="46.77145" lon="0.42591">
        <ele>96</ele>
        <time>2024-10-13T09:12:38Z</time>
      </trkpt>
      <trkpt lat="46.77152" lon="0.42595">
        <ele>94.8</ele>
        <time>2024-10-13T09:12:39Z</time>
      </trkpt>
      <trkpt lat="46.77158" lon="0.42598">
        <ele>93.8</ele>
        <time>2024-10-13T09:12:40Z</time>
      </trkpt>
      <trkpt lat="46.77168" lon="0.42602">
        <ele>92.4</ele>
        <time>2024-10-13T09:12:42Z</time>
      </trkpt>
      <trkpt lat="46.77186" lon="0.42602">
        <ele>91.2</ele>
        <time>2024-10-13T09:12:45Z</time>
      </trkpt>
      <trkpt lat="46.77192" lon="0.426">
        <ele>90.8</ele>
        <time>2024-10-13T09:12:46Z</time>
      </trkpt>
      <trkpt lat="46.77201" lon="0.42594">
        <ele>88.8</ele>
        <time>2024-10-13T09:12:48Z</time>
      </trkpt>
      <trkpt lat="46.77206" lon="0.42587">
        <ele>87</ele>
        <time>2024-10-13T09:12:50Z</time>
      </trkpt>
      <trkpt lat="46.77206" lon="0.4258">
        <ele>85.8</ele>
        <time>2024-10-13T09:12:52Z</time>
      </trkpt>
      <trkpt lat="46.77205" lon="0.42577">
        <ele>85.4</ele>
        <time>2024-10-13T09:12:53Z</time>
      </trkpt>
      <trkpt lat="46.77201" lon="0.42565">
        <ele>85.2</ele>
        <time>2024-10-13T09:12:59Z</time>
      </trkpt>
      <trkpt lat="46.77199" lon="0.42563">
        <ele>85.4</ele>
        <time>2024-10-13T09:13:08Z</time>
      </trkpt>
      <trkpt lat="46.77198" lon="0.42562">
        <ele>85</ele>
        <time>2024-10-13T09:13:26Z</time>
      </trkpt>
      <trkpt lat="46.77198" lon="0.42563">
        <ele>85</ele>
        <time>2024-10-13T09:13:45Z</time>
      </trkpt>
      <trkpt lat="46.77197" lon="0.42562">
        <ele>85</ele>
        <time>2024-10-13T09:14:02Z</time>
      </trkpt>
      <trkpt lat="46.77198" lon="0.42562">
        <ele>85</ele>
        <time>2024-10-13T09:14:07Z</time>
      </trkpt>
    </trkseg>
  </trk>
</gpx>